# Wetter Temperatur Luftdruck Luftfeuchtigkeit Sichtweite Windgeschwindigkeit Windrichtung Zeit
1 Clouds 3 1016 80 10000 9.48 200 13:25 22.04.2021
2 Clouds 3 1016 80 10000 9.48 200 12:56 22.04.2021
3 Clouds 3 1016 80 10000 9.48 200 12:37 22.04.2021
4 Clouds 3 1016 80 10000 9.48 200 12:37 22.04.2021
5 Clouds 3 1016 82 10000 9.13 198 12:19 22.04.2021
6 Clouds 3 1016 82 10000 9.13 198 11:43 22.04.2021
7 Clouds 3 1016 85 10000 8.42 191 11:22 22.04.2021
8 Clouds 3 1016 85 10000 8.42 191 10:43 22.04.2021
9 Clouds 3 1016 85 10000 8.42 191 10:43 22.04.2021
10 Clouds 3 1017 86 10000 8.09 188 10:21 22.04.2021
11 Clouds 3 1017 86 10000 8.09 188 09:41 22.04.2021
12 Clouds 2 1017 87 10000 7.94 186 09:19 22.04.2021
13 Clouds 2 1017 87 10000 7.94 186 08:38 22.04.2021
14 Clouds 2 1018 89 10000 7.83 186 08:18 22.04.2021
15 Clouds 2 1018 90 10000 7.9 188 07:38 22.04.2021
16 Clouds 2 1018 95 10000 7.46 185 07:19 22.04.2021
17 Clouds 2 1019 97 556 7.62 194 06:23 22.04.2021
18 Clouds 1 1020 98 226 7.76 197 05:25 22.04.2021
19 Clouds 1 1021 96 1558 6.47 200 03:25 22.04.2021
20 Clouds 2 1022 93 10000 8.42 217 00:45 22.04.2021
21 Clouds 1 1022 93 10000 8.59 214 23:44 21.04.2021
22 Clouds 0 1022 95 4135 8.78 214 23:23 21.04.2021
23 Clouds 0 1022 95 4135 8.78 214 22:41 21.04.2021
24 Clouds 0 1022 97 329 8.56 212 22:23 21.04.2021
25 Clouds 0 1022 97 329 8.56 212 21:42 21.04.2021
26 Clouds 0 1022 97 329 8.56 212 21:42 21.04.2021
27 Clouds -1 1022 96 1509 7.88 212 21:23 21.04.2021
28 Clouds -1 1022 96 1509 7.88 212 21:23 21.04.2021
29 Clouds -1 1022 96 1509 7.88 212 20:40 21.04.2021
30 Clouds -1 1022 91 10000 7.63 211 20:18 21.04.2021
31 Clouds -1 1023 91 10000 7.57 212 19:41 21.04.2021
32 Clouds 0 1023 89 10000 7.44 214 19:23 21.04.2021
33 Clouds 0 1023 89 10000 7.44 214 18:45 21.04.2021
34 Clouds 1 1023 88 10000 7.49 217 18:24 21.04.2021
35 Clouds 1 1023 88 10000 7.49 217 17:46 21.04.2021
36 Clouds 1 1023 87 10000 7.67 219 17:24 21.04.2021
37 Clouds 1 1023 87 10000 7.67 219 16:42 21.04.2021
38 Clouds 1 1022 86 10000 7.47 222 15:56 21.04.2021
39 Clouds 1 1022 86 10000 7.47 222 15:37 21.04.2021
40 Clouds 1 1022 83 10000 7.61 227 14:47 21.04.2021
41 Clouds 1 1022 82 10000 7.98 229 14:29 21.04.2021
42 Clouds 1 1023 82 10000 8.01 229 13:51 21.04.2021
43 Clouds 1 1022 82 10000 8.44 228 13:24 21.04.2021
44 Clouds 1 1022 82 10000 8.44 228 12:56 21.04.2021
45 Clouds 1 1022 85 10000 8.87 226 12:29 21.04.2021
46 Clouds 1 1022 85 10000 8.87 226 11:47 21.04.2021
47 Clouds 1 1022 91 10000 8.87 222 11:25 21.04.2021
48 Clouds 1 1022 91 10000 8.87 222 10:43 21.04.2021
49 Clouds 0 1022 93 10000 8.55 221 09:59 21.04.2021
50 Clouds 0 1022 93 10000 8.55 221 09:41 21.04.2021
51 Clouds -1 1022 93 10000 8.27 218 08:56 21.04.2021
52 Clouds -1 1022 93 10000 8.27 218 08:37 21.04.2021
53 Clouds -1 1022 94 10000 7.94 220 08:18 21.04.2021
54 Clouds -2 1022 95 10000 7.95 220 07:29 21.04.2021
55 Clouds -2 1022 96 597 7.74 219 06:25 21.04.2021
56 Clouds -3 1022 96 343 7.21 220 04:41 21.04.2021
57 Clouds -2 1022 96 10000 4.8 226 00:51 21.04.2021
58 Clouds 0 1022 92 10000 4.27 253 23:48 20.04.2021
59 Clouds 0 1021 91 10000 4.95 273 22:59 20.04.2021
60 Clouds 0 1021 91 10000 4.95 273 22:38 20.04.2021
61 Clouds 0 1021 95 10000 5.16 268 22:18 20.04.2021
62 Clouds 0 1021 95 10000 5.16 268 21:45 20.04.2021
63 Clouds 0 1020 96 5939 5.21 259 21:24 20.04.2021
64 Clouds 0 1020 96 5939 5.21 259 20:42 20.04.2021
65 Clouds 0 1020 96 10000 5.5 257 20:23 20.04.2021
66 Clouds 0 1020 96 10000 5.5 257 19:52 20.04.2021
67 Clouds 0 1020 96 10000 5.5 257 19:34 20.04.2021
68 Clouds 1 1020 97 10000 5.28 253 18:54 20.04.2021
69 Clouds 1 1020 97 10000 5.28 253 18:35 20.04.2021
70 Clouds 1 1020 98 1700 4.67 248 17:43 20.04.2021
71 Clouds 1 1019 98 162 4.85 259 17:18 20.04.2021
72 Clouds 1 1019 98 162 4.85 259 16:43 20.04.2021
73 Clouds 1 1019 99 119 4.85 265 15:43 20.04.2021
74 Clouds 1 1019 99 97 4.65 263 15:25 20.04.2021
75 Clouds 1 1019 99 97 4.65 263 14:52 20.04.2021
76 Clouds 1 1019 99 87 4.61 256 14:27 20.04.2021
77 Clouds 1 1019 99 97 4.76 262 13:31 20.04.2021
78 Clouds 1 1018 98 129 4.56 255 12:55 20.04.2021
79 Clouds 1 1018 98 129 4.56 255 12:31 20.04.2021
80 Clouds 1 1018 98 1084 3.86 251 11:58 20.04.2021
81 Clouds 1 1018 98 1084 3.86 251 11:38 20.04.2021
82 Clouds 0 1017 97 1816 3.87 258 11:19 20.04.2021
83 Clouds 0 1017 97 1816 3.87 258 10:42 20.04.2021
84 Clouds -1 1017 94 10000 3.97 261 10:20 20.04.2021
85 Clouds -1 1017 93 10000 3.63 256 09:20 20.04.2021
86 Clouds -1 1017 93 10000 3.63 256 08:53 20.04.2021
87 Clouds -2 1016 93 10000 4.02 259 07:59 20.04.2021
88 Clouds -2 1016 93 10000 4.02 259 07:35 20.04.2021
89 Clouds -4 1016 93 10000 3.66 258 05:56 20.04.2021
90 Clouds -4 1016 93 10000 3.66 258 05:31 20.04.2021
91 Clouds -5 1015 94 10000 3.93 254 04:40 20.04.2021
92 Clouds -2 1014 90 10000 6.18 285 00:52 20.04.2021
93 Clouds -1 1014 91 10000 7.18 291 00:27 20.04.2021
94 Clouds -1 1014 91 10000 7.18 291 23:32 19.04.2021
95 Clouds -1 1014 91 10000 8.01 293 22:46 19.04.2021
96 Clouds 0 1013 92 10000 8.6 299 22:26 19.04.2021
97 Clouds 0 1013 92 10000 8.6 299 21:46 19.04.2021
98 Clouds 1 1013 93 10000 8.85 305 21:20 19.04.2021
99 Clouds 1 1013 93 10000 8.85 305 20:41 19.04.2021
100 Clouds 1 1013 96 10000 8.88 301 20:20 19.04.2021
101 Clouds 1 1013 96 10000 8.88 301 19:50 19.04.2021
102 Clouds 1 1013 97 2940 9.53 304 19:27 19.04.2021
103 Clouds 1 1013 97 2940 9.53 304 18:59 19.04.2021
104 Clouds 1 1013 97 2940 9.53 304 18:39 19.04.2021
105 Rain 1 1013 98 365 9.66 302 18:19 19.04.2021
106 Rain 1 1013 98 365 9.66 302 17:43 19.04.2021
107 Clouds 1 1013 98 83 9.68 297 17:23 19.04.2021
108 Clouds 1 1013 98 83 9.68 297 16:43 19.04.2021
109 Snow 1 1013 97 57 10.08 292 16:24 19.04.2021
110 Snow 1 1013 97 57 10.08 292 15:42 19.04.2021
111 Snow 1 1013 97 39 9.76 281 15:23 19.04.2021
112 Snow 1 1013 97 39 9.76 281 14:43 19.04.2021
113 Snow 0 1013 97 57 9.95 272 14:23 19.04.2021
114 Snow 0 1014 97 61 9.78 271 13:49 19.04.2021
115 Snow 0 1015 96 154 9.6 258 13:26 19.04.2021
116 Snow 0 1015 96 154 9.6 258 12:47 19.04.2021
117 Snow -1 1016 95 214 9.57 252 12:26 19.04.2021
118 Snow -1 1016 95 214 9.57 252 11:55 19.04.2021
119 Clouds -2 1017 92 1945 10.56 248 11:27 19.04.2021
120 Clouds -2 1017 92 1945 10.56 248 11:27 19.04.2021
121 Clouds -2 1017 92 1945 10.56 248 10:55 19.04.2021
122 Clouds -2 1017 92 1945 10.56 248 10:36 19.04.2021
123 Snow -4 1018 92 433 11.18 244 10:18 19.04.2021
124 Snow -4 1018 92 433 11.18 244 10:18 19.04.2021
125 Snow -4 1018 92 433 11.18 244 09:38 19.04.2021
126 Snow -4 1018 92 433 11.18 244 09:38 19.04.2021
127 Snow -4 1019 92 240 12 240 09:19 19.04.2021
128 Snow -4 1019 92 240 12 240 08:32 19.04.2021
129 Snow -5 1020 91 290 12.74 235 07:49 19.04.2021
130 Snow -5 1021 91 253 12.97 230 07:20 19.04.2021
131 Snow -5 1021 91 253 12.97 230 06:44 19.04.2021
132 Clouds -6 1027 91 829 7.89 239 02:38 19.04.2021
133 Clouds -7 1028 91 10000 6.83 236 01:30 19.04.2021
134 Clouds -8 1029 93 10000 6.39 241 00:30 19.04.2021
135 Clouds -9 1030 94 3307 5.61 241 23:19 18.04.2021
136 Clouds -9 1030 94 3307 5.61 241 22:52 18.04.2021
137 Clouds -9 1030 94 3307 5.61 241 22:31 18.04.2021
138 Clouds -10 1031 95 9158 5.83 237 21:45 18.04.2021
139 Clouds -11 1031 95 6218 5.72 230 21:23 18.04.2021
140 Clouds -12 1031 94 9849 5.78 229 20:41 18.04.2021
141 Clouds -12 1032 94 10000 5.37 228 20:21 18.04.2021
142 Clouds -12 1032 94 10000 5.37 228 19:56 18.04.2021
143 Clouds -12 1032 94 10000 5.37 228 19:35 18.04.2021
144 Clouds -12 1033 93 10000 4.86 232 18:54 18.04.2021
145 Clouds -12 1033 93 10000 4.86 232 18:31 18.04.2021
146 Clouds -12 1033 93 10000 4.65 239 17:59 18.04.2021
147 Clouds -12 1033 93 10000 4.65 239 17:41 18.04.2021
148 Clouds -12 1033 91 10000 4.48 246 17:23 18.04.2021
149 Clouds -12 1033 91 10000 4.48 246 16:41 18.04.2021
150 Clouds -11 1034 84 10000 4.25 255 16:18 18.04.2021
151 Clouds -11 1034 84 10000 4.25 255 15:39 18.04.2021
152 Clouds -10 1034 80 10000 4.22 266 15:20 18.04.2021
153 Clouds -10 1034 80 10000 4.22 266 14:42 18.04.2021
154 Clouds -9 1034 77 10000 4.46 280 14:19 18.04.2021
155 Clouds -9 1034 77 10000 4.46 280 13:53 18.04.2021
156 Clouds -9 1034 77 10000 4.46 280 13:30 18.04.2021
157 Clouds -8 1034 76 10000 4.83 292 12:43 18.04.2021
158 Clouds -8 1034 76 10000 5.05 301 12:20 18.04.2021
159 Clouds -8 1034 76 10000 5.05 301 11:41 18.04.2021
160 Clouds -8 1033 77 10000 5.15 308 11:20 18.04.2021
161 Clouds -8 1033 77 10000 5.15 308 10:45 18.04.2021
162 Clouds -9 1033 77 10000 4.95 316 10:19 18.04.2021
163 Clouds -9 1033 77 10000 4.95 316 09:41 18.04.2021
164 Clouds -9 1033 79 10000 5.03 323 09:23 18.04.2021
165 Clouds -9 1033 77 10000 5.13 324 08:47 18.04.2021
166 Clouds -9 1033 78 10000 5.48 330 08:28 18.04.2021
167 Clouds -9 1033 78 10000 5.48 330 07:41 18.04.2021
168 Clouds -10 1032 80 10000 5.69 333 06:56 18.04.2021
169 Clouds -11 1031 84 10000 5.07 335 05:27 18.04.2021
170 Clouds -11 1031 84 10000 5.07 335 04:53 18.04.2021
171 Clouds -13 1030 88 10000 4.85 329 02:23 18.04.2021
172 Clouds -13 1030 87 10000 4.93 324 00:58 18.04.2021
173 Clouds -13 1029 84 10000 5.18 320 23:58 17.04.2021
174 Clouds -12 1029 80 10000 4.83 321 23:26 17.04.2021
175 Clouds -12 1029 80 10000 4.83 321 22:44 17.04.2021
176 Clouds -12 1028 76 10000 4.66 327 22:25 17.04.2021
177 Clouds -12 1028 76 10000 4.66 327 21:44 17.04.2021
178 Clouds -12 1027 74 10000 4.21 338 21:23 17.04.2021
179 Clear -12 1028 73 10000 5.24 332 20:40 17.04.2021
180 Clouds -11 1027 71 10000 4.66 340 20:20 17.04.2021
181 Clouds -11 1027 71 10000 4.66 340 19:39 17.04.2021
182 Clouds -11 1026 70 10000 4.24 355 19:20 17.04.2021
183 Clouds -11 1026 70 10000 4.24 355 18:49 17.04.2021
184 Clouds -12 1026 70 10000 3.82 13 18:21 17.04.2021
185 Clouds -12 1026 70 10000 3.82 13 17:42 17.04.2021
186 Clouds -11 1025 69 10000 3.93 32 16:56 17.04.2021
187 Clouds -11 1025 69 10000 3.93 32 16:37 17.04.2021
188 Clouds -10 1024 68 10000 4.25 47 16:18 17.04.2021
189 Clouds -10 1023 69 10000 4.57 57 15:19 17.04.2021
190 Clouds -10 1023 69 10000 4.57 57 14:42 17.04.2021
191 Clouds -10 1022 70 10000 4.43 70 14:19 17.04.2021
192 Clouds -10 1022 71 10000 3.32 81 13:41 17.04.2021
193 Clouds -10 1021 72 10000 3.76 100 12:47 17.04.2021
194 Clouds -10 1020 73 10000 4.32 107 12:22 17.04.2021
195 Clouds -10 1020 73 10000 4.32 107 11:50 17.04.2021
196 Clouds -10 1020 73 10000 4.32 107 11:31 17.04.2021
197 Clouds -11 1020 72 10000 4.8 115 10:48 17.04.2021
198 Clouds -11 1019 69 10000 5.21 118 10:29 17.04.2021
199 Clouds -11 1019 69 10000 5.21 118 09:45 17.04.2021
200 Clouds -11 1019 73 10000 5.76 112 08:46 17.04.2021
201 Clouds -11 1018 74 10000 5.27 117 08:26 17.04.2021
202 Clouds -11 1018 74 10000 5.27 117 07:42 17.04.2021
203 Clouds -13 1018 81 10000 4.3 140 03:59 17.04.2021
204 Clouds -13 1018 81 10000 4.3 140 03:39 17.04.2021
205 Clouds -14 1019 77 10000 3.52 137 00:51 17.04.2021
206 Clouds -14 1019 75 10000 2.98 127 00:29 17.04.2021
207 Clouds -14 1019 75 10000 2.98 127 23:52 16.04.2021
208 Clouds -13 1020 73 10000 2.31 112 23:29 16.04.2021
209 Clouds -13 1020 73 10000 2.31 112 22:51 16.04.2021
210 Clouds -13 1020 71 10000 2.34 79 22:22 16.04.2021
211 Clouds -13 1020 71 10000 2.34 79 21:51 16.04.2021
212 Clouds -13 1020 71 10000 2.34 79 21:30 16.04.2021
213 Clouds -12 1020 70 10000 2.94 46 20:50 16.04.2021
214 Clouds -12 1021 71 10000 3.93 15 20:27 16.04.2021
215 Clouds -12 1021 71 10000 3.93 15 19:55 16.04.2021
216 Clouds -12 1021 71 10000 3.93 15 19:30 16.04.2021
217 Clouds -12 1021 70 10000 4.77 11 18:43 16.04.2021
218 Clouds -11 1021 70 10000 5.54 5 18:20 16.04.2021
219 Clouds -11 1021 70 10000 5.54 5 17:43 16.04.2021
220 Clouds -10 1021 72 10000 7.46 3 17:19 16.04.2021
221 Clouds -10 1021 72 10000 7.46 3 16:42 16.04.2021
222 Clouds -9 1020 74 10000 9.2 3 16:23 16.04.2021
223 Clouds -9 1020 74 10000 9.2 3 15:45 16.04.2021
224 Clouds -8 1020 76 10000 10.26 4 15:20 16.04.2021
225 Clouds -8 1020 76 10000 10.26 4 14:42 16.04.2021
226 Clouds -6 1016 79 7312 11.69 11 14:19 16.04.2021
227 Clouds -6 1016 79 7312 11.69 11 13:46 16.04.2021
228 Snow -6 1015 84 2579 12.02 357 13:20 16.04.2021
229 Snow -6 1015 84 2579 12.02 357 12:47 16.04.2021
230 Snow -5 1013 90 563 11.52 353 12:27 16.04.2021
231 Snow -5 1013 90 563 11.52 353 11:52 16.04.2021
232 Snow -4 1011 91 347 7.93 327 11:26 16.04.2021
233 Snow -4 1011 91 347 7.93 327 11:26 16.04.2021
234 Snow -4 1011 91 347 7.93 327 10:53 16.04.2021
235 Snow -4 1011 91 347 7.93 327 10:34 16.04.2021
236 Snow -5 1011 92 281 6.13 240 10:34 16.04.2021
237 Snow -5 1011 92 285 6.12 240 09:53 16.04.2021
238 Clouds -8 1012 90 748 8.64 208 09:24 16.04.2021
239 Clouds -9 1013 91 761 6.41 210 08:47 16.04.2021
240 Clouds -9 1012 90 7781 9.72 212 08:28 16.04.2021
241 Clouds -10 1014 90 3405 8.02 209 07:53 16.04.2021
242 Clouds -10 1014 90 3405 8.02 209 07:34 16.04.2021
243 Clouds -11 1014 92 885 8.76 212 06:56 16.04.2021
244 Clouds -12 1015 90 2846 8.47 211 05:33 16.04.2021
245 Clouds -13 1017 91 10000 8.78 206 04:19 16.04.2021
246 Clouds -14 1020 90 10000 6.37 215 00:54 16.04.2021
247 Clouds -14 1020 90 10000 6.37 215 00:36 16.04.2021
248 Clouds -14 1021 87 10000 5.43 221 00:18 16.04.2021
249 Clouds -14 1021 87 10000 5.43 221 23:36 15.04.2021
250 Clouds -14 1021 88 10000 4.62 229 22:53 15.04.2021
251 Clouds -14 1021 88 10000 4.62 229 22:33 15.04.2021
252 Clouds -15 1021 90 10000 4.19 236 21:59 15.04.2021
253 Clouds -15 1021 90 10000 4.19 236 21:40 15.04.2021
254 Clouds -15 1021 84 10000 3.55 254 21:19 15.04.2021
255 Clouds -15 1021 83 10000 3.2 252 20:40 15.04.2021
256 Clouds -14 1021 76 10000 2.62 298 20:21 15.04.2021
257 Clouds -14 1021 76 10000 2.62 298 19:43 15.04.2021
258 Clouds -13 1021 73 10000 3.18 341 19:24 15.04.2021
259 Clouds -13 1021 73 10000 3.18 341 18:42 15.04.2021
260 Clouds -12 1020 71 10000 4.59 1 18:20 15.04.2021
261 Clouds -12 1020 71 10000 4.59 1 17:54 15.04.2021
262 Clouds -12 1020 71 10000 4.59 1 17:36 15.04.2021
263 Clouds -11 1019 69 10000 6.13 6 16:57 15.04.2021
264 Clouds -11 1019 69 10000 6.13 6 16:39 15.04.2021
265 Clouds -10 1018 68 10000 7.7 5 16:20 15.04.2021
266 Clouds -10 1018 68 10000 7.7 5 15:44 15.04.2021
267 Clouds -9 1017 68 10000 8.3 9 15:25 15.04.2021
268 Clouds -9 1017 68 10000 8.3 9 14:39 15.04.2021
269 Clouds -9 1015 69 10000 9.08 13 14:21 15.04.2021
270 Clouds -9 1015 69 10000 9.08 13 13:41 15.04.2021
271 Clouds -8 1014 70 10000 9.68 14 13:18 15.04.2021
272 Clouds -8 1014 70 10000 9.68 14 12:39 15.04.2021
273 Clouds -8 1012 74 9115 9.57 17 12:20 15.04.2021
274 Clouds -8 1012 74 9115 9.57 17 11:44 15.04.2021
275 Clouds -8 1010 77 7624 9.68 26 11:22 15.04.2021
276 Clouds -8 1010 77 7624 9.68 26 11:22 15.04.2021
277 Clouds -8 1010 77 7624 9.68 26 10:49 15.04.2021
278 Clouds -8 1010 77 7624 9.68 26 10:49 15.04.2021
279 Snow -8 1008 82 2534 9.86 33 10:27 15.04.2021
280 Snow -8 1008 82 2534 9.86 33 09:45 15.04.2021
281 Snow -9 1007 87 751 9.9 37 09:18 15.04.2021
282 Snow -9 1007 85 1228 9.92 28 08:41 15.04.2021
283 Snow -9 1006 88 631 9.61 31 07:50 15.04.2021
284 Snow -9 1004 88 592 9.04 36 07:22 15.04.2021
285 Snow -9 1004 88 592 9.04 36 07:22 15.04.2021
286 Snow -9 1004 88 592 9.04 36 06:38 15.04.2021
287 Clouds -9 1003 89 553 8.56 41 06:20 15.04.2021
288 Clouds -9 1002 89 922 8.39 47 04:50 15.04.2021
289 Clouds -7 1000 90 591 6.93 49 00:43 15.04.2021
290 Snow -6 1000 92 434 6.26 42 23:39 14.04.2021
291 Snow -6 999 93 731 6.07 35 23:19 14.04.2021
292 Snow -6 999 93 731 6.07 35 22:43 14.04.2021
293 Snow -3 998 96 328 5.03 320 22:23 14.04.2021
294 Snow -3 998 96 328 5.03 320 21:44 14.04.2021
295 Snow -2 998 95 278 6.62 273 21:26 14.04.2021
296 Snow -2 998 95 278 6.62 273 20:56 14.04.2021
297 Clouds -1 998 93 2050 7.25 255 20:33 14.04.2021
298 Clouds -1 998 93 2760 8.27 254 19:51 14.04.2021
299 Clouds -1 999 93 2114 8.73 252 19:20 14.04.2021
300 Clouds -1 999 93 2114 8.73 252 18:57 14.04.2021
301 Clouds 0 999 92 5510 9.29 254 18:22 14.04.2021
302 Clouds 0 999 92 5510 9.29 254 17:58 14.04.2021
303 Clouds 0 999 94 10000 9.94 254 17:25 14.04.2021
304 Clouds 0 999 94 10000 9.94 254 16:54 14.04.2021
305 Clouds 0 1000 96 1587 9.54 252 16:26 14.04.2021
306 Clouds 0 1000 96 1587 9.54 252 15:44 14.04.2021
307 Snow 0 1000 97 254 6.59 239 15:26 14.04.2021
308 Snow 0 1000 97 254 6.59 239 14:51 14.04.2021
309 Snow -2 1001 97 194 6.12 134 14:27 14.04.2021
310 Snow -3 1002 96 115 7.13 121 13:58 14.04.2021
311 Snow -3 1002 96 115 7.13 121 13:37 14.04.2021
312 Snow -4 1004 95 132 8.72 119 12:39 14.04.2021
313 Snow -4 1006 94 140 8.6 112 11:44 14.04.2021
314 Snow -4 1008 94 150 6.93 112 11:25 14.04.2021
315 Snow -4 1008 94 150 6.93 112 10:56 14.04.2021
316 Snow -4 1008 94 150 6.93 112 10:33 14.04.2021
317 Snow -5 1010 88 542 5.15 127 09:43 14.04.2021
318 Clouds -4 1012 77 10000 4.24 144 09:21 14.04.2021
319 Clouds -4 1012 78 10000 3.57 140 08:47 14.04.2021
320 Clouds -5 1014 79 10000 2.86 154 08:22 14.04.2021
321 Clouds -6 1015 82 10000 2.55 175 07:26 14.04.2021
322 Clouds -8 1015 86 10000 2.43 191 06:26 14.04.2021
323 Clouds -9 1016 90 10000 2.62 205 05:20 14.04.2021
324 Clouds -12 1017 94 10000 2.83 229 01:54 14.04.2021
325 Clouds -11 1016 93 10000 2.95 242 00:47 14.04.2021
326 Clouds -11 1016 94 10000 3.19 244 00:25 14.04.2021
327 Clouds -11 1016 94 10000 3.19 244 23:31 13.04.2021
328 Clouds -12 1016 95 10000 3.21 246 22:44 13.04.2021
329 Clouds -11 1015 95 10000 3.35 251 22:20 13.04.2021
330 Clouds -11 1015 95 10000 3.35 251 21:48 13.04.2021
331 Clouds -10 1015 94 10000 3.28 258 21:29 13.04.2021
332 Clouds -11 1015 94 10000 3.33 256 20:48 13.04.2021
333 Clouds -10 1015 93 10000 3.4 259 20:24 13.04.2021
334 Clouds -10 1015 93 10000 3.4 259 19:56 13.04.2021
335 Clouds -8 1015 92 10000 3.21 263 19:25 13.04.2021
336 Clouds -8 1015 92 10000 3.21 263 18:46 13.04.2021
337 Clouds -5 1014 88 10000 3.9 279 18:28 13.04.2021
338 Clouds -5 1014 88 10000 3.9 279 17:40 13.04.2021
339 Clouds -4 1014 85 10000 4.57 291 17:18 13.04.2021
340 Clouds -4 1014 85 10000 4.57 291 16:45 13.04.2021
341 Clouds -3 1014 88 10000 4.9 293 16:25 13.04.2021
342 Clouds -3 1014 88 10000 4.9 293 15:53 13.04.2021
343 Clouds -3 1014 88 10000 4.9 293 15:34 13.04.2021
344 Clouds -2 1015 89 10000 5.08 283 14:50 13.04.2021
345 Clouds -2 1015 86 10000 5.88 282 14:22 13.04.2021
346 Clouds -2 1015 86 10000 5.88 282 13:45 13.04.2021
347 Clouds -2 1015 85 10000 6.99 281 13:26 13.04.2021
348 Clouds -2 1015 85 10000 6.99 281 12:58 13.04.2021
349 Clouds -2 1015 85 10000 6.99 281 12:31 13.04.2021
350 Clouds -2 1015 82 10000 7.98 279 11:59 13.04.2021
351 Clouds -2 1015 82 10000 7.98 279 11:31 13.04.2021
352 Clouds -2 1015 81 10000 8.7 278 10:56 13.04.2021
353 Clouds -2 1015 83 10000 8.97 277 10:24 13.04.2021
354 Clouds -2 1015 83 10000 8.97 277 09:59 13.04.2021
355 Clouds -2 1015 83 10000 8.97 277 09:40 13.04.2021
356 Clouds -2 1014 86 10000 9.12 273 09:18 13.04.2021
357 Clouds -3 1014 86 10000 9.18 273 08:41 13.04.2021
358 Clouds -3 1014 86 10000 9.18 273 08:41 13.04.2021
359 Clouds -3 1014 87 10000 9.06 275 08:20 13.04.2021
360 Clouds -3 1014 87 10000 9.06 275 07:36 13.04.2021
361 Clouds -3 1013 88 10000 9.45 274 06:31 13.04.2021
362 Clouds -3 1012 88 10000 10.26 277 04:52 13.04.2021
363 Clouds -2 1011 84 10000 11.07 282 02:41 13.04.2021
364 Snow -2 1010 89 2378 12.46 274 00:39 13.04.2021
365 Clouds -2 1009 91 519 13.05 268 23:49 12.04.2021
366 Clouds -2 1009 88 4890 12.61 265 23:27 12.04.2021
367 Clouds -2 1009 88 4890 12.61 265 22:39 12.04.2021
368 Clouds -2 1009 89 2377 12.8 266 22:18 12.04.2021
369 Clouds -2 1009 89 2377 12.8 266 21:45 12.04.2021
370 Snow -2 1009 92 577 12.63 265 21:20 12.04.2021
371 Snow -1 1009 91 1282 12.77 267 20:41 12.04.2021
372 Snow -1 1009 92 893 12.36 265 20:22 12.04.2021
373 Snow -1 1009 92 893 12.36 265 20:22 12.04.2021
374 Snow -1 1009 92 893 12.36 265 19:55 12.04.2021
375 Snow -1 1009 92 893 12.36 265 19:37 12.04.2021
376 Snow -1 1009 92 1243 11.91 265 19:18 12.04.2021
377 Snow -1 1009 92 1243 11.91 265 18:44 12.04.2021
378 Clouds -2 1009 91 802 12.33 259 18:25 12.04.2021
379 Clouds -2 1009 91 802 12.33 259 17:43 12.04.2021
380 Clouds -1 1009 79 10000 12.77 271 17:23 12.04.2021
381 Clouds -1 1009 79 10000 12.77 271 16:47 12.04.2021
382 Clouds -1 1008 83 10000 12.82 270 16:27 12.04.2021
383 Clouds -1 1008 83 10000 12.82 270 16:27 12.04.2021
384 Clouds -1 1008 83 10000 12.82 270 15:49 12.04.2021
385 Clouds 0 1008 83 10000 11.11 271 15:27 12.04.2021
386 Clouds 0 1008 83 10000 11.11 271 14:50 12.04.2021
387 Clouds 0 1008 83 10000 11.11 271 14:30 12.04.2021
388 Clouds 0 1007 80 10000 10.68 280 13:49 12.04.2021
389 Clouds 1 1006 85 10000 11.27 282 13:28 12.04.2021
390 Clouds 1 1006 85 10000 11.27 282 12:49 12.04.2021
391 Clouds 0 1005 95 808 10.43 262 12:27 12.04.2021
392 Clouds 0 1005 95 808 10.43 262 11:59 12.04.2021
393 Clouds 0 1004 90 10000 9.9 259 11:24 12.04.2021
394 Clouds 0 1004 90 10000 9.9 259 10:46 12.04.2021
395 Clouds 0 1003 90 8688 9.94 260 10:26 12.04.2021
396 Clouds 0 1003 90 8688 9.94 260 09:49 12.04.2021
397 Snow 0 1003 92 2328 10 255 09:20 12.04.2021
398 Snow 0 1003 92 2328 10 255 08:36 12.04.2021
399 Snow -1 1003 93 643 10.27 253 07:40 12.04.2021
400 Clouds -1 1003 91 1777 10.4 252 07:20 12.04.2021
401 Clouds -1 1003 91 1777 10.4 252 07:20 12.04.2021
402 Snow -1 1003 92 664 9.92 245 05:52 12.04.2021
403 Snow -2 1003 91 1084 9.8 245 04:31 12.04.2021
404 Clouds -2 1003 89 4074 10.11 243 01:23 12.04.2021
405 Clouds -2 1004 90 1918 9.28 241 00:25 12.04.2021
406 Clouds -2 1004 90 1918 9.28 241 23:46 11.04.2021
407 Clouds -2 1004 89 3302 9.55 245 23:27 11.04.2021
408 Clouds -2 1004 89 3302 9.55 245 22:46 11.04.2021
409 Clouds -2 1004 87 7757 9.66 250 22:25 11.04.2021
410 Clouds -2 1004 87 7729 9.66 250 21:49 11.04.2021
411 Clouds -2 1004 87 7757 9.66 250 21:30 11.04.2021
412 Clouds -2 1004 85 10000 10.35 251 20:57 11.04.2021
413 Clouds -1 1003 84 10000 10.99 252 20:30 11.04.2021
414 Clouds -1 1003 88 10000 10.85 249 19:58 11.04.2021
415 Clouds -1 1003 88 10000 10.85 249 19:38 11.04.2021
416 Clouds -1 1003 89 10000 10.11 252 19:19 11.04.2021
417 Clouds -1 1003 89 10000 10.11 252 19:19 11.04.2021
418 Clouds -1 1003 89 10000 10.11 252 18:45 11.04.2021
419 Clouds 0 1002 88 4803 12.23 245 18:25 11.04.2021
420 Clouds 0 1002 88 4803 12.23 245 17:46 11.04.2021
421 Snow 0 1002 96 241 10.46 242 17:28 11.04.2021
422 Snow 0 1002 96 241 10.46 242 16:52 11.04.2021
423 Snow 1 1002 96 36 11.25 216 16:25 11.04.2021
424 Snow 1 1002 96 36 11.25 216 15:57 11.04.2021
425 Snow 1 1002 96 36 11.25 216 15:38 11.04.2021
426 Snow 1 1003 96 38 11.27 208 15:19 11.04.2021
427 Snow 1 1003 96 38 11.27 208 14:46 11.04.2021
428 Snow 1 1004 96 50 11.58 207 14:18 11.04.2021
429 Snow 1 1004 96 50 11.58 207 13:36 11.04.2021
430 Snow 1 1005 96 98 11.94 203 13:18 11.04.2021
431 Snow 1 1006 94 1085 12.03 201 12:22 11.04.2021
432 Snow 1 1006 94 1085 12.03 201 11:53 11.04.2021
433 Snow 1 1006 94 1085 12.03 201 11:53 11.04.2021
434 Snow 1 1007 91 10000 11.93 202 11:29 11.04.2021
435 Snow 1 1007 91 10000 11.93 202 10:50 11.04.2021
436 Snow 1 1007 91 10000 11.93 202 10:32 11.04.2021
437 Snow 1 1008 93 10000 11.3 198 09:59 11.04.2021
438 Snow 1 1008 93 10000 11.3 198 09:37 11.04.2021
439 Snow 1 1010 97 95 10.01 193 09:19 11.04.2021
440 Clouds 1 1010 95 1250 9.72 196 08:30 11.04.2021
441 Clouds 1 1010 95 1250 9.72 196 08:30 11.04.2021
442 Clouds 1 1012 90 10000 9.07 202 07:24 11.04.2021
443 Clouds 1 1012 90 10000 9.07 202 06:56 11.04.2021
444 Clouds 1 1013 89 10000 9.51 209 05:44 11.04.2021
445 Clouds 1 1013 92 10000 10.31 213 05:21 11.04.2021
446 Clouds 1 1013 92 10000 10.31 213 04:35 11.04.2021
447 Clouds 1 1014 96 146 10.77 211 02:56 11.04.2021
448 Clouds 1 1015 95 343 10.81 216 00:40 11.04.2021
449 Snow 1 1015 96 123 11.45 220 23:51 10.04.2021
450 Snow 1 1015 96 62 11.71 218 23:26 10.04.2021
451 Snow 1 1015 96 62 11.71 218 22:45 10.04.2021
452 Snow 1 1015 96 99 12.46 215 22:23 10.04.2021
453 Snow 1 1015 96 99 12.46 215 21:50 10.04.2021
454 Snow 1 1015 96 74 12.36 211 21:23 10.04.2021
455 Snow 1 1015 96 74 12.36 211 20:48 10.04.2021
456 Snow 1 1015 96 63 12.3 210 20:24 10.04.2021
457 Snow 1 1015 96 63 12.3 210 19:45 10.04.2021
458 Snow 1 1015 95 222 12.46 209 19:27 10.04.2021
459 Snow 1 1015 95 222 12.46 209 18:53 10.04.2021
460 Snow 1 1015 95 222 12.46 209 18:33 10.04.2021
461 Clouds 1 1015 85 10000 12.6 212 17:41 10.04.2021
462 Clouds 1 1016 81 10000 12.36 209 17:23 10.04.2021
463 Clouds 1 1016 81 10000 12.36 209 16:31 10.04.2021
464 Clouds 1 1016 83 10000 11.9 205 15:56 10.04.2021
465 Clouds 1 1016 83 10000 11.9 205 15:34 10.04.2021
466 Clouds 0 1016 84 10000 11.71 201 14:47 10.04.2021
467 Clouds 0 1017 84 10000 11.21 201 14:22 10.04.2021
468 Clouds 0 1017 84 10000 10.85 199 13:43 10.04.2021
469 Clouds 0 1017 86 10000 9.89 200 13:25 10.04.2021
470 Clouds 0 1017 86 10000 9.89 200 12:35 10.04.2021
471 Clouds 0 1018 87 10000 9.25 203 11:52 10.04.2021
472 Clouds -1 1017 88 10000 8.96 204 11:26 10.04.2021
473 Clouds -1 1017 88 10000 8.96 204 10:54 10.04.2021
474 Clouds -1 1017 88 10000 8.96 204 10:32 10.04.2021
475 Clear -1 1017 89 10000 8.12 203 09:59 10.04.2021
476 Clear -2 1018 88 10000 7.4 206 09:28 10.04.2021
477 Clear -2 1018 88 10000 7.4 206 08:49 10.04.2021
478 Clouds -2 1017 87 10000 7.33 213 08:29 10.04.2021
479 Clouds -2 1017 87 10000 7.33 213 08:29 10.04.2021
480 Clouds -2 1017 87 10000 7.33 213 07:50 10.04.2021
481 Clouds -2 1017 88 10000 7.52 218 07:21 10.04.2021
482 Clouds -2 1016 88 10000 7.84 225 06:26 10.04.2021
483 Clouds -2 1015 87 10000 8.19 229 04:40 10.04.2021
484 Clouds -1 1014 87 10000 9.14 237 02:54 10.04.2021
485 Clouds -1 1014 87 10000 9.14 237 02:35 10.04.2021
486 Snow 0 1012 93 957 9.59 235 00:50 10.04.2021
487 Snow 0 1011 96 68 10.33 230 00:29 10.04.2021
488 Snow 0 1011 96 68 10.33 230 23:44 09.04.2021
489 Clouds 1 1010 94 1517 9.2 223 23:18 09.04.2021
490 Clouds 1 1010 94 1517 9.2 223 22:42 09.04.2021
491 Clouds 1 1009 95 124 11.12 220 22:22 09.04.2021
492 Clouds 1 1009 95 124 11.12 220 21:39 09.04.2021
493 Clouds 1 1009 96 74 10.87 207 21:19 09.04.2021
494 Clouds 1 1009 96 74 10.87 207 20:44 09.04.2021
495 Clouds 1 1009 95 1423 11.62 201 20:23 09.04.2021
496 Clouds 1 1009 95 1423 11.62 201 19:56 09.04.2021
497 Clouds 1 1009 95 1423 11.62 201 19:37 09.04.2021
498 Clouds 2 1009 92 10000 11.7 196 19:19 09.04.2021
499 Clouds 2 1009 92 10000 11.7 196 18:41 09.04.2021
500 Clouds 2 1009 92 10000 11.07 202 18:19 09.04.2021
501 Clouds 2 1009 92 10000 11.07 202 17:40 09.04.2021
502 Clouds 2 1009 95 1866 11.67 198 16:56 09.04.2021
503 Clouds 2 1009 95 1866 11.67 198 16:36 09.04.2021
504 Clouds 2 1008 91 10000 11.97 194 15:57 09.04.2021
505 Clouds 2 1008 91 10000 11.97 194 15:37 09.04.2021
506 Clouds 2 1008 96 1440 11.39 187 15:18 09.04.2021
507 Clouds 2 1008 96 1440 11.39 187 14:40 09.04.2021
508 Rain 2 1009 94 1703 11.16 186 13:53 09.04.2021
509 Clouds 2 1009 87 10000 11.21 180 13:26 09.04.2021
510 Clouds 2 1009 87 10000 11.21 180 12:58 09.04.2021
511 Clouds 2 1009 87 10000 11.21 180 12:37 09.04.2021
512 Clouds 2 1010 82 10000 11.33 181 11:46 09.04.2021
513 Clouds 2 1010 81 10000 11.37 181 11:23 09.04.2021
514 Clouds 2 1010 81 10000 11.37 181 10:48 09.04.2021
515 Clouds 2 1010 81 10000 11.37 181 10:30 09.04.2021
516 Clouds 2 1010 79 10000 11.2 175 09:50 09.04.2021
517 Clouds 2 1010 78 10000 10.47 170 09:24 09.04.2021
518 Clouds 2 1010 78 10000 10.47 170 08:52 09.04.2021
519 Clouds 2 1011 78 10000 10.67 172 07:39 09.04.2021
520 Clouds 2 1011 82 10000 9.57 170 06:56 09.04.2021
521 Clouds 1 1012 87 10000 8.78 169 05:56 09.04.2021
522 Clouds 1 1014 90 10000 8.04 170 03:53 09.04.2021
523 Clouds 0 1015 88 10000 6.35 165 01:48 09.04.2021
524 Clouds 0 1016 89 10000 5.7 162 00:37 09.04.2021
525 Clouds -1 1016 88 10000 5.39 159 00:19 09.04.2021
526 Clouds -2 1017 88 10000 5.19 153 23:24 08.04.2021
527 Clouds -2 1017 88 10000 5.19 153 22:43 08.04.2021
528 Clouds -4 1018 92 10000 4.14 136 22:22 08.04.2021
529 Clouds -4 1018 92 10000 4.14 136 21:56 08.04.2021
530 Clouds -4 1018 92 10000 4.14 136 21:37 08.04.2021
531 Clouds -5 1018 92 10000 3.88 129 21:18 08.04.2021
532 Clouds -5 1018 92 10000 3.88 129 20:52 08.04.2021
533 Clouds -4 1018 91 10000 4.05 138 20:30 08.04.2021
534 Clouds -5 1019 92 10000 3.83 128 19:46 08.04.2021
535 Clouds -5 1020 92 10000 3.88 129 19:20 08.04.2021
536 Clouds -5 1020 92 10000 3.88 129 18:51 08.04.2021
537 Clouds -5 1020 92 10000 3.84 127 18:21 08.04.2021
538 Clouds -5 1020 92 10000 3.84 127 17:49 08.04.2021
539 Clouds -4 1020 91 10000 3.68 129 17:26 08.04.2021
540 Clouds -4 1020 91 10000 3.68 129 16:51 08.04.2021
541 Clouds -4 1020 91 10000 3.68 129 16:33 08.04.2021
542 Clouds -2 1021 90 10000 3.67 133 15:48 08.04.2021
543 Clouds -1 1021 89 10000 3.64 140 15:29 08.04.2021
544 Clouds -1 1021 89 10000 3.64 140 14:46 08.04.2021
545 Clouds 0 1021 88 10000 3.37 142 14:28 08.04.2021
546 Clouds 0 1022 88 10000 3.37 140 13:59 08.04.2021
547 Clouds 0 1022 88 10000 3.37 140 13:41 08.04.2021
548 Clouds 1 1022 87 10000 3.33 151 13:22 08.04.2021
549 Clouds 1 1022 87 10000 3.33 151 13:22 08.04.2021
550 Clouds 1 1022 87 10000 3.33 151 12:43 08.04.2021
551 Clouds 1 1022 89 10000 4.16 161 12:24 08.04.2021
552 Clouds 1 1022 89 10000 4.16 161 11:43 08.04.2021
553 Clouds 1 1022 91 10000 4.48 165 10:59 08.04.2021
554 Clouds 1 1022 91 10000 4.48 165 10:40 08.04.2021
555 Clouds 1 1022 92 10000 4.36 168 10:18 08.04.2021
556 Clouds 1 1022 92 10000 4.36 168 09:43 08.04.2021
557 Clouds 2 1022 91 10000 4.59 172 08:47 08.04.2021
558 Clouds 2 1022 88 10000 4.83 172 08:28 08.04.2021
559 Clouds 2 1022 88 10000 4.83 172 07:58 08.04.2021
560 Clouds 2 1022 88 10000 4.83 172 07:35 08.04.2021
561 Clouds 2 1021 92 10000 4.21 177 03:54 08.04.2021
562 Clouds 1 1020 91 10000 4.51 193 01:20 08.04.2021
563 Clouds 1 1020 91 10000 4.82 197 00:19 08.04.2021
564 Clouds 1 1020 91 10000 4.82 197 23:41 07.04.2021
565 Clouds 1 1019 91 10000 4.86 196 23:21 07.04.2021
566 Clouds 1 1019 91 10000 4.86 196 22:47 07.04.2021
567 Clouds 1 1019 91 10000 5.16 196 22:29 07.04.2021
568 Clouds 1 1019 91 10000 5.16 196 21:46 07.04.2021
569 Clouds 1 1019 91 10000 5.08 190 21:24 07.04.2021
570 Clouds 1 1019 91 10000 5.08 190 20:45 07.04.2021
571 Clouds 1 1019 92 10000 5.12 196 20:21 07.04.2021
572 Clouds 1 1019 92 10000 5.12 196 19:45 07.04.2021
573 Clouds 1 1018 94 10000 5.75 198 19:26 07.04.2021
574 Clouds 1 1018 94 10000 5.75 198 18:48 07.04.2021
575 Clouds 1 1017 95 10000 6.16 197 18:20 07.04.2021
576 Clouds 1 1017 95 10000 6.16 197 17:56 07.04.2021
577 Clouds 1 1017 95 10000 6.16 197 17:37 07.04.2021
578 Clouds 1 1017 94 10000 6.14 199 16:58 07.04.2021
579 Clouds 1 1017 94 10000 6.14 199 16:38 07.04.2021
580 Clouds 1 1016 93 10000 5.69 199 16:19 07.04.2021
581 Clouds 1 1016 93 10000 5.69 199 16:19 07.04.2021
582 Clouds 1 1016 93 10000 5.69 199 15:40 07.04.2021
583 Clouds 1 1016 92 10000 6.24 198 14:58 07.04.2021
584 Clouds 1 1016 92 10000 6.24 198 14:32 07.04.2021
585 Clouds 1 1016 92 10000 7.17 194 13:53 07.04.2021
586 Clouds 1 1015 89 10000 7 192 13:27 07.04.2021
587 Clouds 1 1015 89 10000 7 192 12:56 07.04.2021
588 Clouds 0 1015 86 10000 6.91 180 12:25 07.04.2021
589 Clouds 0 1015 86 10000 6.91 180 11:56 07.04.2021
590 Clouds 0 1014 84 10000 6.59 169 11:28 07.04.2021
591 Clouds 0 1014 84 10000 6.59 169 10:53 07.04.2021
592 Clouds -1 1014 85 10000 6.01 162 10:21 07.04.2021
593 Clouds -1 1014 85 10000 6.01 162 09:44 07.04.2021
594 Clouds -2 1014 85 10000 5.79 152 09:25 07.04.2021
595 Clouds -1 1013 85 10000 5.98 157 08:42 07.04.2021
596 Clouds -2 1013 86 10000 5.7 164 08:21 07.04.2021
597 Clouds -2 1013 86 10000 5.7 164 07:43 07.04.2021
598 Clouds -4 1013 86 10000 5.75 168 07:24 07.04.2021
599 Clouds -4 1013 86 10000 5.75 168 06:32 07.04.2021
600 Clouds -7 1013 85 10000 4.81 172 04:23 07.04.2021
601 Clouds -9 1013 86 10000 3.9 160 00:22 07.04.2021
602 Clouds -9 1013 86 10000 3.9 160 23:47 06.04.2021
603 Clouds -9 1012 87 10000 3.86 160 23:21 06.04.2021
604 Clouds -9 1012 87 10000 3.86 160 22:40 06.04.2021
605 Clouds -10 1012 88 10000 3.75 161 22:19 06.04.2021
606 Clouds -10 1012 88 10000 3.75 161 22:19 06.04.2021
607 Clouds -10 1012 88 10000 3.75 161 21:41 06.04.2021
608 Clouds -10 1012 89 10000 3.78 164 21:22 06.04.2021
609 Clouds -10 1012 89 10000 3.78 164 20:54 06.04.2021
610 Clouds -10 1012 89 10000 3.72 162 20:24 06.04.2021
611 Clouds -10 1012 89 10000 3.72 162 19:56 06.04.2021
612 Clouds -10 1012 89 10000 3.72 162 19:34 06.04.2021
613 Clouds -9 1012 89 10000 3.7 162 18:57 06.04.2021
614 Clouds -9 1012 89 10000 3.7 162 18:38 06.04.2021
615 Clouds -9 1012 90 10000 3.72 163 18:18 06.04.2021
616 Clouds -9 1012 90 10000 3.72 163 17:40 06.04.2021
617 Clouds -9 1012 91 10000 3.67 159 17:18 06.04.2021
618 Clouds -9 1012 91 10000 3.67 159 16:42 06.04.2021
619 Clouds -8 1012 92 10000 3.3 151 15:53 06.04.2021
620 Clouds -6 1011 91 10000 3.15 144 15:25 06.04.2021
621 Clouds -6 1011 91 10000 3.15 144 14:43 06.04.2021
622 Clouds -4 1011 89 10000 3.03 146 14:24 06.04.2021
623 Clouds -5 1011 88 10000 3 150 13:46 06.04.2021
624 Clouds -4 1011 87 10000 2.77 152 13:25 06.04.2021
625 Clouds -4 1011 87 10000 2.77 152 12:45 06.04.2021
626 Clouds -3 1010 85 10000 2.7 153 12:26 06.04.2021
627 Clouds -3 1010 85 10000 2.7 153 11:55 06.04.2021
628 Clouds -3 1010 85 10000 2.7 153 11:36 06.04.2021
629 Clouds -3 1010 85 10000 2.65 157 11:18 06.04.2021
630 Clouds -3 1010 85 10000 2.65 157 10:39 06.04.2021
631 Clouds -4 1009 87 10000 2.78 155 10:19 06.04.2021
632 Clouds -4 1009 87 10000 2.78 155 09:43 06.04.2021
633 Clouds -4 1009 90 10000 2.48 168 08:50 06.04.2021
634 Clouds -5 1009 91 10000 2.04 171 08:19 06.04.2021
635 Clouds -6 1008 91 10000 2.52 173 06:57 06.04.2021
636 Clouds -7 1008 91 5462 2.51 164 06:24 06.04.2021
637 Clouds -9 1007 95 5915 2.37 158 03:54 06.04.2021
638 Clouds -12 1006 98 6738 2.37 190 00:48 06.04.2021
639 Clouds -11 1006 97 6759 2.49 188 00:21 06.04.2021
640 Clouds -11 1006 97 6759 2.49 188 23:50 05.04.2021
641 Clouds -11 1006 97 7295 2.71 176 23:28 05.04.2021
642 Clouds -11 1006 97 7295 2.71 176 22:53 05.04.2021
643 Clouds -11 1006 97 7295 2.71 176 22:33 05.04.2021
644 Clouds -11 1005 97 7382 2.85 178 21:47 05.04.2021
645 Clouds -11 1005 98 6830 2.86 183 21:23 05.04.2021
646 Clouds -11 1005 98 6830 2.86 183 20:49 05.04.2021
647 Clouds -14 1006 98 10000 2.51 174 20:30 05.04.2021
648 Clouds -14 1005 98 6547 2.47 179 19:45 05.04.2021
649 Clouds -14 1005 98 6555 2.42 172 19:25 05.04.2021
650 Clouds -14 1005 98 6555 2.42 172 18:57 05.04.2021
651 Clouds -14 1005 98 6555 2.42 172 18:38 05.04.2021
652 Clouds -13 1005 98 6621 2.28 169 18:19 05.04.2021
653 Clouds -13 1005 98 6621 2.28 169 17:46 05.04.2021
654 Clouds -12 1004 97 6799 2.26 158 17:21 05.04.2021
655 Clouds -12 1004 97 6799 2.26 158 17:21 05.04.2021
656 Clouds -12 1004 97 6799 2.26 158 16:44 05.04.2021
657 Clouds -11 1004 96 10000 2.11 156 16:21 05.04.2021
658 Clouds -11 1004 96 10000 2.11 156 15:56 05.04.2021
659 Clouds -11 1004 96 10000 2.11 156 15:30 05.04.2021
660 Clouds -9 1004 95 10000 1.92 148 14:58 05.04.2021
661 Clouds -9 1004 95 10000 1.92 148 14:35 05.04.2021
662 Clouds -8 1004 93 10000 1.79 128 13:40 05.04.2021
663 Clouds -8 1004 93 10000 1.79 128 13:40 05.04.2021
664 Clouds -7 1004 93 10000 1.87 113 13:22 05.04.2021
665 Clouds -7 1004 93 10000 1.87 113 12:45 05.04.2021
666 Clouds -7 1003 93 10000 1.96 101 12:22 05.04.2021
667 Clouds -7 1003 93 10000 1.96 101 11:45 05.04.2021
668 Clouds -7 1003 93 10000 1.96 101 11:45 05.04.2021
669 Clouds -7 1003 92 10000 1.72 95 11:27 05.04.2021
670 Clouds -7 1003 92 10000 1.72 95 10:45 05.04.2021
671 Clouds -7 1003 92 10000 1.83 100 10:27 05.04.2021
672 Clouds -7 1003 92 10000 1.83 100 09:48 05.04.2021
673 Clouds -8 1003 93 10000 1.87 108 09:24 05.04.2021
674 Clear -8 1003 91 10000 1.78 133 08:45 05.04.2021
675 Clouds -9 1003 93 10000 2 136 08:26 05.04.2021
676 Clouds -9 1003 93 10000 2 136 07:37 05.04.2021
677 Clouds -11 1003 94 10000 2 137 06:32 05.04.2021
678 Clouds -18 1003 99 10000 1.74 155 01:57 05.04.2021
679 Clouds -18 1003 98 10000 1.5 167 00:50 05.04.2021
680 Clouds -18 1003 97 10000 1.65 180 23:52 04.04.2021
681 Clouds -17 1003 96 10000 1.93 182 23:28 04.04.2021
682 Clouds -17 1003 96 10000 1.93 182 22:52 04.04.2021
683 Clouds -17 1003 96 10000 1.93 182 22:30 04.04.2021
684 Clouds -17 1003 94 10000 2.02 189 21:29 04.04.2021
685 Clouds -17 1003 94 10000 2.02 189 20:58 04.04.2021
686 Clouds -17 1003 94 10000 2.02 189 20:30 04.04.2021
687 Clouds -17 1003 94 10000 2.02 189 20:30 04.04.2021
688 Clouds -17 1004 94 10000 2.26 184 19:58 04.04.2021
689 Clouds -17 1004 94 10000 2.26 184 19:37 04.04.2021
690 Clouds -17 1004 93 10000 2.34 175 19:18 04.04.2021
691 Clouds -17 1004 93 10000 2.34 175 18:44 04.04.2021
692 Clouds -16 1004 93 10000 2.35 166 18:24 04.04.2021
693 Clouds -16 1004 93 10000 2.35 166 17:45 04.04.2021
694 Clouds -15 1004 93 10000 2.27 156 17:24 04.04.2021
695 Clouds -15 1004 93 10000 2.27 156 16:47 04.04.2021
696 Clouds -13 1004 92 10000 2.19 145 16:20 04.04.2021
697 Clouds -13 1004 92 10000 2.19 145 15:36 04.04.2021
698 Clouds -11 1004 91 10000 1.97 139 14:50 04.04.2021
699 Clouds -10 1004 89 10000 1.88 130 14:28 04.04.2021
700 Clouds -10 1004 89 10000 1.88 130 13:52 04.04.2021
701 Clouds -9 1004 88 10000 1.93 141 13:25 04.04.2021
702 Clouds -9 1004 88 10000 1.93 141 12:44 04.04.2021
703 Clouds -9 1005 86 10000 1.65 157 12:25 04.04.2021
704 Clouds -9 1005 86 10000 1.65 157 11:42 04.04.2021
705 Clouds -9 1005 86 10000 1.74 183 11:24 04.04.2021
706 Clouds -9 1005 86 10000 1.74 183 10:46 04.04.2021
707 Clouds -9 1005 87 10000 2.12 196 09:57 04.04.2021
708 Clouds -10 1005 88 10000 2.42 203 09:26 04.04.2021
709 Clouds -10 1005 88 10000 2.42 203 09:26 04.04.2021
710 Clouds -10 1005 88 10000 2.42 203 08:55 04.04.2021
711 Clouds -10 1005 88 10000 2.42 203 08:37 04.04.2021
712 Clouds -11 1005 91 10000 2.82 210 08:19 04.04.2021
713 Clouds -12 1005 93 10000 2.91 208 06:38 04.04.2021
714 Clouds -13 1005 94 10000 3.19 209 05:33 04.04.2021
715 Clouds -11 1005 93 10000 3.34 224 01:33 04.04.2021
716 Clouds -10 1005 93 10000 3.73 233 00:23 04.04.2021
717 Clouds -10 1005 93 10000 3.73 233 23:51 03.04.2021
718 Clouds -10 1005 93 10000 3.73 233 23:32 03.04.2021
719 Clouds -9 1005 93 10000 3.66 234 22:53 03.04.2021
720 Clouds -8 1005 93 4172 3.86 241 22:22 03.04.2021
721 Clouds -8 1005 93 4172 3.86 241 21:55 03.04.2021
722 Clouds -8 1004 94 1207 4.06 240 21:25 03.04.2021
723 Clouds -8 1004 94 1207 4.06 240 20:59 03.04.2021
724 Clouds -7 1004 94 784 3.9 243 20:29 03.04.2021
725 Clouds -7 1004 94 617 4.31 244 19:51 03.04.2021
726 Clouds -6 1004 95 405 3.9 238 19:29 03.04.2021
727 Clouds -6 1004 95 405 3.9 238 18:57 03.04.2021
728 Clouds -6 1004 95 405 3.9 238 18:36 03.04.2021
729 Clouds -6 1004 96 672 2.97 222 17:57 03.04.2021
730 Clouds -6 1004 95 1759 2.94 217 17:27 03.04.2021
731 Clouds -6 1004 95 1759 2.94 217 16:58 03.04.2021
732 Clouds -6 1004 95 1759 2.94 217 16:31 03.04.2021
733 Clouds -4 1004 93 4893 2.94 218 15:52 03.04.2021
734 Clouds -4 1004 93 4893 2.94 218 15:32 03.04.2021
735 Clouds -3 1004 88 10000 3.04 226 14:54 03.04.2021
736 Clouds -2 1004 87 10000 3.02 216 14:27 03.04.2021
737 Clouds -2 1004 87 10000 3.02 216 13:58 03.04.2021
738 Clouds -2 1004 87 10000 3.02 216 13:36 03.04.2021
739 Clouds -2 1004 86 10000 3.48 213 13:18 03.04.2021
740 Clouds -2 1004 86 10000 3.48 213 12:35 03.04.2021
741 Clouds -2 1003 87 10000 3.22 215 11:57 03.04.2021
742 Clouds -2 1003 87 10000 3.22 215 11:32 03.04.2021
743 Clouds -2 1003 88 6211 2.4 211 10:49 03.04.2021
744 Clouds -1 1003 88 6640 1.84 199 10:28 03.04.2021
745 Clouds -1 1003 88 6640 1.84 199 09:47 03.04.2021
746 Clouds -2 1003 89 4352 1.42 188 09:25 03.04.2021
747 Clouds -2 1003 90 2139 1.67 186 08:38 03.04.2021
748 Clouds -2 1002 91 4144 1.44 161 07:48 03.04.2021
749 Clouds -3 1002 93 2406 1.1 145 07:27 03.04.2021
750 Clouds -8 1002 96 1616 1.67 184 04:26 03.04.2021
751 Clouds -9 1002 97 1212 1.96 173 02:57 03.04.2021
752 Clouds -8 1002 97 683 1.86 146 02:34 03.04.2021
753 Clouds -9 1002 97 1982 1.76 133 01:31 03.04.2021
754 Clouds -9 1001 97 6123 2.04 122 00:19 03.04.2021
755 Clouds -9 1001 97 6123 2.04 122 23:44 02.04.2021
756 Clouds -10 1001 97 6406 2.28 120 23:19 02.04.2021
757 Clouds -10 1001 97 6406 2.28 120 22:45 02.04.2021
758 Clouds -9 1001 97 3526 2.44 110 22:26 02.04.2021
759 Clouds -9 1001 97 3526 2.44 110 21:42 02.04.2021
760 Clouds -8 1001 98 4539 2.65 102 21:19 02.04.2021
761 Clouds -8 1001 98 4539 2.65 102 20:47 02.04.2021
762 Clouds -7 1001 96 3407 3.34 97 20:25 02.04.2021
763 Clouds -7 1001 96 3407 3.34 97 19:43 02.04.2021
764 Clouds -5 1001 95 978 3.73 99 19:24 02.04.2021
765 Clouds -5 1001 95 978 3.73 99 18:50 02.04.2021
766 Clouds -5 1001 95 978 3.73 99 18:31 02.04.2021
767 Snow -4 1001 95 500 4.34 102 17:59 02.04.2021
768 Snow -4 1001 95 500 4.34 102 17:36 02.04.2021
769 Snow -4 1001 96 165 4.57 104 16:44 02.04.2021
770 Snow -4 1000 96 206 4.61 104 15:51 02.04.2021
771 Snow -4 1000 96 206 4.61 104 15:32 02.04.2021
772 Snow -3 1000 95 843 4.83 104 14:42 02.04.2021
773 Snow -3 1000 94 1034 5.22 102 14:21 02.04.2021
774 Snow -3 1000 94 1034 5.22 102 13:39 02.04.2021
775 Clouds -2 1000 94 582 5.38 107 13:19 02.04.2021
776 Clouds -2 1000 94 582 5.38 107 12:39 02.04.2021
777 Snow -2 1000 94 431 5.22 106 12:19 02.04.2021
778 Snow -2 1000 94 431 5.22 106 11:48 02.04.2021
779 Clouds -1 999 93 1006 3.96 107 11:19 02.04.2021
780 Clouds -1 999 93 1006 3.96 107 10:44 02.04.2021
781 Clouds -1 999 84 10000 3.17 132 10:24 02.04.2021
782 Clouds -1 999 84 10000 3.17 132 09:52 02.04.2021
783 Clouds -2 999 82 10000 3.52 150 09:26 02.04.2021
784 Clouds -2 999 82 10000 3.52 150 08:46 02.04.2021
785 Clouds -2 998 85 10000 3.47 153 08:27 02.04.2021
786 Clouds -5 999 93 8940 2.69 122 07:22 02.04.2021
787 Clouds -5 999 93 8940 2.69 122 06:40 02.04.2021
788 Snow -7 998 95 241 3.4 104 03:46 02.04.2021
789 Clouds -8 998 95 498 3.66 102 01:49 02.04.2021
790 Snow -8 998 95 464 3.79 103 00:44 02.04.2021
791 Snow -8 998 95 306 3.96 101 23:48 01.04.2021
792 Snow -8 998 95 298 3.96 101 23:27 01.04.2021
793 Snow -8 998 95 298 3.96 101 22:50 01.04.2021
794 Snow -9 998 95 327 3.94 100 22:18 01.04.2021
795 Snow -9 998 95 328 4 100 21:44 01.04.2021
796 Clouds -9 998 95 475 4.03 101 21:23 01.04.2021
797 Clouds -9 999 95 350 4.13 101 20:41 01.04.2021
798 Clouds -9 999 95 350 4.13 101 20:41 01.04.2021
799 Clouds -9 999 95 386 4.32 101 20:22 01.04.2021
800 Clouds -9 999 95 386 4.32 101 19:43 01.04.2021
801 Snow -9 999 95 358 4.41 100 19:24 01.04.2021
802 Snow -9 999 95 358 4.41 100 18:45 01.04.2021
803 Snow -9 999 95 338 4.55 99 18:18 01.04.2021
804 Snow -9 999 95 338 4.55 99 17:45 01.04.2021
805 Clouds -9 999 95 325 4.79 102 17:24 01.04.2021
806 Clouds -9 999 95 325 4.79 102 17:24 01.04.2021
807 Clouds -9 999 95 325 4.79 102 16:50 01.04.2021
808 Snow -9 999 94 286 5.25 104 16:18 01.04.2021
809 Snow -9 999 94 286 5.25 104 16:18 01.04.2021
810 Snow -9 999 94 286 5.25 104 15:40 01.04.2021
811 Snow -9 999 94 334 5.65 104 15:19 01.04.2021
812 Snow -9 999 94 334 5.65 104 14:40 01.04.2021
813 Snow -9 999 94 334 5.65 104 14:40 01.04.2021
814 Snow -9 999 94 334 5.65 104 14:40 01.04.2021
815 Snow -9 999 94 334 5.65 104 14:40 01.04.2021
816 Clouds -8 1000 93 2846 5.78 105 14:21 01.04.2021
817 Clouds -8 1000 93 2846 5.78 105 13:50 01.04.2021
818 Clouds -8 1000 93 2846 5.78 105 13:30 01.04.2021
819 Clouds -8 1000 91 3278 6.05 108 12:47 01.04.2021
820 Clouds -8 1000 91 2641 6.25 108 12:29 01.04.2021
821 Clouds -8 1000 91 2641 6.25 108 11:45 01.04.2021
822 Clouds -8 1000 91 2120 6.42 106 11:24 01.04.2021
823 Clouds -8 1000 91 2120 6.42 106 10:53 01.04.2021
824 Clouds -8 1000 91 2120 6.42 106 10:53 01.04.2021
825 Clouds -8 1000 91 2120 6.42 106 10:33 01.04.2021
826 Clouds -8 1000 91 1859 6.46 105 09:53 01.04.2021
827 Clouds -9 1000 91 1487 6.47 105 09:24 01.04.2021
828 Clouds -9 1000 91 1487 6.47 105 08:33 01.04.2021
829 Clouds -9 999 92 992 6.42 102 07:52 01.04.2021
830 Snow -9 1000 93 594 6.36 102 07:18 01.04.2021
831 Snow -9 1000 93 594 6.36 102 06:42 01.04.2021
832 Snow -8 1000 95 228 6 104 03:30 01.04.2021
833 Clouds -8 1000 91 9903 5.44 114 00:38 01.04.2021
834 Clouds -8 1000 90 10000 5.26 118 23:44 31.03.2021
835 Clouds -7 1000 89 10000 5.43 126 22:59 31.03.2021
836 Clouds -7 1000 89 10000 5.43 126 22:40 31.03.2021
837 Clouds -6 1000 87 10000 5.89 132 22:20 31.03.2021
838 Clouds -6 1000 87 10000 5.89 132 21:44 31.03.2021
839 Clouds -6 1000 87 10000 6.34 136 21:23 31.03.2021
840 Clouds -6 1000 87 10000 6.34 136 20:44 31.03.2021
841 Clouds -6 1001 88 10000 6.29 128 20:23 31.03.2021
842 Clouds -6 1001 88 10000 6.29 128 19:55 31.03.2021
843 Clouds -6 1001 88 10000 6.29 128 19:36 31.03.2021
844 Clouds -6 1001 88 10000 6.5 128 19:18 31.03.2021
845 Clouds -6 1001 88 10000 6.5 128 18:41 31.03.2021
846 Clouds -5 1001 89 8176 6.77 125 17:56 31.03.2021
847 Clouds -5 1001 89 8176 6.77 125 17:34 31.03.2021
848 Snow -5 1001 91 885 7.16 127 16:58 31.03.2021
849 Snow -5 1001 91 885 7.16 127 16:37 31.03.2021
850 Snow -5 1002 92 600 7.03 126 16:19 31.03.2021
851 Snow -5 1002 92 600 7.03 126 15:50 31.03.2021
852 Snow -5 1002 91 630 6.93 129 15:19 31.03.2021
853 Snow -5 1002 91 630 6.93 129 14:43 31.03.2021
854 Snow -5 1002 90 1441 6.88 126 14:20 31.03.2021
855 Snow -5 1002 90 1441 6.88 126 13:41 31.03.2021
856 Clouds -5 1002 90 1181 7 128 12:42 31.03.2021
857 Clouds -5 1003 89 1533 7.06 131 12:20 31.03.2021
858 Clouds -5 1003 89 1533 7.06 131 11:51 31.03.2021
859 Clouds -5 1003 88 4221 7.05 130 11:20 31.03.2021
860 Clouds -5 1003 88 4221 7.05 130 10:47 31.03.2021
861 Clouds -5 1004 88 3539 6.97 129 10:25 31.03.2021
862 Clouds -5 1004 88 3539 6.97 129 09:38 31.03.2021
863 Clouds -5 1004 87 2944 7.1 129 08:55 31.03.2021
864 Clouds -5 1004 87 2944 7.1 129 08:37 31.03.2021
865 Clouds -6 1005 84 10000 7.25 131 07:52 31.03.2021
866 Clouds -6 1005 83 10000 7.44 137 06:39 31.03.2021
867 Clouds -6 1006 86 10000 7.87 136 03:51 31.03.2021
868 Clouds -5 1007 86 10000 8 141 01:43 31.03.2021
869 Clouds -5 1008 86 10000 7.7 142 00:49 31.03.2021
870 Clouds -5 1008 88 8226 8.01 143 00:20 31.03.2021
871 Clouds -5 1008 88 8226 8.01 143 23:39 30.03.2021
872 Clouds -5 1008 90 756 8.14 144 22:59 30.03.2021
873 Clouds -5 1009 90 750 8.17 143 22:40 30.03.2021
874 Snow -5 1009 89 2171 8.07 138 22:21 30.03.2021
875 Snow -5 1009 89 2171 8.07 138 21:48 30.03.2021
876 Snow -5 1010 93 248 8.08 134 21:20 30.03.2021
877 Snow -5 1009 93 361 7.78 134 20:51 30.03.2021
878 Snow -5 1010 93 256 7.88 132 20:28 30.03.2021
879 Snow -5 1010 93 256 7.88 132 19:51 30.03.2021
880 Clouds -6 1011 91 623 8.03 128 19:27 30.03.2021
881 Clouds -6 1011 91 623 8.03 128 18:39 30.03.2021
882 Clouds -7 1011 90 1019 8.17 126 17:56 30.03.2021
883 Clouds -7 1011 90 1019 8.17 126 17:38 30.03.2021
884 Snow -8 1012 92 1233 7.91 118 17:20 30.03.2021
885 Snow -8 1012 92 1233 7.91 118 16:44 30.03.2021
886 Clouds -9 1013 93 434 7.6 112 16:23 30.03.2021
887 Clouds -9 1014 91 1679 7.16 113 15:20 30.03.2021
888 Clouds -9 1014 91 1679 7.16 113 14:56 30.03.2021
889 Clouds -9 1015 89 10000 7.2 113 14:22 30.03.2021
890 Clouds -9 1015 89 10000 7.2 113 13:58 30.03.2021
891 Clouds -9 1015 89 10000 7.2 113 13:36 30.03.2021
892 Clouds -9 1016 88 10000 7.08 114 12:49 30.03.2021
893 Clouds -10 1016 87 10000 7.05 115 12:27 30.03.2021
894 Clouds -10 1016 87 10000 7.05 115 11:53 30.03.2021
895 Clouds -10 1017 86 10000 7.16 116 11:23 30.03.2021
896 Clouds -10 1017 86 10000 7.16 116 10:46 30.03.2021
897 Clouds -10 1017 85 10000 6.52 118 10:25 30.03.2021
898 Clouds -10 1017 85 10000 6.52 118 09:44 30.03.2021
899 Clouds -11 1018 86 10000 6.34 119 09:26 30.03.2021
900 Clouds -11 1018 86 10000 6.34 119 08:54 30.03.2021
901 Clouds -9 1017 88 10000 5.84 121 08:36 30.03.2021
902 Clouds -10 1017 89 10000 5.62 119 07:51 30.03.2021
903 Clouds -12 1017 92 10000 5.23 116 07:22 30.03.2021
904 Clouds -15 1018 95 10000 4.53 115 05:25 30.03.2021
905 Clouds -15 1018 95 10000 4.53 115 04:57 30.03.2021
906 Clouds -16 1018 99 5979 3.35 93 00:30 30.03.2021
907 Clouds -15 1018 99 5008 2.92 99 23:33 29.03.2021
908 Clouds -13 1017 99 6530 2.42 85 22:45 29.03.2021
909 Clouds -10 1017 97 6863 2.43 85 22:25 29.03.2021
910 Clouds -10 1017 97 6863 2.43 85 21:43 29.03.2021
911 Clouds -8 1016 97 2518 2.61 66 21:23 29.03.2021
912 Clouds -8 1016 97 2518 2.61 66 20:47 29.03.2021
913 Clouds -8 1016 98 1410 2.34 59 20:26 29.03.2021
914 Clouds -8 1016 98 1410 2.34 59 19:48 29.03.2021
915 Clouds -6 1015 97 706 1.63 55 19:22 29.03.2021
916 Clouds -6 1015 97 706 1.63 55 18:42 29.03.2021
917 Snow -6 1015 96 667 0.11 73 18:23 29.03.2021
918 Snow -6 1015 96 667 0.11 73 17:46 29.03.2021
919 Snow -6 1015 96 141 1.23 232 17:18 29.03.2021
920 Snow -6 1015 96 141 1.23 232 16:37 29.03.2021
921 Clouds -8 1015 95 306 2.52 212 16:18 29.03.2021
922 Clouds -8 1015 95 306 2.52 212 15:35 29.03.2021
923 Clouds -8 1015 93 10000 2.51 214 14:57 29.03.2021
924 Clouds -6 1014 95 216 2.8 222 14:36 29.03.2021
925 Clouds -6 1014 93 1378 3.13 229 13:53 29.03.2021
926 Clouds -6 1014 93 1378 3.13 229 13:30 29.03.2021
927 Clouds -7 1014 91 8319 4.56 217 12:51 29.03.2021
928 Clouds -7 1014 91 8319 4.56 217 12:30 29.03.2021
929 Snow -8 1014 92 423 5.31 211 11:41 29.03.2021
930 Snow -8 1014 93 141 5.62 209 11:22 29.03.2021
931 Snow -8 1014 93 141 5.62 209 10:40 29.03.2021
932 Snow -9 1014 92 161 7.05 202 09:56 29.03.2021
933 Snow -9 1015 92 208 8.21 190 08:59 29.03.2021
934 Snow -10 1016 92 189 7.54 185 08:29 29.03.2021
935 Snow -10 1016 92 189 7.54 185 07:42 29.03.2021
936 Snow -11 1017 90 264 7.2 182 06:42 29.03.2021
937 Clouds -14 1019 79 10000 4.43 180 04:22 29.03.2021
938 Clouds -17 1020 83 10000 3.71 177 02:21 29.03.2021
939 Clouds -18 1021 85 10000 3.07 190 00:24 29.03.2021
940 Clouds -18 1021 85 10000 3.07 190 23:51 28.03.2021
941 Clouds -19 1021 87 10000 3.14 187 23:20 28.03.2021
942 Clouds -19 1021 87 10000 3.14 187 22:42 28.03.2021
943 Clouds -20 1021 90 10000 2.84 185 22:23 28.03.2021
944 Clouds -20 1021 90 10000 2.84 185 21:45 28.03.2021
945 Clouds -20 1021 91 10000 2.9 165 21:23 28.03.2021
946 Clouds -20 1021 91 10000 2.9 165 20:50 28.03.2021
947 Clouds -20 1021 91 10000 2.9 165 20:32 28.03.2021
948 Clear -21 1022 91 10000 3.18 154 19:46 28.03.2021
949 Clear -22 1022 96 10000 2.89 156 19:23 28.03.2021
950 Clear -22 1022 96 10000 2.89 156 18:58 28.03.2021
951 Clear -22 1022 96 10000 2.89 156 18:58 28.03.2021
952 Clear -22 1022 96 10000 2.89 156 18:33 28.03.2021
953 Clear -22 1022 98 10000 2.65 149 17:56 28.03.2021
954 Clear -23 1022 98 10000 2.64 149 17:34 28.03.2021
955 Clear -22 1022 98 10000 2.37 138 16:55 28.03.2021
956 Clear -20 1022 98 10000 1.9 124 16:24 28.03.2021
957 Clear -20 1022 98 10000 1.9 124 15:49 28.03.2021
958 Clear -19 1022 96 10000 1.65 111 15:24 28.03.2021
959 Clear -19 1022 96 10000 1.65 111 14:39 28.03.2021
960 Clouds -17 1021 92 10000 1.71 86 13:55 28.03.2021
961 Clouds -17 1021 92 10000 1.71 86 13:34 28.03.2021
962 Clouds -16 1021 91 10000 1.73 71 12:55 28.03.2021
963 Clouds -16 1021 91 10000 1.73 71 12:34 28.03.2021
964 Clouds -16 1020 90 10000 1.94 65 11:50 28.03.2021
965 Clouds -16 1020 90 10000 1.94 65 11:32 28.03.2021
966 Clouds -16 1020 90 10000 1.98 61 10:47 28.03.2021
967 Clouds -16 1019 91 10000 2.11 57 10:28 28.03.2021
968 Clouds -16 1019 91 10000 2.11 57 09:49 28.03.2021
969 Clouds -17 1019 93 10000 1.49 61 09:25 28.03.2021
970 Clouds -17 1019 93 10000 1.49 61 08:48 28.03.2021
971 Clouds -18 1018 95 10000 1.51 53 07:53 28.03.2021
972 Clouds -18 1018 95 10000 1.51 53 07:34 28.03.2021
973 Clouds -20 1016 100 4399 1.93 354 05:19 28.03.2021
974 Clouds -18 1015 99 2643 2.99 347 01:50 28.03.2021
975 Clouds -15 1013 98 2330 5.32 353 00:25 28.03.2021
976 Clouds -15 1013 98 2330 5.32 353 23:48 27.03.2021
977 Clouds -14 1012 96 1400 6.59 348 23:29 27.03.2021
978 Clouds -12 1010 95 1131 9.14 346 22:38 27.03.2021
979 Clouds -12 1010 95 1153 9.13 346 22:18 27.03.2021
980 Clouds -12 1010 95 1153 9.13 346 21:41 27.03.2021
981 Clouds -12 1010 95 1153 9.13 346 21:41 27.03.2021
982 Clouds -11 1008 96 1349 9.11 321 21:20 27.03.2021
983 Clouds -11 1008 96 1349 9.11 321 20:55 27.03.2021
984 Clouds -11 1008 96 1349 9.11 321 20:36 27.03.2021
985 Clouds -8 1007 95 2999 8.77 299 19:45 27.03.2021
986 Clouds -3 1006 89 10000 9.66 298 19:24 27.03.2021
987 Clouds -3 1006 89 10000 9.66 298 18:56 27.03.2021
988 Clouds -3 1006 89 10000 9.66 298 18:37 27.03.2021
989 Snow -1 1006 92 3508 8.34 280 18:18 27.03.2021
990 Snow -2 1006 94 235 8.61 253 17:28 27.03.2021
991 Snow -2 1006 94 235 8.61 253 16:53 27.03.2021
992 Snow -2 1006 94 235 8.61 253 16:31 27.03.2021
993 Snow -3 1007 95 136 7.39 229 15:58 27.03.2021
994 Snow -3 1007 95 136 7.39 229 15:36 27.03.2021
995 Snow -5 1008 94 241 7.19 214 14:54 27.03.2021
996 Snow -7 1009 94 224 5.86 209 14:19 27.03.2021
997 Clouds -7 1009 93 447 4.7 205 13:27 27.03.2021
998 Clouds -7 1009 93 447 4.7 205 12:59 27.03.2021
999 Clouds -7 1009 93 447 4.7 205 12:33 27.03.2021
1000 Clouds -9 1010 90 10000 4.01 219 11:47 27.03.2021
1001 Clouds -10 1011 91 10000 3.62 224 11:27 27.03.2021
1002 Clouds -10 1011 91 10000 3.62 224 10:48 27.03.2021
1003 Clouds -11 1011 92 10000 3.43 229 10:25 27.03.2021
1004 Clouds -11 1011 92 10000 3.43 229 09:30 27.03.2021
1005 Clouds -12 1011 93 10000 3.16 231 08:49 27.03.2021
1006 Clouds -12 1011 93 10000 3.16 231 08:31 27.03.2021
1007 Clouds -12 1011 93 10000 2.58 228 07:36 27.03.2021
1008 Clouds -13 1011 94 10000 2.58 223 06:52 27.03.2021
1009 Clouds -13 1011 94 10000 2.58 223 06:33 27.03.2021
1010 Clouds -15 1010 95 7996 2.62 218 04:40 27.03.2021
1011 Clouds -16 1009 95 504 2.1 239 00:55 27.03.2021
1012 Clouds -16 1009 95 504 2.1 239 00:31 27.03.2021
1013 Clouds -17 1008 95 976 2.16 245 23:55 26.03.2021
1014 Clouds -18 1008 97 5736 2.28 248 23:22 26.03.2021
1015 Clouds -18 1008 97 5736 2.28 248 22:35 26.03.2021
1016 Clouds -21 1007 99 5927 2.69 242 21:38 26.03.2021
1017 Clouds -22 1006 100 5351 2.78 248 21:20 26.03.2021
1018 Clouds -22 1006 100 5351 2.78 248 20:44 26.03.2021
1019 Clouds -22 1006 100 4912 2.87 253 20:24 26.03.2021
1020 Clouds -22 1006 100 4912 2.87 253 19:49 26.03.2021
1021 Clouds -23 1006 100 5512 2.92 250 19:30 26.03.2021
1022 Clouds -22 1005 99 5552 2.95 256 18:45 26.03.2021
1023 Clouds -22 1004 99 6217 2.9 262 18:26 26.03.2021
1024 Clouds -22 1004 99 6217 2.9 262 17:47 26.03.2021
1025 Clouds -21 1004 99 6479 3.13 265 16:58 26.03.2021
1026 Clouds -21 1004 99 6479 3.13 265 16:33 26.03.2021
1027 Clouds -20 1003 99 6801 3.17 274 15:57 26.03.2021
1028 Clouds -19 1002 98 8175 3.41 283 15:23 26.03.2021
1029 Clouds -19 1002 98 8175 3.41 283 14:33 26.03.2021
1030 Clouds -17 1001 95 10000 3.54 301 13:42 26.03.2021
1031 Clouds -16 1000 93 10000 4.54 310 12:58 26.03.2021
1032 Clouds -16 1000 93 10000 4.54 310 12:34 26.03.2021
1033 Clouds -15 1000 93 10000 4.99 309 11:38 26.03.2021
1034 Clouds -14 999 92 10000 4.45 307 11:18 26.03.2021
1035 Clouds -14 999 92 10000 4.45 307 10:41 26.03.2021
1036 Clouds -14 998 92 8428 4.49 310 09:56 26.03.2021
1037 Clouds -14 998 92 8428 4.49 310 09:36 26.03.2021
1038 Clouds -15 997 93 8508 3.99 313 08:44 26.03.2021
1039 Clouds -16 996 94 9718 3.42 311 08:23 26.03.2021
1040 Clouds -16 996 94 8725 3.45 314 07:40 26.03.2021
1041 Clouds -16 995 95 8439 2.94 317 07:18 26.03.2021
1042 Clouds -16 995 95 8439 2.94 317 06:53 26.03.2021
1043 Clouds -17 994 96 7334 2.9 317 05:31 26.03.2021
1044 Clouds -15 992 97 7479 2.86 324 02:31 26.03.2021
1045 Clouds -13 990 96 1510 3.37 322 00:32 26.03.2021
1046 Clouds -11 989 96 951 3.42 319 23:45 25.03.2021
1047 Clouds -11 988 98 947 3.25 320 23:21 25.03.2021
1048 Clouds -11 988 98 947 3.25 320 22:37 25.03.2021
1049 Clouds -11 987 99 2511 3.44 328 21:53 25.03.2021
1050 Clouds -11 987 99 2511 3.44 328 21:34 25.03.2021
1051 Clouds -9 986 99 3907 4.05 340 20:47 25.03.2021
1052 Clouds -7 985 98 2363 4.14 348 20:27 25.03.2021
1053 Clouds -7 985 98 2363 4.14 348 19:50 25.03.2021
1054 Clouds -7 985 98 2363 4.14 348 19:31 25.03.2021
1055 Clouds -8 985 97 978 4.27 353 19:31 25.03.2021
1056 Clouds -6 984 98 1187 3.99 8 18:57 25.03.2021
1057 Clouds -6 984 98 1187 3.99 8 18:39 25.03.2021
1058 Clouds -5 983 98 1669 3.55 24 18:18 25.03.2021
1059 Clouds -5 983 98 1669 3.55 24 17:37 25.03.2021
1060 Clouds -5 982 98 1126 3.63 42 16:56 25.03.2021
1061 Clouds -5 982 98 1126 3.63 42 16:33 25.03.2021
1062 Clouds -4 982 98 604 3.61 52 15:49 25.03.2021
1063 Snow -3 981 97 407 3.75 62 15:25 25.03.2021
1064 Snow -3 981 97 407 3.75 62 14:49 25.03.2021
1065 Snow -2 981 97 229 3.61 71 14:29 25.03.2021
1066 Snow -2 982 97 156 3.21 87 13:26 25.03.2021
1067 Snow -2 981 97 160 3.26 103 12:46 25.03.2021
1068 Snow -2 981 96 213 3.37 133 12:22 25.03.2021
1069 Snow -2 981 96 213 3.37 133 11:57 25.03.2021
1070 Snow -2 981 96 213 3.37 133 11:39 25.03.2021
1071 Clouds -2 982 91 624 4.19 162 11:21 25.03.2021
1072 Clouds -2 982 91 624 4.19 162 10:45 25.03.2021
1073 Clouds -3 982 90 10000 4.41 170 10:19 25.03.2021
1074 Clouds -3 982 90 10000 4.41 170 09:43 25.03.2021
1075 Clouds -3 983 91 10000 4.39 181 09:23 25.03.2021
1076 Clouds -3 983 91 10000 4.39 181 08:31 25.03.2021
1077 Clouds -6 985 91 10000 5.96 200 07:29 25.03.2021
1078 Clouds -6 985 91 10000 5.96 200 06:43 25.03.2021
1079 Clouds -6 986 91 10000 6.47 206 06:22 25.03.2021
1080 Clouds -6 986 93 10000 6.81 214 04:51 25.03.2021
1081 Clouds -3 987 93 1480 6.63 248 01:25 25.03.2021
1082 Clouds -2 987 93 1017 7.67 256 00:19 25.03.2021
1083 Clouds -2 987 93 1017 7.67 256 23:40 24.03.2021
1084 Snow -2 987 93 776 8.51 259 23:19 24.03.2021
1085 Snow -2 987 93 776 8.51 259 22:39 24.03.2021
1086 Snow -1 987 95 239 8.52 253 21:51 24.03.2021
1087 Snow -1 987 95 239 8.52 253 21:32 24.03.2021
1088 Snow -1 986 95 192 8.75 245 20:59 24.03.2021
1089 Snow -1 986 95 192 8.75 245 20:41 24.03.2021
1090 Snow -2 986 95 227 8.27 235 20:18 24.03.2021
1091 Snow -4 987 92 987 8.08 223 19:33 24.03.2021
1092 Clouds -3 987 93 419 6.73 221 18:53 24.03.2021
1093 Clouds -3 988 91 10000 6.01 233 18:24 24.03.2021
1094 Clouds -3 988 91 10000 6.01 233 17:53 24.03.2021
1095 Clouds -3 988 91 10000 6.01 233 17:32 24.03.2021
1096 Clouds -3 988 89 10000 6.07 251 16:57 24.03.2021
1097 Clouds -3 988 89 10000 6.07 251 16:39 24.03.2021
1098 Clouds -3 988 87 10000 5.88 256 16:19 24.03.2021
1099 Clouds -3 988 87 10000 5.88 256 15:41 24.03.2021
1100 Clouds -5 987 93 10000 4.44 211 15:20 24.03.2021
1101 Clouds -5 987 93 10000 4.44 211 14:30 24.03.2021
1102 Clouds -6 987 91 2199 5.44 191 13:59 24.03.2021
1103 Clouds -7 988 89 4140 5.59 181 13:28 24.03.2021
1104 Clouds -7 988 89 4140 5.59 181 13:28 24.03.2021
1105 Clouds -7 988 89 4140 5.59 181 12:52 24.03.2021
1106 Clouds -7 988 89 4140 5.59 181 12:32 24.03.2021
1107 Clouds -7 988 89 3179 6.17 181 11:57 24.03.2021
1108 Clouds -7 988 89 3179 6.17 181 11:39 24.03.2021
1109 Clouds -7 988 89 2104 6.31 183 10:49 24.03.2021
1110 Clouds -7 988 89 2104 6.31 183 10:31 24.03.2021
1111 Clouds -7 988 89 5289 6.1 183 09:55 24.03.2021
1112 Clouds -7 988 89 5289 6.1 183 09:31 24.03.2021
1113 Clouds -7 988 88 10000 5.82 184 08:57 24.03.2021
1114 Clouds -7 988 88 10000 5.82 184 08:38 24.03.2021
1115 Clouds -8 988 88 10000 5.5 185 07:49 24.03.2021
1116 Clouds -9 988 89 10000 5.55 188 07:19 24.03.2021
1117 Clouds -9 988 89 10000 5.55 188 06:43 24.03.2021
1118 Clouds -14 990 94 10000 5.05 188 02:18 24.03.2021
1119 Clouds -15 991 95 10000 4.48 190 00:40 24.03.2021
1120 Clouds -15 991 96 10000 4.18 194 23:46 23.03.2021
1121 Clouds -14 991 96 7578 3.76 201 23:19 23.03.2021
1122 Clouds -14 991 96 7578 3.76 201 22:50 23.03.2021
1123 Clouds -15 992 97 4899 3.68 203 22:24 23.03.2021
1124 Clouds -15 992 97 4899 3.68 203 21:45 23.03.2021
1125 Clouds -14 992 98 4989 3.56 202 21:26 23.03.2021
1126 Clouds -14 992 98 4989 3.56 202 20:45 23.03.2021
1127 Clouds -14 992 97 4694 3.29 207 20:25 23.03.2021
1128 Clouds -14 992 97 4694 3.29 207 19:47 23.03.2021
1129 Clouds -14 993 97 4061 3.28 207 19:26 23.03.2021
1130 Clouds -14 993 97 2794 3.12 207 18:44 23.03.2021
1131 Clouds -14 994 98 4705 3.07 207 18:22 23.03.2021
1132 Clouds -14 994 98 4705 3.07 207 17:46 23.03.2021
1133 Clouds -11 994 96 10000 2.64 200 17:21 23.03.2021
1134 Clouds -11 994 96 10000 2.64 200 16:42 23.03.2021
1135 Clouds -10 994 95 3164 2.27 204 16:20 23.03.2021
1136 Clouds -10 994 95 3164 2.27 204 15:40 23.03.2021
1137 Clouds -10 995 95 1475 2.01 201 14:57 23.03.2021
1138 Clouds -10 995 95 1475 2.01 201 14:37 23.03.2021
1139 Clouds -9 995 95 1775 1.65 199 14:18 23.03.2021
1140 Clouds -9 995 95 1775 1.65 199 13:41 23.03.2021
1141 Clouds -8 995 94 987 1.62 187 13:20 23.03.2021
1142 Clouds -8 995 94 1216 1.59 193 12:43 23.03.2021
1143 Clouds -8 995 93 1202 1.62 193 12:20 23.03.2021
1144 Clouds -8 995 93 1202 1.62 193 11:45 23.03.2021
1145 Clouds -8 995 90 1215 1.71 192 10:45 23.03.2021
1146 Clouds -8 995 89 3787 1.81 187 10:26 23.03.2021
1147 Clouds -8 995 89 3787 1.81 187 09:58 23.03.2021
1148 Clouds -8 995 89 3787 1.81 187 09:39 23.03.2021
1149 Clouds -8 995 90 4997 2.07 181 09:19 23.03.2021
1150 Clouds -8 995 90 4997 2.07 181 08:40 23.03.2021
1151 Clouds -8 996 91 1292 2.23 181 08:22 23.03.2021
1152 Clouds -9 996 93 475 2.19 179 07:28 23.03.2021
1153 Clouds -9 996 93 514 2.09 181 06:59 23.03.2021
1154 Clouds -10 996 93 662 1.94 182 06:26 23.03.2021
1155 Clouds -11 996 95 409 2.15 173 03:22 23.03.2021
1156 Clouds -12 996 95 1396 2.14 170 02:18 23.03.2021
1157 Clouds -13 997 94 6458 2.59 161 23:43 22.03.2021
1158 Clouds -13 997 95 5295 2.34 150 22:54 22.03.2021
1159 Clouds -13 997 95 5295 2.34 150 22:36 22.03.2021
1160 Clouds -13 997 95 3062 2.48 154 22:18 22.03.2021
1161 Clouds -13 997 95 3062 2.48 154 21:40 22.03.2021
1162 Clouds -13 997 95 4684 2.38 157 21:21 22.03.2021
1163 Clouds -13 997 95 4684 2.38 157 20:41 22.03.2021
1164 Clouds -13 997 95 2641 2.41 169 20:21 22.03.2021
1165 Clouds -13 997 95 2641 2.41 169 19:52 22.03.2021
1166 Clouds -13 997 95 2641 2.41 169 19:30 22.03.2021
1167 Clouds -13 997 95 2641 2.41 169 19:30 22.03.2021
1168 Clouds -13 997 92 4481 2.32 172 18:47 22.03.2021
1169 Clouds -14 997 92 8085 2.81 180 18:28 22.03.2021
1170 Clouds -14 997 92 8085 2.81 180 17:58 22.03.2021
1171 Clouds -14 997 92 8085 2.81 180 17:38 22.03.2021
1172 Clouds -15 997 92 10000 2.9 181 17:19 22.03.2021
1173 Clouds -15 997 92 10000 2.9 181 16:43 22.03.2021
1174 Clouds -15 997 92 10000 2.97 181 15:59 22.03.2021
1175 Clouds -15 997 92 10000 2.97 181 15:38 22.03.2021
1176 Clouds -15 997 91 10000 2.75 176 15:18 22.03.2021
1177 Clouds -15 997 91 10000 2.75 176 14:50 22.03.2021
1178 Clouds -15 997 91 10000 2.75 176 14:31 22.03.2021
1179 Clouds -14 997 91 10000 2.61 166 13:47 22.03.2021
1180 Clouds -13 997 90 10000 2.46 152 13:25 22.03.2021
1181 Clouds -13 997 90 10000 2.46 152 12:53 22.03.2021
1182 Clouds -13 997 90 10000 2.35 141 12:24 22.03.2021
1183 Clouds -13 997 90 10000 2.35 141 11:48 22.03.2021
1184 Clouds -13 997 90 10000 2.35 134 11:25 22.03.2021
1185 Clouds -13 997 90 10000 2.35 134 10:44 22.03.2021
1186 Clouds -13 996 90 10000 2.43 130 10:24 22.03.2021
1187 Clouds -13 996 90 10000 2.43 130 09:44 22.03.2021
1188 Clouds -13 996 91 10000 2.36 133 09:23 22.03.2021
1189 Clouds -13 996 91 10000 2.36 133 08:45 22.03.2021
1190 Clouds -14 996 91 10000 2.4 142 08:25 22.03.2021
1191 Clouds -14 996 91 10000 2.4 142 07:46 22.03.2021
1192 Clouds -15 996 91 10000 2.29 163 06:57 22.03.2021
1193 Clouds -15 996 91 10000 2.29 163 06:35 22.03.2021
1194 Clouds -18 996 92 10000 2.53 180 02:38 22.03.2021
1195 Clouds -17 996 93 10000 2.75 177 00:33 22.03.2021
1196 Clouds -16 996 93 10000 2.64 169 23:54 21.03.2021
1197 Clouds -16 996 94 4218 2.69 161 23:20 21.03.2021
1198 Clouds -16 996 94 4218 2.69 161 22:56 21.03.2021
1199 Clouds -16 995 95 2097 2.38 163 22:20 21.03.2021
1200 Clouds -16 995 95 2097 2.38 163 21:41 21.03.2021
1201 Clouds -16 996 95 2735 2.38 175 21:22 21.03.2021
1202 Clouds -16 996 95 2735 2.38 175 20:44 21.03.2021
1203 Clouds -16 996 94 1672 2.4 184 20:26 21.03.2021
1204 Clouds -16 996 94 1672 2.4 184 19:54 21.03.2021
1205 Clouds -18 996 94 5778 2.42 194 19:23 21.03.2021
1206 Clouds -18 996 94 5778 2.42 194 18:50 21.03.2021
1207 Clouds -17 996 91 10000 2.59 191 18:27 21.03.2021
1208 Clouds -17 996 91 10000 2.59 191 18:27 21.03.2021
1209 Clouds -17 996 91 10000 2.59 191 17:48 21.03.2021
1210 Clouds -17 996 91 10000 2.51 193 17:21 21.03.2021
1211 Clouds -17 996 91 10000 2.51 193 16:59 21.03.2021
1212 Clouds -17 996 91 10000 2.51 193 16:40 21.03.2021
1213 Clouds -16 996 92 10000 2.25 187 16:21 21.03.2021
1214 Clouds -16 996 92 10000 2.25 187 15:41 21.03.2021
1215 Clouds -15 996 93 10000 2.01 171 15:20 21.03.2021
1216 Clouds -15 996 93 10000 2.01 171 14:46 21.03.2021
1217 Clouds -15 996 93 8950 2.21 149 14:26 21.03.2021
1218 Clouds -15 996 93 8950 2.21 149 13:54 21.03.2021
1219 Clouds -14 996 93 6345 2.06 141 13:25 21.03.2021
1220 Clouds -14 996 93 6674 2.22 152 12:41 21.03.2021
1221 Clouds -13 996 92 3463 2.1 156 12:23 21.03.2021
1222 Clouds -13 996 92 3463 2.1 156 11:31 21.03.2021
1223 Clouds -13 996 90 1561 2.17 160 10:59 21.03.2021
1224 Clouds -13 996 90 1561 2.17 160 10:41 21.03.2021
1225 Clouds -13 996 90 1674 2.03 165 10:22 21.03.2021
1226 Clouds -13 996 90 1674 2.03 165 09:44 21.03.2021
1227 Clouds -14 996 90 2869 1.9 174 09:26 21.03.2021
1228 Clouds -14 996 90 2869 1.9 174 08:39 21.03.2021
1229 Clouds -14 996 90 3631 1.82 175 08:21 21.03.2021
1230 Clouds -14 996 90 3631 1.82 175 07:38 21.03.2021
1231 Clouds -15 996 93 6219 1.9 149 06:56 21.03.2021
1232 Clouds -16 996 94 2624 2.11 141 05:45 21.03.2021
1233 Clouds -19 998 92 10000 2.52 135 02:23 21.03.2021
1234 Clouds -20 998 93 10000 1.91 148 00:42 21.03.2021
1235 Clouds -21 998 93 10000 1.6 148 00:22 21.03.2021
1236 Clouds -21 998 93 10000 1.6 148 23:48 20.03.2021
1237 Clouds -22 999 93 10000 1.57 141 23:22 20.03.2021
1238 Clouds -22 999 93 10000 1.57 141 23:22 20.03.2021
1239 Clouds -22 999 93 10000 1.57 141 22:55 20.03.2021
1240 Clouds -22 999 93 10000 1.7 130 22:22 20.03.2021
1241 Clouds -22 999 93 10000 1.7 130 21:46 20.03.2021
1242 Clouds -22 1000 92 10000 1.69 126 21:24 20.03.2021
1243 Clouds -22 1000 92 10000 1.69 126 20:45 20.03.2021
1244 Clouds -22 1001 92 10000 1.76 131 20:23 20.03.2021
1245 Clouds -22 1001 92 10000 1.76 131 19:50 20.03.2021
1246 Clouds -22 1001 92 10000 1.99 140 19:27 20.03.2021
1247 Clouds -23 1002 91 10000 1.89 141 18:50 20.03.2021
1248 Clouds -23 1003 91 10000 1.8 149 18:27 20.03.2021
1249 Clouds -23 1003 91 10000 1.8 149 17:55 20.03.2021
1250 Clouds -23 1003 91 10000 1.8 149 17:33 20.03.2021
1251 Clouds -23 1003 90 10000 2.15 153 16:56 20.03.2021
1252 Clouds -23 1003 90 10000 2.15 153 16:37 20.03.2021
1253 Clear -23 1004 90 10000 2.51 145 16:18 20.03.2021
1254 Clear -23 1004 90 10000 2.51 145 15:39 20.03.2021
1255 Clear -23 1005 91 10000 2.12 140 14:53 20.03.2021
1256 Clear -23 1006 92 10000 1.86 131 14:29 20.03.2021
1257 Clear -23 1006 92 10000 1.86 131 13:43 20.03.2021
1258 Clear -22 1007 91 10000 1.88 126 13:21 20.03.2021
1259 Clear -22 1008 92 10000 1.97 116 12:28 20.03.2021
1260 Clear -22 1008 92 10000 1.97 116 11:50 20.03.2021
1261 Clear -22 1008 92 10000 1.97 116 11:31 20.03.2021
1262 Clear -22 1009 91 10000 1.66 113 10:57 20.03.2021
1263 Clear -22 1009 91 10000 1.66 113 10:38 20.03.2021
1264 Clear -22 1009 91 10000 1.66 113 10:38 20.03.2021
1265 Clear -22 1010 90 10000 1.32 123 10:19 20.03.2021
1266 Clear -22 1010 90 10000 1.32 123 09:42 20.03.2021
1267 Clear -23 1010 89 10000 1.38 125 09:21 20.03.2021
1268 Clear -23 1010 89 10000 1.38 125 08:48 20.03.2021
1269 Clear -24 1011 88 10000 1.46 126 07:56 20.03.2021
1270 Clear -24 1011 88 10000 1.46 126 07:37 20.03.2021
1271 Clear -25 1012 87 10000 1.6 125 07:19 20.03.2021
1272 Clear -27 1013 86 10000 1.95 131 06:27 20.03.2021
1273 Clear -28 1013 87 10000 2.45 117 04:41 20.03.2021
1274 Clear -29 1014 88 10000 2.62 111 03:42 20.03.2021
1275 Clear -28 1017 80 10000 2.87 112 00:42 20.03.2021
1276 Clear -28 1018 80 10000 2.77 113 23:36 19.03.2021
1277 Clear -28 1019 81 10000 2.73 116 23:18 19.03.2021
1278 Clear -28 1019 81 10000 2.73 116 22:40 19.03.2021
1279 Clear -28 1019 82 10000 2.73 119 22:22 19.03.2021
1280 Clear -28 1019 82 10000 2.73 119 21:37 19.03.2021
1281 Clear -28 1019 84 10000 2.53 119 21:18 19.03.2021
1282 Clear -28 1019 84 10000 2.53 119 20:42 19.03.2021
1283 Clear -28 1020 87 10000 2.68 120 20:24 19.03.2021
1284 Clear -28 1020 87 10000 2.68 120 19:47 19.03.2021
1285 Clear -28 1021 89 10000 2.87 127 19:22 19.03.2021
1286 Clear -28 1021 89 10000 2.71 128 18:46 19.03.2021
1287 Clear -28 1022 92 10000 2.75 121 18:21 19.03.2021
1288 Clear -28 1022 92 10000 2.75 121 17:56 19.03.2021
1289 Clear -28 1022 92 10000 2.75 121 17:36 19.03.2021
1290 Clear -28 1022 93 10000 2.87 110 16:57 19.03.2021
1291 Clear -28 1022 93 10000 2.87 110 16:36 19.03.2021
1292 Clear -27 1022 94 10000 2.55 103 16:18 19.03.2021
1293 Clear -27 1022 94 10000 2.55 103 15:32 19.03.2021
1294 Clear -27 1023 95 10000 2.36 101 14:49 19.03.2021
1295 Clear -26 1023 95 10000 1.92 97 14:29 19.03.2021
1296 Clear -26 1023 95 10000 1.92 97 13:45 19.03.2021
1297 Clouds -25 1024 95 10000 2.01 94 13:18 19.03.2021
1298 Clear -26 1024 87 10000 2.06 93 12:38 19.03.2021
1299 Clear -25 1023 93 10000 2.3 90 11:53 19.03.2021
1300 Clear -24 1023 92 10000 2.49 80 10:59 19.03.2021
1301 Clear -24 1023 92 10000 2.49 80 10:40 19.03.2021
1302 Clear -24 1023 92 10000 2.49 80 10:40 19.03.2021
1303 Clear -24 1024 91 10000 2.62 73 10:19 19.03.2021
1304 Clear -24 1024 91 10000 2.62 73 09:43 19.03.2021
1305 Clear -25 1024 90 10000 2.63 66 09:22 19.03.2021
1306 Clear -25 1024 90 10000 2.63 66 08:47 19.03.2021
1307 Clear -25 1024 90 10000 2.47 61 08:25 19.03.2021
1308 Clear -25 1024 90 10000 2.47 61 07:43 19.03.2021
1309 Clear -26 1023 85 10000 2.11 64 06:59 19.03.2021
1310 Clear -27 1022 87 10000 2.05 58 05:26 19.03.2021
1311 Clouds -28 1022 90 10000 2.31 72 00:59 19.03.2021
1312 Clouds -28 1022 94 10000 2.61 69 23:51 18.03.2021
1313 Clouds -28 1021 97 10000 2.94 69 23:27 18.03.2021
1314 Clouds -28 1021 97 10000 2.94 69 22:44 18.03.2021
1315 Clouds -28 1021 98 10000 3.05 64 22:25 18.03.2021
1316 Clouds -28 1021 98 10000 3.05 64 21:40 18.03.2021
1317 Clouds -27 1021 99 10000 3.01 62 21:21 18.03.2021
1318 Clouds -27 1021 99 10000 3.01 62 20:39 18.03.2021
1319 Clouds -27 1020 99 10000 3.08 61 20:20 18.03.2021
1320 Clouds -27 1020 99 10000 3.08 61 19:42 18.03.2021
1321 Clouds -27 1020 99 8339 3.14 64 19:22 18.03.2021
1322 Clouds -26 1021 99 10000 3.39 72 18:39 18.03.2021
1323 Clouds -26 1020 99 10000 3.41 70 17:51 18.03.2021
1324 Clouds -26 1020 99 10000 2.97 74 17:26 18.03.2021
1325 Clouds -26 1020 99 10000 2.97 74 16:51 18.03.2021
1326 Clouds -26 1020 99 10000 2.97 74 16:32 18.03.2021
1327 Clouds -25 1019 99 10000 3.29 85 15:56 18.03.2021
1328 Clouds -25 1019 99 10000 3.29 85 15:37 18.03.2021
1329 Clouds -25 1019 99 8259 3.62 84 15:18 18.03.2021
1330 Clouds -25 1019 99 8259 3.62 84 14:41 18.03.2021
1331 Clouds -24 1019 99 7734 3.93 72 13:57 18.03.2021
1332 Clouds -23 1019 99 8302 3.86 74 13:27 18.03.2021
1333 Clear -24 1019 97 10000 4.07 72 12:57 18.03.2021
1334 Clear -24 1019 97 10000 4.07 72 12:36 18.03.2021
1335 Clear -24 1019 97 10000 4.07 72 12:36 18.03.2021
1336 Clear -23 1019 95 10000 3.95 78 12:18 18.03.2021
1337 Clear -23 1019 95 10000 3.95 78 11:40 18.03.2021
1338 Clear -23 1019 94 10000 4.04 81 10:57 18.03.2021
1339 Clear -23 1019 94 10000 4.04 81 10:57 18.03.2021
1340 Clear -23 1019 94 10000 4.04 81 10:57 18.03.2021
1341 Clear -23 1019 94 10000 4.04 81 10:38 18.03.2021
1342 Clear -23 1018 94 10000 3.87 81 10:20 18.03.2021
1343 Clear -23 1018 94 10000 3.87 81 09:30 18.03.2021
1344 Clear -23 1018 93 10000 3.72 84 08:59 18.03.2021
1345 Clear -23 1018 93 10000 3.72 84 08:41 18.03.2021
1346 Clear -24 1018 93 10000 3.76 94 08:23 18.03.2021
1347 Clear -24 1018 93 10000 3.76 94 07:43 18.03.2021
1348 Clouds -26 1019 95 10000 4.03 91 06:40 18.03.2021
1349 Clouds -26 1019 96 10000 4.74 93 06:22 18.03.2021
1350 Clouds -27 1019 97 10000 4.8 89 05:25 18.03.2021
1351 Clouds -25 1018 94 10000 5.34 90 00:40 18.03.2021
1352 Clouds -24 1018 94 10000 5.38 94 23:19 17.03.2021
1353 Clouds -24 1018 94 10000 5.38 94 22:38 17.03.2021
1354 Clouds -24 1017 94 10000 5.6 95 22:20 17.03.2021
1355 Clouds -24 1017 94 10000 5.6 95 21:50 17.03.2021
1356 Clouds -24 1017 94 10000 5.6 95 21:31 17.03.2021
1357 Clouds -24 1018 94 10000 5.97 96 20:48 17.03.2021
1358 Clouds -24 1018 93 10000 6.21 96 20:26 17.03.2021
1359 Clouds -24 1018 93 10000 6.21 96 19:58 17.03.2021
1360 Clouds -24 1018 93 10000 6.21 96 19:39 17.03.2021
1361 Clouds -24 1018 94 10000 6.59 96 19:19 17.03.2021
1362 Clouds -24 1018 94 10000 6.35 97 18:43 17.03.2021
1363 Clouds -24 1018 94 10000 6.54 98 18:25 17.03.2021
1364 Clouds -24 1018 94 10000 6.54 98 17:32 17.03.2021
1365 Clouds -24 1018 94 10000 6.86 96 16:57 17.03.2021
1366 Clouds -24 1018 94 10000 6.86 96 16:38 17.03.2021
1367 Clouds -25 1017 94 10000 7.03 96 16:19 17.03.2021
1368 Clouds -25 1017 94 10000 7.03 96 15:41 17.03.2021
1369 Clouds -24 1017 94 10000 7.43 93 14:57 17.03.2021
1370 Clouds -24 1017 94 10000 7.43 93 14:36 17.03.2021
1371 Clouds -24 1017 94 10000 7.45 91 14:18 17.03.2021
1372 Clouds -24 1017 94 10000 7.45 91 14:18 17.03.2021
1373 Clouds -24 1017 94 10000 7.45 91 13:52 17.03.2021
1374 Clouds -23 1017 94 9888 7.43 90 13:22 17.03.2021
1375 Clouds -23 1017 93 10000 7.42 92 12:37 17.03.2021
1376 Clouds -23 1016 94 10000 7.25 91 12:19 17.03.2021
1377 Clouds -23 1016 94 10000 7.25 91 11:39 17.03.2021
1378 Clouds -23 1016 94 10000 7.34 91 11:20 17.03.2021
1379 Clouds -23 1016 94 10000 7.34 91 10:40 17.03.2021
1380 Clouds -23 1015 94 10000 7.2 91 10:22 17.03.2021
1381 Clouds -23 1015 94 10000 7.2 91 09:43 17.03.2021
1382 Clouds -23 1015 94 10000 7.48 90 09:20 17.03.2021
1383 Clouds -23 1015 94 10000 7.48 90 08:46 17.03.2021
1384 Clouds -23 1015 94 10000 7.47 92 08:26 17.03.2021
1385 Clouds -23 1015 94 10000 7.47 92 07:39 17.03.2021
1386 Clouds -23 1015 95 8566 7.49 87 06:52 17.03.2021
1387 Clouds -23 1015 95 7010 7.45 85 06:27 17.03.2021
1388 Clouds -24 1013 96 7287 7.21 84 03:32 17.03.2021
1389 Clouds -23 1014 95 7554 7.4 83 03:32 17.03.2021
1390 Clouds -24 1013 96 7294 7.22 84 02:37 17.03.2021
1391 Clouds -22 1014 95 7991 7.69 84 00:38 17.03.2021
1392 Clouds -22 1014 95 6395 7.84 84 23:27 16.03.2021
1393 Clouds -22 1014 95 6395 7.84 84 22:45 16.03.2021
1394 Clouds -22 1013 95 4983 7.93 82 22:27 16.03.2021
1395 Clouds -22 1013 95 4983 7.93 82 21:44 16.03.2021
1396 Clouds -22 1013 95 6087 7.81 82 21:26 16.03.2021
1397 Clouds -22 1013 95 6087 7.81 82 20:57 16.03.2021
1398 Clouds -22 1013 95 5827 7.72 82 20:20 16.03.2021
1399 Clouds -22 1013 95 5827 7.72 82 19:52 16.03.2021
1400 Clouds -22 1013 95 5827 7.72 82 19:34 16.03.2021
1401 Clouds -22 1013 94 8212 7.8 86 18:58 16.03.2021
1402 Clouds -22 1014 95 8080 7.63 83 18:39 16.03.2021
1403 Clouds -22 1014 95 8730 7.8 88 18:20 16.03.2021
1404 Clouds -22 1014 95 8730 7.8 88 17:41 16.03.2021
1405 Clouds -22 1014 95 8218 7.92 89 17:22 16.03.2021
1406 Clouds -22 1014 95 8218 7.92 89 16:49 16.03.2021
1407 Clouds -22 1013 95 5733 8 86 16:25 16.03.2021
1408 Clouds -22 1013 95 5733 8 86 15:46 16.03.2021
1409 Clouds -22 1014 95 5520 8.1 86 15:21 16.03.2021
1410 Clouds -22 1014 95 5520 8.1 86 14:57 16.03.2021
1411 Clouds -22 1014 95 5520 8.1 86 14:39 16.03.2021
1412 Clouds -21 1014 95 5001 8.35 86 14:19 16.03.2021
1413 Clouds -21 1014 95 5001 8.35 86 14:19 16.03.2021
1414 Clouds -21 1014 95 5001 8.35 86 13:45 16.03.2021
1415 Clouds -21 1014 95 4969 8.44 84 13:21 16.03.2021
1416 Clouds -21 1014 90 5890 8.62 87 12:46 16.03.2021
1417 Clouds -21 1014 95 6578 8.45 85 12:27 16.03.2021
1418 Clouds -21 1014 95 6578 8.45 85 11:38 16.03.2021
1419 Clouds -21 1014 95 7808 8.04 85 10:59 16.03.2021
1420 Clouds -22 1014 96 7786 7.71 88 10:27 16.03.2021
1421 Clouds -22 1014 96 7786 7.71 88 09:48 16.03.2021
1422 Clouds -22 1014 96 8137 7.6 89 09:29 16.03.2021
1423 Clouds -22 1014 96 8137 7.6 89 09:29 16.03.2021
1424 Clouds -22 1014 96 8137 7.6 89 08:58 16.03.2021
1425 Clouds -22 1014 96 8137 7.6 89 08:40 16.03.2021
1426 Clouds -22 1014 96 8495 7.3 89 08:19 16.03.2021
1427 Clouds -22 1014 96 8495 7.3 89 07:35 16.03.2021
1428 Clouds -22 1015 96 8532 7.04 88 06:39 16.03.2021
1429 Clouds -22 1015 95 8895 6.88 91 05:40 16.03.2021
1430 Clouds -22 1015 96 8790 6.59 91 05:21 16.03.2021
1431 Clouds -22 1014 97 7964 6.43 92 02:45 16.03.2021
1432 Clouds -22 1015 97 7628 6.18 87 02:23 16.03.2021
1433 Clouds -22 1015 97 7802 5.62 89 23:56 15.03.2021
1434 Clouds -21 1014 97 7516 5.62 88 23:28 15.03.2021
1435 Clouds -21 1014 97 7516 5.62 88 23:28 15.03.2021
1436 Clouds -21 1014 97 7516 5.62 88 22:51 15.03.2021
1437 Clouds -21 1014 97 7516 5.62 88 22:33 15.03.2021
1438 Clouds -21 1013 98 7714 5.05 86 21:55 15.03.2021
1439 Clouds -21 1013 98 7714 5.05 86 21:34 15.03.2021
1440 Clouds -21 1013 98 7622 4.97 89 20:58 15.03.2021
1441 Clouds -21 1013 98 7622 4.97 89 20:40 15.03.2021
1442 Clouds -21 1013 99 7065 4.68 84 20:21 15.03.2021
1443 Clouds -21 1013 99 7065 4.68 84 19:50 15.03.2021
1444 Clouds -21 1013 99 7065 4.68 84 19:31 15.03.2021
1445 Clouds -21 1013 97 7804 4.82 86 18:57 15.03.2021
1446 Clouds -21 1013 97 7709 5.15 87 18:28 15.03.2021
1447 Clouds -21 1013 97 7709 5.15 87 17:56 15.03.2021
1448 Clouds -21 1013 97 7709 5.15 87 17:32 15.03.2021
1449 Clouds -20 1012 97 7567 5.32 85 16:52 15.03.2021
1450 Clouds -20 1012 97 7567 5.32 85 16:34 15.03.2021
1451 Clouds -20 1011 98 7052 5.43 84 15:46 15.03.2021
1452 Clouds -20 1011 98 6788 5.46 83 15:26 15.03.2021
1453 Clouds -20 1011 98 6788 5.46 83 14:45 15.03.2021
1454 Clouds -19 1011 98 6886 5.3 84 14:23 15.03.2021
1455 Clouds -19 1011 98 6886 5.3 84 13:49 15.03.2021
1456 Clouds -19 1010 97 6670 5.41 80 13:27 15.03.2021
1457 Clouds -19 1010 97 6670 5.41 80 12:50 15.03.2021
1458 Clouds -18 1009 97 6652 4.91 75 12:20 15.03.2021
1459 Clouds -18 1009 97 6652 4.91 75 11:56 15.03.2021
1460 Clouds -18 1009 97 6652 4.91 75 11:37 15.03.2021
1461 Clouds -17 1008 97 6463 4.92 76 10:56 15.03.2021
1462 Clouds -17 1008 97 6463 4.92 76 10:32 15.03.2021
1463 Clouds -16 1008 97 5644 4.87 75 09:53 15.03.2021
1464 Clouds -16 1008 97 5644 4.87 75 09:35 15.03.2021
1465 Clouds -16 1007 97 5206 4.76 78 08:54 15.03.2021
1466 Clouds -16 1007 97 5206 4.76 78 08:34 15.03.2021
1467 Clouds -16 1006 97 5562 4.61 77 07:56 15.03.2021
1468 Clouds -16 1006 97 5562 4.61 77 07:32 15.03.2021
1469 Clouds -14 1005 95 6202 4.57 82 06:41 15.03.2021
1470 Clouds -14 1005 96 1967 4.33 78 05:33 15.03.2021
1471 Clouds -14 1004 94 6629 1.59 115 01:47 15.03.2021
1472 Clouds -14 1003 94 2806 0.84 139 23:58 14.03.2021
1473 Clouds -15 1003 94 2053 1.29 185 23:20 14.03.2021
1474 Clouds -15 1003 94 2053 1.29 185 22:47 14.03.2021
1475 Clouds -15 1003 94 2488 1.77 202 22:23 14.03.2021
1476 Clouds -15 1003 94 2488 1.77 202 21:49 14.03.2021
1477 Clouds -15 1003 94 3919 2.08 218 21:20 14.03.2021
1478 Clouds -15 1003 94 3919 2.08 218 20:50 14.03.2021
1479 Clouds -15 1003 94 4677 2.51 224 20:27 14.03.2021
1480 Clouds -15 1003 94 4677 2.51 224 19:50 14.03.2021
1481 Clouds -15 1003 94 10000 3.12 223 19:24 14.03.2021
1482 Clouds -14 1003 93 10000 2.93 228 18:56 14.03.2021
1483 Clouds -13 1003 93 10000 3.2 228 18:28 14.03.2021
1484 Clouds -13 1003 93 10000 3.2 228 17:41 14.03.2021
1485 Clouds -13 1003 93 2890 3.61 226 17:23 14.03.2021
1486 Clouds -13 1003 93 2890 3.61 226 16:49 14.03.2021
1487 Clouds -13 1003 94 1283 3.64 225 16:28 14.03.2021
1488 Clouds -13 1003 94 1283 3.64 225 15:56 14.03.2021
1489 Clouds -13 1003 94 1283 3.64 225 15:36 14.03.2021
1490 Clouds -13 1002 94 630 3.45 227 14:41 14.03.2021
1491 Clouds -12 1002 94 582 3.39 231 14:23 14.03.2021
1492 Clouds -12 1002 94 582 3.39 231 13:49 14.03.2021
1493 Clouds -11 1002 93 897 3.68 235 13:29 14.03.2021
1494 Clouds -11 1002 93 897 3.68 235 13:29 14.03.2021
1495 Clouds -11 1002 93 829 3.52 237 12:47 14.03.2021
1496 Clouds -11 1002 92 1492 3.64 237 12:28 14.03.2021
1497 Clouds -11 1002 92 1492 3.64 237 11:54 14.03.2021
1498 Clouds -11 1002 92 1492 3.64 237 11:35 14.03.2021
1499 Clouds -11 1002 91 2377 3.73 243 10:56 14.03.2021
1500 Clouds -11 1002 91 2377 3.73 243 10:37 14.03.2021
1501 Clouds -11 1001 91 3354 3.78 245 10:18 14.03.2021
1502 Clouds -11 1001 91 3354 3.78 245 09:43 14.03.2021
1503 Clouds -11 1000 92 5813 3.79 245 09:22 14.03.2021
1504 Clouds -11 1000 92 5813 3.79 245 08:43 14.03.2021
1505 Clouds -12 1000 93 4667 3.34 247 08:23 14.03.2021
1506 Clouds -12 1000 93 4667 3.34 247 07:46 14.03.2021
1507 Clouds -12 1000 95 2176 4.09 248 06:47 14.03.2021
1508 Clouds -13 1000 93 7419 4.27 239 04:51 14.03.2021
1509 Clouds -17 999 94 10000 3.81 239 00:51 14.03.2021
1510 Clouds -17 999 96 10000 4.12 235 00:19 14.03.2021
1511 Clouds -17 999 96 10000 4.12 235 23:48 13.03.2021
1512 Clouds -17 999 96 10000 4.36 231 23:25 13.03.2021
1513 Clouds -17 999 96 10000 4.36 231 22:53 13.03.2021
1514 Clouds -18 999 95 10000 4.3 228 22:27 13.03.2021
1515 Clouds -18 999 95 10000 4.3 228 21:44 13.03.2021
1516 Clouds -19 999 94 10000 4.12 229 21:25 13.03.2021
1517 Clouds -19 999 94 10000 4.12 229 20:52 13.03.2021
1518 Clouds -19 999 94 10000 4.12 229 20:31 13.03.2021
1519 Clouds -19 999 94 10000 4.07 230 19:53 13.03.2021
1520 Clouds -19 999 94 10000 4.07 230 19:30 13.03.2021
1521 Clouds -20 999 93 10000 4.32 228 18:44 13.03.2021
1522 Clouds -20 999 92 10000 4.53 227 18:23 13.03.2021
1523 Clouds -20 999 92 10000 4.53 227 17:59 13.03.2021
1524 Clouds -20 999 92 10000 4.53 227 17:40 13.03.2021
1525 Clouds -20 999 91 10000 4.72 225 17:21 13.03.2021
1526 Clouds -20 999 91 10000 4.72 225 16:43 13.03.2021
1527 Clouds -21 999 85 10000 5 223 16:19 13.03.2021
1528 Clouds -21 999 73 10000 5.38 223 15:27 13.03.2021
1529 Clouds -21 999 73 10000 5.38 223 14:47 13.03.2021
1530 Clouds -21 999 67 10000 5.65 224 14:28 13.03.2021
1531 Clouds -21 999 67 10000 5.65 224 13:47 13.03.2021
1532 Clouds -21 999 67 10000 5.65 224 13:47 13.03.2021
1533 Clear -20 999 66 10000 6.12 224 13:24 13.03.2021
1534 Clear -20 999 66 10000 6.12 224 13:24 13.03.2021
1535 Clear -20 999 66 10000 6.16 225 12:43 13.03.2021
1536 Clear -20 1000 66 10000 6.71 225 12:20 13.03.2021
1537 Clear -20 1000 66 10000 6.71 225 11:46 13.03.2021
1538 Clear -20 1000 66 10000 7.4 225 11:28 13.03.2021
1539 Clear -20 1000 66 10000 7.4 225 10:50 13.03.2021
1540 Clear -20 999 66 10000 7.65 225 10:29 13.03.2021
1541 Clear -20 999 66 10000 7.65 225 09:47 13.03.2021
1542 Clear -21 1000 68 10000 6.69 222 08:58 13.03.2021
1543 Clear -21 1000 68 10000 6.69 222 08:39 13.03.2021
1544 Clear -22 1000 71 10000 5.13 218 08:19 13.03.2021
1545 Clear -22 1000 71 10000 5.13 218 07:41 13.03.2021
1546 Clear -26 998 74 10000 2.2 202 05:50 13.03.2021
1547 Clear -26 995 92 10000 2.34 18 02:54 13.03.2021
1548 Clouds -24 992 91 10000 4.64 15 00:50 13.03.2021
1549 Clouds -22 989 87 10000 6.1 15 23:54 12.03.2021
1550 Clouds -22 989 87 10000 6.1 15 23:32 12.03.2021
1551 Clouds -19 987 93 10000 6.65 9 22:42 12.03.2021
1552 Snow -14 985 92 1787 8.22 356 22:23 12.03.2021
1553 Snow -14 985 92 1787 8.22 356 21:44 12.03.2021
1554 Snow -12 983 95 155 8.91 20 21:24 12.03.2021
1555 Snow -12 983 95 155 8.91 20 20:55 12.03.2021
1556 Snow -12 983 95 155 8.91 20 20:32 12.03.2021
1557 Snow -6 981 92 136 12.28 273 19:56 12.03.2021
1558 Snow -6 981 92 136 12.28 273 19:38 12.03.2021
1559 Snow -8 980 90 237 15.34 258 18:59 12.03.2021
1560 Snow -8 980 90 237 15.34 258 18:35 12.03.2021
1561 Snow -9 979 89 254 15.73 253 17:49 12.03.2021
1562 Snow -9 979 89 254 15.73 253 17:30 12.03.2021
1563 Snow -9 979 88 359 15.61 252 16:55 12.03.2021
1564 Snow -9 979 88 359 15.61 252 16:36 12.03.2021
1565 Snow -9 979 87 761 15.26 250 15:52 12.03.2021
1566 Clouds -9 980 88 914 14.86 249 15:27 12.03.2021
1567 Clouds -9 980 88 914 14.86 249 14:48 12.03.2021
1568 Snow -9 981 88 840 14.61 250 14:20 12.03.2021
1569 Snow -9 981 88 840 14.61 250 13:43 12.03.2021
1570 Clouds -10 982 88 635 14.22 249 13:21 12.03.2021
1571 Clouds -9 982 88 621 14.18 249 12:56 12.03.2021
1572 Clouds -10 982 88 635 14.22 249 12:37 12.03.2021
1573 Snow -9 983 88 718 14.01 247 12:19 12.03.2021
1574 Snow -9 983 88 718 14.01 247 11:48 12.03.2021
1575 Snow -10 984 89 426 13.66 245 11:20 12.03.2021
1576 Snow -10 984 89 426 13.66 245 10:48 12.03.2021
1577 Clouds -10 984 88 648 12.98 241 10:23 12.03.2021
1578 Clouds -10 984 88 648 12.98 241 09:48 12.03.2021
1579 Clouds -10 985 89 705 12.53 240 09:19 12.03.2021
1580 Clouds -10 985 89 705 12.53 240 08:40 12.03.2021
1581 Clouds -10 986 88 1119 12.06 240 07:51 12.03.2021
1582 Clouds -11 986 94 1599 11.53 239 07:29 12.03.2021
1583 Clouds -12 987 89 1136 11.71 238 06:45 12.03.2021
1584 Clouds -12 987 89 1718 11.3 238 05:56 12.03.2021
1585 Clouds -8 988 91 1367 9.13 255 00:59 12.03.2021
1586 Clouds -7 988 91 2230 8.25 261 23:56 11.03.2021
1587 Snow -6 988 91 3779 8.06 266 22:59 11.03.2021
1588 Snow -6 988 91 3509 8.05 266 22:39 11.03.2021
1589 Snow -5 988 94 200 8.23 271 22:20 11.03.2021
1590 Snow -5 988 94 200 8.23 271 21:46 11.03.2021
1591 Snow -4 988 94 152 8.03 273 21:25 11.03.2021
1592 Snow -4 988 94 152 8.03 273 20:49 11.03.2021
1593 Snow -4 988 95 147 7.61 273 20:23 11.03.2021
1594 Snow -4 988 95 147 7.61 273 19:54 11.03.2021
1595 Snow -4 988 95 147 7.61 273 19:36 11.03.2021
1596 Snow -4 989 95 146 6.35 269 18:53 11.03.2021
1597 Snow -4 990 95 137 7.05 268 18:35 11.03.2021
1598 Snow -5 990 95 140 5.96 246 17:53 11.03.2021
1599 Snow -5 990 95 140 5.96 246 17:35 11.03.2021
1600 Snow -8 990 93 204 6.99 212 16:37 11.03.2021
1601 Snow -11 991 92 200 7.18 207 16:19 11.03.2021
1602 Snow -11 991 92 200 7.18 207 15:39 11.03.2021
1603 Clouds -12 991 91 8767 8.67 208 15:20 11.03.2021
1604 Clouds -12 991 91 8767 8.67 208 14:44 11.03.2021
1605 Clouds -13 992 89 7917 10.69 210 14:18 11.03.2021
1606 Clouds -13 992 89 7917 10.69 210 13:45 11.03.2021
1607 Clouds -14 992 93 3601 12.43 210 13:22 11.03.2021
1608 Clouds -14 993 88 2815 12.85 210 12:54 11.03.2021
1609 Snow -15 993 90 644 13.8 209 12:29 11.03.2021
1610 Snow -15 993 90 644 13.8 209 11:47 11.03.2021
1611 Snow -15 994 91 207 14.49 208 11:29 11.03.2021
1612 Snow -15 994 91 207 14.49 208 10:55 11.03.2021
1613 Clouds -16 995 92 616 14.49 209 10:25 11.03.2021
1614 Clouds -16 995 92 616 14.49 209 09:50 11.03.2021
1615 Clouds -16 995 92 616 14.49 209 09:32 11.03.2021
1616 Snow -17 996 91 661 14.48 209 08:50 11.03.2021
1617 Snow -17 996 91 661 14.48 209 08:31 11.03.2021
1618 Snow -17 997 92 259 14.45 209 07:47 11.03.2021
1619 Clouds -18 1000 91 744 13.42 210 07:20 11.03.2021
1620 Clouds -18 1000 91 744 13.42 210 06:40 11.03.2021
1621 Clouds -19 1001 90 508 12.68 208 06:21 11.03.2021
1622 Clouds -22 1005 89 10000 8.92 207 02:25 11.03.2021
1623 Clouds -22 1005 89 10000 8.92 207 02:25 11.03.2021
1624 Clouds -22 1007 89 10000 8.06 210 00:23 11.03.2021
1625 Clouds -22 1008 89 10000 7.59 208 23:22 10.03.2021
1626 Clouds -22 1008 89 10000 7.59 208 22:42 10.03.2021
1627 Clouds -22 1008 89 10000 7.16 209 22:19 10.03.2021
1628 Clouds -22 1008 89 10000 7.16 209 21:41 10.03.2021
1629 Clouds -22 1009 89 10000 6.7 209 21:21 10.03.2021
1630 Clouds -22 1009 89 10000 6.7 209 21:21 10.03.2021
1631 Clouds -22 1009 89 10000 6.7 209 20:44 10.03.2021
1632 Clouds -22 1009 89 10000 6.51 210 20:26 10.03.2021
1633 Clouds -22 1009 89 10000 6.51 210 19:42 10.03.2021
1634 Clouds -22 1009 89 10000 5.96 210 19:23 10.03.2021
1635 Clouds -22 1009 89 10000 5.96 210 18:44 10.03.2021
1636 Clouds -21 1009 90 10000 5.39 212 18:24 10.03.2021
1637 Clouds -21 1009 90 10000 5.39 212 18:24 10.03.2021
1638 Clouds -21 1009 90 10000 5.39 212 17:46 10.03.2021
1639 Clouds -20 1009 90 3849 5.11 215 17:21 10.03.2021
1640 Clouds -20 1009 90 3849 5.11 215 16:57 10.03.2021
1641 Clouds -20 1009 90 3849 5.11 215 16:37 10.03.2021
1642 Clouds -20 1009 91 2064 4.61 216 16:19 10.03.2021
1643 Clouds -20 1009 91 2064 4.61 216 15:41 10.03.2021
1644 Clouds -19 1009 91 2197 3.85 217 15:21 10.03.2021
1645 Clouds -19 1009 91 2197 3.85 217 14:41 10.03.2021
1646 Clouds -19 1009 91 2197 3.85 217 14:41 10.03.2021
1647 Clouds -19 1009 91 2197 3.85 217 14:41 10.03.2021
1648 Clouds -19 1010 91 3951 3.28 224 14:19 10.03.2021
1649 Clouds -19 1010 91 3951 3.28 224 13:46 10.03.2021
1650 Clouds -20 1009 91 10000 2.7 230 13:24 10.03.2021
1651 Clouds -20 1009 91 10000 2.7 230 12:44 10.03.2021
1652 Clouds -19 1009 91 6523 2.49 236 12:19 10.03.2021
1653 Clouds -19 1009 91 6523 2.49 236 11:32 10.03.2021
1654 Clouds -19 1010 91 2440 2.46 239 10:58 10.03.2021
1655 Clouds -19 1010 91 2440 2.46 239 10:37 10.03.2021
1656 Clouds -19 1010 91 1383 2.37 238 10:19 10.03.2021
1657 Clouds -19 1010 91 1383 2.37 238 09:42 10.03.2021
1658 Clouds -19 1010 91 1634 2.21 234 09:21 10.03.2021
1659 Clouds -19 1010 91 1634 2.21 234 08:57 10.03.2021
1660 Clouds -19 1010 91 1634 2.21 234 08:57 10.03.2021
1661 Clouds -19 1010 91 1634 2.21 234 08:38 10.03.2021
1662 Clouds -20 1009 91 1383 2.05 233 08:20 10.03.2021
1663 Clouds -20 1009 91 1383 2.05 233 07:30 10.03.2021
1664 Clouds -20 1009 91 1383 2.05 233 07:30 10.03.2021
1665 Clouds -21 1009 91 2808 1.21 218 06:56 10.03.2021
1666 Clouds -21 1009 91 3257 1.07 208 06:25 10.03.2021
1667 Clouds -20 1009 92 525 2.44 282 02:27 10.03.2021
1668 Clouds -20 1008 92 730 3.69 288 23:49 09.03.2021
1669 Clouds -20 1008 92 601 4.17 295 23:19 09.03.2021
1670 Clouds -20 1008 92 601 4.17 295 22:39 09.03.2021
1671 Clouds -20 1008 92 677 4.46 295 22:18 09.03.2021
1672 Clouds -20 1008 92 677 4.46 295 21:45 09.03.2021
1673 Clouds -20 1009 92 939 4.39 293 21:24 09.03.2021
1674 Clouds -20 1009 92 939 4.39 293 20:58 09.03.2021
1675 Clouds -20 1009 92 939 4.39 293 20:39 09.03.2021
1676 Clouds -20 1008 92 568 4.72 296 20:20 09.03.2021
1677 Clouds -20 1008 92 568 4.72 296 19:46 09.03.2021
1678 Clouds -19 1009 92 554 5 293 19:26 09.03.2021
1679 Clouds -20 1008 91 692 4.87 285 18:48 09.03.2021
1680 Clouds -20 1008 91 533 5.11 282 18:25 09.03.2021
1681 Clouds -20 1008 91 533 5.11 282 17:51 09.03.2021
1682 Clouds -20 1008 91 512 4.94 277 17:29 09.03.2021
1683 Clouds -20 1008 91 512 4.94 277 16:44 09.03.2021
1684 Clouds -20 1008 91 545 4.74 277 16:26 09.03.2021
1685 Clouds -20 1008 91 545 4.74 277 15:59 09.03.2021
1686 Clouds -20 1008 91 545 4.74 277 15:36 09.03.2021
1687 Clouds -20 1008 92 542 4.56 278 15:18 09.03.2021
1688 Clouds -20 1008 91 521 4.48 276 14:28 09.03.2021
1689 Clouds -20 1008 91 521 4.48 276 13:47 09.03.2021
1690 Clouds -20 1008 91 516 4.71 284 13:22 09.03.2021
1691 Clouds -20 1008 91 516 4.71 284 12:59 09.03.2021
1692 Clouds -20 1008 91 516 4.71 284 12:38 09.03.2021
1693 Clouds -21 1008 90 722 4.83 282 11:59 09.03.2021
1694 Clouds -21 1008 90 722 4.83 282 11:39 09.03.2021
1695 Clouds -22 1008 90 1219 4.57 282 11:20 09.03.2021
1696 Clouds -22 1008 90 1219 4.57 282 10:41 09.03.2021
1697 Clouds -22 1008 89 1719 4.33 288 10:23 09.03.2021
1698 Clouds -22 1008 89 1719 4.33 288 09:58 09.03.2021
1699 Clouds -22 1008 89 1719 4.33 288 09:37 09.03.2021
1700 Clouds -23 1008 89 1059 4.01 290 09:18 09.03.2021
1701 Clouds -23 1008 89 1059 4.01 290 08:35 09.03.2021
1702 Clouds -24 1008 89 998 3.32 290 07:48 09.03.2021
1703 Clouds -25 1008 89 1193 2.63 293 07:28 09.03.2021
1704 Clouds -25 1008 89 1193 2.63 293 07:28 09.03.2021
1705 Clouds -25 1008 89 1193 2.63 293 06:59 09.03.2021
1706 Clouds -26 1008 89 969 2.63 314 05:53 09.03.2021
1707 Clouds -25 1008 89 1731 4.31 350 02:27 09.03.2021
1708 Clouds -25 1008 89 805 3.8 354 23:59 08.03.2021
1709 Clouds -25 1008 89 805 3.8 354 23:39 08.03.2021
1710 Clouds -24 1008 89 702 4.04 354 23:20 08.03.2021
1711 Clouds -24 1008 89 702 4.04 354 22:41 08.03.2021
1712 Clouds -24 1008 89 814 4.13 353 22:23 08.03.2021
1713 Clouds -24 1008 89 814 4.13 353 21:50 08.03.2021
1714 Clouds -24 1008 89 814 4.13 353 21:30 08.03.2021
1715 Clouds -24 1008 89 1129 3.76 351 20:44 08.03.2021
1716 Clouds -24 1008 89 1347 3.67 354 20:23 08.03.2021
1717 Clouds -24 1008 89 1347 3.67 354 19:53 08.03.2021
1718 Clouds -24 1008 89 1180 3.76 0 19:27 08.03.2021
1719 Clouds -25 1008 89 1256 3.26 1 18:38 08.03.2021
1720 Clouds -25 1008 89 1374 3.35 7 18:19 08.03.2021
1721 Clouds -25 1008 89 1374 3.35 7 17:46 08.03.2021
1722 Clouds -25 1008 89 1412 3.74 10 17:24 08.03.2021
1723 Clouds -25 1008 89 1412 3.74 10 16:44 08.03.2021
1724 Clouds -24 1008 89 1213 4.04 8 16:25 08.03.2021
1725 Clouds -24 1008 89 1213 4.04 8 15:47 08.03.2021
1726 Clouds -25 1009 89 1399 3.76 1 15:24 08.03.2021
1727 Clouds -24 1009 89 1575 3.66 356 14:22 08.03.2021
1728 Clouds -24 1009 89 1589 3.68 356 13:58 08.03.2021
1729 Clouds -25 1009 88 1465 3.59 353 13:24 08.03.2021
1730 Clouds -25 1009 88 1465 3.59 353 12:59 08.03.2021
1731 Clouds -25 1009 88 1465 3.59 353 12:40 08.03.2021
1732 Clouds -25 1009 88 1480 3.58 351 12:20 08.03.2021
1733 Clouds -25 1009 88 1480 3.58 351 11:35 08.03.2021
1734 Clouds -25 1009 87 1882 3.56 351 10:58 08.03.2021
1735 Clouds -25 1009 87 1882 3.56 351 10:40 08.03.2021
1736 Clouds -25 1010 87 2263 3.45 352 10:19 08.03.2021
1737 Clouds -25 1010 87 2263 3.45 352 09:30 08.03.2021
1738 Clouds -25 1010 88 2256 3.56 353 08:54 08.03.2021
1739 Clouds -26 1010 88 1777 3.41 354 08:25 08.03.2021
1740 Clouds -27 1010 88 1616 3.15 353 07:22 08.03.2021
1741 Clouds -28 1011 88 2150 2.94 349 06:33 08.03.2021
1742 Clouds -31 1012 87 4139 2.87 8 02:59 08.03.2021
1743 Clouds -31 1012 87 4549 2.84 17 00:43 08.03.2021
1744 Clouds -31 1012 87 4184 3.26 19 23:54 07.03.2021
1745 Clouds -30 1013 87 3908 3.41 21 23:23 07.03.2021
1746 Clouds -30 1013 87 3908 3.41 21 22:50 07.03.2021
1747 Clouds -30 1012 87 3604 3.71 22 22:29 07.03.2021
1748 Clouds -30 1012 87 3604 3.71 22 21:58 07.03.2021
1749 Clouds -30 1012 87 3604 3.71 22 21:39 07.03.2021
1750 Clouds -30 1012 87 3346 3.61 21 21:21 07.03.2021
1751 Clouds -30 1012 87 3346 3.61 21 20:41 07.03.2021
1752 Clouds -29 1012 88 3484 3.48 22 20:23 07.03.2021
1753 Clouds -29 1012 88 3484 3.48 22 19:55 07.03.2021
1754 Clouds -29 1012 88 3484 3.48 22 19:37 07.03.2021
1755 Clouds -28 1012 88 3368 3.44 31 19:19 07.03.2021
1756 Clouds -30 1013 87 4431 2.99 36 18:40 07.03.2021
1757 Clouds -30 1012 87 3828 3.17 38 18:18 07.03.2021
1758 Clouds -30 1012 87 3828 3.17 38 17:39 07.03.2021
1759 Clouds -30 1012 87 3430 3.23 40 17:20 07.03.2021
1760 Clouds -30 1012 87 3430 3.23 40 16:43 07.03.2021
1761 Clouds -30 1012 87 3262 3.16 41 16:21 07.03.2021
1762 Clouds -30 1012 87 3262 3.16 41 15:56 07.03.2021
1763 Clouds -30 1012 87 3262 3.16 41 15:38 07.03.2021
1764 Clouds -30 1012 87 3965 3.01 45 15:19 07.03.2021
1765 Clouds -30 1012 87 4715 3.17 52 14:29 07.03.2021
1766 Clouds -30 1012 87 4715 3.17 52 13:51 07.03.2021
1767 Clouds -31 1012 87 5422 3.23 47 13:31 07.03.2021
1768 Clouds -30 1012 86 6172 3.6 49 12:59 07.03.2021
1769 Clouds -30 1012 86 6172 3.6 49 12:40 07.03.2021
1770 Clouds -30 1012 86 6037 4.14 52 12:20 07.03.2021
1771 Clouds -30 1011 86 5632 4.27 53 11:24 07.03.2021
1772 Clouds -30 1011 86 5632 4.27 53 10:56 07.03.2021
1773 Clouds -30 1011 86 5632 4.27 53 10:38 07.03.2021
1774 Clouds -30 1011 86 5632 4.27 53 10:38 07.03.2021
1775 Clouds -30 1011 86 5442 4.39 55 09:56 07.03.2021
1776 Clouds -30 1011 86 5442 4.39 55 09:30 07.03.2021
1777 Clouds -30 1010 86 5282 4.37 58 09:00 07.03.2021
1778 Clouds -30 1010 86 5282 4.37 58 08:40 07.03.2021
1779 Clouds -31 1010 86 5068 4.45 60 08:21 07.03.2021
1780 Clouds -31 1010 85 6065 4.59 62 06:51 07.03.2021
1781 Clouds -29 1008 87 2278 5.77 49 02:40 07.03.2021
1782 Clouds -26 1007 88 714 5.74 50 00:34 07.03.2021
1783 Clouds -25 1007 89 1002 5.55 50 23:40 06.03.2021
1784 Clouds -24 1006 89 1078 5.29 53 23:20 06.03.2021
1785 Clouds -24 1006 89 1078 5.29 53 22:45 06.03.2021
1786 Clouds -24 1006 90 1078 5.44 57 22:21 06.03.2021
1787 Clouds -24 1006 90 1078 5.44 57 21:47 06.03.2021
1788 Clouds -23 1005 90 699 5.52 57 21:20 06.03.2021
1789 Clouds -23 1005 90 699 5.52 57 20:43 06.03.2021
1790 Clouds -22 1005 91 574 5.32 58 20:18 06.03.2021
1791 Clouds -22 1005 91 574 5.32 58 19:38 06.03.2021
1792 Clouds -20 1005 92 552 5.05 65 19:18 06.03.2021
1793 Clouds -20 1005 92 552 5.05 65 18:41 06.03.2021
1794 Clouds -19 1005 92 463 5.09 64 18:21 06.03.2021
1795 Clouds -19 1005 92 460 5.06 64 17:54 06.03.2021
1796 Clouds -19 1005 92 463 5.09 64 17:32 06.03.2021
1797 Clouds -19 1005 92 463 5.16 64 16:58 06.03.2021
1798 Clouds -19 1005 92 463 5.16 64 16:33 06.03.2021
1799 Clouds -18 1004 93 615 5.35 65 15:56 06.03.2021
1800 Clouds -18 1004 93 615 5.35 65 15:38 06.03.2021
1801 Clouds -18 1004 93 778 5.17 66 15:19 06.03.2021
1802 Clouds -17 1004 93 774 5.19 66 14:33 06.03.2021
1803 Clouds -17 1003 93 465 5.05 69 13:55 06.03.2021
1804 Clouds -17 1003 93 465 5.05 69 13:37 06.03.2021
1805 Clouds -16 1003 93 397 4.89 74 13:18 06.03.2021
1806 Clouds -16 1003 93 397 4.89 74 12:42 06.03.2021
1807 Clouds -16 1002 93 520 4.81 75 12:18 06.03.2021
1808 Clouds -16 1002 93 520 4.81 75 11:38 06.03.2021
1809 Clouds -16 1002 93 854 4.75 75 11:19 06.03.2021
1810 Clouds -16 1002 93 854 4.75 75 10:43 06.03.2021
1811 Clouds -15 1002 93 1256 4.94 76 09:57 06.03.2021
1812 Clouds -15 1001 94 1023 5.11 77 09:26 06.03.2021
1813 Clouds -15 1001 94 1023 5.11 77 08:56 06.03.2021
1814 Clouds -15 1001 94 1023 5.11 77 08:31 06.03.2021
1815 Clouds -15 1000 94 573 4.93 78 07:55 06.03.2021
1816 Snow -15 1000 94 431 4.81 72 07:22 06.03.2021
1817 Clouds -15 1000 94 369 4.99 70 06:27 06.03.2021
1818 Clouds -14 1000 95 349 5.57 60 03:49 06.03.2021
1819 Snow -14 1000 95 333 5.21 50 01:42 06.03.2021
1820 Snow -15 1000 95 251 5.18 45 00:47 06.03.2021
1821 Snow -15 999 95 239 5.01 41 23:50 05.03.2021
1822 Snow -15 999 95 264 4.98 39 23:19 05.03.2021
1823 Snow -15 999 95 264 4.98 39 22:44 05.03.2021
1824 Snow -15 999 94 291 4.95 37 22:22 05.03.2021
1825 Snow -15 999 94 291 4.95 37 21:51 05.03.2021
1826 Snow -15 999 94 291 4.95 37 21:31 05.03.2021
1827 Clouds -15 999 94 455 4.84 33 20:50 05.03.2021
1828 Clouds -15 998 94 458 4.86 32 20:26 05.03.2021
1829 Clouds -15 998 94 458 4.86 32 20:26 05.03.2021
1830 Clouds -15 998 94 458 4.86 32 19:54 05.03.2021
1831 Clouds -16 998 94 372 4.77 31 19:26 05.03.2021
1832 Clouds -17 999 93 435 4.78 28 18:55 05.03.2021
1833 Clouds -17 999 93 435 4.78 28 18:36 05.03.2021
1834 Clouds -17 999 93 412 4.87 31 18:18 05.03.2021
1835 Clouds -17 999 93 412 4.87 31 17:33 05.03.2021
1836 Snow -17 999 93 410 5.11 32 16:45 05.03.2021
1837 Clouds -17 998 93 348 5.29 33 16:24 05.03.2021
1838 Clouds -17 998 93 348 5.29 33 15:56 05.03.2021
1839 Snow -17 998 93 360 5.46 35 15:29 05.03.2021
1840 Clouds -18 999 96 334 5.72 29 14:58 05.03.2021
1841 Clouds -18 999 96 334 5.72 29 14:38 05.03.2021
1842 Snow -18 999 96 361 5.87 34 13:46 05.03.2021
1843 Clouds -18 998 96 376 6.15 38 13:21 05.03.2021
1844 Clouds -18 998 96 376 6.15 38 12:48 05.03.2021
1845 Snow -18 998 95 387 6.45 39 11:43 05.03.2021
1846 Clouds -18 998 95 390 6.65 39 11:23 05.03.2021
1847 Clouds -18 998 95 390 6.65 39 10:59 05.03.2021
1848 Clouds -18 998 95 390 6.65 39 10:39 05.03.2021
1849 Clouds -18 997 95 417 6.73 40 10:20 05.03.2021
1850 Clouds -18 997 95 417 6.73 40 09:46 05.03.2021
1851 Clouds -18 997 95 535 6.85 42 09:26 05.03.2021
1852 Clouds -18 997 95 535 6.85 42 08:40 05.03.2021
1853 Clouds -19 996 95 693 6.89 42 08:21 05.03.2021
1854 Clouds -19 996 95 693 6.89 42 07:38 05.03.2021
1855 Clouds -19 997 95 847 6.95 46 06:45 05.03.2021
1856 Clouds -19 997 96 869 6.83 46 06:27 05.03.2021
1857 Clouds -19 996 97 455 7.16 51 01:47 05.03.2021
1858 Clouds -19 996 96 429 7.17 55 00:26 05.03.2021
1859 Clouds -19 996 92 602 7.35 58 23:26 04.03.2021
1860 Clouds -19 996 92 602 7.35 58 22:37 04.03.2021
1861 Clouds -19 996 92 697 7.57 58 21:56 04.03.2021
1862 Clouds -19 996 92 706 7.59 58 21:34 04.03.2021
1863 Clouds -19 996 92 706 7.59 58 21:34 04.03.2021
1864 Clouds -18 996 92 820 7.83 60 20:59 04.03.2021
1865 Clouds -18 996 92 816 7.82 60 20:59 04.03.2021
1866 Clouds -18 996 92 820 7.83 60 20:40 04.03.2021
1867 Clouds -18 995 92 691 7.99 61 20:21 04.03.2021
1868 Clouds -18 995 92 691 7.99 61 19:53 04.03.2021
1869 Clouds -18 996 92 887 8.02 65 19:26 04.03.2021
1870 Clouds -18 996 92 887 8.02 65 18:54 04.03.2021
1871 Clouds -18 996 92 887 8.02 65 18:30 04.03.2021
1872 Clouds -18 996 92 1022 8.17 66 17:57 04.03.2021
1873 Clouds -18 996 92 1022 8.17 66 17:39 04.03.2021
1874 Clouds -17 996 92 804 8.31 67 17:18 04.03.2021
1875 Clouds -17 996 92 804 8.31 67 16:42 04.03.2021
1876 Clouds -17 995 92 881 8.34 69 16:23 04.03.2021
1877 Clouds -17 995 92 881 8.34 69 15:45 04.03.2021
1878 Clouds -17 995 93 955 8.36 71 15:25 04.03.2021
1879 Clouds -17 995 93 955 8.36 71 14:42 04.03.2021
1880 Clouds -16 995 93 848 8.52 73 14:18 04.03.2021
1881 Clouds -16 995 93 848 8.52 73 13:40 04.03.2021
1882 Clouds -16 994 93 675 8.67 74 13:19 04.03.2021
1883 Clouds -16 994 93 576 8.33 73 12:42 04.03.2021
1884 Clouds -16 994 93 574 8.35 74 11:52 04.03.2021
1885 Clouds -16 994 93 574 8.35 74 11:32 04.03.2021
1886 Clouds -16 994 93 759 8.22 76 10:58 04.03.2021
1887 Clouds -16 994 93 759 8.22 76 10:36 04.03.2021
1888 Clouds -16 994 93 593 8.3 78 09:53 04.03.2021
1889 Clouds -16 993 93 528 8.44 78 09:28 04.03.2021
1890 Clouds -16 993 93 529 8.46 78 08:51 04.03.2021
1891 Clouds -16 993 93 596 8.34 78 08:25 04.03.2021
1892 Clouds -16 994 93 616 7.93 78 07:37 04.03.2021
1893 Clouds -16 994 93 570 7.84 79 06:41 04.03.2021
1894 Clouds -16 994 93 510 7.83 80 06:21 04.03.2021
1895 Clouds -16 993 93 629 7.71 77 02:38 04.03.2021
1896 Clouds -15 993 93 651 7.82 83 23:57 03.03.2021
1897 Clouds -15 993 93 611 8.13 83 22:39 03.03.2021
1898 Clouds -15 993 93 1160 8.06 81 22:20 03.03.2021
1899 Clouds -15 993 93 1160 8.06 81 21:41 03.03.2021
1900 Clouds -15 993 93 1724 7.94 80 21:23 03.03.2021
1901 Clouds -15 993 93 1724 7.94 80 20:53 03.03.2021
1902 Clouds -15 993 93 1724 7.94 80 20:35 03.03.2021
1903 Clouds -15 993 93 2058 8.07 81 19:51 03.03.2021
1904 Clouds -15 993 93 2058 8.07 81 19:30 03.03.2021
1905 Clouds -15 994 93 2126 7.88 85 18:56 03.03.2021
1906 Clouds -15 994 93 2126 7.88 85 18:38 03.03.2021
1907 Clouds -15 994 93 3262 7.79 87 17:58 03.03.2021
1908 Clouds -15 993 93 3395 7.84 90 17:22 03.03.2021
1909 Clouds -15 993 93 3395 7.84 90 16:54 03.03.2021
1910 Clouds -14 993 94 3264 7.71 93 16:27 03.03.2021
1911 Clouds -14 993 94 3264 7.71 93 15:54 03.03.2021
1912 Clouds -14 993 94 3264 7.71 93 15:32 03.03.2021
1913 Clouds -14 993 94 3888 7.28 97 14:50 03.03.2021
1914 Clouds -14 993 93 5982 7.18 102 14:27 03.03.2021
1915 Clouds -14 993 93 5982 7.18 102 13:46 03.03.2021
1916 Clouds -13 992 93 2804 7.05 106 13:26 03.03.2021
1917 Clouds -14 993 93 5495 7.06 104 12:43 03.03.2021
1918 Clouds -13 993 94 2414 6.87 105 12:23 03.03.2021
1919 Clouds -13 993 94 2414 6.87 105 11:45 03.03.2021
1920 Clouds -13 992 94 1976 6.3 104 11:27 03.03.2021
1921 Clouds -13 992 94 1976 6.3 104 10:45 03.03.2021
1922 Clouds -13 992 94 1465 6.01 103 10:22 03.03.2021
1923 Clouds -13 992 94 1465 6.01 103 09:43 03.03.2021
1924 Clouds -13 992 95 1225 5.81 102 08:54 03.03.2021
1925 Clouds -13 991 95 1335 5.47 103 08:25 03.03.2021
1926 Clouds -13 991 95 1335 5.47 103 07:58 03.03.2021
1927 Clouds -12 991 95 1329 5.51 103 07:33 03.03.2021
1928 Snow -13 991 95 469 4.59 105 06:29 03.03.2021
1929 Snow -13 991 95 469 4.59 105 05:44 03.03.2021
1930 Clouds -12 991 95 392 4.02 106 04:48 03.03.2021
1931 Clouds -12 991 96 416 4.28 105 04:24 03.03.2021
1932 Snow -10 991 96 229 2.94 125 00:34 03.03.2021
1933 Snow -10 991 96 215 2.97 128 23:35 02.03.2021
1934 Snow -9 990 97 271 2.77 138 22:53 02.03.2021
1935 Snow -9 990 97 365 2.73 151 22:22 02.03.2021
1936 Snow -9 990 97 365 2.73 151 21:54 02.03.2021
1937 Snow -9 990 97 365 2.73 151 21:36 02.03.2021
1938 Clouds -10 990 97 646 1.97 153 20:58 02.03.2021
1939 Clouds -10 990 97 646 1.97 153 20:40 02.03.2021
1940 Clouds -10 990 97 690 1.13 112 20:20 02.03.2021
1941 Clouds -10 990 97 690 1.13 112 19:47 02.03.2021
1942 Clouds -10 990 97 667 1.61 75 19:28 02.03.2021
1943 Snow -9 990 97 248 2.26 165 18:42 02.03.2021
1944 Clouds -9 990 97 450 1.84 162 18:22 02.03.2021
1945 Clouds -9 990 97 450 1.84 162 17:58 02.03.2021
1946 Clouds -9 990 97 450 1.84 162 17:39 02.03.2021
1947 Snow -10 990 97 402 1.71 114 17:19 02.03.2021
1948 Snow -10 990 97 402 1.71 114 17:19 02.03.2021
1949 Snow -10 990 97 402 1.71 114 16:45 02.03.2021
1950 Clouds -11 989 96 453 2.62 90 15:54 02.03.2021
1951 Clouds -12 989 96 1184 3.4 90 15:27 02.03.2021
1952 Clouds -12 989 96 1184 3.4 90 14:50 02.03.2021
1953 Clouds -12 989 96 1051 4.09 94 14:19 02.03.2021
1954 Clouds -12 989 96 1051 4.09 94 13:47 02.03.2021
1955 Clouds -12 988 96 503 4.75 95 13:24 02.03.2021
1956 Snow -11 988 96 359 4.61 91 12:47 02.03.2021
1957 Snow -11 988 95 317 5.58 98 12:25 02.03.2021
1958 Snow -11 988 95 317 5.58 98 11:45 02.03.2021
1959 Clouds -12 988 95 321 6.19 102 11:23 02.03.2021
1960 Clouds -12 988 95 321 6.19 102 10:49 02.03.2021
1961 Clouds -13 987 95 460 6.33 106 10:29 02.03.2021
1962 Clouds -13 987 95 460 6.33 106 09:43 02.03.2021
1963 Clouds -13 986 94 1038 6.41 108 09:24 02.03.2021
1964 Clouds -13 986 94 1038 6.41 108 08:44 02.03.2021
1965 Clouds -13 986 94 2652 6.31 110 08:26 02.03.2021
1966 Clouds -13 986 94 2652 6.31 110 07:43 02.03.2021
1967 Clouds -13 986 94 8299 5.88 116 06:37 02.03.2021
1968 Clouds -14 986 94 2896 5.85 122 05:49 02.03.2021
1969 Clouds -14 986 94 2896 5.85 122 05:30 02.03.2021
1970 Clouds -14 985 93 957 5.66 130 04:24 02.03.2021
1971 Clouds -14 985 92 8126 6.04 144 01:42 02.03.2021
1972 Clouds -14 985 92 10000 5.93 140 01:19 02.03.2021
1973 Snow -13 986 94 537 8.06 163 23:29 01.03.2021
1974 Snow -13 986 94 537 8.06 163 22:43 01.03.2021
1975 Snow -12 985 94 357 8.64 169 22:25 01.03.2021
1976 Snow -12 985 94 357 8.64 169 21:53 01.03.2021
1977 Snow -11 986 94 484 9.02 168 21:24 01.03.2021
1978 Snow -11 986 94 484 9.02 168 21:00 01.03.2021
1979 Snow -11 986 94 484 9.02 168 20:41 01.03.2021
1980 Snow -10 986 95 253 8.15 165 20:19 01.03.2021
1981 Snow -10 986 95 253 8.15 165 19:43 01.03.2021
1982 Snow -10 987 95 252 7.48 164 19:20 01.03.2021
1983 Snow -10 987 95 252 7.48 164 18:42 01.03.2021
1984 Snow -10 988 95 308 6.91 170 18:22 01.03.2021
1985 Snow -10 988 95 308 6.91 170 17:46 01.03.2021
1986 Clouds -10 989 94 1835 6.63 173 17:21 01.03.2021
1987 Clouds -10 989 94 1835 6.63 173 16:46 01.03.2021
1988 Clouds -10 989 93 10000 7.28 180 16:26 01.03.2021
1989 Clouds -10 989 93 10000 7.28 180 15:47 01.03.2021
1990 Clouds -11 990 92 10000 8.38 183 15:22 01.03.2021
1991 Clouds -11 990 92 10000 8.38 183 14:57 01.03.2021
1992 Clouds -11 990 92 10000 8.38 183 14:38 01.03.2021
1993 Clouds -11 991 92 10000 9.5 184 13:47 01.03.2021
1994 Clouds -12 993 92 8643 10.02 183 13:28 01.03.2021
1995 Clouds -12 993 92 8643 10.02 183 12:59 01.03.2021
1996 Clouds -12 993 92 8643 10.02 183 12:40 01.03.2021
1997 Clouds -12 994 92 10000 10.17 182 12:20 01.03.2021
1998 Clouds -12 994 92 10000 10.17 182 11:46 01.03.2021
1999 Clouds -12 994 92 10000 10.17 182 11:46 01.03.2021
2000 Clouds -12 994 92 10000 10.3 184 10:59 01.03.2021
2001 Clouds -12 994 92 10000 10.3 184 10:36 01.03.2021
2002 Clouds -12 995 92 10000 10.41 183 10:18 01.03.2021
2003 Clouds -12 995 92 10000 10.41 183 09:46 01.03.2021
2004 Clouds -13 996 92 10000 10.27 186 09:23 01.03.2021
2005 Clouds -13 996 92 10000 10.27 186 09:23 01.03.2021
2006 Clouds -13 996 92 10000 10.27 186 08:53 01.03.2021
2007 Clouds -14 997 92 10000 9.94 189 08:21 01.03.2021
2008 Clouds -15 999 92 10000 10.02 190 06:54 01.03.2021
2009 Clouds -16 1000 91 10000 9.54 191 06:24 01.03.2021
2010 Clouds -18 1004 91 10000 8.24 198 02:26 01.03.2021
2011 Clouds -17 1006 91 10000 7.68 201 23:41 28.02.2021
2012 Clouds -18 1007 91 4003 7.28 205 22:55 28.02.2021
2013 Clouds -18 1007 91 4300 7.1 206 22:26 28.02.2021
2014 Clouds -18 1007 91 4300 7.1 206 21:54 28.02.2021
2015 Clouds -18 1007 91 4300 7.1 206 21:32 28.02.2021
2016 Clouds -18 1007 91 4054 6.66 206 20:58 28.02.2021
2017 Clouds -18 1007 91 4054 6.66 206 20:38 28.02.2021
2018 Clouds -19 1008 91 8100 6.28 205 19:57 28.02.2021
2019 Clouds -19 1008 91 8100 6.28 205 19:38 28.02.2021
2020 Clouds -19 1008 91 10000 6.25 206 19:20 28.02.2021
2021 Clouds -19 1008 91 10000 6.25 206 18:43 28.02.2021
2022 Clouds -18 1009 91 10000 6.43 208 18:25 28.02.2021
2023 Clouds -18 1009 91 10000 6.43 208 18:24 28.02.2021
2024 Clouds -18 1009 91 10000 6.43 208 17:48 28.02.2021
2025 Clouds -18 1009 91 10000 6.4 211 17:28 28.02.2021
2026 Clouds -18 1009 91 10000 6.4 211 16:56 28.02.2021
2027 Clouds -18 1009 91 10000 6.4 211 16:37 28.02.2021
2028 Clouds -18 1009 91 10000 6.5 210 15:57 28.02.2021
2029 Clouds -18 1009 91 10000 6.5 210 15:37 28.02.2021
2030 Clouds -17 1009 91 9091 6.81 207 15:18 28.02.2021
2031 Clouds -17 1009 91 9091 6.81 207 14:48 28.02.2021
2032 Clouds -17 1010 92 2021 6.39 205 14:26 28.02.2021
2033 Clouds -17 1010 91 3318 6.51 207 13:52 28.02.2021
2034 Clouds -17 1010 92 1081 6.14 207 13:20 28.02.2021
2035 Clouds -17 1010 92 1081 6.14 207 12:56 28.02.2021
2036 Clouds -17 1010 92 1081 6.14 207 12:37 28.02.2021
2037 Clouds -17 1010 91 1604 6.43 208 12:19 28.02.2021
2038 Clouds -17 1010 91 1604 6.43 208 11:44 28.02.2021
2039 Clouds -17 1010 91 1416 6.9 208 11:25 28.02.2021
2040 Clouds -17 1010 91 1416 6.9 208 10:55 28.02.2021
2041 Clouds -17 1010 92 619 7.31 208 10:29 28.02.2021
2042 Clouds -17 1010 92 619 7.31 208 09:51 28.02.2021
2043 Clouds -17 1010 92 619 7.31 208 09:33 28.02.2021
2044 Snow -17 1009 92 457 7.6 208 08:50 28.02.2021
2045 Snow -17 1009 92 457 7.6 208 08:31 28.02.2021
2046 Clouds -18 1010 91 864 7.56 206 07:57 28.02.2021
2047 Clouds -18 1010 91 864 7.56 206 07:37 28.02.2021
2048 Clouds -18 1010 90 1875 7.63 207 06:55 28.02.2021
2049 Clouds -18 1010 89 10000 7.75 203 05:25 28.02.2021
2050 Clouds -18 1010 89 10000 7.47 200 03:44 28.02.2021
2051 Clouds -18 1011 89 10000 7.23 199 01:55 28.02.2021
2052 Clouds -18 1011 89 10000 7.23 198 00:52 28.02.2021
2053 Clouds -18 1011 89 10000 7.27 198 00:34 28.02.2021
2054 Clouds -18 1012 89 10000 7.21 198 23:45 27.02.2021
2055 Clouds -18 1012 89 10000 7.07 201 23:19 27.02.2021
2056 Clouds -18 1012 89 10000 7.07 201 22:45 27.02.2021
2057 Clouds -18 1011 89 10000 7.17 203 22:21 27.02.2021
2058 Clouds -18 1011 89 10000 7.17 203 21:46 27.02.2021
2059 Clouds -18 1011 89 10000 7.46 202 21:24 27.02.2021
2060 Clouds -18 1011 89 10000 7.46 202 20:49 27.02.2021
2061 Clouds -18 1012 89 10000 7.67 200 20:28 27.02.2021
2062 Clouds -18 1012 89 10000 7.67 200 19:46 27.02.2021
2063 Clouds -18 1013 88 10000 7.57 199 19:27 27.02.2021
2064 Clouds -18 1013 88 10000 7.06 201 18:55 27.02.2021
2065 Clouds -18 1013 88 10000 7.06 201 18:36 27.02.2021
2066 Clouds -19 1013 87 10000 7.2 199 18:18 27.02.2021
2067 Clouds -19 1013 87 10000 7.2 199 17:41 27.02.2021
2068 Clouds -19 1013 87 10000 7.14 199 17:19 27.02.2021
2069 Clouds -19 1013 87 10000 7.14 199 16:49 27.02.2021
2070 Clouds -19 1013 88 10000 7.11 200 16:28 27.02.2021
2071 Clouds -19 1013 88 10000 7.11 200 15:46 27.02.2021
2072 Clouds -19 1014 88 10000 7.18 200 15:19 27.02.2021
2073 Clouds -19 1014 88 10000 7.18 200 14:41 27.02.2021
2074 Clouds -20 1015 88 10000 7 198 14:21 27.02.2021
2075 Clouds -20 1015 88 10000 7 198 13:43 27.02.2021
2076 Clouds -20 1015 88 10000 6.67 198 13:19 27.02.2021
2077 Clouds -20 1015 88 10000 6.67 198 12:45 27.02.2021
2078 Clouds -20 1015 88 10000 6.67 198 12:45 27.02.2021
2079 Clouds -19 1015 88 10000 6.82 200 12:24 27.02.2021
2080 Clouds -19 1015 88 10000 6.81 200 11:47 27.02.2021
2081 Clouds -19 1015 88 10000 7.3 202 11:29 27.02.2021
2082 Clouds -19 1015 88 10000 7.3 202 10:51 27.02.2021
2083 Clouds -19 1015 88 10000 7.74 203 10:32 27.02.2021
2084 Clouds -19 1015 88 10000 7.73 204 09:53 27.02.2021
2085 Clouds -19 1015 88 10000 7.73 204 09:31 27.02.2021
2086 Clouds -19 1015 88 10000 7.86 204 08:43 27.02.2021
2087 Clear -19 1015 87 10000 7.81 203 08:24 27.02.2021
2088 Clear -19 1015 87 10000 7.81 203 07:44 27.02.2021
2089 Clouds -20 1015 87 10000 7.22 202 06:55 27.02.2021
2090 Clouds -19 1016 88 10000 5.39 192 01:22 27.02.2021
2091 Clouds -19 1016 88 10000 5.39 192 01:22 27.02.2021
2092 Clouds -18 1016 88 10000 5.59 193 00:26 27.02.2021
2093 Clouds -18 1016 88 10000 5.59 193 23:40 26.02.2021
2094 Clouds -18 1016 89 10000 5.96 200 23:20 26.02.2021
2095 Clouds -18 1016 89 10000 5.96 200 22:33 26.02.2021
2096 Clouds -17 1015 89 10000 6.54 204 21:53 26.02.2021
2097 Clouds -17 1015 89 10000 6.54 204 21:35 26.02.2021
2098 Clouds -17 1015 89 10000 7.06 205 20:55 26.02.2021
2099 Clouds -17 1015 89 10000 7.06 205 20:36 26.02.2021
2100 Clouds -17 1015 89 10000 7.33 204 20:18 26.02.2021
2101 Clouds -18 1016 89 10000 7.48 200 19:26 26.02.2021
2102 Clouds -18 1016 89 10000 6.67 200 18:52 26.02.2021
2103 Clouds -18 1016 88 10000 6.99 199 18:24 26.02.2021
2104 Clouds -18 1016 88 10000 6.99 199 17:56 26.02.2021
2105 Clouds -18 1016 88 10000 6.99 199 17:36 26.02.2021
2106 Clouds -18 1016 88 10000 6.85 198 16:58 26.02.2021
2107 Clouds -18 1016 88 10000 6.85 198 16:40 26.02.2021
2108 Clouds -18 1016 88 10000 6.85 198 16:40 26.02.2021
2109 Clouds -18 1016 88 10000 6.74 198 16:22 26.02.2021
2110 Clouds -18 1016 88 10000 6.74 198 15:43 26.02.2021
2111 Clouds -19 1016 88 10000 6.69 198 15:23 26.02.2021
2112 Clouds -19 1016 88 10000 6.69 198 14:52 26.02.2021
2113 Clouds -19 1016 88 10000 6.69 198 14:34 26.02.2021
2114 Clouds -19 1017 88 10000 6.08 197 13:49 26.02.2021
2115 Clouds -18 1017 88 10000 6 196 13:30 26.02.2021
2116 Clouds -18 1017 88 10000 5.98 196 12:48 26.02.2021
2117 Clouds -18 1017 88 10000 5.99 199 12:26 26.02.2021
2118 Clouds -18 1017 88 10000 5.99 199 11:40 26.02.2021
2119 Clouds -18 1017 88 10000 6.13 201 10:55 26.02.2021
2120 Clouds -18 1016 87 10000 6.43 202 10:24 26.02.2021
2121 Clouds -18 1016 87 10000 6.43 202 09:47 26.02.2021
2122 Clouds -18 1016 87 10000 7.07 203 09:27 26.02.2021
2123 Clouds -18 1016 87 10000 7.07 203 08:33 26.02.2021
2124 Clouds -18 1016 87 10000 7.39 204 07:56 26.02.2021
2125 Clouds -18 1016 87 10000 7.24 202 07:20 26.02.2021
2126 Clouds -19 1017 88 10000 7.21 201 06:28 26.02.2021
2127 Clouds -18 1017 88 10000 6.99 201 04:59 26.02.2021
2128 Clouds -18 1017 89 10000 7.08 204 02:38 26.02.2021
2129 Clouds -17 1017 90 10000 7.45 204 00:27 26.02.2021
2130 Clouds -17 1017 90 10000 7.45 204 23:39 25.02.2021
2131 Clouds -17 1017 90 10000 7.66 203 22:57 25.02.2021
2132 Clouds -17 1017 90 10000 7.64 203 22:37 25.02.2021
2133 Clouds -17 1017 90 10000 7.95 202 21:50 25.02.2021
2134 Clouds -17 1017 90 10000 7.95 202 21:31 25.02.2021
2135 Clouds -17 1017 90 10000 7.96 202 20:44 25.02.2021
2136 Clouds -18 1018 90 10000 7.86 203 20:25 25.02.2021
2137 Clouds -18 1018 90 10000 7.86 203 19:58 25.02.2021
2138 Clouds -18 1018 90 10000 7.86 203 19:39 25.02.2021
2139 Clouds -18 1018 89 10000 7.48 204 19:19 25.02.2021
2140 Clouds -18 1018 89 10000 7.48 204 18:39 25.02.2021
2141 Clouds -18 1018 89 10000 7.53 202 17:59 25.02.2021
2142 Clouds -18 1018 89 10000 7.53 202 17:31 25.02.2021
2143 Clouds -18 1019 90 10000 7.71 199 16:55 25.02.2021
2144 Clouds -18 1019 90 10000 7.71 199 16:33 25.02.2021
2145 Clouds -17 1019 91 10000 7.69 198 15:48 25.02.2021
2146 Clouds -18 1019 91 10000 7.49 198 15:28 25.02.2021
2147 Clouds -18 1019 91 10000 7.49 198 14:32 25.02.2021
2148 Clouds -18 1020 91 10000 7.25 199 13:59 25.02.2021
2149 Clouds -18 1020 91 10000 7.25 199 13:40 25.02.2021
2150 Clouds -18 1020 91 10000 7.34 201 13:19 25.02.2021
2151 Clouds -18 1020 91 10000 7.2 203 12:24 25.02.2021
2152 Clouds -18 1020 91 10000 7.2 203 11:57 25.02.2021
2153 Clouds -18 1020 91 10000 7.2 203 11:39 25.02.2021
2154 Clouds -18 1020 90 10000 7.3 204 10:51 25.02.2021
2155 Clouds -19 1020 89 10000 7.62 203 10:32 25.02.2021
2156 Clouds -19 1020 89 10000 7.58 203 09:45 25.02.2021
2157 Clouds -19 1021 89 10000 7.71 203 09:22 25.02.2021
2158 Clouds -19 1021 89 10000 7.71 203 08:30 25.02.2021
2159 Clouds -19 1021 89 10000 7.78 204 07:58 25.02.2021
2160 Clouds -19 1021 89 10000 7.78 204 07:38 25.02.2021
2161 Clouds -20 1022 88 10000 7.9 204 06:57 25.02.2021
2162 Clear -21 1022 89 10000 6.93 203 04:22 25.02.2021
2163 Clear -21 1024 89 10000 7.53 207 01:39 25.02.2021
2164 Clouds -21 1024 89 10000 7.43 207 00:46 25.02.2021
2165 Clouds -21 1025 90 10000 7.19 207 23:56 24.02.2021
2166 Clouds -21 1025 90 10000 7.19 207 23:32 24.02.2021
2167 Clouds -21 1025 90 10000 7.04 207 22:46 24.02.2021
2168 Clouds -20 1025 90 10000 7.19 207 22:26 24.02.2021
2169 Clouds -20 1025 90 10000 7.19 207 21:48 24.02.2021
2170 Clouds -20 1026 90 10000 7.27 209 21:24 24.02.2021
2171 Clouds -20 1026 90 10000 7.27 209 20:45 24.02.2021
2172 Clouds -20 1026 90 10000 7.4 212 20:22 24.02.2021
2173 Clouds -20 1026 90 10000 7.4 212 19:40 24.02.2021
2174 Clouds -20 1027 90 10000 7.43 212 19:20 24.02.2021
2175 Clear -20 1027 89 10000 7.24 212 18:48 24.02.2021
2176 Clear -21 1027 89 10000 7.17 215 18:29 24.02.2021
2177 Clear -21 1027 89 10000 7.17 215 17:39 24.02.2021
2178 Clear -21 1027 88 10000 7.19 216 17:20 24.02.2021
2179 Clear -21 1027 88 10000 7.19 216 16:45 24.02.2021
2180 Clear -21 1027 88 10000 7.1 218 16:20 24.02.2021
2181 Clear -21 1027 88 10000 7.1 218 15:47 24.02.2021
2182 Clear -21 1028 88 10000 7.05 220 15:25 24.02.2021
2183 Clear -21 1028 88 10000 7.05 220 14:35 24.02.2021
2184 Clear -20 1029 89 10000 7.08 222 13:59 24.02.2021
2185 Clear -20 1029 89 10000 7.08 222 13:40 24.02.2021
2186 Clouds -20 1030 89 10000 7.09 223 13:22 24.02.2021
2187 Clouds -20 1030 89 10000 6.83 224 12:45 24.02.2021
2188 Clouds -20 1030 89 10000 6.78 226 12:26 24.02.2021
2189 Clouds -20 1030 89 10000 6.78 226 11:50 24.02.2021
2190 Clouds -20 1030 89 10000 6.92 231 11:21 24.02.2021
2191 Clouds -20 1030 89 10000 6.92 231 10:32 24.02.2021
2192 Clouds -20 1030 90 10000 7.23 233 09:50 24.02.2021
2193 Clouds -20 1031 90 10000 7.68 234 09:20 24.02.2021
2194 Clouds -20 1031 90 10000 7.68 234 08:37 24.02.2021
2195 Clouds -20 1031 90 10000 7.44 230 08:19 24.02.2021
2196 Clouds -21 1032 89 10000 7.28 223 07:20 24.02.2021
2197 Clouds -21 1032 89 10000 7.28 223 06:42 24.02.2021
2198 Clouds -21 1032 91 10000 6.96 222 03:40 24.02.2021
2199 Clouds -21 1034 91 10000 5.85 222 00:37 24.02.2021
2200 Clouds -21 1034 91 10000 5.52 227 23:29 23.02.2021
2201 Clouds -21 1034 91 10000 5.52 227 22:40 23.02.2021
2202 Clouds -21 1034 91 10000 5.52 227 22:40 23.02.2021
2203 Clouds -21 1034 91 10000 5.37 227 22:20 23.02.2021
2204 Clouds -21 1034 91 10000 5.37 227 22:20 23.02.2021
2205 Clouds -21 1034 91 10000 5.37 227 21:44 23.02.2021
2206 Clouds -21 1035 91 10000 5.12 229 21:24 23.02.2021
2207 Clouds -21 1035 91 10000 5.12 229 20:48 23.02.2021
2208 Clouds -21 1035 91 10000 4.87 229 20:29 23.02.2021
2209 Clouds -21 1035 91 10000 4.87 229 19:48 23.02.2021
2210 Clouds -22 1035 90 10000 5.07 226 19:28 23.02.2021
2211 Clouds -22 1035 90 10000 5.07 226 18:58 23.02.2021
2212 Clouds -22 1035 90 10000 5.07 226 18:39 23.02.2021
2213 Clouds -22 1036 90 10000 4.99 228 18:18 23.02.2021
2214 Clouds -22 1036 90 10000 4.99 228 17:39 23.02.2021
2215 Clouds -22 1036 90 10000 4.78 230 16:56 23.02.2021
2216 Clouds -22 1036 90 10000 4.78 230 16:36 23.02.2021
2217 Clouds -22 1036 90 10000 4.73 232 16:18 23.02.2021
2218 Clouds -22 1036 90 10000 4.73 232 15:40 23.02.2021
2219 Clouds -22 1036 90 10000 4.62 235 15:21 23.02.2021
2220 Clouds -22 1036 90 10000 4.62 235 14:44 23.02.2021
2221 Clouds -22 1036 90 10000 4.49 234 14:25 23.02.2021
2222 Clouds -22 1036 90 10000 4.49 234 13:47 23.02.2021
2223 Clouds -21 1036 91 7088 4.21 236 13:26 23.02.2021
2224 Clouds -21 1036 91 7461 4.03 239 12:51 23.02.2021
2225 Clouds -21 1036 91 5911 3.49 244 12:20 23.02.2021
2226 Clouds -21 1036 91 5911 3.49 244 11:48 23.02.2021
2227 Clouds -20 1035 91 4373 3.26 252 11:22 23.02.2021
2228 Clouds -20 1035 91 4373 3.26 252 10:51 23.02.2021
2229 Clouds -20 1035 91 4373 3.26 252 10:32 23.02.2021
2230 Clouds -20 1035 92 4330 2.84 258 09:45 23.02.2021
2231 Clouds -20 1035 92 4618 2.4 263 09:25 23.02.2021
2232 Clouds -20 1035 92 4618 2.4 263 08:51 23.02.2021
2233 Clouds -20 1035 92 4215 2.24 277 08:24 23.02.2021
2234 Clouds -20 1035 92 4215 2.24 277 07:53 23.02.2021
2235 Clouds -20 1035 92 5001 1.99 298 05:40 23.02.2021
2236 Clouds -19 1035 92 3340 2.09 310 04:58 23.02.2021
2237 Clouds -19 1034 93 2111 2.28 331 02:34 23.02.2021
2238 Clouds -17 1034 94 1290 2.4 341 00:20 23.02.2021
2239 Clouds -17 1034 94 1290 2.4 341 23:57 22.02.2021
2240 Clouds -16 1034 94 1430 2.44 345 23:21 22.02.2021
2241 Clouds -16 1034 94 1430 2.44 345 22:41 22.02.2021
2242 Clouds -16 1033 94 1295 2.41 352 22:20 22.02.2021
2243 Clouds -16 1033 94 1295 2.41 352 21:45 22.02.2021
2244 Clouds -16 1033 94 1295 2.41 352 21:45 22.02.2021
2245 Clouds -16 1033 94 875 2.46 358 21:23 22.02.2021
2246 Clouds -16 1033 94 878 2.48 358 20:51 22.02.2021
2247 Clouds -16 1033 94 871 2.46 4 20:29 22.02.2021
2248 Clouds -16 1033 94 871 2.46 4 19:53 22.02.2021
2249 Clouds -16 1033 94 871 2.46 4 19:35 22.02.2021
2250 Clouds -16 1033 94 582 2.73 7 18:56 22.02.2021
2251 Clouds -16 1033 94 582 2.73 7 18:37 22.02.2021
2252 Clouds -16 1033 94 596 2.99 12 18:19 22.02.2021
2253 Clouds -16 1032 94 657 2.89 4 17:25 22.02.2021
2254 Clouds -16 1032 94 657 2.89 4 16:54 22.02.2021
2255 Clouds -16 1032 94 657 2.89 4 16:32 22.02.2021
2256 Clouds -16 1031 94 681 2.65 346 15:46 22.02.2021
2257 Clouds -16 1031 94 742 2.42 330 15:27 22.02.2021
2258 Clouds -16 1031 94 742 2.42 330 14:47 22.02.2021
2259 Clouds -16 1031 94 794 2.28 323 14:28 22.02.2021
2260 Clouds -16 1031 94 794 2.28 323 13:46 22.02.2021
2261 Clouds -17 1031 93 799 2.06 312 12:56 22.02.2021
2262 Clouds -17 1031 93 664 2.13 321 12:24 22.02.2021
2263 Clouds -17 1031 93 664 2.13 321 11:58 22.02.2021
2264 Clouds -17 1031 93 664 2.13 321 11:39 22.02.2021
2265 Clouds -17 1031 93 491 2.24 331 11:20 22.02.2021
2266 Clouds -17 1031 93 491 2.24 331 10:46 22.02.2021
2267 Clouds -17 1030 93 540 2.5 340 10:22 22.02.2021
2268 Clouds -17 1030 93 540 2.5 340 09:41 22.02.2021
2269 Clouds -18 1031 93 626 2.64 345 09:22 22.02.2021
2270 Clouds -18 1031 93 626 2.64 345 08:49 22.02.2021
2271 Clouds -18 1031 93 546 2.69 348 08:24 22.02.2021
2272 Clouds -18 1031 93 544 2.7 348 07:53 22.02.2021
2273 Clouds -19 1031 92 825 2.61 350 07:25 22.02.2021
2274 Clouds -19 1031 92 846 2.5 354 06:29 22.02.2021
2275 Clouds -20 1031 92 665 2.65 4 05:26 22.02.2021
2276 Clouds -20 1031 92 714 3.21 8 03:25 22.02.2021
2277 Clouds -20 1031 92 717 3.23 8 02:33 22.02.2021
2278 Clouds -19 1031 92 767 2.91 1 00:45 22.02.2021
2279 Clouds -20 1031 92 1026 2.84 6 00:19 22.02.2021
2280 Clouds -19 1031 92 854 3.02 10 23:27 21.02.2021
2281 Clouds -19 1031 92 854 3.02 10 22:40 21.02.2021
2282 Clouds -19 1031 92 1089 3.07 16 22:21 21.02.2021
2283 Clouds -19 1031 92 1089 3.07 16 21:36 21.02.2021
2284 Clouds -19 1031 92 1136 3.28 20 20:58 21.02.2021
2285 Clouds -19 1031 92 1136 3.28 20 20:39 21.02.2021
2286 Clouds -20 1032 92 1014 3.11 21 20:19 21.02.2021
2287 Clouds -20 1032 92 1014 3.11 21 19:49 21.02.2021
2288 Clouds -21 1032 91 2364 2.57 28 19:30 21.02.2021
2289 Clouds -21 1032 91 2403 2.68 26 18:40 21.02.2021
2290 Clouds -21 1032 91 1710 2.86 27 18:22 21.02.2021
2291 Clouds -22 1031 91 1763 2.99 26 17:29 21.02.2021
2292 Clouds -22 1031 91 1763 2.99 26 16:55 21.02.2021
2293 Clouds -22 1031 91 1763 2.99 26 16:34 21.02.2021
2294 Clouds -22 1031 91 2027 3.08 25 15:54 21.02.2021
2295 Clouds -22 1031 91 1998 3.28 23 15:22 21.02.2021
2296 Clouds -22 1031 91 1998 3.28 23 14:49 21.02.2021
2297 Clouds -22 1031 91 1977 3.46 23 14:27 21.02.2021
2298 Clouds -22 1032 90 1382 3.54 19 13:46 21.02.2021
2299 Clouds -23 1032 90 1613 3.58 16 13:23 21.02.2021
2300 Clouds -23 1032 90 1613 3.58 16 12:31 21.02.2021
2301 Clouds -23 1032 90 2106 3.37 19 11:45 21.02.2021
2302 Clouds -23 1032 89 1754 3.49 27 11:20 21.02.2021
2303 Clouds -24 1032 89 1471 3.89 31 10:25 21.02.2021
2304 Clouds -24 1032 89 1471 3.89 31 09:57 21.02.2021
2305 Clouds -24 1032 89 1471 3.89 31 09:35 21.02.2021
2306 Clouds -25 1032 89 1006 4.14 34 08:59 21.02.2021
2307 Clouds -25 1032 89 1006 4.14 34 08:30 21.02.2021
2308 Clouds -26 1032 88 820 4.21 23 07:37 21.02.2021
2309 Clouds -28 1032 88 1032 3.93 14 06:59 21.02.2021
2310 Clouds -28 1032 88 3082 4.18 9 04:44 21.02.2021
2311 Clouds -29 1032 87 2172 3.37 2 02:31 21.02.2021
2312 Clouds -31 1033 86 4205 3 8 00:47 21.02.2021
2313 Clouds -32 1033 85 3694 3.16 17 00:20 21.02.2021
2314 Clouds -33 1033 85 7063 3.01 18 23:25 20.02.2021
2315 Clouds -33 1033 85 7063 3.01 18 22:46 20.02.2021
2316 Clouds -33 1033 84 10000 2.78 27 22:27 20.02.2021
2317 Clouds -33 1033 84 10000 2.78 27 21:45 20.02.2021
2318 Clouds -34 1032 84 10000 2.72 36 21:26 20.02.2021
2319 Clouds -34 1032 84 10000 2.72 36 20:48 20.02.2021
2320 Clouds -35 1033 84 10000 2.85 43 20:24 20.02.2021
2321 Clouds -35 1033 84 10000 2.85 43 19:52 20.02.2021
2322 Clouds -35 1033 84 10000 2.85 43 19:30 20.02.2021
2323 Clouds -35 1033 84 10000 3 45 18:45 20.02.2021
2324 Clouds -35 1032 84 10000 3.2 48 18:24 20.02.2021
2325 Clouds -35 1032 84 10000 3.2 48 17:41 20.02.2021
2326 Clouds -35 1032 84 9742 3.24 47 17:22 20.02.2021
2327 Clouds -35 1032 84 9742 3.24 47 16:33 20.02.2021
2328 Clouds -35 1031 84 9728 3.17 48 15:56 20.02.2021
2329 Clouds -35 1031 84 9728 3.17 48 15:36 20.02.2021
2330 Clouds -35 1031 84 9469 3.4 48 14:49 20.02.2021
2331 Clouds -34 1031 84 8813 3.54 49 14:24 20.02.2021
2332 Clouds -34 1031 84 8813 3.54 49 13:49 20.02.2021
2333 Clouds -35 1031 84 9624 3.46 50 13:27 20.02.2021
2334 Clouds -35 1031 84 9624 3.46 50 13:27 20.02.2021
2335 Clouds -35 1031 84 9624 3.46 50 12:51 20.02.2021
2336 Clouds -35 1031 84 9624 3.46 50 12:32 20.02.2021
2337 Clouds -34 1031 83 10000 3.57 55 11:44 20.02.2021
2338 Clouds -34 1030 83 10000 3.78 60 11:26 20.02.2021
2339 Clouds -34 1030 83 10000 3.78 60 10:50 20.02.2021
2340 Clouds -34 1029 83 9348 4.07 63 09:59 20.02.2021
2341 Clouds -34 1029 83 9348 4.07 63 09:40 20.02.2021
2342 Clouds -35 1029 82 9057 4.48 63 08:48 20.02.2021
2343 Clouds -35 1028 82 9011 4.6 63 08:18 20.02.2021
2344 Clouds -35 1026 83 9617 4.72 52 03:33 20.02.2021
2345 Clouds -33 1025 85 6764 4.7 43 02:28 20.02.2021
2346 Clouds -33 1025 85 6764 4.7 43 01:50 20.02.2021
2347 Clouds -33 1025 85 8356 4.41 38 00:48 20.02.2021
2348 Clouds -32 1024 85 7575 4.57 36 00:23 20.02.2021
2349 Clouds -30 1023 87 5777 4.81 33 23:19 19.02.2021
2350 Clouds -29 1022 87 3137 5.23 31 22:28 19.02.2021
2351 Clouds -29 1022 87 3137 5.23 31 21:58 19.02.2021
2352 Clouds -29 1022 87 3137 5.23 31 21:32 19.02.2021
2353 Clouds -28 1022 87 1933 5.37 25 20:57 19.02.2021
2354 Clouds -28 1022 87 1933 5.37 25 20:37 19.02.2021
2355 Clouds -27 1022 87 1694 5.05 17 20:18 19.02.2021
2356 Clouds -27 1022 87 1694 5.05 17 19:30 19.02.2021
2357 Clouds -27 1022 87 1483 4.73 15 18:57 19.02.2021
2358 Clouds -27 1022 87 1483 4.73 15 18:35 19.02.2021
2359 Clouds -27 1022 87 1000 4.89 14 17:56 19.02.2021
2360 Clouds -27 1022 87 1619 4.11 9 17:23 19.02.2021
2361 Clouds -27 1022 87 1619 4.11 9 16:39 19.02.2021
2362 Clouds -28 1021 88 2237 3.49 9 16:20 19.02.2021
2363 Clouds -28 1021 96 2237 3.49 9 15:45 19.02.2021
2364 Clouds -27 1021 94 2231 4.02 15 15:27 19.02.2021
2365 Clouds -27 1021 94 2231 4.02 15 14:38 19.02.2021
2366 Clouds -27 1022 93 2829 4.2 14 14:20 19.02.2021
2367 Clouds -28 1022 92 2776 4.51 18 13:44 19.02.2021
2368 Clouds -27 1022 92 1955 3.98 10 13:24 19.02.2021
2369 Clouds -27 1022 92 1955 3.98 10 12:44 19.02.2021
2370 Clouds -28 1022 92 3091 3.26 7 12:23 19.02.2021
2371 Clouds -28 1022 92 3091 3.26 7 11:51 19.02.2021
2372 Clouds -28 1021 92 2619 3.11 13 11:26 19.02.2021
2373 Clouds -28 1021 92 2619 3.11 13 10:51 19.02.2021
2374 Clouds -29 1021 91 3520 3.08 17 10:22 19.02.2021
2375 Clouds -29 1021 91 3520 3.08 17 09:48 19.02.2021
2376 Clouds -29 1021 93 2851 3.12 30 09:26 19.02.2021
2377 Clouds -29 1021 93 2851 3.12 30 08:53 19.02.2021
2378 Clouds -30 1021 94 2833 3.17 34 08:24 19.02.2021
2379 Clouds -30 1021 94 2833 3.17 34 07:49 19.02.2021
2380 Clouds -31 1021 95 3671 3.05 34 07:30 19.02.2021
2381 Clouds -32 1021 96 5861 2.93 30 06:53 19.02.2021
2382 Clouds -33 1020 97 7740 2.61 35 05:28 19.02.2021
2383 Clouds -33 1020 97 7740 2.61 35 04:41 19.02.2021
2384 Clouds -32 1021 98 6415 3.48 41 01:47 19.02.2021
2385 Clouds -32 1021 97 8008 3.62 41 00:37 19.02.2021
2386 Clouds -31 1020 97 8043 3.45 40 23:55 18.02.2021
2387 Clouds -31 1020 97 8043 3.45 40 23:35 18.02.2021
2388 Clouds -31 1020 98 7506 3.63 43 22:50 18.02.2021
2389 Clouds -30 1019 98 5537 4.03 42 22:29 18.02.2021
2390 Clouds -30 1019 98 5874 4.04 42 21:48 18.02.2021
2391 Clouds -29 1019 98 4411 4.26 38 21:25 18.02.2021
2392 Clouds -29 1019 98 4411 4.26 38 20:43 18.02.2021
2393 Clouds -28 1019 98 3704 3.35 24 20:23 18.02.2021
2394 Clouds -28 1019 98 3704 3.35 24 19:47 18.02.2021
2395 Clouds -28 1019 99 3530 2.58 5 19:28 18.02.2021
2396 Clouds -28 1019 98 3547 3 4 18:53 18.02.2021
2397 Clouds -28 1019 98 3547 3 4 18:30 18.02.2021
2398 Clouds -29 1019 99 3694 2.38 340 17:53 18.02.2021
2399 Clouds -29 1019 99 3189 1.97 313 17:26 18.02.2021
2400 Clouds -29 1019 99 3189 1.97 313 16:56 18.02.2021
2401 Clouds -29 1019 99 3189 1.97 313 16:38 18.02.2021
2402 Clouds -29 1019 99 3082 1.88 289 16:18 18.02.2021
2403 Clouds -29 1019 99 3082 1.88 289 15:38 18.02.2021
2404 Clouds -29 1018 98 2641 2.11 280 15:19 18.02.2021
2405 Clouds -29 1018 98 2641 2.11 280 14:46 18.02.2021
2406 Clouds -29 1018 97 2918 2.29 270 14:27 18.02.2021
2407 Clouds -30 1018 96 4266 2.11 271 13:45 18.02.2021
2408 Clouds -29 1018 97 2918 2.29 270 13:45 18.02.2021
2409 Clouds -30 1019 94 10000 2.21 268 13:18 18.02.2021
2410 Clouds -30 1019 94 10000 2.21 268 12:44 18.02.2021
2411 Clouds -29 1019 93 10000 2.19 269 12:22 18.02.2021
2412 Clouds -29 1019 93 10000 2.19 269 11:46 18.02.2021
2413 Clouds -28 1019 91 10000 2.17 263 11:26 18.02.2021
2414 Clouds -28 1019 91 10000 2.17 263 10:47 18.02.2021
2415 Clouds -28 1019 91 10000 2.12 257 10:29 18.02.2021
2416 Clouds -28 1019 85 10000 2.12 257 09:46 18.02.2021
2417 Clouds -28 1019 91 10000 1.89 255 09:24 18.02.2021
2418 Clouds -28 1019 85 10000 1.89 255 08:47 18.02.2021
2419 Clouds -29 1019 85 10000 1.64 250 08:25 18.02.2021
2420 Clouds -29 1019 85 10000 1.64 250 07:34 18.02.2021
2421 Clouds -30 1020 83 10000 2.19 240 06:53 18.02.2021
2422 Clouds -30 1019 82 10000 2.22 224 02:54 18.02.2021
2423 Clouds -31 1020 83 10000 1.71 227 23:55 17.02.2021
2424 Clouds -31 1021 83 10000 1.42 212 23:24 17.02.2021
2425 Clouds -31 1021 83 10000 1.42 212 22:52 17.02.2021
2426 Clouds -32 1020 85 10000 0.74 187 22:26 17.02.2021
2427 Clouds -32 1020 85 10000 0.74 187 21:56 17.02.2021
2428 Clouds -32 1020 85 10000 0.31 199 21:22 17.02.2021
2429 Clouds -32 1020 85 10000 0.31 199 20:49 17.02.2021
2430 Clouds -32 1020 85 10000 0.31 199 20:31 17.02.2021
2431 Clouds -32 1020 85 10000 0.57 249 19:50 17.02.2021
2432 Clouds -32 1020 85 10000 0.57 249 19:32 17.02.2021
2433 Clouds -32 1021 85 10000 1.35 251 18:46 17.02.2021
2434 Clouds -32 1021 86 10000 1.19 239 18:26 17.02.2021
2435 Clouds -32 1021 86 10000 1.19 239 17:42 17.02.2021
2436 Clouds -32 1020 86 10000 0.73 245 17:20 17.02.2021
2437 Clouds -32 1020 86 10000 0.73 245 16:47 17.02.2021
2438 Clouds -32 1020 86 10000 0.23 311 16:28 17.02.2021
2439 Clouds -32 1020 86 10000 0.23 311 15:45 17.02.2021
2440 Clouds -32 1020 86 10000 0.75 31 15:27 17.02.2021
2441 Clouds -32 1020 86 10000 0.75 31 14:50 17.02.2021
2442 Clouds -31 1020 87 10000 0.93 353 14:29 17.02.2021
2443 Clouds -31 1020 87 10000 0.93 353 13:50 17.02.2021
2444 Clouds -31 1020 87 10000 0.93 353 13:32 17.02.2021
2445 Clouds -31 1020 86 10000 1.31 341 12:50 17.02.2021
2446 Clouds -31 1020 86 10000 1.6 338 12:25 17.02.2021
2447 Clouds -31 1020 86 10000 1.6 338 11:46 17.02.2021
2448 Clouds -30 1019 86 10000 1.64 344 11:28 17.02.2021
2449 Clouds -30 1019 86 10000 1.64 344 10:49 17.02.2021
2450 Clouds -30 1019 86 10000 1.64 344 10:31 17.02.2021
2451 Clouds -30 1019 86 10000 1.74 6 09:56 17.02.2021
2452 Clouds -30 1019 86 10000 1.74 6 09:36 17.02.2021
2453 Clouds -30 1018 87 10000 2.04 12 08:45 17.02.2021
2454 Clouds -30 1018 87 10000 2.37 3 08:23 17.02.2021
2455 Clear -30 1019 86 10000 2.33 359 07:37 17.02.2021
2456 Clouds -30 1019 86 10000 2.52 356 06:37 17.02.2021
2457 Clouds -30 1018 86 10000 2.72 5 03:52 17.02.2021
2458 Clouds -29 1018 87 10000 2.85 3 02:31 17.02.2021
2459 Clouds -29 1019 87 10000 3.13 7 01:34 17.02.2021
2460 Clouds -30 1019 86 10000 3.34 6 00:25 17.02.2021
2461 Clouds -30 1019 86 10000 3.34 6 23:39 16.02.2021
2462 Clouds -30 1019 86 10000 3.48 6 22:47 16.02.2021
2463 Clouds -30 1018 87 10000 3.43 8 22:26 16.02.2021
2464 Clouds -30 1018 87 10000 3.43 8 22:26 16.02.2021
2465 Clouds -30 1018 87 10000 3.43 8 21:59 16.02.2021
2466 Clouds -30 1018 87 10000 3.43 8 21:39 16.02.2021
2467 Clouds -30 1018 87 10000 3.43 8 21:39 16.02.2021
2468 Clouds -30 1018 87 10000 3.43 8 21:39 16.02.2021
2469 Clouds -30 1018 87 10000 3.43 8 21:39 16.02.2021
2470 Clouds -29 1018 87 10000 3.38 8 21:21 16.02.2021
2471 Clouds -29 1018 87 10000 3.38 8 20:50 16.02.2021
2472 Clouds -29 1018 87 10000 3.47 6 20:24 16.02.2021
2473 Clouds -29 1018 87 10000 3.47 6 19:49 16.02.2021
2474 Clouds -29 1019 87 9084 3.64 7 19:29 16.02.2021
2475 Clouds -29 1019 87 9084 3.64 7 18:53 16.02.2021
2476 Clouds -29 1019 86 7432 3.82 14 18:26 16.02.2021
2477 Clouds -29 1019 86 7432 3.82 14 17:56 16.02.2021
2478 Clouds -29 1019 86 7432 3.82 14 17:37 16.02.2021
2479 Clouds -29 1019 87 3504 3.74 17 17:19 16.02.2021
2480 Clouds -29 1019 87 3504 3.74 17 16:42 16.02.2021
2481 Clouds -30 1018 87 3467 3.5 21 16:20 16.02.2021
2482 Clouds -30 1018 87 3467 3.5 21 15:36 16.02.2021
2483 Clouds -30 1018 87 5137 3.74 24 15:18 16.02.2021
2484 Clouds -30 1018 87 5137 3.74 24 14:41 16.02.2021
2485 Clouds -30 1018 87 5533 3.84 24 14:23 16.02.2021
2486 Clouds -30 1018 87 5533 3.84 24 13:47 16.02.2021
2487 Clouds -30 1018 87 4693 4.09 28 13:18 16.02.2021
2488 Clouds -30 1018 86 7864 3.88 27 12:42 16.02.2021
2489 Clouds -30 1018 86 7748 4.2 30 12:20 16.02.2021
2490 Clouds -30 1018 86 7748 4.2 30 12:20 16.02.2021
2491 Clouds -30 1018 86 7748 4.2 30 11:43 16.02.2021
2492 Clouds -30 1018 86 6062 4.61 34 11:21 16.02.2021
2493 Clouds -30 1018 86 6062 4.61 34 10:49 16.02.2021
2494 Clouds -30 1018 86 6062 4.61 34 10:30 16.02.2021
2495 Clouds -30 1017 86 4804 4.8 34 09:54 16.02.2021
2496 Clouds -30 1017 86 4046 5.06 36 09:28 16.02.2021
2497 Clouds -30 1017 86 4046 5.06 36 08:52 16.02.2021
2498 Clouds -30 1017 86 4046 5.06 36 08:31 16.02.2021
2499 Clouds -30 1017 86 3991 5.38 37 07:58 16.02.2021
2500 Clouds -31 1017 86 3515 5.16 34 06:58 16.02.2021
2501 Clouds -31 1016 85 2411 6.04 39 03:20 16.02.2021
2502 Clouds -32 1017 85 6223 5.77 37 00:35 16.02.2021
2503 Clouds -32 1017 85 9126 5.74 38 23:30 15.02.2021
2504 Clouds -32 1017 84 9411 5.75 42 22:51 15.02.2021
2505 Clouds -32 1017 84 9411 5.75 42 22:30 15.02.2021
2506 Clouds -32 1017 84 9411 5.75 42 22:30 15.02.2021
2507 Clouds -32 1017 85 7970 5.8 45 21:50 15.02.2021
2508 Clouds -32 1017 85 8338 6.06 46 21:26 15.02.2021
2509 Clouds -32 1017 85 8338 6.06 46 20:57 15.02.2021
2510 Clouds -32 1017 85 8338 6.06 46 20:39 15.02.2021
2511 Clouds -32 1017 85 8799 6.26 47 19:51 15.02.2021
2512 Clouds -32 1017 85 8799 6.26 47 19:30 15.02.2021
2513 Clouds -32 1018 84 9444 6.11 50 18:59 15.02.2021
2514 Clouds -32 1018 84 9444 6.11 50 18:30 15.02.2021
2515 Clouds -32 1017 84 9350 6.24 54 17:59 15.02.2021
2516 Clouds -32 1017 84 9350 6.24 54 17:40 15.02.2021
2517 Clouds -32 1017 84 9582 6.36 58 17:21 15.02.2021
2518 Clouds -32 1017 84 9582 6.36 58 16:46 15.02.2021
2519 Clouds -32 1017 84 9112 6.67 61 16:22 15.02.2021
2520 Clouds -32 1017 84 9112 6.67 61 15:44 15.02.2021
2521 Clouds -32 1017 84 9038 7.14 62 15:20 15.02.2021
2522 Clouds -32 1017 84 9038 7.14 62 14:49 15.02.2021
2523 Clouds -31 1018 84 10000 7.4 64 14:21 15.02.2021
2524 Clouds -31 1018 84 10000 7.4 64 13:49 15.02.2021
2525 Clouds -31 1018 84 9911 7.21 70 13:27 15.02.2021
2526 Clouds -31 1018 84 9911 7.21 70 12:52 15.02.2021
2527 Clouds -31 1018 84 9911 7.21 70 12:31 15.02.2021
2528 Clouds -31 1017 84 10000 7.37 73 11:54 15.02.2021
2529 Clouds -31 1017 84 10000 7.55 76 11:27 15.02.2021
2530 Clouds -31 1017 84 10000 7.55 76 10:56 15.02.2021
2531 Clouds -31 1017 84 10000 7.55 76 10:38 15.02.2021
2532 Clouds -31 1017 84 10000 7.76 76 10:20 15.02.2021
2533 Clouds -31 1017 84 10000 7.78 76 09:51 15.02.2021
2534 Clouds -31 1017 84 10000 7.76 76 09:31 15.02.2021
2535 Clouds -30 1018 85 10000 8.23 75 08:23 15.02.2021
2536 Clouds -30 1018 85 8479 8.11 79 07:27 15.02.2021
2537 Clouds -30 1019 85 8842 7.89 79 06:42 15.02.2021
2538 Clouds -30 1019 85 9336 7.79 80 04:41 15.02.2021
2539 Clouds -30 1021 86 9149 6.83 78 02:21 15.02.2021
2540 Clouds -30 1022 85 10000 5.88 84 00:22 15.02.2021
2541 Clouds -31 1022 86 9979 5.35 82 23:29 14.02.2021
2542 Clouds -31 1022 86 9979 5.35 82 22:47 14.02.2021
2543 Clouds -31 1023 86 10000 4.88 84 22:29 14.02.2021
2544 Clouds -31 1023 86 10000 4.88 84 21:55 14.02.2021
2545 Clouds -31 1023 86 10000 4.88 84 21:31 14.02.2021
2546 Clouds -30 1024 86 10000 4.71 87 20:55 14.02.2021
2547 Clouds -30 1024 86 10000 4.71 87 20:31 14.02.2021
2548 Clear -30 1024 86 10000 4.54 90 19:57 14.02.2021
2549 Clear -30 1024 86 10000 4.54 90 19:35 14.02.2021
2550 Clear -30 1026 86 10000 4.08 89 18:43 14.02.2021
2551 Clear -29 1026 86 10000 3.56 94 18:24 14.02.2021
2552 Clear -29 1026 86 10000 3.56 94 17:45 14.02.2021
2553 Clear -29 1026 86 10000 3.13 97 17:25 14.02.2021
2554 Clear -29 1026 86 10000 3.13 97 16:40 14.02.2021
2555 Clear -29 1026 86 10000 2.8 99 16:20 14.02.2021
2556 Clear -29 1026 86 10000 2.8 99 15:44 14.02.2021
2557 Clear -29 1027 87 10000 2.69 93 14:59 14.02.2021
2558 Clear -29 1027 87 10000 2.69 93 14:32 14.02.2021
2559 Clear -29 1028 87 10000 2.21 91 13:57 14.02.2021
2560 Clear -29 1028 86 10000 2.51 90 13:32 14.02.2021
2561 Clear -29 1028 86 10000 1.93 90 12:49 14.02.2021
2562 Clear -29 1029 86 10000 1.57 91 12:22 14.02.2021
2563 Clear -29 1029 86 10000 1.57 91 11:51 14.02.2021
2564 Clear -29 1029 86 10000 1.26 94 11:25 14.02.2021
2565 Clear -29 1029 86 10000 1.26 94 10:49 14.02.2021
2566 Clear -29 1029 86 10000 0.82 94 09:57 14.02.2021
2567 Clear -29 1029 86 10000 0.82 94 09:39 14.02.2021
2568 Clear -29 1029 86 10000 0.42 128 09:21 14.02.2021
2569 Clear -29 1029 86 10000 0.42 128 08:41 14.02.2021
2570 Clear -29 1029 86 10000 0.68 197 07:57 14.02.2021
2571 Clear -29 1029 85 10000 1.57 199 06:51 14.02.2021
2572 Clear -29 1029 85 10000 2.09 199 05:43 14.02.2021
2573 Clear -30 1029 85 10000 2.64 200 03:32 14.02.2021
2574 Clear -29 1029 86 10000 2.67 210 02:22 14.02.2021
2575 Clouds -29 1030 86 10000 3 213 00:48 14.02.2021
2576 Clouds -29 1029 86 10000 3.15 214 00:27 14.02.2021
2577 Clouds -29 1029 86 10000 3.15 214 23:41 13.02.2021
2578 Clouds -29 1029 86 10000 3.15 216 23:21 13.02.2021
2579 Clouds -29 1029 86 10000 3.15 216 22:43 13.02.2021
2580 Clouds -29 1029 86 10000 3.23 217 22:20 13.02.2021
2581 Clouds -29 1029 86 10000 3.23 217 21:42 13.02.2021
2582 Clouds -28 1028 86 10000 3.25 216 21:21 13.02.2021
2583 Clouds -28 1028 86 10000 3.25 216 20:30 13.02.2021
2584 Clouds -28 1028 87 10000 3.27 216 19:56 13.02.2021
2585 Clouds -28 1028 87 10000 3.27 216 19:37 13.02.2021
2586 Clouds -27 1028 87 5110 3.18 217 19:18 13.02.2021
2587 Clouds -28 1028 86 7522 3.45 214 18:40 13.02.2021
2588 Clouds -28 1028 86 8682 3.33 215 18:20 13.02.2021
2589 Clouds -28 1028 86 8682 3.33 215 17:42 13.02.2021
2590 Clouds -28 1027 86 10000 3.21 216 17:22 13.02.2021
2591 Clouds -28 1027 86 10000 3.21 216 16:42 13.02.2021
2592 Clouds -27 1027 87 10000 3.13 218 16:20 13.02.2021
2593 Clouds -27 1027 87 10000 3.13 218 15:34 13.02.2021
2594 Clouds -27 1027 87 6902 3.19 220 14:51 13.02.2021
2595 Clouds -27 1027 87 6902 3.19 220 14:31 13.02.2021
2596 Clouds -27 1027 87 6120 3.2 221 13:48 13.02.2021
2597 Clouds -27 1027 87 10000 3.15 221 13:24 13.02.2021
2598 Clouds -27 1027 87 6040 3.43 221 12:45 13.02.2021
2599 Clouds -27 1027 87 10000 3.32 222 12:18 13.02.2021
2600 Clouds -27 1027 87 10000 3.32 222 11:43 13.02.2021
2601 Clouds -26 1026 87 10000 3.12 224 11:19 13.02.2021
2602 Clouds -26 1026 87 10000 3.12 224 10:44 13.02.2021
2603 Clouds -25 1026 88 7028 3.12 226 10:23 13.02.2021
2604 Clouds -25 1026 88 7028 3.12 226 09:52 13.02.2021
2605 Clouds -25 1025 88 2482 3.27 226 09:29 13.02.2021
2606 Clouds -25 1025 88 2482 3.27 226 08:54 13.02.2021
2607 Clouds -25 1025 88 2482 3.27 226 08:31 13.02.2021
2608 Clouds -25 1026 88 1801 3.53 229 07:46 13.02.2021
2609 Clouds -25 1026 88 1428 3.65 228 06:37 13.02.2021
2610 Clouds -25 1026 88 5459 3.01 230 05:19 13.02.2021
2611 Clouds -25 1025 88 3167 2.98 229 03:47 13.02.2021
2612 Clouds -25 1026 89 1414 3.37 231 01:31 13.02.2021
2613 Clouds -24 1027 88 1388 3.33 228 00:23 13.02.2021
2614 Clouds -24 1027 88 1388 3.33 228 23:48 12.02.2021
2615 Clouds -24 1027 88 1912 3.34 226 23:20 12.02.2021
2616 Clouds -24 1027 88 1912 3.34 226 22:38 12.02.2021
2617 Clouds -24 1027 88 2703 3.57 225 22:18 12.02.2021
2618 Clouds -24 1027 88 2703 3.57 225 21:42 12.02.2021
2619 Clouds -24 1027 88 4496 3.57 224 21:23 12.02.2021
2620 Clouds -24 1027 88 4496 3.57 224 20:45 12.02.2021
2621 Clouds -24 1027 88 5124 3.55 225 20:26 12.02.2021
2622 Clouds -24 1027 88 5124 3.55 225 19:55 12.02.2021
2623 Clouds -24 1027 88 5124 3.55 225 19:30 12.02.2021
2624 Clouds -24 1028 89 3269 3.61 230 18:44 12.02.2021
2625 Clouds -24 1028 89 3257 3.72 227 18:25 12.02.2021
2626 Clouds -24 1028 89 3257 3.72 227 17:43 12.02.2021
2627 Clouds -23 1028 89 2436 3.76 225 16:56 12.02.2021
2628 Clouds -23 1028 89 2209 3.66 224 16:21 12.02.2021
2629 Clouds -23 1028 89 2209 3.66 224 15:44 12.02.2021
2630 Clouds -23 1028 89 3734 3.65 223 15:20 12.02.2021
2631 Clouds -23 1028 89 3734 3.65 223 14:39 12.02.2021
2632 Clouds -24 1028 89 5545 3.77 225 13:56 12.02.2021
2633 Clouds -24 1028 89 6663 3.58 225 13:37 12.02.2021
2634 Clouds -24 1029 89 10000 3.59 225 12:55 12.02.2021
2635 Clouds -24 1029 89 10000 3.59 225 12:36 12.02.2021
2636 Clouds -24 1029 88 10000 3.66 225 11:48 12.02.2021
2637 Clouds -23 1029 88 10000 3.83 225 11:22 12.02.2021
2638 Clouds -23 1029 88 10000 3.83 225 10:51 12.02.2021
2639 Clouds -23 1029 88 10000 3.83 225 10:33 12.02.2021
2640 Clouds -23 1029 88 10000 3.95 224 09:43 12.02.2021
2641 Clouds -24 1029 88 10000 3.49 222 09:24 12.02.2021
2642 Clouds -24 1029 88 10000 3.49 222 08:47 12.02.2021
2643 Clouds -24 1029 88 10000 3.34 224 08:27 12.02.2021
2644 Clouds -24 1029 88 10000 3.34 224 07:52 12.02.2021
2645 Clouds -24 1030 88 10000 3.25 222 07:27 12.02.2021
2646 Clouds -24 1030 88 10000 3.25 222 07:27 12.02.2021
2647 Clouds -24 1030 88 10000 3.25 222 06:54 12.02.2021
2648 Clouds -23 1029 89 5544 3.92 222 05:39 12.02.2021
2649 Clouds -23 1029 89 10000 3.74 221 03:46 12.02.2021
2650 Clouds -24 1031 88 10000 3.26 223 00:34 12.02.2021
2651 Clouds -24 1031 88 10000 3.12 222 23:38 11.02.2021
2652 Clouds -24 1031 88 10000 2.95 219 23:18 11.02.2021
2653 Clouds -24 1031 88 10000 2.95 219 22:42 11.02.2021
2654 Clouds -24 1030 88 10000 2.9 218 22:23 11.02.2021
2655 Clouds -24 1030 88 10000 2.9 218 21:43 11.02.2021
2656 Clouds -24 1030 88 10000 2.64 216 21:25 11.02.2021
2657 Clouds -24 1030 88 10000 2.64 216 20:57 11.02.2021
2658 Clouds -24 1030 88 10000 2.64 216 20:39 11.02.2021
2659 Clouds -25 1030 88 10000 2.36 218 20:19 11.02.2021
2660 Clouds -25 1030 88 10000 2.36 218 19:46 11.02.2021
2661 Clouds -25 1030 88 10000 2.13 223 19:26 11.02.2021
2662 Clouds -25 1030 87 10000 2.18 221 18:42 11.02.2021
2663 Clouds -25 1030 87 10000 2.1 229 18:20 11.02.2021
2664 Clouds -25 1030 87 10000 2.1 229 17:47 11.02.2021
2665 Clouds -24 1030 87 10000 2.14 235 17:21 11.02.2021
2666 Clouds -24 1030 87 10000 2.14 235 16:45 11.02.2021
2667 Clouds -25 1030 87 10000 2.15 239 16:26 11.02.2021
2668 Clouds -25 1030 87 10000 2.15 239 15:45 11.02.2021
2669 Clouds -25 1029 87 10000 2.11 238 15:26 11.02.2021
2670 Clouds -25 1029 87 10000 2.11 238 14:55 11.02.2021
2671 Clouds -25 1029 87 10000 2.11 238 14:31 11.02.2021
2672 Clouds -26 1029 86 10000 2.09 237 13:43 11.02.2021
2673 Clouds -26 1029 86 10000 1.97 236 13:20 11.02.2021
2674 Clouds -26 1029 86 10000 1.91 233 12:56 11.02.2021
2675 Clouds -26 1029 86 10000 1.91 233 12:33 11.02.2021
2676 Clouds -26 1029 86 10000 1.86 237 11:48 11.02.2021
2677 Clouds -25 1029 86 10000 2.19 245 11:27 11.02.2021
2678 Clouds -25 1029 86 10000 2.19 245 10:46 11.02.2021
2679 Clouds -26 1028 86 10000 2.16 244 10:27 11.02.2021
2680 Clouds -26 1028 86 10000 2.16 244 09:59 11.02.2021
2681 Clouds -26 1027 86 10000 2.08 239 09:26 11.02.2021
2682 Clouds -26 1027 86 10000 2.08 239 08:55 11.02.2021
2683 Clouds -26 1027 86 10000 2.08 239 08:31 11.02.2021
2684 Clouds -27 1027 86 10000 2.09 238 07:42 11.02.2021
2685 Clouds -28 1027 86 10000 2.3 239 06:43 11.02.2021
2686 Clouds -29 1027 86 10000 2.19 237 05:54 11.02.2021
2687 Clouds -29 1025 86 10000 2.55 239 02:49 11.02.2021
2688 Clouds -29 1025 86 10000 2.69 241 02:21 11.02.2021
2689 Clouds -29 1025 86 10000 2.45 241 00:23 11.02.2021
2690 Clouds -29 1025 86 10000 2.45 241 23:47 10.02.2021
2691 Clouds -30 1025 86 10000 2.22 242 23:18 10.02.2021
2692 Clouds -30 1025 86 10000 2.22 242 22:42 10.02.2021
2693 Clouds -30 1024 86 10000 2.39 248 22:19 10.02.2021
2694 Clouds -30 1024 86 10000 2.39 248 21:39 10.02.2021
2695 Clouds -30 1023 86 10000 2.61 247 21:20 10.02.2021
2696 Clouds -30 1023 86 10000 2.61 247 20:47 10.02.2021
2697 Clear -30 1023 86 10000 2.55 245 20:24 10.02.2021
2698 Clear -30 1023 86 10000 2.55 245 19:48 10.02.2021
2699 Clouds -30 1023 86 10000 2.67 244 19:27 10.02.2021
2700 Clouds -30 1023 86 10000 2.62 245 18:47 10.02.2021
2701 Clouds -29 1023 86 10000 2.66 240 18:26 10.02.2021
2702 Clouds -29 1023 86 10000 2.66 240 17:57 10.02.2021
2703 Clouds -29 1022 86 10000 2.32 241 17:26 10.02.2021
2704 Clouds -29 1022 86 10000 2.32 241 16:57 10.02.2021
2705 Clouds -29 1022 86 10000 2.32 241 16:38 10.02.2021
2706 Clouds -29 1022 87 9990 2.11 249 16:19 10.02.2021
2707 Clouds -30 1021 87 10000 2.08 259 15:24 10.02.2021
2708 Clouds -30 1021 87 10000 2.08 259 14:52 10.02.2021
2709 Clouds -30 1021 87 10000 2.08 259 14:34 10.02.2021
2710 Clouds -29 1021 87 10000 2.29 262 13:54 10.02.2021
2711 Clouds -29 1021 87 10000 2.29 262 13:30 10.02.2021
2712 Clouds -29 1022 86 10000 2.18 265 12:53 10.02.2021
2713 Clouds -29 1022 86 10000 2.18 265 12:30 10.02.2021
2714 Clouds -29 1021 86 10000 2 260 11:57 10.02.2021
2715 Clouds -29 1021 86 10000 2 260 11:39 10.02.2021
2716 Clouds -29 1020 87 10000 1.82 259 11:20 10.02.2021
2717 Clouds -29 1020 87 10000 1.47 256 10:23 10.02.2021
2718 Clouds -29 1020 87 10000 1.47 256 09:56 10.02.2021
2719 Clouds -29 1020 87 10000 1.47 256 09:31 10.02.2021
2720 Clouds -29 1018 87 10000 1.22 270 08:53 10.02.2021
2721 Clouds -29 1018 87 10000 1.22 270 08:32 10.02.2021
2722 Clouds -29 1018 87 8659 1.48 291 07:34 10.02.2021
2723 Clouds -29 1018 87 10000 1.77 308 06:21 10.02.2021
2724 Clouds -29 1016 88 8514 2.44 345 01:24 10.02.2021
2725 Clouds -29 1015 87 10000 2.35 342 23:59 09.02.2021
2726 Clouds -29 1015 87 10000 2.35 342 23:32 09.02.2021
2727 Clouds -29 1014 87 8648 2.36 346 22:45 09.02.2021
2728 Clouds -29 1014 88 7915 2.43 355 22:24 09.02.2021
2729 Clouds -29 1014 88 7915 2.43 355 21:48 09.02.2021
2730 Clouds -28 1013 88 6130 2.71 357 21:24 09.02.2021
2731 Clouds -28 1013 88 6130 2.71 357 20:44 09.02.2021
2732 Clouds -28 1012 88 5605 2.91 0 20:25 09.02.2021
2733 Clouds -28 1012 88 5605 2.91 0 19:52 09.02.2021
2734 Clouds -28 1012 88 6658 2.99 12 19:29 09.02.2021
2735 Clouds -28 1012 88 6658 2.99 12 18:49 09.02.2021
2736 Clouds -28 1012 88 6658 2.99 12 18:31 09.02.2021
2737 Clouds -27 1012 88 5999 3.09 15 17:50 09.02.2021
2738 Clouds -27 1011 87 6309 3.5 20 17:28 09.02.2021
2739 Clouds -27 1011 87 6309 3.5 20 16:54 09.02.2021
2740 Clouds -27 1011 87 6252 4.02 27 16:20 09.02.2021
2741 Clouds -27 1011 87 6252 4.02 27 15:58 09.02.2021
2742 Clouds -27 1011 87 6252 4.02 27 15:40 09.02.2021
2743 Clouds -26 1010 87 5528 4.52 30 15:21 09.02.2021
2744 Clouds -26 1010 87 5528 4.52 30 14:43 09.02.2021
2745 Clouds -26 1010 87 5762 4.76 30 14:23 09.02.2021
2746 Clouds -26 1010 87 5762 4.76 30 13:43 09.02.2021
2747 Clouds -27 1010 87 5875 4.81 31 13:20 09.02.2021
2748 Clouds -27 1010 87 5875 4.81 31 12:47 09.02.2021
2749 Clouds -26 1010 87 5384 4.89 30 12:27 09.02.2021
2750 Clouds -26 1010 87 5384 4.89 30 11:44 09.02.2021
2751 Clouds -26 1009 87 4667 5.13 33 11:22 09.02.2021
2752 Clouds -26 1009 87 4667 5.13 33 10:57 09.02.2021
2753 Clouds -26 1008 87 4520 5.41 35 10:23 09.02.2021
2754 Clouds -26 1008 87 4520 5.41 35 09:55 09.02.2021
2755 Clouds -26 1007 87 3800 5.57 35 09:27 09.02.2021
2756 Clouds -26 1007 87 3800 5.57 35 08:57 09.02.2021
2757 Clouds -26 1007 87 3655 5.78 38 08:29 09.02.2021
2758 Clouds -26 1007 87 3655 5.78 38 07:54 09.02.2021
2759 Clouds -26 1007 87 5551 6.24 40 05:35 09.02.2021
2760 Clouds -26 1006 87 4984 6.62 40 03:49 09.02.2021
2761 Clouds -26 1005 87 4861 7.1 42 01:57 09.02.2021
2762 Clouds -27 1005 87 4815 6.96 45 00:31 09.02.2021
2763 Clouds -27 1005 87 5130 7.21 44 23:44 08.02.2021
2764 Clouds -27 1005 87 5848 7.43 44 23:19 08.02.2021
2765 Clouds -27 1005 87 5848 7.43 44 22:43 08.02.2021
2766 Clouds -27 1004 87 6067 7.64 45 22:22 08.02.2021
2767 Clouds -27 1004 87 6067 7.64 45 21:46 08.02.2021
2768 Clouds -27 1003 87 6506 7.87 46 21:23 08.02.2021
2769 Clouds -27 1003 87 6506 7.87 46 20:44 08.02.2021
2770 Clouds -27 1003 87 5820 8.13 45 20:25 08.02.2021
2771 Clouds -27 1003 87 5820 8.13 45 19:59 08.02.2021
2772 Clouds -28 1004 85 9512 7.84 49 19:41 08.02.2021
2773 Clouds -28 1003 85 9375 7.92 49 19:21 08.02.2021
2774 Clouds -28 1003 85 9375 7.92 49 18:42 08.02.2021
2775 Clouds -28 1003 85 9507 8.05 49 18:19 08.02.2021
2776 Clouds -28 1003 85 9507 8.05 49 17:43 08.02.2021
2777 Clouds -28 1003 86 9274 8.39 49 17:23 08.02.2021
2778 Clouds -28 1003 86 9274 8.39 49 16:41 08.02.2021
2779 Clouds -27 1003 86 8890 8.6 47 16:21 08.02.2021
2780 Clouds -27 1003 86 8890 8.6 47 15:41 08.02.2021
2781 Clouds -27 1002 86 6199 8.81 46 15:19 08.02.2021
2782 Clouds -27 1002 86 6199 8.81 46 14:51 08.02.2021
2783 Clouds -27 1002 86 6199 8.81 46 14:30 08.02.2021
2784 Clouds -27 1002 86 6170 8.91 47 13:56 08.02.2021
2785 Clouds -27 1002 86 3016 8.83 48 13:32 08.02.2021
2786 Clouds -27 1002 86 8172 8.86 49 12:51 08.02.2021
2787 Clouds -27 1002 86 8172 8.86 49 12:33 08.02.2021
2788 Clouds -27 1003 86 9600 8.89 50 11:44 08.02.2021
2789 Clouds -27 1002 86 7042 9.12 49 11:19 08.02.2021
2790 Clouds -27 1002 86 7042 9.12 49 10:44 08.02.2021
2791 Clouds -27 1002 86 2932 9.31 48 10:23 08.02.2021
2792 Clouds -27 1002 86 2932 9.31 48 09:50 08.02.2021
2793 Clouds -27 1002 86 2909 9.36 46 09:29 08.02.2021
2794 Clouds -27 1002 86 2909 9.36 46 08:32 08.02.2021
2795 Clouds -27 1002 86 3852 9.23 45 07:51 08.02.2021
2796 Clouds -28 1003 86 8859 9.15 45 07:22 08.02.2021
2797 Clouds -29 1004 86 7013 9.06 46 05:29 08.02.2021
2798 Clouds -30 1005 85 8186 9.18 48 02:28 08.02.2021
2799 Clouds -30 1005 85 8208 9.48 50 00:56 08.02.2021
2800 Clouds -31 1006 84 8267 9.35 49 00:21 08.02.2021
2801 Clouds -31 1006 84 8267 9.35 49 23:46 07.02.2021
2802 Clouds -31 1006 84 8189 9.37 50 23:20 07.02.2021
2803 Clouds -31 1006 84 8189 9.37 50 22:44 07.02.2021
2804 Clouds -31 1006 84 8318 9.4 49 22:25 07.02.2021
2805 Clouds -31 1006 84 8318 9.4 49 21:52 07.02.2021
2806 Clouds -32 1006 84 8207 9.16 51 21:27 07.02.2021
2807 Clouds -32 1006 84 8207 9.16 51 20:54 07.02.2021
2808 Clouds -32 1006 84 8207 9.16 51 20:33 07.02.2021
2809 Clouds -32 1007 84 8264 8.82 51 19:55 07.02.2021
2810 Clouds -32 1007 84 8264 8.82 51 19:31 07.02.2021
2811 Clouds -32 1007 83 7988 8.61 54 18:56 07.02.2021
2812 Clouds -33 1008 83 8273 8.51 55 18:36 07.02.2021
2813 Clouds -33 1008 83 8658 8.44 55 18:18 07.02.2021
2814 Clouds -33 1008 83 8658 8.44 55 17:41 07.02.2021
2815 Clouds -33 1008 83 8536 8.23 55 17:19 07.02.2021
2816 Clouds -33 1008 83 8536 8.23 55 16:47 07.02.2021
2817 Clouds -33 1008 83 8154 8.17 57 16:26 07.02.2021
2818 Clouds -33 1008 83 8154 8.17 57 15:55 07.02.2021
2819 Clouds -33 1008 83 8154 8.17 57 15:37 07.02.2021
2820 Clouds -33 1009 83 8135 8.27 56 15:18 07.02.2021
2821 Clouds -33 1009 83 8135 8.27 56 14:39 07.02.2021
2822 Clouds -33 1009 83 7997 8.28 56 14:19 07.02.2021
2823 Clouds -33 1009 83 7997 8.28 56 13:36 07.02.2021
2824 Clouds -33 1009 83 7801 8.25 57 12:57 07.02.2021
2825 Clouds -34 1009 83 8156 8.33 58 12:37 07.02.2021
2826 Clouds -34 1009 83 8091 8.24 58 12:18 07.02.2021
2827 Clouds -34 1010 83 8003 8.24 61 11:28 07.02.2021
2828 Clouds -34 1010 83 8003 8.24 61 10:58 07.02.2021
2829 Clouds -33 1010 83 7871 8.27 60 10:28 07.02.2021
2830 Clouds -33 1010 83 7871 8.27 60 09:51 07.02.2021
2831 Clouds -34 1010 83 7766 8.17 60 09:25 07.02.2021
2832 Clouds -34 1010 83 7766 8.17 60 08:48 07.02.2021
2833 Clouds -34 1010 83 7326 8.07 59 07:49 07.02.2021
2834 Clouds -34 1011 83 7546 7.44 57 05:58 07.02.2021
2835 Clouds -34 1011 83 7546 7.44 57 05:58 07.02.2021
2836 Clouds -34 1011 83 7521 7.35 58 04:34 07.02.2021
2837 Clouds -34 1012 83 6894 7.23 56 02:25 07.02.2021
2838 Clouds -34 1013 83 7314 6.96 58 00:37 07.02.2021
2839 Clouds -34 1013 82 7767 6.93 58 23:50 06.02.2021
2840 Clouds -34 1014 82 7566 6.79 59 22:54 06.02.2021
2841 Clouds -34 1013 82 7398 6.79 60 21:57 06.02.2021
2842 Clouds -34 1013 82 7398 6.79 60 21:36 06.02.2021
2843 Clouds -34 1013 83 6677 6.99 59 21:18 06.02.2021
2844 Clouds -34 1013 83 6677 6.99 59 20:43 06.02.2021
2845 Clouds -34 1013 83 6282 7.08 57 20:21 06.02.2021
2846 Clouds -34 1013 83 6282 7.08 57 19:45 06.02.2021
2847 Clouds -34 1014 84 5872 7.06 58 19:22 06.02.2021
2848 Clouds -34 1014 84 5872 7.06 58 18:43 06.02.2021
2849 Clouds -34 1014 84 5737 7.07 57 18:24 06.02.2021
2850 Clouds -34 1014 84 5737 7.07 57 17:41 06.02.2021
2851 Clouds -34 1015 84 5327 6.95 57 17:21 06.02.2021
2852 Clouds -34 1015 84 5327 6.95 57 16:50 06.02.2021
2853 Clouds -34 1015 84 5327 6.95 57 16:30 06.02.2021
2854 Clouds -34 1015 84 5005 6.94 58 15:52 06.02.2021
2855 Clouds -34 1015 84 5005 6.94 58 15:33 06.02.2021
2856 Clouds -34 1014 84 4768 7.07 58 14:57 06.02.2021
2857 Clouds -34 1014 84 4768 7.07 58 14:37 06.02.2021
2858 Clouds -34 1014 84 4873 7.02 58 14:18 06.02.2021
2859 Clouds -34 1014 84 4873 7.02 58 13:43 06.02.2021
2860 Clouds -34 1014 83 6314 7.11 57 12:36 06.02.2021
2861 Clouds -34 1014 83 7106 7.09 58 12:18 06.02.2021
2862 Clouds -34 1014 83 7106 7.09 58 11:40 06.02.2021
2863 Clouds -34 1014 83 6175 7.02 59 11:20 06.02.2021
2864 Clouds -34 1014 83 6175 7.02 59 10:52 06.02.2021
2865 Clouds -34 1014 83 6070 6.93 58 10:25 06.02.2021
2866 Clouds -34 1014 83 6070 6.93 58 09:38 06.02.2021
2867 Clouds -34 1014 83 6070 6.93 58 09:38 06.02.2021
2868 Clouds -33 1014 84 6572 6.89 56 09:19 06.02.2021
2869 Clouds -33 1014 84 6572 6.89 56 08:58 06.02.2021
2870 Clouds -33 1014 84 6363 6.76 54 08:29 06.02.2021
2871 Clouds -32 1014 85 7565 6.58 56 06:51 06.02.2021
2872 Clouds -31 1013 85 8040 6.45 57 05:41 06.02.2021
2873 Clouds -26 1012 89 3534 7.38 56 02:50 06.02.2021
2874 Clouds -23 1013 91 1075 3.06 72 00:58 06.02.2021
2875 Clouds -23 1013 91 1075 3.06 72 00:40 06.02.2021
2876 Clouds -22 1013 91 2330 0.96 71 00:18 06.02.2021
2877 Clouds -22 1013 91 2330 0.96 71 23:34 05.02.2021
2878 Snow -22 1013 91 441 0.46 255 22:51 05.02.2021
2879 Clouds -22 1013 91 526 0.55 270 22:25 05.02.2021
2880 Clouds -22 1013 91 526 0.55 270 21:57 05.02.2021
2881 Clouds -22 1013 91 526 0.55 270 21:37 05.02.2021
2882 Clouds -23 1013 91 1033 0.62 30 20:56 05.02.2021
2883 Clouds -24 1014 90 1254 1.58 45 20:20 05.02.2021
2884 Clouds -24 1014 90 1254 1.58 45 19:45 05.02.2021
2885 Clouds -25 1014 90 2368 2.09 57 19:18 05.02.2021
2886 Clouds -25 1014 90 2368 2.09 57 18:40 05.02.2021
2887 Clouds -25 1015 90 6317 2.78 64 18:19 05.02.2021
2888 Clouds -25 1015 90 6317 2.78 64 17:38 05.02.2021
2889 Clouds -25 1015 90 6430 3.27 63 17:19 05.02.2021
2890 Clouds -25 1015 90 6430 3.27 63 16:43 05.02.2021
2891 Clouds -24 1015 91 5019 3.65 60 16:21 05.02.2021
2892 Clouds -24 1015 91 5019 3.65 60 15:50 05.02.2021
2893 Clouds -23 1015 91 3129 3.52 58 15:23 05.02.2021
2894 Clouds -23 1015 91 3129 3.52 58 14:39 05.02.2021
2895 Clouds -23 1016 91 2180 2.94 61 14:21 05.02.2021
2896 Clouds -23 1016 91 2180 2.94 61 13:52 05.02.2021
2897 Clouds -24 1016 91 3498 3.55 61 13:32 05.02.2021
2898 Clouds -24 1017 91 2729 3.3 64 12:44 05.02.2021
2899 Clouds -24 1017 90 2232 3.25 66 12:23 05.02.2021
2900 Clouds -24 1017 90 2232 3.25 66 11:39 05.02.2021
2901 Clouds -24 1017 90 2006 3.35 66 11:20 05.02.2021
2902 Clouds -24 1017 90 2006 3.35 66 10:49 05.02.2021
2903 Clouds -24 1018 90 2230 3.39 62 10:25 05.02.2021
2904 Clouds -24 1018 90 2230 3.39 62 09:43 05.02.2021
2905 Clouds -24 1017 91 2510 3.42 55 09:24 05.02.2021
2906 Clouds -24 1017 91 2510 3.42 55 08:45 05.02.2021
2907 Clouds -24 1017 90 2884 3.36 52 07:45 05.02.2021
2908 Clouds -25 1018 90 3570 3.34 57 07:26 05.02.2021
2909 Clouds -25 1018 90 3570 3.34 57 06:41 05.02.2021
2910 Clouds -25 1018 90 2782 3.36 62 05:35 05.02.2021
2911 Clouds -25 1018 90 8364 4.11 65 02:26 05.02.2021
2912 Clouds -25 1018 90 8364 4.11 65 01:55 05.02.2021
2913 Clouds -24 1018 90 7652 4.25 64 00:38 05.02.2021
2914 Clouds -23 1018 90 5695 4.22 60 00:19 05.02.2021
2915 Clouds -23 1018 90 5695 4.22 60 23:44 04.02.2021
2916 Clouds -22 1018 91 5914 4.28 58 23:25 04.02.2021
2917 Clouds -22 1018 91 5914 4.28 58 22:55 04.02.2021
2918 Clouds -22 1018 91 5914 4.28 58 22:37 04.02.2021
2919 Clouds -21 1018 92 5524 4.13 59 22:18 04.02.2021
2920 Clouds -21 1018 92 5524 4.13 59 21:41 04.02.2021
2921 Clouds -21 1018 92 2517 3.39 49 21:18 04.02.2021
2922 Clouds -21 1018 92 2517 3.39 49 20:45 04.02.2021
2923 Clouds -21 1017 92 2093 2.35 25 20:25 04.02.2021
2924 Clouds -21 1017 92 2093 2.35 25 19:41 04.02.2021
2925 Clouds -23 1017 91 3043 1.39 358 18:51 04.02.2021
2926 Clouds -24 1017 90 3707 0.9 338 18:24 04.02.2021
2927 Clouds -24 1017 90 3707 0.9 338 17:51 04.02.2021
2928 Clouds -24 1017 90 4746 0.43 319 17:24 04.02.2021
2929 Clouds -24 1017 90 4746 0.43 319 16:56 04.02.2021
2930 Clouds -24 1017 90 4746 0.43 319 16:37 04.02.2021
2931 Clouds -25 1017 90 5555 0.25 335 16:18 04.02.2021
2932 Clouds -25 1017 90 5555 0.25 335 15:39 04.02.2021
2933 Clouds -26 1016 89 3956 0.35 47 15:20 04.02.2021
2934 Clouds -26 1016 89 3956 0.35 47 14:41 04.02.2021
2935 Clouds -27 1017 88 5134 0.73 65 14:20 04.02.2021
2936 Clouds -27 1017 88 5134 0.73 65 13:44 04.02.2021
2937 Clouds -27 1017 88 6274 0.75 42 12:59 04.02.2021
2938 Clouds -27 1017 88 6274 0.75 42 12:36 04.02.2021
2939 Clouds -28 1017 88 10000 0.96 63 11:54 04.02.2021
2940 Clouds -28 1017 88 10000 0.96 63 11:33 04.02.2021
2941 Clouds -27 1017 88 10000 1.71 64 10:53 04.02.2021
2942 Clouds -27 1017 88 10000 1.71 64 10:32 04.02.2021
2943 Clouds -28 1017 88 10000 2.41 54 09:45 04.02.2021
2944 Clouds -27 1016 88 10000 2.79 57 09:19 04.02.2021
2945 Clouds -27 1016 88 10000 2.79 57 08:50 04.02.2021
2946 Clouds -27 1016 89 8566 3.41 53 08:25 04.02.2021
2947 Clouds -27 1016 89 8566 3.41 53 07:50 04.02.2021
2948 Clouds -27 1016 89 8566 3.41 53 07:32 04.02.2021
2949 Clouds -26 1016 89 6104 4.14 51 06:44 04.02.2021
2950 Clouds -25 1016 89 4774 4.66 47 05:32 04.02.2021
2951 Clouds -22 1015 90 468 5.35 52 02:30 04.02.2021
2952 Clouds -22 1014 90 995 4.7 51 01:20 04.02.2021
2953 Clouds -23 1014 90 3309 4.47 52 23:54 03.02.2021
2954 Clouds -22 1014 90 3274 4.48 52 23:30 03.02.2021
2955 Clouds -22 1014 90 3164 5.22 56 22:37 03.02.2021
2956 Clouds -21 1013 90 1967 5.62 56 22:19 03.02.2021
2957 Clouds -21 1013 90 1967 5.62 56 21:42 03.02.2021
2958 Clouds -21 1012 91 2340 5.64 54 21:22 03.02.2021
2959 Clouds -21 1012 91 2340 5.64 54 20:48 03.02.2021
2960 Clouds -21 1012 91 4603 5.71 55 20:29 03.02.2021
2961 Clouds -21 1012 91 4603 5.71 55 19:54 03.02.2021
2962 Clouds -20 1011 91 2428 5.89 62 19:24 03.02.2021
2963 Clouds -20 1011 91 2428 5.89 62 18:55 03.02.2021
2964 Clouds -20 1011 91 2428 5.89 62 18:36 03.02.2021
2965 Clouds -20 1011 91 1802 5.86 65 18:18 03.02.2021
2966 Clouds -20 1011 91 1802 5.86 65 17:42 03.02.2021
2967 Clouds -20 1010 92 2110 5.82 68 17:19 03.02.2021
2968 Clouds -20 1010 92 2110 5.82 68 16:37 03.02.2021
2969 Clouds -19 1009 92 1922 6.15 69 15:58 03.02.2021
2970 Clouds -19 1009 92 1922 6.15 69 15:38 03.02.2021
2971 Clouds -19 1009 92 1527 6.42 71 15:20 03.02.2021
2972 Clouds -19 1009 92 1527 6.42 71 14:43 03.02.2021
2973 Clouds -18 1008 92 1311 6.62 73 14:20 03.02.2021
2974 Clouds -18 1008 92 1311 6.62 73 13:43 03.02.2021
2975 Clouds -18 1008 92 1311 6.62 73 13:43 03.02.2021
2976 Clouds -18 1007 93 1045 6.94 75 13:19 03.02.2021
2977 Clouds -19 1008 92 1113 7.12 72 12:39 03.02.2021
2978 Clouds -18 1007 92 1531 7.34 74 12:19 03.02.2021
2979 Clouds -18 1007 92 1531 7.34 74 11:41 03.02.2021
2980 Clouds -18 1006 92 1297 7.52 76 11:21 03.02.2021
2981 Clouds -17 1005 93 1014 7.7 77 10:28 03.02.2021
2982 Clouds -17 1005 93 1014 7.7 77 09:58 03.02.2021
2983 Clouds -17 1005 93 1014 7.7 77 09:58 03.02.2021
2984 Clouds -17 1005 93 1014 7.7 77 09:38 03.02.2021
2985 Clouds -16 1004 93 912 7.69 75 09:19 03.02.2021
2986 Clouds -16 1004 93 912 7.69 75 08:43 03.02.2021
2987 Clouds -16 1003 94 889 7.35 72 07:54 03.02.2021
2988 Clouds -15 1003 94 1318 6.24 77 06:42 03.02.2021
2989 Clouds -15 1003 94 1318 6.24 77 06:42 03.02.2021
2990 Clouds -14 1001 95 877 5.01 83 04:56 03.02.2021
2991 Clouds -14 1001 95 877 5.01 83 04:37 03.02.2021
2992 Clouds -14 1001 95 1046 4.24 87 03:51 03.02.2021
2993 Clouds -14 1000 95 964 3.66 89 02:40 03.02.2021
2994 Clouds -14 1000 95 1065 2.98 92 01:47 03.02.2021
2995 Clouds -14 1000 95 762 2.35 89 00:24 03.02.2021
2996 Clouds -14 1000 95 762 2.35 89 23:43 02.02.2021
2997 Clouds -14 999 95 941 2.09 94 23:25 02.02.2021
2998 Clouds -14 999 95 941 2.09 94 22:43 02.02.2021
2999 Clouds -14 999 95 735 1.99 97 22:19 02.02.2021
3000 Clouds -14 999 95 735 1.99 97 21:44 02.02.2021
3001 Clouds -14 998 95 546 1.85 109 21:23 02.02.2021
3002 Clouds -14 998 95 546 1.85 109 20:49 02.02.2021
3003 Clouds -14 998 95 882 1.86 112 20:21 02.02.2021
3004 Clouds -14 998 95 882 1.86 112 19:51 02.02.2021
3005 Clouds -14 998 95 882 1.86 112 19:33 02.02.2021
3006 Clouds -14 998 95 1374 1.71 138 18:56 02.02.2021
3007 Clouds -14 998 94 1366 1.73 137 18:37 02.02.2021
3008 Clouds -14 997 94 1362 1.87 123 18:19 02.02.2021
3009 Clouds -14 997 94 1351 1.9 122 17:38 02.02.2021
3010 Clouds -14 997 94 2477 1.97 124 17:19 02.02.2021
3011 Clouds -14 997 94 2455 2 123 16:44 02.02.2021
3012 Clouds -14 997 94 2688 2.28 124 16:25 02.02.2021
3013 Clouds -14 997 94 2688 2.28 124 15:53 02.02.2021
3014 Clouds -14 996 94 1482 2.6 121 15:29 02.02.2021
3015 Clouds -14 996 94 1482 2.6 121 14:52 02.02.2021
3016 Clouds -14 996 94 1482 2.6 121 14:33 02.02.2021
3017 Clouds -14 996 94 2015 2.84 124 13:56 02.02.2021
3018 Clouds -14 996 94 2015 2.84 124 13:38 02.02.2021
3019 Clouds -14 996 94 3099 3.18 122 13:19 02.02.2021
3020 Clouds -14 996 94 3099 3.18 122 12:47 02.02.2021
3021 Clouds -14 996 93 4312 3.29 123 11:46 02.02.2021
3022 Clouds -14 996 93 5333 3.63 124 11:25 02.02.2021
3023 Clouds -14 996 93 5333 3.63 124 10:56 02.02.2021
3024 Clouds -14 996 93 5333 3.63 124 10:37 02.02.2021
3025 Clouds -14 995 93 9087 3.79 119 10:19 02.02.2021
3026 Clouds -14 995 93 9087 3.79 119 09:39 02.02.2021
3027 Clouds -14 995 93 10000 3.69 117 09:19 02.02.2021
3028 Clouds -14 995 93 10000 3.69 117 08:33 02.02.2021
3029 Clouds -14 994 93 10000 3.76 126 07:42 02.02.2021
3030 Clouds -14 995 93 10000 4.23 122 06:46 02.02.2021
3031 Clouds -13 995 93 10000 4.15 119 06:27 02.02.2021
3032 Clouds -13 995 93 10000 4.15 119 05:47 02.02.2021
3033 Clouds -13 995 93 10000 4.13 128 02:46 02.02.2021
3034 Clouds -13 995 93 10000 3.81 127 02:23 02.02.2021
3035 Clouds -14 996 92 10000 3.85 149 00:37 02.02.2021
3036 Clouds -13 996 92 10000 4.03 156 23:37 01.02.2021
3037 Clouds -12 996 94 10000 3.88 157 22:51 01.02.2021
3038 Clouds -12 996 94 10000 3.87 157 22:33 01.02.2021
3039 Snow -11 996 95 577 4.18 165 21:53 01.02.2021
3040 Snow -11 996 95 577 4.18 165 21:35 01.02.2021
3041 Snow -10 996 96 167 4.17 149 20:58 01.02.2021
3042 Snow -10 996 96 167 4.17 149 20:40 01.02.2021
3043 Snow -11 996 96 143 5.47 113 20:22 01.02.2021
3044 Snow -11 996 96 143 5.47 113 19:41 01.02.2021
3045 Snow -13 997 95 146 7.19 99 19:21 01.02.2021
3046 Snow -14 997 95 150 6.6 94 18:49 01.02.2021
3047 Snow -15 998 94 136 7.6 95 18:28 01.02.2021
3048 Snow -15 998 94 136 7.6 95 17:48 01.02.2021
3049 Snow -16 998 94 113 7.44 98 17:25 01.02.2021
3050 Snow -16 998 94 113 7.44 98 16:56 01.02.2021
3051 Snow -17 999 93 96 9.11 96 16:29 01.02.2021
3052 Snow -17 999 93 96 9.11 96 15:47 01.02.2021
3053 Snow -19 1000 92 126 10.27 93 15:19 01.02.2021
3054 Snow -19 1000 92 126 10.27 93 14:52 01.02.2021
3055 Snow -19 1000 92 126 10.27 93 14:33 01.02.2021
3056 Snow -20 1001 92 243 10.34 90 13:50 01.02.2021
3057 Clouds -21 1002 91 1108 9.77 92 13:27 01.02.2021
3058 Clouds -21 1002 91 1108 9.77 92 12:56 01.02.2021
3059 Clouds -21 1002 91 1108 9.77 92 12:37 01.02.2021
3060 Clouds -21 1004 91 593 9.7 91 12:19 01.02.2021
3061 Clouds -21 1004 91 593 9.7 91 11:39 01.02.2021
3062 Clouds -20 1005 91 4971 9.24 90 11:18 01.02.2021
3063 Clouds -20 1005 92 4948 9.22 90 10:42 01.02.2021
3064 Clouds -19 1006 92 6732 8.69 92 10:19 01.02.2021
3065 Clouds -19 1006 92 6688 8.7 93 09:43 01.02.2021
3066 Clouds -19 1007 92 7580 8.41 97 08:58 01.02.2021
3067 Clouds -19 1007 92 9660 7.23 94 08:27 01.02.2021
3068 Clouds -19 1007 92 9660 7.23 94 07:36 01.02.2021
3069 Clouds -19 1008 92 10000 4.9 92 05:59 01.02.2021
3070 Clouds -19 1011 92 4162 2.73 112 02:43 01.02.2021
3071 Clouds -19 1011 92 2344 2.59 121 00:31 01.02.2021
3072 Clouds -19 1011 92 1291 2.67 134 23:40 31.01.2021
3073 Clouds -19 1011 92 1502 2.48 141 22:42 31.01.2021
3074 Clouds -19 1011 92 1293 2.54 152 22:23 31.01.2021
3075 Clouds -19 1011 92 1293 2.54 152 21:49 31.01.2021
3076 Snow -18 1011 92 954 2.55 147 21:23 31.01.2021
3077 Snow -18 1011 92 954 2.55 147 20:46 31.01.2021
3078 Snow -18 1011 93 206 3.11 139 20:21 31.01.2021
3079 Snow -18 1011 93 206 3.11 139 19:43 31.01.2021
3080 Snow -19 1012 92 278 3.18 121 19:24 31.01.2021
3081 Snow -18 1011 93 167 3.11 123 19:24 31.01.2021
3082 Snow -19 1012 92 278 3.18 121 18:58 31.01.2021
3083 Snow -19 1012 92 278 3.18 121 18:40 31.01.2021
3084 Clouds -19 1012 92 282 3.27 116 18:20 31.01.2021
3085 Clouds -19 1012 92 282 3.27 116 17:45 31.01.2021
3086 Clouds -20 1012 92 278 3.47 116 17:23 31.01.2021
3087 Clouds -20 1012 92 278 3.47 116 16:50 31.01.2021
3088 Clouds -20 1012 92 278 3.47 116 16:31 31.01.2021
3089 Clouds -21 1012 91 587 3.7 116 15:52 31.01.2021
3090 Clouds -21 1012 91 587 3.7 116 15:34 31.01.2021
3091 Clouds -21 1012 91 800 4.35 113 14:42 31.01.2021
3092 Clouds -21 1013 90 744 4.83 110 14:24 31.01.2021
3093 Clouds -21 1013 90 744 4.83 110 13:53 31.01.2021
3094 Clouds -21 1013 90 744 4.83 110 13:34 31.01.2021
3095 Clouds -22 1013 90 1036 5.06 109 12:49 31.01.2021
3096 Clouds -23 1013 90 553 5.44 110 12:22 31.01.2021
3097 Clouds -23 1013 90 553 5.44 110 11:44 31.01.2021
3098 Clouds -23 1013 90 728 5.7 109 11:25 31.01.2021
3099 Clouds -23 1013 90 728 5.7 109 10:57 31.01.2021
3100 Clouds -23 1013 90 728 5.7 109 10:35 31.01.2021
3101 Clouds -23 1014 89 687 5.79 111 09:51 31.01.2021
3102 Snow -23 1014 90 419 5.93 109 09:25 31.01.2021
3103 Snow -23 1014 90 419 5.93 109 08:33 31.01.2021
3104 Snow -24 1014 90 301 5.23 103 06:57 31.01.2021
3105 Snow -24 1014 90 216 5.75 104 05:35 31.01.2021
3106 Clouds -26 1017 88 3794 7.87 101 00:47 31.01.2021
3107 Snow -27 1018 88 253 7.8 101 00:22 31.01.2021
3108 Snow -27 1018 88 253 7.8 101 23:33 30.01.2021
3109 Snow -28 1018 88 183 8.06 100 22:56 30.01.2021
3110 Snow -27 1018 88 184 8.1 100 22:30 30.01.2021
3111 Snow -28 1018 87 203 8.29 99 21:40 30.01.2021
3112 Snow -28 1019 88 225 8.6 99 21:21 30.01.2021
3113 Snow -28 1019 87 247 8.64 99 20:47 30.01.2021
3114 Clouds -29 1020 86 1719 9.03 99 20:28 30.01.2021
3115 Clouds -29 1020 86 1719 9.03 99 19:46 30.01.2021
3116 Clouds -29 1020 86 8515 9.33 100 19:26 30.01.2021
3117 Clouds -29 1021 86 8117 9.57 99 18:42 30.01.2021
3118 Clouds -29 1021 86 8082 9.76 98 18:22 30.01.2021
3119 Clouds -29 1021 86 8082 9.76 98 17:59 30.01.2021
3120 Clouds -30 1022 86 8157 10 98 17:20 30.01.2021
3121 Clouds -30 1022 86 8157 10 98 16:47 30.01.2021
3122 Clouds -30 1023 85 8848 10.09 96 16:25 30.01.2021
3123 Clouds -30 1023 85 8848 10.09 96 15:57 30.01.2021
3124 Clouds -30 1023 85 8848 10.09 96 15:57 30.01.2021
3125 Clouds -30 1023 85 8848 10.09 96 15:39 30.01.2021
3126 Clouds -31 1024 85 9737 9.97 99 15:20 30.01.2021
3127 Clouds -31 1024 85 9737 9.97 99 14:47 30.01.2021
3128 Clouds -30 1025 85 10000 10.04 103 14:21 30.01.2021
3129 Clouds -30 1025 85 10000 10.04 103 13:32 30.01.2021
3130 Clouds -30 1026 85 10000 10.3 97 12:49 30.01.2021
3131 Clouds -31 1026 84 10000 10.03 100 12:28 30.01.2021
3132 Clouds -31 1026 84 10000 10.03 100 11:57 30.01.2021
3133 Clouds -30 1027 84 10000 9.91 99 11:28 30.01.2021
3134 Clouds -30 1027 84 10000 9.91 99 10:48 30.01.2021
3135 Clouds -30 1028 85 10000 10.07 98 09:48 30.01.2021
3136 Clouds -30 1028 85 10000 10.07 98 09:30 30.01.2021
3137 Clouds -30 1028 84 10000 9.99 98 08:47 30.01.2021
3138 Clouds -31 1029 84 10000 10 96 07:48 30.01.2021
3139 Clouds -31 1030 84 10000 9.46 96 06:49 30.01.2021
3140 Clouds -32 1031 83 10000 8.96 97 04:59 30.01.2021
3141 Clouds -32 1032 83 10000 8.39 100 03:35 30.01.2021
3142 Clouds -33 1033 82 10000 7.72 101 02:24 30.01.2021
3143 Clouds -33 1034 82 10000 7.29 103 01:29 30.01.2021
3144 Clouds -33 1034 82 10000 7.18 104 00:37 30.01.2021
3145 Clouds -33 1035 82 10000 6.7 102 00:18 30.01.2021
3146 Clouds -33 1035 82 10000 6.7 102 23:44 29.01.2021
3147 Clouds -33 1035 82 10000 5.39 100 23:20 29.01.2021
3148 Clouds -33 1035 82 10000 5.39 100 22:40 29.01.2021
3149 Clouds -34 1035 82 10000 4.9 103 22:18 29.01.2021
3150 Clouds -34 1036 81 10000 4.45 109 21:28 29.01.2021
3151 Clouds -34 1036 81 10000 4.45 109 20:45 29.01.2021
3152 Clouds -34 1036 81 10000 4.22 113 20:25 29.01.2021
3153 Clouds -34 1036 81 10000 4.22 113 19:43 29.01.2021
3154 Clouds -34 1036 81 10000 4.32 107 19:22 29.01.2021
3155 Clear -34 1036 81 10000 3.96 107 18:58 29.01.2021
3156 Clear -34 1036 81 10000 3.81 110 18:18 29.01.2021
3157 Clear -34 1036 81 10000 3.81 110 17:37 29.01.2021
3158 Clear -34 1036 81 10000 3.44 109 17:18 29.01.2021
3159 Clear -34 1036 81 10000 3.44 109 16:44 29.01.2021
3160 Clear -34 1036 82 10000 3.25 106 16:23 29.01.2021
3161 Clear -34 1036 82 10000 3.25 106 15:42 29.01.2021
3162 Clear -34 1036 82 10000 2.72 108 15:24 29.01.2021
3163 Clear -34 1036 82 10000 2.72 108 14:32 29.01.2021
3164 Clear -34 1037 82 10000 2.14 121 13:59 29.01.2021
3165 Clear -34 1037 82 10000 2.14 121 13:36 29.01.2021
3166 Clear -34 1036 82 10000 2.49 114 12:49 29.01.2021
3167 Clouds -34 1036 83 10000 2.51 104 12:22 29.01.2021
3168 Clouds -34 1036 83 10000 2.51 104 11:46 29.01.2021
3169 Clouds -34 1035 83 10000 2.16 107 11:19 29.01.2021
3170 Clouds -34 1035 83 10000 2.16 107 11:19 29.01.2021
3171 Clouds -34 1035 83 10000 2.16 107 10:48 29.01.2021
3172 Clouds -34 1035 83 10000 2.13 113 10:27 29.01.2021
3173 Clouds -34 1035 83 10000 2.13 113 09:45 29.01.2021
3174 Clouds -34 1034 84 10000 2.38 108 08:57 29.01.2021
3175 Clouds -34 1034 84 10000 2.38 108 08:33 29.01.2021
3176 Clouds -33 1034 85 10000 2.74 99 07:58 29.01.2021
3177 Clouds -33 1034 85 10000 2.74 99 07:39 29.01.2021
3178 Clouds -33 1034 85 10000 2.74 99 07:39 29.01.2021
3179 Clouds -33 1033 84 10000 2.75 93 06:58 29.01.2021
3180 Clouds -33 1032 85 10000 3.18 82 05:19 29.01.2021
3181 Clouds -33 1031 85 10000 2.95 74 02:48 29.01.2021
3182 Clouds -33 1030 84 10000 4.75 72 00:38 29.01.2021
3183 Clouds -32 1030 84 10000 5.4 71 00:19 29.01.2021
3184 Clouds -32 1030 84 10000 5.4 71 23:41 28.01.2021
3185 Clouds -32 1030 84 10000 5.4 71 23:41 28.01.2021
3186 Clouds -32 1028 84 8791 5.96 70 23:23 28.01.2021
3187 Clouds -32 1028 84 8791 5.96 70 22:45 28.01.2021
3188 Clouds -33 1027 84 8787 6.36 70 22:26 28.01.2021
3189 Clouds -33 1027 84 8787 6.36 70 21:53 28.01.2021
3190 Clouds -33 1027 84 8787 6.36 70 21:33 28.01.2021
3191 Clouds -33 1026 83 10000 7.09 74 20:55 28.01.2021
3192 Clouds -33 1026 83 10000 7.09 74 20:37 28.01.2021
3193 Clouds -33 1025 83 10000 7.66 75 20:18 28.01.2021
3194 Clouds -33 1025 82 10000 7.76 72 19:40 28.01.2021
3195 Clouds -33 1025 82 10000 8.15 73 19:19 28.01.2021
3196 Clouds -33 1025 82 10000 8.15 73 18:43 28.01.2021
3197 Clouds -33 1024 82 10000 8.4 74 18:20 28.01.2021
3198 Clouds -33 1024 82 10000 8.4 74 17:44 28.01.2021
3199 Clouds -33 1023 82 10000 8.64 72 17:26 28.01.2021
3200 Clouds -33 1023 82 10000 8.64 72 16:44 28.01.2021
3201 Clouds -34 1022 82 10000 8.75 72 16:22 28.01.2021
3202 Clouds -34 1022 82 10000 8.75 72 16:22 28.01.2021
3203 Clouds -34 1022 82 10000 8.75 72 15:43 28.01.2021
3204 Clouds -34 1022 82 9304 9.04 74 15:18 28.01.2021
3205 Clouds -34 1022 82 9304 9.04 74 14:42 28.01.2021
3206 Clouds -34 1022 82 9304 9.04 74 14:42 28.01.2021
3207 Clouds -34 1021 82 8628 9.34 75 14:23 28.01.2021
3208 Clouds -34 1021 82 8628 9.34 75 13:48 28.01.2021
3209 Clouds -34 1021 82 8527 9.55 77 12:56 28.01.2021
3210 Clouds -34 1021 82 8527 9.55 77 12:36 28.01.2021
3211 Clouds -34 1021 82 8058 9.77 77 11:59 28.01.2021
3212 Clouds -34 1021 82 8058 9.77 77 11:41 28.01.2021
3213 Clouds -34 1020 83 7463 9.75 77 11:20 28.01.2021
3214 Clouds -34 1020 83 7463 9.75 77 10:53 28.01.2021
3215 Clouds -34 1020 83 7463 9.75 77 10:34 28.01.2021
3216 Clouds -34 1019 83 7375 9.78 79 09:49 28.01.2021
3217 Clouds -34 1019 83 7587 9.63 80 09:24 28.01.2021
3218 Clouds -34 1019 83 7587 9.63 80 08:55 28.01.2021
3219 Clouds -34 1019 83 7730 9.46 82 08:19 28.01.2021
3220 Clouds -34 1020 82 9512 9.6 83 07:44 28.01.2021
3221 Clouds -34 1021 82 9381 9.65 85 06:50 28.01.2021
3222 Clouds -34 1021 82 10000 9.38 84 06:25 28.01.2021
3223 Clouds -34 1021 82 10000 8.74 86 04:27 28.01.2021
3224 Clear -34 1022 82 10000 7.76 92 01:39 28.01.2021
3225 Clouds -33 1023 83 10000 7.73 99 23:48 27.01.2021
3226 Clouds -32 1023 83 10000 7.34 100 23:24 27.01.2021
3227 Clouds -32 1023 83 10000 7.34 100 22:42 27.01.2021
3228 Clouds -31 1023 84 10000 6.57 101 22:22 27.01.2021
3229 Clouds -31 1023 84 10000 6.57 101 21:43 27.01.2021
3230 Clear -30 1023 85 10000 5.84 100 21:24 27.01.2021
3231 Clear -30 1023 85 10000 5.84 100 20:52 27.01.2021
3232 Clear -29 1024 85 10000 4.96 103 20:27 27.01.2021
3233 Clear -29 1024 85 10000 4.96 103 19:50 27.01.2021
3234 Clouds -30 1025 85 10000 5.03 105 19:26 27.01.2021
3235 Clouds -29 1024 87 10000 4.33 107 18:57 27.01.2021
3236 Clouds -30 1025 85 10000 5.03 105 18:38 27.01.2021
3237 Clouds -29 1025 86 10000 4.41 108 18:20 27.01.2021
3238 Clouds -29 1025 86 10000 4.43 108 17:39 27.01.2021
3239 Clouds -29 1025 87 10000 3.62 109 16:58 27.01.2021
3240 Clouds -29 1025 87 10000 3.62 109 16:39 27.01.2021
3241 Clouds -29 1025 87 10000 2.49 113 16:21 27.01.2021
3242 Clouds -29 1025 87 10000 2.49 113 15:49 27.01.2021
3243 Clouds -29 1025 87 10000 2.49 113 15:49 27.01.2021
3244 Clouds -29 1026 87 10000 1.82 127 15:29 27.01.2021
3245 Clouds -29 1026 87 10000 1.82 127 14:38 27.01.2021
3246 Clouds -29 1026 87 10000 1.12 142 14:18 27.01.2021
3247 Clear -29 1026 86 10000 1.28 135 13:35 27.01.2021
3248 Clouds -29 1026 87 10000 1.25 160 12:42 27.01.2021
3249 Clouds -29 1026 87 10000 1.25 160 12:42 27.01.2021
3250 Clouds -29 1027 87 10000 1.65 202 12:24 27.01.2021
3251 Clouds -29 1027 87 10000 1.65 202 11:50 27.01.2021
3252 Clouds -29 1027 87 10000 1.85 217 11:26 27.01.2021
3253 Clouds -29 1027 87 10000 1.85 217 10:48 27.01.2021
3254 Clouds -29 1027 88 10000 1.59 222 10:26 27.01.2021
3255 Clouds -29 1027 88 10000 1.59 222 09:56 27.01.2021
3256 Clouds -29 1027 88 10000 1.11 226 09:28 27.01.2021
3257 Clouds -29 1027 88 10000 1.11 226 08:45 27.01.2021
3258 Clouds -29 1027 88 9071 1.49 242 07:57 27.01.2021
3259 Clouds -29 1027 88 9071 1.49 242 07:37 27.01.2021
3260 Clouds -28 1027 89 7736 0.47 278 06:38 27.01.2021
3261 Clouds -28 1027 89 8018 0.66 346 05:55 27.01.2021
3262 Clouds -28 1027 89 8018 0.66 346 05:34 27.01.2021
3263 Clouds -27 1027 89 6546 1.95 345 02:46 27.01.2021
3264 Clouds -27 1027 89 6209 2.24 350 02:20 27.01.2021
3265 Clouds -27 1027 89 6237 2.25 350 01:32 27.01.2021
3266 Clouds -27 1027 89 6435 2.46 352 00:27 27.01.2021
3267 Clouds -27 1027 89 6435 2.46 352 23:40 26.01.2021
3268 Clouds -27 1027 89 5699 2.68 350 23:19 26.01.2021
3269 Clouds -27 1027 89 5699 2.68 350 22:39 26.01.2021
3270 Clouds -27 1026 89 5459 2.72 351 22:19 26.01.2021
3271 Clouds -27 1026 89 5459 2.72 351 21:51 26.01.2021
3272 Clouds -27 1026 88 5338 2.71 352 21:24 26.01.2021
3273 Clouds -27 1026 88 5338 2.71 352 20:43 26.01.2021
3274 Clouds -28 1026 88 6125 2.74 360 20:24 26.01.2021
3275 Clouds -28 1026 88 6125 2.74 360 19:51 26.01.2021
3276 Clouds -28 1026 88 6125 2.74 360 19:30 26.01.2021
3277 Clouds -28 1026 88 6125 2.74 360 19:30 26.01.2021
3278 Clouds -28 1026 88 6298 3 13 18:59 26.01.2021
3279 Clouds -27 1026 89 3947 3.34 34 18:41 26.01.2021
3280 Clouds -28 1026 89 4482 3.92 41 18:22 26.01.2021
3281 Clouds -28 1026 89 4482 3.92 41 17:47 26.01.2021
3282 Clouds -28 1026 88 5295 4.49 44 17:22 26.01.2021
3283 Clouds -28 1026 88 5295 4.49 44 16:51 26.01.2021
3284 Clouds -28 1025 88 5664 4.85 48 16:21 26.01.2021
3285 Clouds -28 1025 88 5664 4.85 48 15:51 26.01.2021
3286 Clouds -28 1025 88 5664 4.85 48 15:51 26.01.2021
3287 Clouds -28 1025 88 5664 4.85 48 15:33 26.01.2021
3288 Clouds -28 1025 88 6132 5.28 51 14:49 26.01.2021
3289 Clouds -28 1025 88 6132 5.28 51 14:30 26.01.2021
3290 Clouds -29 1024 88 5764 5.83 52 13:48 26.01.2021
3291 Clouds -29 1024 88 4962 6.03 51 13:27 26.01.2021
3292 Clouds -29 1024 88 5368 5.85 53 12:45 26.01.2021
3293 Clouds -29 1023 88 5404 5.97 53 12:25 26.01.2021
3294 Clouds -29 1023 88 5404 5.97 53 11:59 26.01.2021
3295 Clouds -29 1023 88 5404 5.97 53 11:39 26.01.2021
3296 Clouds -29 1023 88 5554 6.04 56 10:55 26.01.2021
3297 Clouds -29 1023 88 5554 6.04 56 10:33 26.01.2021
3298 Clouds -29 1023 88 5554 6.04 56 10:33 26.01.2021
3299 Clouds -29 1022 88 5714 6.26 59 09:49 26.01.2021
3300 Clouds -29 1022 88 5714 6.26 59 09:30 26.01.2021
3301 Clouds -29 1022 88 5673 6.38 61 08:55 26.01.2021
3302 Clouds -29 1022 88 5673 6.38 61 08:37 26.01.2021
3303 Clouds -28 1021 88 4931 6.64 61 07:53 26.01.2021
3304 Clouds -28 1021 88 4687 6.83 64 06:53 26.01.2021
3305 Clouds -28 1021 88 4472 6.56 65 05:45 26.01.2021
3306 Clouds -28 1021 89 3536 6.27 67 05:24 26.01.2021
3307 Clouds -27 1020 89 3424 5.44 73 02:58 26.01.2021
3308 Clouds -27 1020 89 3757 5.8 63 00:58 26.01.2021
3309 Clouds -27 1020 89 3519 5.53 59 23:44 25.01.2021
3310 Clouds -27 1020 89 3660 5.11 55 23:25 25.01.2021
3311 Clouds -27 1020 89 3660 5.11 55 22:40 25.01.2021
3312 Clouds -27 1020 89 3684 4.7 55 22:18 25.01.2021
3313 Clouds -27 1020 89 3684 4.7 55 21:39 25.01.2021
3314 Clouds -27 1020 89 3384 4.11 56 20:53 25.01.2021
3315 Clouds -27 1020 89 3384 4.11 56 20:33 25.01.2021
3316 Clouds -27 1020 89 3339 4.16 56 19:58 25.01.2021
3317 Clouds -27 1020 89 3339 4.16 56 19:40 25.01.2021
3318 Clouds -27 1020 89 3232 4.4 49 19:20 25.01.2021
3319 Clouds -28 1021 87 6904 2.92 48 18:42 25.01.2021
3320 Clouds -28 1021 88 6580 2.85 42 18:22 25.01.2021
3321 Clouds -28 1021 88 6580 2.85 42 17:43 25.01.2021
3322 Clouds -28 1021 88 4362 2.56 28 17:24 25.01.2021
3323 Clouds -28 1021 88 4362 2.56 28 16:43 25.01.2021
3324 Clouds -27 1020 88 3550 2.42 32 16:24 25.01.2021
3325 Clouds -27 1020 88 3550 2.42 32 15:54 25.01.2021
3326 Clouds -27 1020 88 3550 2.42 32 15:34 25.01.2021
3327 Clouds -27 1021 88 2439 1.76 51 14:53 25.01.2021
3328 Clouds -28 1021 88 2336 1.92 69 14:20 25.01.2021
3329 Clouds -28 1021 88 2336 1.92 69 13:56 25.01.2021
3330 Clouds -28 1021 88 2336 1.92 69 13:36 25.01.2021
3331 Clouds -28 1021 88 2336 1.92 69 13:36 25.01.2021
3332 Clouds -28 1021 88 10000 2.45 99 12:49 25.01.2021
3333 Clouds -28 1021 87 10000 2.83 101 12:25 25.01.2021
3334 Clouds -28 1021 87 10000 2.83 101 11:58 25.01.2021
3335 Clouds -28 1021 87 10000 3.23 102 11:25 25.01.2021
3336 Clouds -28 1021 87 10000 3.23 102 10:45 25.01.2021
3337 Clouds -28 1021 87 10000 2.94 105 10:21 25.01.2021
3338 Clouds -28 1021 87 10000 2.9 105 09:48 25.01.2021
3339 Clouds -27 1021 86 10000 3.62 114 09:28 25.01.2021
3340 Clouds -27 1021 86 10000 3.62 114 08:33 25.01.2021
3341 Clouds -27 1021 86 10000 3.78 116 07:51 25.01.2021
3342 Clouds -26 1022 86 10000 3.9 121 07:27 25.01.2021
3343 Clouds -26 1023 85 10000 2.87 132 06:25 25.01.2021
3344 Clouds -26 1023 85 10000 3.81 142 01:37 25.01.2021
3345 Clouds -26 1024 86 10000 3.94 128 00:37 25.01.2021
3346 Clouds -26 1024 85 10000 3.44 115 23:20 24.01.2021
3347 Clouds -26 1024 85 10000 3.44 115 22:48 24.01.2021
3348 Clouds -26 1024 84 10000 3.75 115 22:28 24.01.2021
3349 Clouds -26 1024 84 10000 3.7 115 21:58 24.01.2021
3350 Clouds -26 1025 84 10000 3.94 116 21:27 24.01.2021
3351 Clouds -26 1025 84 10000 3.94 116 20:47 24.01.2021
3352 Clouds -27 1025 84 10000 4.19 110 20:23 24.01.2021
3353 Clouds -27 1025 84 10000 4.19 110 20:23 24.01.2021
3354 Clouds -27 1025 84 10000 4.19 110 19:57 24.01.2021
3355 Clouds -27 1025 84 10000 4.19 110 19:38 24.01.2021
3356 Clouds -27 1025 85 10000 4.6 105 19:19 24.01.2021
3357 Clouds -27 1025 85 10000 4.6 105 18:41 24.01.2021
3358 Clouds -29 1025 85 10000 4.49 96 18:21 24.01.2021
3359 Clouds -29 1025 85 10000 4.49 96 17:57 24.01.2021
3360 Clouds -29 1025 85 10000 4.49 96 17:38 24.01.2021
3361 Clouds -29 1025 85 10000 4.51 96 17:18 24.01.2021
3362 Clouds -29 1025 85 10000 4.51 96 16:41 24.01.2021
3363 Clouds -29 1026 85 10000 4.66 98 16:20 24.01.2021
3364 Clouds -29 1026 85 10000 4.66 98 15:45 24.01.2021
3365 Clouds -29 1026 85 10000 4.68 99 15:20 24.01.2021
3366 Clouds -29 1026 85 10000 4.68 99 14:51 24.01.2021
3367 Clouds -29 1027 85 10000 4.62 100 14:26 24.01.2021
3368 Clouds -29 1027 85 10000 4.62 100 13:36 24.01.2021
3369 Clouds -29 1028 85 10000 4.73 101 12:51 24.01.2021
3370 Clouds -30 1028 85 10000 4.81 103 12:23 24.01.2021
3371 Clouds -30 1028 85 10000 4.81 103 11:59 24.01.2021
3372 Clouds -30 1028 85 10000 4.81 103 11:41 24.01.2021
3373 Clouds -30 1029 85 10000 4.57 106 11:20 24.01.2021
3374 Clouds -30 1029 85 10000 4.57 106 10:35 24.01.2021
3375 Clouds -31 1029 84 10000 4.56 109 09:47 24.01.2021
3376 Clouds -31 1030 84 10000 4.47 110 09:19 24.01.2021
3377 Clouds -31 1030 84 10000 4.47 110 08:47 24.01.2021
3378 Clouds -31 1031 84 10000 3.64 115 04:23 24.01.2021
3379 Clouds -31 1033 84 10000 3.24 117 02:20 24.01.2021
3380 Clouds -31 1033 84 10000 2.88 123 00:57 24.01.2021
3381 Clouds -31 1033 84 10000 3.07 123 00:21 24.01.2021
3382 Clouds -31 1033 84 10000 3.07 123 23:42 23.01.2021
3383 Clouds -31 1034 84 10000 3.02 121 23:22 23.01.2021
3384 Clouds -31 1034 84 10000 3.02 121 22:41 23.01.2021
3385 Clouds -31 1034 84 10000 2.81 120 22:20 23.01.2021
3386 Clear -31 1034 84 10000 2.61 122 21:24 23.01.2021
3387 Clear -31 1034 84 10000 2.61 122 20:59 23.01.2021
3388 Clear -31 1034 84 10000 2.61 122 20:39 23.01.2021
3389 Clear -31 1034 84 10000 2.63 128 20:21 23.01.2021
3390 Clear -31 1034 84 10000 2.63 128 19:45 23.01.2021
3391 Clear -31 1035 84 10000 2.78 127 19:20 23.01.2021
3392 Clear -31 1034 84 10000 2.8 125 18:43 23.01.2021
3393 Clear -31 1035 84 10000 2.66 120 18:24 23.01.2021
3394 Clear -31 1035 84 10000 2.66 120 17:44 23.01.2021
3395 Clear -31 1034 84 10000 2.64 121 17:25 23.01.2021
3396 Clear -31 1034 84 10000 2.64 121 16:46 23.01.2021
3397 Clear -31 1034 84 10000 2.64 121 16:46 23.01.2021
3398 Clear -31 1034 84 10000 2.53 120 16:24 23.01.2021
3399 Clear -31 1034 84 10000 2.57 120 15:31 23.01.2021
3400 Clear -31 1034 84 10000 2.5 122 14:53 23.01.2021
3401 Clear -31 1035 84 10000 2.44 121 14:28 23.01.2021
3402 Clear -31 1035 84 10000 2.44 121 13:50 23.01.2021
3403 Clear -31 1035 84 10000 2.44 121 13:50 23.01.2021
3404 Clear -31 1035 84 10000 2.44 121 13:32 23.01.2021
3405 Clear -32 1035 84 10000 2.29 122 12:49 23.01.2021
3406 Clear -31 1035 84 10000 2.47 117 12:26 23.01.2021
3407 Clear -31 1035 84 10000 2.47 117 11:45 23.01.2021
3408 Clear -31 1035 84 10000 2.43 113 11:19 23.01.2021
3409 Clear -31 1035 84 10000 2.39 113 10:29 23.01.2021
3410 Clear -31 1035 84 10000 2.39 113 09:57 23.01.2021
3411 Clear -31 1035 84 10000 2.39 113 09:32 23.01.2021
3412 Clear -31 1035 85 10000 2.25 115 08:45 23.01.2021
3413 Clear -31 1035 85 10000 2.05 114 07:57 23.01.2021
3414 Clear -31 1034 85 10000 2.12 116 07:18 23.01.2021
3415 Clear -30 1034 86 10000 2.79 110 03:35 23.01.2021
3416 Clouds -30 1034 86 10000 2.26 101 00:34 23.01.2021
3417 Clouds -30 1034 86 10000 2.11 96 23:37 22.01.2021
3418 Clouds -30 1034 86 10000 2.42 101 22:45 22.01.2021
3419 Clouds -30 1033 86 10000 3.07 104 22:22 22.01.2021
3420 Clouds -30 1033 86 10000 3.07 104 21:45 22.01.2021
3421 Clouds -30 1033 86 10000 3.07 104 21:45 22.01.2021
3422 Clouds -30 1033 86 10000 3.29 102 21:25 22.01.2021
3423 Clouds -30 1033 86 10000 3.29 102 20:54 22.01.2021
3424 Clouds -30 1033 86 10000 3.29 102 20:32 22.01.2021
3425 Clouds -30 1033 87 10000 3.28 98 19:48 22.01.2021
3426 Clouds -30 1033 86 10000 3.09 93 19:21 22.01.2021
3427 Clouds -30 1033 86 10000 3.09 93 18:50 22.01.2021
3428 Clouds -30 1033 86 10000 3.09 93 18:27 22.01.2021
3429 Clouds -30 1033 86 10000 3.09 93 17:56 22.01.2021
3430 Clouds -30 1033 86 10000 3.09 93 17:38 22.01.2021
3431 Clouds -30 1032 87 10000 3.3 94 16:56 22.01.2021
3432 Clouds -30 1032 87 10000 3.3 94 16:31 22.01.2021
3433 Clouds -29 1032 87 10000 3.62 92 15:53 22.01.2021
3434 Clouds -29 1032 87 9422 3.82 91 15:25 22.01.2021
3435 Clouds -29 1032 87 9422 3.82 91 14:43 22.01.2021
3436 Clouds -29 1032 88 8033 3.96 91 14:24 22.01.2021
3437 Clouds -29 1032 88 8033 3.96 91 13:38 22.01.2021
3438 Clouds -29 1031 88 6500 4.34 91 13:19 22.01.2021
3439 Clouds -30 1031 87 10000 4.09 91 12:40 22.01.2021
3440 Clouds -30 1031 87 10000 4.2 90 12:18 22.01.2021
3441 Clouds -30 1031 87 10000 4.2 90 11:38 22.01.2021
3442 Clouds -30 1030 87 7973 4.28 89 10:48 22.01.2021
3443 Clouds -30 1030 87 6758 4.36 89 10:24 22.01.2021
3444 Clouds -30 1030 87 6758 4.36 89 09:44 22.01.2021
3445 Clouds -30 1030 87 6396 4.48 88 08:58 22.01.2021
3446 Clouds -30 1030 87 6396 4.48 88 08:32 22.01.2021
3447 Clouds -30 1029 88 6291 4.53 87 07:50 22.01.2021
3448 Clouds -30 1028 87 8373 4.8 88 05:26 22.01.2021
3449 Clouds -30 1028 87 7732 5.58 85 01:54 22.01.2021
3450 Clouds -30 1028 87 7611 5.73 84 00:30 22.01.2021
3451 Clouds -30 1028 87 7730 5.83 84 23:50 21.01.2021
3452 Clouds -30 1027 87 7694 5.93 85 23:21 21.01.2021
3453 Clouds -30 1027 87 7694 5.93 85 22:48 21.01.2021
3454 Clouds -30 1027 87 7607 6.16 85 21:59 21.01.2021
3455 Clouds -30 1027 87 7607 6.16 85 21:40 21.01.2021
3456 Clouds -30 1027 87 7591 6.32 84 21:19 21.01.2021
3457 Clouds -30 1027 87 7591 6.32 84 20:46 21.01.2021
3458 Clouds -30 1027 87 7766 6.48 84 20:21 21.01.2021
3459 Clouds -30 1027 87 7766 6.48 84 19:50 21.01.2021
3460 Clouds -30 1027 87 7690 6.75 85 19:26 21.01.2021
3461 Clouds -30 1027 87 7690 6.75 85 18:49 21.01.2021
3462 Clouds -30 1027 87 7583 6.99 85 18:23 21.01.2021
3463 Clouds -30 1027 87 7583 6.99 85 17:58 21.01.2021
3464 Clouds -30 1027 87 7583 6.99 85 17:40 21.01.2021
3465 Clouds -30 1027 87 7661 7.22 85 17:18 21.01.2021
3466 Clouds -30 1027 87 7661 7.22 85 16:41 21.01.2021
3467 Clouds -30 1026 87 7733 7.54 85 16:22 21.01.2021
3468 Clouds -30 1026 87 7733 7.54 85 15:48 21.01.2021
3469 Clouds -29 1026 87 7797 7.77 86 15:28 21.01.2021
3470 Clouds -29 1026 87 7797 7.77 86 14:47 21.01.2021
3471 Clouds -29 1026 87 7448 8.01 85 14:25 21.01.2021
3472 Clouds -29 1026 87 7448 8.01 85 13:46 21.01.2021
3473 Clouds -30 1026 86 8268 8.24 84 13:26 21.01.2021
3474 Clouds -30 1026 86 8268 8.24 84 12:45 21.01.2021
3475 Clouds -30 1026 86 9310 8.31 86 12:25 21.01.2021
3476 Clouds -30 1026 86 9310 8.31 86 11:52 21.01.2021
3477 Clouds -30 1026 86 9310 8.31 86 11:32 21.01.2021
3478 Clouds -30 1026 86 8256 8.57 87 10:53 21.01.2021
3479 Clouds -30 1026 86 8256 8.57 87 10:34 21.01.2021
3480 Clouds -30 1026 86 8272 8.88 88 09:49 21.01.2021
3481 Clouds -30 1026 86 8272 8.88 88 09:30 21.01.2021
3482 Clouds -30 1026 86 8388 9.29 88 08:57 21.01.2021
3483 Clouds -30 1026 86 8460 9.55 88 08:27 21.01.2021
3484 Clouds -30 1026 86 8460 9.55 88 07:45 21.01.2021
3485 Clouds -30 1026 86 7941 9.74 89 07:25 21.01.2021
3486 Clouds -30 1025 86 7842 10.15 89 05:59 21.01.2021
3487 Clouds -30 1025 86 8346 10.68 90 04:29 21.01.2021
3488 Clouds -30 1025 86 8297 10.95 89 01:33 21.01.2021
3489 Clouds -31 1025 86 7933 10.84 87 00:40 21.01.2021
3490 Clouds -31 1025 85 10000 10.9 87 23:43 20.01.2021
3491 Clouds -31 1025 85 10000 11.04 87 23:22 20.01.2021
3492 Clouds -31 1025 85 10000 11.04 87 22:49 20.01.2021
3493 Clouds -31 1025 85 9689 11.26 87 22:28 20.01.2021
3494 Clouds -31 1025 85 9689 11.26 87 21:49 20.01.2021
3495 Clouds -31 1024 85 7801 11.37 85 21:22 20.01.2021
3496 Clouds -31 1024 85 7801 11.37 85 20:50 20.01.2021
3497 Clouds -31 1024 86 6664 11.06 86 20:21 20.01.2021
3498 Clouds -31 1024 86 6664 11.06 86 19:47 20.01.2021
3499 Clouds -31 1024 86 5477 10.92 86 19:28 20.01.2021
3500 Clouds -32 1024 87 4990 11.03 85 18:43 20.01.2021
3501 Clouds -32 1024 87 4525 10.99 84 18:20 20.01.2021
3502 Clouds -32 1024 87 4525 10.99 84 17:44 20.01.2021
3503 Clouds -31 1024 87 4379 10.84 85 17:26 20.01.2021
3504 Clouds -31 1024 87 4379 10.84 85 16:47 20.01.2021
3505 Clouds -32 1023 87 4247 10.6 85 16:20 20.01.2021
3506 Clouds -32 1023 87 4247 10.6 85 15:38 20.01.2021
3507 Clouds -32 1023 87 4175 10.49 85 14:58 20.01.2021
3508 Clouds -32 1023 87 4175 10.49 85 14:39 20.01.2021
3509 Clouds -32 1024 87 4667 10.49 85 14:19 20.01.2021
3510 Clouds -32 1024 87 4667 10.49 85 13:37 20.01.2021
3511 Clouds -32 1023 87 4653 10.37 84 12:56 20.01.2021
3512 Clouds -32 1023 87 4718 9.99 84 12:22 20.01.2021
3513 Clouds -32 1023 87 4718 9.99 84 11:40 20.01.2021
3514 Clouds -32 1023 87 4766 9.82 83 11:20 20.01.2021
3515 Clouds -32 1023 87 4766 9.82 83 10:46 20.01.2021
3516 Clouds -31 1023 87 4710 9.58 83 10:25 20.01.2021
3517 Clouds -31 1023 87 4710 9.58 83 09:38 20.01.2021
3518 Clouds -31 1022 87 4987 9.35 85 09:19 20.01.2021
3519 Clouds -31 1022 87 4987 9.35 85 08:41 20.01.2021
3520 Clouds -31 1022 87 5190 9.31 85 08:21 20.01.2021
3521 Clouds -31 1022 87 5190 9.31 85 07:38 20.01.2021
3522 Clouds -31 1022 87 5091 9.16 84 07:18 20.01.2021
3523 Clouds -31 1021 86 5836 8.64 85 04:29 20.01.2021
3524 Clouds -31 1021 87 5958 7.94 84 01:51 20.01.2021
3525 Clouds -31 1021 87 5438 7.7 84 00:58 20.01.2021
3526 Clouds -31 1021 87 5595 7.41 86 23:54 19.01.2021
3527 Clouds -31 1021 87 5595 7.41 86 23:34 19.01.2021
3528 Clouds -31 1021 87 5595 7.41 86 23:34 19.01.2021
3529 Clouds -30 1020 87 5308 7.09 87 22:58 19.01.2021
3530 Clouds -30 1020 87 5308 7.09 87 22:40 19.01.2021
3531 Clouds -30 1020 87 5334 6.74 88 22:21 19.01.2021
3532 Clouds -30 1020 87 5334 6.74 88 21:55 19.01.2021
3533 Clouds -30 1020 87 5334 6.74 88 21:34 19.01.2021
3534 Clouds -29 1020 87 4884 6.52 89 20:50 19.01.2021
3535 Clouds -29 1020 88 4719 6.33 90 20:29 19.01.2021
3536 Clouds -29 1020 88 4719 6.33 90 19:56 19.01.2021
3537 Clouds -29 1020 88 4719 6.33 90 19:36 19.01.2021
3538 Clouds -29 1020 88 4600 5.87 93 19:18 19.01.2021
3539 Clouds -29 1020 88 3645 5.94 94 18:38 19.01.2021
3540 Clouds -29 1019 88 3865 5.49 96 18:20 19.01.2021
3541 Clouds -29 1019 88 3865 5.49 96 17:42 19.01.2021
3542 Clouds -29 1019 88 4739 5.36 95 17:20 19.01.2021
3543 Clouds -29 1019 88 4739 5.36 95 16:40 19.01.2021
3544 Clouds -29 1018 88 5078 5.39 95 16:20 19.01.2021
3545 Clouds -29 1018 88 5078 5.39 95 15:50 19.01.2021
3546 Clouds -29 1018 88 5078 5.39 95 15:30 19.01.2021
3547 Clouds -28 1018 88 4914 5.04 94 14:44 19.01.2021
3548 Clouds -27 1018 88 4548 4.54 97 14:26 19.01.2021
3549 Clouds -27 1018 88 4548 4.54 97 13:49 19.01.2021
3550 Clouds -27 1018 87 4134 3.98 99 13:23 19.01.2021
3551 Clouds -27 1018 87 9338 4.13 99 12:51 19.01.2021
3552 Clouds -27 1018 87 9338 4.13 99 12:30 19.01.2021
3553 Clouds -27 1018 87 10000 3.65 100 11:52 19.01.2021
3554 Clouds -26 1018 87 10000 3.27 106 11:29 19.01.2021
3555 Clouds -26 1018 87 10000 3.27 106 10:53 19.01.2021
3556 Clouds -26 1018 87 10000 3.27 106 10:33 19.01.2021
3557 Clouds -26 1017 87 9215 3.21 116 09:59 19.01.2021
3558 Clouds -26 1017 87 9215 3.21 116 09:41 19.01.2021
3559 Clouds -25 1017 88 3546 3.74 123 09:19 19.01.2021
3560 Clouds -25 1017 88 3546 3.74 123 08:31 19.01.2021
3561 Clouds -24 1016 89 2106 3.7 110 07:51 19.01.2021
3562 Clouds -23 1016 89 2011 3.21 79 06:58 19.01.2021
3563 Clouds -22 1015 89 2717 2.97 58 03:34 19.01.2021
3564 Clouds -21 1014 90 2058 2.37 54 02:21 19.01.2021
3565 Clouds -21 1014 90 2444 2.01 28 00:23 19.01.2021
3566 Clouds -21 1014 90 2444 2.01 28 23:41 18.01.2021
3567 Clouds -21 1014 90 2452 2.17 20 23:22 18.01.2021
3568 Clouds -21 1014 90 2452 2.17 20 22:41 18.01.2021
3569 Clouds -21 1013 89 2778 2.58 19 22:20 18.01.2021
3570 Clouds -21 1013 89 2778 2.58 19 21:43 18.01.2021
3571 Clouds -20 1013 89 4001 3.11 22 21:22 18.01.2021
3572 Clouds -20 1013 89 4001 3.11 22 20:53 18.01.2021
3573 Clouds -20 1013 89 4001 3.11 22 20:33 18.01.2021
3574 Clouds -20 1013 89 4719 3.6 24 19:52 18.01.2021
3575 Clouds -20 1013 89 4719 3.6 24 19:34 18.01.2021
3576 Clouds -20 1013 90 4265 4.09 24 18:48 18.01.2021
3577 Clouds -19 1012 90 2245 3.89 41 18:25 18.01.2021
3578 Clouds -19 1012 90 2245 3.89 41 17:46 18.01.2021
3579 Clouds -19 1011 90 2396 4.14 41 17:26 18.01.2021
3580 Clouds -19 1011 90 2396 4.14 41 16:49 18.01.2021
3581 Clouds -19 1011 90 1982 4.6 41 16:23 18.01.2021
3582 Clouds -19 1011 90 1982 4.6 41 15:51 18.01.2021
3583 Clouds -19 1011 91 1417 5.01 39 15:27 18.01.2021
3584 Clouds -19 1011 91 1417 5.01 39 14:47 18.01.2021
3585 Clouds -19 1011 91 1054 5.25 34 14:28 18.01.2021
3586 Clouds -19 1011 91 1054 5.25 34 13:56 18.01.2021
3587 Clouds -19 1011 91 1054 5.25 34 13:38 18.01.2021
3588 Clouds -19 1011 91 1188 5.48 31 13:20 18.01.2021
3589 Clouds -19 1011 91 1324 5.2 30 12:42 18.01.2021
3590 Clouds -19 1011 91 1223 5.05 30 12:18 18.01.2021
3591 Clouds -19 1011 91 1223 5.05 30 11:41 18.01.2021
3592 Clouds -19 1010 91 1156 5.26 30 11:23 18.01.2021
3593 Clouds -19 1010 91 1156 5.26 30 10:46 18.01.2021
3594 Clouds -19 1009 91 1234 5.46 27 10:20 18.01.2021
3595 Clouds -19 1009 91 1234 5.46 27 09:39 18.01.2021
3596 Clouds -19 1009 91 1130 5.41 27 09:18 18.01.2021
3597 Clouds -20 1010 91 1145 5.66 31 08:25 18.01.2021
3598 Clouds -20 1010 91 1145 5.66 31 07:48 18.01.2021
3599 Clouds -17 1009 92 513 6.58 40 06:35 18.01.2021
3600 Clouds -18 1008 92 641 6.52 34 04:41 18.01.2021
3601 Clouds -18 1008 92 801 6.55 35 04:22 18.01.2021
3602 Clouds -18 1008 92 801 6.55 35 03:46 18.01.2021
3603 Clouds -18 1008 92 807 6.21 39 03:25 18.01.2021
3604 Clouds -18 1008 92 807 6.21 39 02:53 18.01.2021
3605 Clouds -18 1008 92 805 6.41 44 02:18 18.01.2021
3606 Clouds -18 1009 92 694 6.47 52 00:39 18.01.2021
3607 Clouds -18 1009 92 646 6.82 56 23:51 17.01.2021
3608 Clouds -19 1008 91 630 6.77 58 23:24 17.01.2021
3609 Clouds -19 1008 91 630 6.77 58 22:50 17.01.2021
3610 Clouds -19 1008 91 638 6.52 60 22:22 17.01.2021
3611 Clouds -19 1008 91 638 6.52 60 21:43 17.01.2021
3612 Clouds -19 1008 91 659 6.13 64 21:24 17.01.2021
3613 Clouds -19 1008 91 659 6.13 64 20:51 17.01.2021
3614 Clouds -19 1008 91 659 6.13 64 20:32 17.01.2021
3615 Clouds -20 1008 91 655 6.25 69 19:52 17.01.2021
3616 Clouds -20 1008 91 655 6.25 69 19:31 17.01.2021
3617 Clouds -20 1008 91 704 6.29 75 18:53 17.01.2021
3618 Clouds -20 1008 91 822 5.87 80 18:28 17.01.2021
3619 Clouds -20 1008 91 822 5.87 80 17:50 17.01.2021
3620 Clouds -21 1008 91 801 5.78 87 17:28 17.01.2021
3621 Clouds -21 1008 91 801 5.78 87 16:45 17.01.2021
3622 Clouds -21 1008 91 924 5.93 87 16:25 17.01.2021
3623 Clouds -21 1008 91 924 5.93 87 15:45 17.01.2021
3624 Clouds -21 1008 91 924 5.93 87 15:45 17.01.2021
3625 Clouds -21 1008 91 924 5.93 87 15:45 17.01.2021
3626 Clouds -21 1008 90 1042 6.06 88 15:26 17.01.2021
3627 Clouds -21 1008 90 1042 6.06 88 14:59 17.01.2021
3628 Clouds -22 1008 90 1035 6.05 90 14:27 17.01.2021
3629 Clouds -22 1008 90 1035 6.05 90 13:59 17.01.2021
3630 Clouds -22 1008 90 1035 6.05 90 13:41 17.01.2021
3631 Clouds -22 1009 90 1605 6.39 92 13:21 17.01.2021
3632 Clouds -22 1008 90 1190 5.99 93 12:44 17.01.2021
3633 Clouds -22 1008 90 1470 6.19 92 12:24 17.01.2021
3634 Clouds -22 1008 90 1657 6.32 92 11:25 17.01.2021
3635 Clouds -22 1008 90 1657 6.32 92 10:51 17.01.2021
3636 Clouds -22 1009 89 2086 6.53 93 10:25 17.01.2021
3637 Clouds -22 1009 89 2086 6.53 93 09:50 17.01.2021
3638 Clouds -22 1009 90 2222 6.74 93 08:58 17.01.2021
3639 Clouds -22 1009 90 2222 6.74 93 08:40 17.01.2021
3640 Clouds -21 1010 91 4330 5.51 93 04:30 17.01.2021
3641 Clouds -21 1011 91 2012 5.16 98 02:51 17.01.2021
3642 Clouds -21 1012 91 3156 4 107 00:57 17.01.2021
3643 Clouds -22 1013 91 4765 3.69 113 00:21 17.01.2021
3644 Clouds -22 1013 91 4765 3.69 113 23:52 16.01.2021
3645 Clouds -22 1013 91 6922 3.88 119 23:22 16.01.2021
3646 Clouds -22 1013 91 6922 3.88 119 22:53 16.01.2021
3647 Clouds -22 1013 90 10000 4.09 118 22:19 16.01.2021
3648 Clouds -22 1013 90 10000 4.09 118 21:45 16.01.2021
3649 Clouds -21 1013 90 10000 4.23 117 21:22 16.01.2021
3650 Clouds -21 1013 90 10000 4.23 117 20:47 16.01.2021
3651 Clouds -22 1013 90 10000 4.29 119 20:23 16.01.2021
3652 Clouds -22 1013 90 10000 4.29 119 19:49 16.01.2021
3653 Clouds -21 1014 90 10000 4.3 120 19:29 16.01.2021
3654 Clouds -22 1013 90 10000 3.83 125 18:46 16.01.2021
3655 Clouds -21 1013 90 10000 3.34 128 18:27 16.01.2021
3656 Clouds -21 1013 90 10000 3.34 128 17:50 16.01.2021
3657 Clouds -21 1013 90 10000 3.34 128 17:30 16.01.2021
3658 Clouds -21 1013 90 10000 3.15 132 16:51 16.01.2021
3659 Clouds -21 1013 90 10000 3.15 132 16:33 16.01.2021
3660 Clouds -21 1013 90 10000 3.16 129 15:56 16.01.2021
3661 Clouds -21 1013 90 10000 3.16 129 15:37 16.01.2021
3662 Clouds -21 1013 90 10000 2.92 130 14:31 16.01.2021
3663 Clouds -20 1014 90 10000 2.55 137 13:52 16.01.2021
3664 Clouds -20 1014 90 10000 2.55 137 13:52 16.01.2021
3665 Clouds -20 1014 90 10000 2.55 137 13:30 16.01.2021
3666 Clouds -21 1014 90 10000 2.51 135 12:47 16.01.2021
3667 Clouds -20 1014 91 10000 2.06 140 12:22 16.01.2021
3668 Clouds -20 1014 91 10000 2.06 140 11:55 16.01.2021
3669 Clouds -20 1014 90 10000 1.83 155 11:26 16.01.2021
3670 Clouds -20 1014 90 10000 1.83 155 10:51 16.01.2021
3671 Clouds -20 1014 90 10000 1.83 155 10:33 16.01.2021
3672 Clouds -20 1014 89 10000 1.85 176 09:50 16.01.2021
3673 Clouds -20 1014 87 10000 2.06 192 09:19 16.01.2021
3674 Clouds -20 1014 86 10000 2.39 197 08:18 16.01.2021
3675 Clouds -19 1014 91 1421 2.62 212 06:44 16.01.2021
3676 Clouds -19 1014 91 1421 2.62 212 06:44 16.01.2021
3677 Clouds -19 1014 88 2586 2.34 220 04:52 16.01.2021
3678 Clouds -20 1013 85 10000 2.21 220 02:58 16.01.2021
3679 Clouds -20 1013 85 10000 2.21 220 02:37 16.01.2021
3680 Clouds -21 1014 83 10000 2.43 220 00:45 16.01.2021
3681 Clouds -22 1014 80 10000 1.93 208 00:20 16.01.2021
3682 Clouds -22 1014 80 10000 1.93 208 23:30 15.01.2021
3683 Clouds -22 1014 82 10000 1.58 221 22:27 15.01.2021
3684 Clouds -22 1014 82 10000 1.58 221 21:53 15.01.2021
3685 Clouds -22 1014 82 10000 1.58 221 21:34 15.01.2021
3686 Clouds -22 1014 82 10000 1.86 232 20:43 15.01.2021
3687 Clouds -22 1015 83 10000 2.27 227 20:23 15.01.2021
3688 Clouds -22 1015 83 10000 2.27 227 19:45 15.01.2021
3689 Clouds -23 1015 83 10000 2.66 225 19:25 15.01.2021
3690 Clouds -23 1015 83 10000 2.66 225 18:45 15.01.2021
3691 Clouds -23 1016 84 10000 3.32 219 18:20 15.01.2021
3692 Clouds -23 1016 84 10000 3.32 219 17:56 15.01.2021
3693 Clouds -23 1016 84 10000 3.32 219 17:37 15.01.2021
3694 Clouds -23 1016 84 10000 3.47 214 17:19 15.01.2021
3695 Clouds -23 1016 84 10000 3.47 214 16:40 15.01.2021
3696 Clouds -24 1016 84 10000 3.83 208 16:21 15.01.2021
3697 Clouds -24 1016 84 10000 3.83 208 15:40 15.01.2021
3698 Clouds -24 1016 84 10000 3.95 210 15:18 15.01.2021
3699 Clouds -24 1016 84 10000 3.95 210 14:39 15.01.2021
3700 Clouds -24 1017 84 10000 4.27 211 14:20 15.01.2021
3701 Clouds -24 1017 84 10000 4.27 211 13:40 15.01.2021
3702 Clouds -24 1018 84 10000 4.47 213 13:19 15.01.2021
3703 Clouds -24 1017 84 10000 4.97 216 12:46 15.01.2021
3704 Clouds -24 1018 84 10000 5.62 219 12:25 15.01.2021
3705 Clouds -24 1018 84 10000 5.62 219 11:42 15.01.2021
3706 Clouds -24 1018 84 10000 6.7 218 11:20 15.01.2021
3707 Clouds -24 1018 84 10000 6.7 218 10:51 15.01.2021
3708 Clouds -23 1018 84 10000 7.18 218 10:21 15.01.2021
3709 Clouds -23 1018 84 10000 7.18 218 09:48 15.01.2021
3710 Clouds -23 1018 85 10000 7.57 217 09:29 15.01.2021
3711 Clouds -23 1018 85 10000 8.26 216 08:28 15.01.2021
3712 Clouds -23 1018 85 10000 8.26 216 07:44 15.01.2021
3713 Clouds -23 1019 86 10000 8.64 216 07:23 15.01.2021
3714 Clouds -23 1019 86 10000 8.64 216 06:36 15.01.2021
3715 Clouds -21 1019 89 10000 9.67 221 02:45 15.01.2021
3716 Clouds -20 1020 90 10000 9.6 221 00:47 15.01.2021
3717 Clouds -20 1020 90 10000 9.85 220 23:31 14.01.2021
3718 Clouds -20 1020 91 9797 10.02 219 22:58 14.01.2021
3719 Clouds -20 1020 91 9797 10.02 219 22:37 14.01.2021
3720 Clouds -19 1020 91 8902 10.37 220 22:19 14.01.2021
3721 Clouds -19 1020 91 8902 10.37 220 21:40 14.01.2021
3722 Clouds -19 1020 91 8200 10.47 222 21:20 14.01.2021
3723 Clouds -19 1020 91 8200 10.47 222 20:48 14.01.2021
3724 Clouds -19 1021 91 8935 10.58 223 20:18 14.01.2021
3725 Clouds -19 1021 91 8935 10.58 223 19:41 14.01.2021
3726 Clouds -18 1021 91 10000 10.72 224 19:23 14.01.2021
3727 Clouds -18 1021 91 10000 10.72 224 18:49 14.01.2021
3728 Clouds -18 1021 91 9577 10.94 227 18:18 14.01.2021
3729 Clouds -18 1021 91 9577 10.94 227 17:44 14.01.2021
3730 Clouds -18 1020 92 8256 11.25 226 17:25 14.01.2021
3731 Clouds -18 1020 92 8256 11.25 226 16:39 14.01.2021
3732 Clouds -17 1019 92 5910 11.41 227 15:56 14.01.2021
3733 Clouds -17 1019 92 5910 11.41 227 15:56 14.01.2021
3734 Clouds -17 1019 92 5910 11.41 227 15:38 14.01.2021
3735 Clouds -16 1019 92 4686 11.63 228 14:58 14.01.2021
3736 Clouds -16 1019 92 4686 11.63 228 14:36 14.01.2021
3737 Clouds -15 1020 93 3732 11.75 229 14:18 14.01.2021
3738 Clouds -15 1020 93 3732 11.75 229 13:47 14.01.2021
3739 Clouds -14 1020 93 3531 11.76 232 13:19 14.01.2021
3740 Clouds -14 1020 93 3499 11.97 233 12:38 14.01.2021
3741 Clouds -13 1020 94 2833 12.36 235 12:18 14.01.2021
3742 Clouds -13 1020 94 2833 12.36 235 11:41 14.01.2021
3743 Clouds -12 1019 94 1500 12.49 236 11:20 14.01.2021
3744 Clouds -12 1019 94 1500 12.49 236 10:49 14.01.2021
3745 Clouds -12 1018 94 1255 12.19 238 10:22 14.01.2021
3746 Clouds -12 1018 94 1255 12.19 238 09:44 14.01.2021
3747 Snow -11 1018 94 714 12.25 239 09:22 14.01.2021
3748 Snow -11 1018 94 714 12.25 239 08:48 14.01.2021
3749 Snow -11 1018 94 520 12.13 239 08:22 14.01.2021
3750 Snow -11 1018 94 520 12.13 239 07:45 14.01.2021
3751 Clouds -12 1018 94 1244 12.05 239 06:46 14.01.2021
3752 Clouds -11 1018 94 1455 12.19 240 05:45 14.01.2021
3753 Snow -11 1020 95 944 11.65 243 00:44 14.01.2021
3754 Snow -11 1019 95 448 11.7 246 23:54 13.01.2021
3755 Snow -11 1019 95 539 11.78 246 23:22 13.01.2021
3756 Snow -11 1019 95 563 11.89 245 22:28 13.01.2021
3757 Snow -11 1019 95 563 11.89 245 21:57 13.01.2021
3758 Snow -11 1019 95 563 11.89 245 21:38 13.01.2021
3759 Snow -10 1019 95 489 11.82 247 20:58 13.01.2021
3760 Snow -10 1019 95 489 11.82 247 20:30 13.01.2021
3761 Snow -10 1020 95 339 11.7 247 19:57 13.01.2021
3762 Snow -10 1020 95 339 11.7 247 19:37 13.01.2021
3763 Snow -10 1021 95 338 11.55 248 19:19 13.01.2021
3764 Snow -10 1021 95 338 11.55 248 18:40 13.01.2021
3765 Snow -8 1020 96 215 10.8 251 17:51 13.01.2021
3766 Snow -8 1021 96 248 10.47 252 17:25 13.01.2021
3767 Snow -8 1021 96 248 10.47 252 16:51 13.01.2021
3768 Snow -7 1020 96 607 10 254 16:22 13.01.2021
3769 Snow -7 1020 96 607 10 254 15:53 13.01.2021
3770 Snow -7 1020 96 607 10 254 15:35 13.01.2021
3771 Snow -7 1021 97 1389 9.7 256 14:48 13.01.2021
3772 Snow -7 1021 96 1534 9.48 257 13:55 13.01.2021
3773 Snow -7 1021 96 1534 9.48 257 13:32 13.01.2021
3774 Snow -7 1022 96 1768 9.26 261 12:47 13.01.2021
3775 Clouds -6 1022 96 1758 9.28 265 12:29 13.01.2021
3776 Clouds -6 1022 96 1758 9.28 265 11:59 13.01.2021
3777 Clouds -6 1022 96 1758 9.28 265 11:40 13.01.2021
3778 Clouds -5 1022 96 2375 9.19 269 11:22 13.01.2021
3779 Clouds -5 1022 96 2375 9.19 269 10:41 13.01.2021
3780 Clouds -5 1022 96 4084 8.88 274 10:22 13.01.2021
3781 Clouds -5 1022 96 4084 8.88 274 09:34 13.01.2021
3782 Clouds -5 1022 96 5270 8.75 274 08:53 13.01.2021
3783 Clouds -5 1022 96 5270 8.75 274 08:32 13.01.2021
3784 Clouds -5 1023 96 10000 8.74 275 07:37 13.01.2021
3785 Clouds -5 1023 95 10000 8.74 277 06:58 13.01.2021
3786 Clouds -7 1024 96 1741 8.55 261 04:21 13.01.2021
3787 Clouds -7 1024 96 1741 8.55 261 03:48 13.01.2021
3788 Clouds -8 1024 96 1768 8.76 259 03:29 13.01.2021
3789 Clouds -8 1024 96 1949 9.01 257 01:44 13.01.2021
3790 Clouds -9 1025 96 2239 9.03 256 00:29 13.01.2021
3791 Clouds -9 1025 96 2707 8.97 255 23:24 12.01.2021
3792 Clouds -9 1025 96 2707 8.97 255 22:47 12.01.2021
3793 Clouds -10 1025 96 3118 8.92 254 22:24 12.01.2021
3794 Clouds -10 1025 96 3118 8.92 254 21:53 12.01.2021
3795 Clouds -10 1025 96 3118 8.92 254 21:31 12.01.2021
3796 Clouds -10 1025 96 3997 8.76 253 20:49 12.01.2021
3797 Clouds -11 1026 96 3350 8.65 253 20:27 12.01.2021
3798 Clouds -11 1026 96 3350 8.65 253 19:56 12.01.2021
3799 Clouds -11 1026 96 3350 8.65 253 19:37 12.01.2021
3800 Clouds -11 1026 96 2183 8.68 253 18:49 12.01.2021
3801 Clouds -12 1026 95 1915 8.63 253 18:24 12.01.2021
3802 Clouds -12 1026 95 1915 8.63 253 17:48 12.01.2021
3803 Clouds -12 1026 95 1915 8.63 253 17:30 12.01.2021
3804 Clouds -12 1026 95 2166 8.66 251 16:44 12.01.2021
3805 Clouds -13 1026 95 3753 8.7 250 16:24 12.01.2021
3806 Clouds -13 1026 95 3753 8.7 250 15:45 12.01.2021
3807 Clouds -13 1027 95 5651 8.77 249 15:21 12.01.2021
3808 Clouds -13 1027 95 5651 8.77 249 14:44 12.01.2021
3809 Clouds -13 1027 95 4927 8.72 247 14:25 12.01.2021
3810 Clouds -13 1027 95 4927 8.72 247 13:52 12.01.2021
3811 Clouds -14 1028 94 3859 8.56 246 13:22 12.01.2021
3812 Clouds -13 1029 94 3699 8.42 247 12:26 12.01.2021
3813 Clouds -13 1029 94 3699 8.42 247 11:41 12.01.2021
3814 Clouds -14 1029 94 3120 8.25 246 10:55 12.01.2021
3815 Clouds -14 1029 94 3120 8.25 246 10:55 12.01.2021
3816 Clouds -14 1029 94 3120 8.25 246 10:55 12.01.2021
3817 Clouds -14 1029 94 2804 8.13 245 10:26 12.01.2021
3818 Clouds -14 1029 94 2804 8.13 245 09:58 12.01.2021
3819 Clouds -14 1029 94 2804 8.13 245 09:38 12.01.2021
3820 Clouds -14 1029 94 2156 7.96 244 09:18 12.01.2021
3821 Clouds -15 1029 94 2611 7.84 242 08:26 12.01.2021
3822 Clouds -15 1029 94 2611 7.84 242 07:37 12.01.2021
3823 Clouds -15 1029 94 2611 7.84 242 07:37 12.01.2021
3824 Clouds -15 1029 94 3643 7.68 240 06:50 12.01.2021
3825 Clouds -16 1029 93 5879 7.6 238 05:34 12.01.2021
3826 Clouds -16 1030 93 5906 7.22 238 03:28 12.01.2021
3827 Clouds -16 1030 93 5906 7.22 238 03:28 12.01.2021
3828 Clouds -16 1031 93 6769 6.95 238 02:21 12.01.2021
3829 Clouds -16 1031 93 6769 6.95 238 01:31 12.01.2021
3830 Clouds -15 1030 93 6196 6.85 241 00:19 12.01.2021
3831 Clouds -15 1030 93 6196 6.85 241 23:37 11.01.2021
3832 Clouds -15 1031 94 4176 6.88 242 23:18 11.01.2021
3833 Clouds -15 1031 94 4176 6.88 242 22:45 11.01.2021
3834 Clouds -15 1030 94 2473 6.8 242 22:27 11.01.2021
3835 Clouds -15 1030 94 2473 6.8 242 21:43 11.01.2021
3836 Clouds -14 1031 94 2180 6.7 243 21:25 11.01.2021
3837 Clouds -14 1031 94 2180 6.7 243 20:49 11.01.2021
3838 Clouds -14 1030 94 2145 6.94 244 20:30 11.01.2021
3839 Clouds -14 1031 94 2125 7.28 245 19:58 11.01.2021
3840 Clouds -14 1031 94 2125 7.28 245 19:35 11.01.2021
3841 Clouds -14 1031 94 2125 7.28 245 19:35 11.01.2021
3842 Clouds -14 1031 94 2098 7.39 245 18:46 11.01.2021
3843 Clouds -14 1031 94 1548 7.54 244 18:28 11.01.2021
3844 Clouds -14 1031 94 1548 7.54 244 17:57 11.01.2021
3845 Clouds -14 1031 94 1548 7.54 244 17:39 11.01.2021
3846 Clouds -14 1031 94 1653 7.74 243 17:20 11.01.2021
3847 Clouds -14 1031 94 1653 7.74 243 16:43 11.01.2021
3848 Clouds -15 1031 94 1890 7.68 240 16:24 11.01.2021
3849 Clouds -15 1031 94 1890 7.68 240 15:50 11.01.2021
3850 Clouds -15 1031 94 1890 7.68 240 15:31 11.01.2021
3851 Clouds -15 1031 94 1768 7.53 238 14:41 11.01.2021
3852 Clouds -16 1031 93 1593 7.36 238 14:19 11.01.2021
3853 Clouds -16 1031 93 1593 7.36 238 13:44 11.01.2021
3854 Clouds -17 1032 93 2120 7.33 238 13:20 11.01.2021
3855 Clouds -17 1032 93 2243 7.45 237 12:41 11.01.2021
3856 Clouds -17 1032 93 2707 7.56 237 12:21 11.01.2021
3857 Clouds -17 1032 93 2707 7.56 237 11:43 11.01.2021
3858 Clouds -18 1033 92 3296 7.37 236 10:55 11.01.2021
3859 Clouds -19 1033 92 4597 7.26 233 10:28 11.01.2021
3860 Clouds -19 1033 92 4597 7.26 233 09:45 11.01.2021
3861 Clouds -20 1033 90 10000 7.07 232 09:24 11.01.2021
3862 Clouds -20 1033 90 10000 7.07 232 08:47 11.01.2021
3863 Clouds -21 1033 87 10000 6.77 233 08:21 11.01.2021
3864 Clouds -21 1033 87 10000 6.77 233 07:40 11.01.2021
3865 Clouds -22 1033 86 10000 6.53 234 07:19 11.01.2021
3866 Clouds -22 1033 86 10000 6.53 234 06:46 11.01.2021
3867 Clouds -22 1034 85 10000 5.11 227 01:53 11.01.2021
3868 Clouds -22 1035 85 10000 4.32 227 00:40 11.01.2021
3869 Clouds -22 1035 84 10000 4.27 226 23:45 10.01.2021
3870 Clouds -21 1035 81 10000 4.12 224 22:49 10.01.2021
3871 Clouds -21 1035 80 10000 3.74 224 22:28 10.01.2021
3872 Clouds -21 1035 80 10000 3.74 224 21:56 10.01.2021
3873 Clouds -21 1035 80 10000 3.74 224 21:36 10.01.2021
3874 Clouds -21 1035 79 10000 3.51 228 21:18 10.01.2021
3875 Clouds -21 1035 79 10000 3.51 228 20:37 10.01.2021
3876 Clouds -20 1035 79 10000 3.33 231 20:19 10.01.2021
3877 Clouds -20 1035 79 10000 3.33 231 19:38 10.01.2021
3878 Clouds -20 1036 78 10000 3.25 233 19:20 10.01.2021
3879 Clouds -20 1035 78 10000 3.3 234 18:43 10.01.2021
3880 Clouds -19 1035 77 10000 2.89 235 18:20 10.01.2021
3881 Clear -19 1036 77 10000 2.35 234 17:23 10.01.2021
3882 Clear -19 1036 77 10000 2.35 234 16:46 10.01.2021
3883 Clear -19 1036 78 10000 2.03 224 16:27 10.01.2021
3884 Clear -19 1036 78 10000 1.68 208 15:26 10.01.2021
3885 Clear -19 1036 78 10000 1.68 208 14:56 10.01.2021
3886 Clear -19 1036 78 10000 1.68 208 14:38 10.01.2021
3887 Clear -19 1037 79 10000 1.56 207 13:56 10.01.2021
3888 Clear -19 1037 79 10000 1.56 207 13:38 10.01.2021
3889 Clouds -19 1037 79 10000 1.69 197 13:20 10.01.2021
3890 Clouds -19 1037 79 10000 1.69 197 12:50 10.01.2021
3891 Clouds -18 1037 80 10000 1.35 208 12:32 10.01.2021
3892 Clouds -18 1037 80 10000 1.36 200 11:48 10.01.2021
3893 Clouds -18 1037 81 10000 1.3 197 11:20 10.01.2021
3894 Clouds -18 1037 81 10000 1.3 197 10:45 10.01.2021
3895 Clouds -18 1037 81 10000 1.32 189 10:22 10.01.2021
3896 Clouds -18 1037 81 10000 1.32 189 09:36 10.01.2021
3897 Clear -19 1038 83 10000 1.49 168 08:23 10.01.2021
3898 Clear -19 1038 83 10000 1.49 168 07:37 10.01.2021
3899 Clouds -19 1037 85 10000 2.52 132 06:21 10.01.2021
3900 Clouds -19 1037 85 10000 2.52 132 05:41 10.01.2021
3901 Clouds -19 1037 89 10000 3.1 126 03:56 10.01.2021
3902 Clouds -18 1038 92 10000 3.24 121 01:30 10.01.2021
3903 Clouds -18 1038 93 10000 2.71 122 23:58 09.01.2021
3904 Clouds -18 1038 93 10000 2.71 122 23:40 09.01.2021
3905 Clouds -18 1038 93 10000 2.53 123 22:50 09.01.2021
3906 Clouds -18 1037 93 10000 2.4 128 22:19 09.01.2021
3907 Clouds -18 1037 93 10000 2.4 128 21:58 09.01.2021
3908 Clouds -18 1037 93 10000 2.4 128 21:39 09.01.2021
3909 Clouds -18 1037 93 10000 2.39 131 21:20 09.01.2021
3910 Clouds -18 1037 93 10000 2.39 131 20:45 09.01.2021
3911 Clouds -18 1037 94 7907 2.48 126 19:57 09.01.2021
3912 Clouds -18 1037 94 7907 2.48 126 19:39 09.01.2021
3913 Clouds -17 1037 94 7799 2.62 124 19:18 09.01.2021
3914 Clouds -17 1037 94 6556 2.63 135 18:35 09.01.2021
3915 Clouds -16 1037 94 5847 2.92 131 17:51 09.01.2021
3916 Clouds -16 1037 94 5847 2.92 131 17:32 09.01.2021
3917 Clouds -15 1037 95 6162 2.92 126 16:36 09.01.2021
3918 Clouds -15 1036 94 8564 2.69 119 16:18 09.01.2021
3919 Clouds -15 1036 94 8564 2.69 119 15:40 09.01.2021
3920 Clouds -15 1036 94 10000 2.51 111 14:43 09.01.2021
3921 Clear -14 1036 93 10000 2.37 105 14:21 09.01.2021
3922 Clear -14 1036 93 10000 2.37 105 13:59 09.01.2021
3923 Clear -14 1036 93 10000 2.37 105 13:40 09.01.2021
3924 Clear -14 1036 93 10000 2.29 103 13:22 09.01.2021
3925 Clear -14 1036 92 10000 2.55 95 12:27 09.01.2021
3926 Clear -14 1036 92 10000 2.55 95 11:57 09.01.2021
3927 Clear -14 1036 92 10000 2.55 95 11:36 09.01.2021
3928 Clear -14 1036 92 10000 2.28 95 10:56 09.01.2021
3929 Clear -14 1036 92 10000 2.28 95 10:37 09.01.2021
3930 Clear -14 1036 92 10000 2.11 99 09:59 09.01.2021
3931 Clear -14 1036 92 10000 2.11 99 09:40 09.01.2021
3932 Clear -14 1035 93 10000 2.16 101 09:18 09.01.2021
3933 Clear -13 1035 93 10000 2.53 100 07:46 09.01.2021
3934 Clouds -12 1035 94 10000 2.66 108 06:41 09.01.2021
3935 Clouds -12 1034 95 10000 2.92 102 06:22 09.01.2021
3936 Clouds -11 1033 96 7221 3.05 89 03:47 09.01.2021
3937 Clouds -10 1033 96 7298 3.12 83 02:39 09.01.2021
3938 Clouds -10 1033 96 9403 3.06 82 02:19 09.01.2021
3939 Clouds -9 1033 96 10000 3.27 89 00:47 09.01.2021
3940 Clouds -8 1032 97 8354 3.07 95 00:22 09.01.2021
3941 Clouds -8 1032 97 8354 3.07 95 23:30 08.01.2021
3942 Clouds -7 1031 97 2902 3.13 93 22:38 08.01.2021
3943 Clouds -8 1031 98 1980 2.63 88 21:47 08.01.2021
3944 Clouds -8 1030 97 9351 2.06 87 20:58 08.01.2021
3945 Clouds -8 1030 97 9351 2.06 87 20:33 08.01.2021
3946 Clouds -8 1030 97 10000 1.93 84 19:57 08.01.2021
3947 Clouds -8 1030 97 10000 1.83 80 19:23 08.01.2021
3948 Clouds -9 1030 97 10000 1.4 90 18:50 08.01.2021
3949 Clouds -9 1030 97 10000 1.4 90 18:30 08.01.2021
3950 Clouds -8 1029 98 10000 1.43 88 17:50 08.01.2021
3951 Clouds -8 1029 97 10000 1.55 91 17:22 08.01.2021
3952 Clouds -8 1029 97 10000 1.55 91 16:44 08.01.2021
3953 Clouds -7 1028 97 10000 1.77 95 15:44 08.01.2021
3954 Clouds -7 1029 98 10000 2 84 15:18 08.01.2021
3955 Clouds -7 1029 98 10000 2 84 14:36 08.01.2021
3956 Clouds -6 1029 98 10000 1.41 49 13:47 08.01.2021
3957 Snow -5 1029 98 1960 1.53 323 13:18 08.01.2021
3958 Clouds -5 1028 98 10000 2.06 58 12:49 08.01.2021
3959 Clouds -4 1028 98 5646 1.66 345 12:20 08.01.2021
3960 Clouds -5 1028 98 5290 1.67 343 11:45 08.01.2021
3961 Snow -3 1028 98 1365 2.83 301 11:27 08.01.2021
3962 Snow -3 1028 98 1365 2.83 301 10:53 08.01.2021
3963 Snow -3 1028 98 1365 2.83 301 10:34 08.01.2021
3964 Snow -3 1028 98 200 3.63 284 09:46 08.01.2021
3965 Snow -4 1028 98 134 4.63 267 09:27 08.01.2021
3966 Snow -4 1028 98 134 4.63 267 08:38 08.01.2021
3967 Snow -6 1028 97 147 6.56 249 07:27 08.01.2021
3968 Snow -8 1028 97 391 7.16 245 05:55 08.01.2021
3969 Clouds -10 1028 95 874 8.19 240 23:48 07.01.2021
3970 Clouds -10 1028 95 874 8.19 240 23:30 07.01.2021
3971 Clouds -10 1028 95 2414 8.58 237 22:47 07.01.2021
3972 Snow -11 1028 95 316 8.63 236 22:26 07.01.2021
3973 Snow -11 1028 95 316 8.63 236 21:45 07.01.2021
3974 Clouds -11 1029 95 698 9.1 234 21:26 07.01.2021
3975 Clouds -11 1029 95 698 9.1 234 20:47 07.01.2021
3976 Clouds -11 1029 95 1351 9.12 231 20:28 07.01.2021
3977 Clouds -11 1029 95 1351 9.12 231 19:45 07.01.2021
3978 Clouds -11 1029 95 1104 8.92 231 19:21 07.01.2021
3979 Snow -11 1029 95 456 8.74 234 18:30 07.01.2021
3980 Snow -11 1029 95 521 8.9 236 17:56 07.01.2021
3981 Snow -11 1029 95 265 9.33 237 17:28 07.01.2021
3982 Snow -11 1029 95 265 9.33 237 16:53 07.01.2021
3983 Snow -11 1029 95 218 9.25 239 16:28 07.01.2021
3984 Snow -11 1029 95 218 9.25 239 15:41 07.01.2021
3985 Snow -11 1029 95 426 9.94 238 15:22 07.01.2021
3986 Snow -11 1029 95 263 10.31 238 14:27 07.01.2021
3987 Snow -11 1029 95 263 10.29 238 13:46 07.01.2021
3988 Snow -10 1030 95 448 10.62 236 13:18 07.01.2021
3989 Snow -10 1030 95 448 10.62 236 12:47 07.01.2021
3990 Snow -10 1030 95 522 10.96 235 11:57 07.01.2021
3991 Snow -10 1030 95 522 10.96 235 11:37 07.01.2021
3992 Snow -11 1030 95 528 11.33 234 10:51 07.01.2021
3993 Snow -11 1030 95 528 11.33 234 10:32 07.01.2021
3994 Clouds -11 1030 95 571 11.29 234 09:48 07.01.2021
3995 Snow -11 1030 94 886 11.69 232 09:22 07.01.2021
3996 Snow -11 1030 94 886 11.69 232 08:30 07.01.2021
3997 Clouds -11 1030 94 815 11.57 232 07:53 07.01.2021
3998 Clouds -11 1030 94 815 11.57 232 07:32 07.01.2021
3999 Clouds -12 1030 94 3782 11.55 231 05:26 07.01.2021
4000 Clouds -11 1031 94 3753 11.43 232 00:32 07.01.2021
4001 Clouds -11 1031 94 1868 11.27 232 23:51 06.01.2021
4002 Clouds -11 1031 94 2730 11.18 229 22:47 06.01.2021
4003 Clouds -11 1031 94 4175 11.23 226 21:59 06.01.2021
4004 Clouds -11 1031 94 4175 11.23 226 21:41 06.01.2021
4005 Clouds -11 1032 94 2260 10.82 228 21:21 06.01.2021
4006 Clouds -11 1032 94 2260 10.82 228 20:39 06.01.2021
4007 Clouds -12 1032 94 1590 10.46 227 20:18 06.01.2021
4008 Clouds -12 1032 94 1590 10.46 227 19:41 06.01.2021
4009 Clouds -13 1032 93 2732 10.48 223 19:22 06.01.2021
4010 Clouds -14 1033 93 4025 10.89 221 18:42 06.01.2021
4011 Clouds -14 1033 93 3675 10.75 221 18:24 06.01.2021
4012 Clouds -14 1033 93 3675 10.75 221 17:43 06.01.2021
4013 Clouds -15 1033 93 3944 10.76 220 17:25 06.01.2021
4014 Clouds -15 1033 93 3944 10.76 220 16:45 06.01.2021
4015 Clouds -15 1033 93 4414 11.03 219 16:20 06.01.2021
4016 Clouds -15 1033 93 4414 11.03 219 15:54 06.01.2021
4017 Clouds -15 1033 93 4414 11.03 219 15:32 06.01.2021
4018 Clouds -16 1033 93 5429 10.89 218 14:52 06.01.2021
4019 Clouds -16 1034 92 6422 10.57 217 14:21 06.01.2021
4020 Clouds -16 1034 92 6422 10.57 217 13:47 06.01.2021
4021 Clouds -16 1034 92 7855 10.37 215 13:24 06.01.2021
4022 Clouds -16 1035 92 8138 10.39 215 12:49 06.01.2021
4023 Clouds -16 1035 92 6778 10.31 215 12:26 06.01.2021
4024 Clouds -16 1035 92 6778 10.31 215 11:39 06.01.2021
4025 Clouds -17 1035 92 6833 10.05 217 11:20 06.01.2021
4026 Clouds -17 1035 92 6579 9.89 218 10:29 06.01.2021
4027 Clouds -17 1035 92 6579 9.89 218 09:52 06.01.2021
4028 Clouds -17 1035 92 6841 9.88 219 09:21 06.01.2021
4029 Clouds -17 1035 92 6841 9.88 219 08:41 06.01.2021
4030 Clouds -17 1036 92 8069 10.12 219 07:59 06.01.2021
4031 Clouds -17 1036 92 8610 10.21 218 07:18 06.01.2021
4032 Clouds -17 1035 92 9447 10.35 217 05:52 06.01.2021
4033 Clouds -17 1035 92 8956 10.39 218 04:41 06.01.2021
4034 Clouds -17 1036 92 8452 10.1 221 02:47 06.01.2021
4035 Clouds -17 1036 92 8500 10.16 222 02:26 06.01.2021
4036 Clouds -17 1036 92 8500 10.16 222 01:34 06.01.2021
4037 Clouds -17 1037 92 9257 10.01 221 23:34 05.01.2021
4038 Clouds -17 1037 92 10000 9.99 222 22:45 05.01.2021
4039 Clouds -18 1037 92 9267 10.2 222 22:22 05.01.2021
4040 Clouds -18 1037 92 9267 10.2 222 21:57 05.01.2021
4041 Clouds -18 1037 92 9089 10.05 224 20:58 05.01.2021
4042 Clouds -18 1037 92 9626 9.98 223 20:28 05.01.2021
4043 Clouds -18 1037 92 9626 9.98 223 19:45 05.01.2021
4044 Clouds -18 1037 92 10000 10.05 222 19:23 05.01.2021
4045 Clouds -18 1037 92 10000 10.05 222 18:45 05.01.2021
4046 Clouds -19 1038 91 10000 10.06 222 18:26 05.01.2021
4047 Clouds -19 1038 91 10000 10.06 222 17:52 05.01.2021
4048 Clouds -19 1038 91 10000 10.06 222 17:31 05.01.2021
4049 Clouds -19 1038 91 10000 9.8 223 16:53 05.01.2021
4050 Clouds -19 1038 91 10000 9.85 222 16:23 05.01.2021
4051 Clouds -19 1038 91 10000 9.85 222 15:51 05.01.2021
4052 Clouds -19 1038 91 10000 9.98 221 15:29 05.01.2021
4053 Clouds -19 1038 91 10000 9.98 221 14:47 05.01.2021
4054 Clouds -19 1038 91 10000 10.2 222 13:55 05.01.2021
4055 Clouds -19 1038 91 10000 10.2 222 13:35 05.01.2021
4056 Clouds -19 1039 91 10000 10.26 220 12:51 05.01.2021
4057 Clouds -19 1039 91 10000 9.92 220 12:29 05.01.2021
4058 Clouds -19 1039 91 10000 9.92 220 11:49 05.01.2021
4059 Clouds -19 1039 91 10000 9.68 222 11:25 05.01.2021
4060 -273 0 0 0 0 0 11:25 05.01.2021
4061 Clouds -19 1039 91 10000 9.68 222 11:25 05.01.2021
4062 Clouds -19 1039 91 10000 9.68 222 10:44 05.01.2021
4063 Clouds -19 1039 91 10000 9.94 220 09:59 05.01.2021
4064 Clouds -19 1039 91 10000 9.94 220 09:40 05.01.2021
4065 Clouds -19 1039 91 10000 10 218 08:45 05.01.2021
4066 Clouds -19 1039 91 10000 9.48 219 08:18 05.01.2021
4067 Clouds -18 1039 92 10000 9.17 222 05:29 05.01.2021
4068 Clouds -18 1039 92 10000 8.46 223 02:56 05.01.2021
4069 Clouds -18 1039 92 10000 8.24 220 00:23 05.01.2021
4070 Clouds -18 1039 92 10000 8.24 220 23:40 04.01.2021
4071 Clouds -18 1039 92 10000 8.34 220 23:21 04.01.2021
4072 Clouds -18 1039 92 10000 8.34 220 22:45 04.01.2021
4073 Clouds -18 1038 92 10000 7.99 219 21:58 04.01.2021
4074 Clouds -18 1038 92 10000 7.99 219 21:39 04.01.2021
4075 Clouds -18 1038 92 10000 7.79 218 20:58 04.01.2021
4076 Clouds -18 1038 92 10000 7.79 218 20:34 04.01.2021
4077 Clouds -17 1039 92 10000 7.57 218 19:59 04.01.2021
4078 Clouds -17 1039 92 10000 7.57 218 19:40 04.01.2021
4079 Clouds -17 1039 93 9670 7.77 217 19:19 04.01.2021
4080 Clouds -18 1039 92 10000 7.25 214 18:40 04.01.2021
4081 Clouds -17 1039 93 10000 7.26 214 17:48 04.01.2021
4082 Clouds -17 1039 93 5174 7.22 213 17:28 04.01.2021
4083 Clouds -17 1039 93 5174 7.22 213 16:57 04.01.2021
4084 Clouds -17 1039 93 5174 7.22 213 16:38 04.01.2021
4085 Clouds -17 1038 93 5537 7.13 213 16:20 04.01.2021
4086 Clouds -17 1038 93 5537 7.13 213 15:41 04.01.2021
4087 Clouds -16 1039 93 7585 7 213 14:54 04.01.2021
4088 Clouds -16 1039 93 7044 6.68 218 13:56 04.01.2021
4089 Clouds -16 1039 93 7044 6.68 218 13:35 04.01.2021
4090 Clouds -15 1039 93 6190 6.9 218 12:51 04.01.2021
4091 Clouds -15 1039 93 5150 7.26 218 12:25 04.01.2021
4092 Clouds -15 1039 93 5150 7.26 218 11:39 04.01.2021
4093 Clouds -15 1039 94 1389 7.32 218 11:18 04.01.2021
4094 Clouds -15 1039 94 1389 7.32 218 10:42 04.01.2021
4095 Clouds -15 1039 94 1152 6.57 216 10:21 04.01.2021
4096 Clouds -16 1039 93 9376 6.77 214 09:25 04.01.2021
4097 Clouds -16 1039 93 9376 6.77 214 08:57 04.01.2021
4098 Clouds -17 1039 94 10000 6.62 212 08:22 04.01.2021
4099 Clouds -17 1039 94 10000 6.62 212 07:46 04.01.2021
4100 Clouds -18 1038 93 10000 6.79 213 05:36 04.01.2021
4101 Clouds -18 1038 92 10000 6.18 211 04:56 04.01.2021
4102 Clouds -18 1038 92 10000 5.18 208 01:31 04.01.2021
4103 Clouds -19 1039 91 10000 4.9 205 23:57 03.01.2021
4104 Clouds -19 1039 91 10000 4.9 205 23:34 03.01.2021
4105 Clouds -20 1039 92 10000 4.59 202 22:57 03.01.2021
4106 Clouds -20 1039 92 10000 4.59 202 22:39 03.01.2021
4107 Clouds -20 1039 92 10000 4.19 195 22:20 03.01.2021
4108 Clouds -20 1039 92 10000 4.19 195 21:37 03.01.2021
4109 Clouds -20 1039 92 10000 3.96 190 20:56 03.01.2021
4110 Clouds -20 1039 92 10000 3.96 190 20:38 03.01.2021
4111 Clouds -20 1039 92 10000 3.73 192 20:18 03.01.2021
4112 Clouds -20 1039 92 10000 3.73 192 19:44 03.01.2021
4113 Clear -20 1039 92 10000 3.77 196 19:21 03.01.2021
4114 Clear -20 1039 92 10000 3.77 196 18:43 03.01.2021
4115 Clear -20 1040 91 10000 4.09 199 18:21 03.01.2021
4116 Clear -20 1040 91 10000 4.09 199 17:51 03.01.2021
4117 Clear -20 1040 90 10000 3.96 198 17:26 03.01.2021
4118 Clear -20 1040 90 10000 3.96 198 16:45 03.01.2021
4119 Clear -19 1039 90 10000 3.78 193 16:20 03.01.2021
4120 Clear -19 1039 90 10000 3.78 193 15:52 03.01.2021
4121 Clear -19 1039 90 10000 3.78 193 15:34 03.01.2021
4122 Clear -19 1040 89 10000 3.33 190 14:58 03.01.2021
4123 Clear -19 1040 89 10000 3.33 190 14:31 03.01.2021
4124 Clear -19 1041 88 10000 3.41 191 13:47 03.01.2021
4125 Clear -19 1041 88 10000 3.49 188 13:23 03.01.2021
4126 Clear -19 1041 88 10000 3.49 188 13:23 03.01.2021
4127 Clear -19 1041 88 10000 3.49 188 12:50 03.01.2021
4128 Clear -19 1041 86 10000 3.42 187 11:43 03.01.2021
4129 Clear -19 1041 86 10000 3.43 191 11:24 03.01.2021
4130 Clear -19 1041 86 10000 3.43 191 10:52 03.01.2021
4131 Clear -19 1041 86 10000 3.43 191 10:30 03.01.2021
4132 Clear -19 1041 86 10000 3.62 195 09:41 03.01.2021
4133 Clear -19 1041 85 10000 3.43 195 09:22 03.01.2021
4134 Clear -19 1041 84 10000 3.04 194 07:50 03.01.2021
4135 Clear -19 1041 84 10000 2.93 208 05:58 03.01.2021
4136 Clear -18 1042 83 10000 3.08 186 02:28 03.01.2021
4137 Clear -18 1042 83 10000 3.08 186 01:45 03.01.2021
4138 Clear -19 1043 83 10000 2.86 191 00:19 03.01.2021
4139 Clear -19 1043 83 10000 2.86 191 23:30 02.01.2021
4140 Clear -18 1043 82 10000 3.11 204 22:55 02.01.2021
4141 Clear -18 1043 82 10000 3.11 204 22:32 02.01.2021
4142 Clear -18 1043 81 10000 2.89 202 21:51 02.01.2021
4143 Clear -18 1043 81 10000 2.89 202 21:31 02.01.2021
4144 Clear -18 1043 79 10000 2.49 196 20:50 02.01.2021
4145 Clear -18 1044 78 10000 2.51 194 20:29 02.01.2021
4146 Clear -18 1044 78 10000 2.51 194 19:59 02.01.2021
4147 Clear -17 1044 77 10000 2.36 179 19:20 02.01.2021
4148 Clear -17 1044 77 10000 2.36 179 18:56 02.01.2021
4149 Clear -18 1044 77 10000 2.47 185 18:38 02.01.2021
4150 Clear -18 1043 76 10000 2.39 184 18:19 02.01.2021
4151 Clear -18 1043 76 10000 2.39 184 17:38 02.01.2021
4152 Clear -18 1043 77 10000 2.29 178 16:53 02.01.2021
4153 Clear -18 1043 77 10000 2.21 181 16:23 02.01.2021
4154 Clear -18 1043 77 10000 2.21 181 15:54 02.01.2021
4155 Clear -18 1043 77 10000 2.21 181 15:31 02.01.2021
4156 Clear -19 1043 78 10000 2.29 197 14:55 02.01.2021
4157 Clear -19 1043 78 10000 2.29 197 14:35 02.01.2021
4158 Clear -18 1044 79 10000 2.31 206 13:49 02.01.2021
4159 Clear -18 1045 80 10000 2.12 196 13:18 02.01.2021
4160 Clear -18 1045 79 10000 2.17 200 12:43 02.01.2021
4161 Clear -18 1045 80 10000 1.87 185 12:24 02.01.2021
4162 Clear -18 1045 80 10000 1.87 185 11:43 02.01.2021
4163 Clear -18 1045 81 10000 1.8 176 11:21 02.01.2021
4164 Clear -18 1045 81 10000 1.8 176 10:42 02.01.2021
4165 Clear -19 1045 82 10000 1.9 171 10:24 02.01.2021
4166 Clear -19 1045 82 10000 1.9 171 09:43 02.01.2021
4167 Clear -19 1045 83 10000 1.75 183 09:21 02.01.2021
4168 Clear -19 1045 83 10000 1.75 183 08:49 02.01.2021
4169 Clear -19 1044 85 10000 1.79 189 08:19 02.01.2021
4170 Clear -19 1045 86 10000 1.96 185 07:25 02.01.2021
4171 Clouds -19 1044 83 10000 2.07 197 06:58 02.01.2021
4172 Clouds -19 1044 85 10000 2.2 192 06:24 02.01.2021
4173 Clouds -20 1044 88 10000 2.14 187 04:27 02.01.2021
4174 Clouds -20 1045 90 10000 2.26 217 00:53 02.01.2021
4175 Clouds -20 1045 90 10000 2.26 217 00:33 02.01.2021
4176 Clouds -20 1045 90 10000 2.22 211 23:43 01.01.2021
4177 Clouds -20 1045 91 10000 2.24 202 23:19 01.01.2021
4178 Clouds -20 1045 91 10000 2.24 202 22:47 01.01.2021
4179 Clouds -21 1044 91 10000 2.07 187 22:22 01.01.2021
4180 Clouds -21 1044 91 10000 2.07 187 21:43 01.01.2021
4181 Clouds -21 1044 91 10000 2.2 191 21:21 01.01.2021
4182 Clouds -21 1044 91 10000 2.2 191 20:51 01.01.2021
4183 Clouds -22 1044 92 10000 2.31 199 20:19 01.01.2021
4184 Clouds -22 1044 92 10000 2.31 199 19:42 01.01.2021
4185 Clouds -22 1045 92 10000 2.41 204 19:23 01.01.2021
4186 Clouds -22 1045 92 10000 2.41 204 18:49 01.01.2021
4187 Clouds -22 1045 92 10000 2.57 203 18:31 01.01.2021
4188 Clouds -22 1045 92 10000 2.62 211 17:59 01.01.2021
4189 Clouds -22 1045 92 10000 2.62 211 17:40 01.01.2021
4190 Clouds -22 1044 92 10000 2.64 219 17:18 01.01.2021
4191 Clouds -22 1044 92 10000 2.64 219 16:36 01.01.2021
4192 Clouds -22 1044 92 10000 2.47 215 15:45 01.01.2021
4193 Clouds -22 1044 91 10000 2.36 213 14:52 01.01.2021
4194 Clouds -22 1044 91 10000 2.36 213 14:33 01.01.2021
4195 Clouds -22 1045 92 10000 2.3 214 13:45 01.01.2021
4196 Clouds -22 1045 92 10000 2.16 197 13:24 01.01.2021
4197 Clouds -22 1045 92 10000 2.16 197 12:39 01.01.2021
4198 Clouds -22 1045 91 10000 2.17 198 12:18 01.01.2021
4199 Clouds -22 1045 91 10000 2.17 198 11:39 01.01.2021
4200 Clouds -22 1045 91 10000 2.33 194 11:18 01.01.2021
4201 Clouds -22 1045 91 10000 2.33 194 10:35 01.01.2021
4202 Clouds -22 1044 91 10000 1.98 183 09:47 01.01.2021
4203 Clouds -22 1044 91 10000 2.12 204 09:20 01.01.2021
4204 Clouds -22 1044 91 10000 2.32 206 08:25 01.01.2021
4205 Clouds -22 1044 93 10000 2.68 201 04:53 01.01.2021
4206 Clouds -22 1044 93 9906 2.44 203 02:39 01.01.2021
4207 Clouds -22 1044 93 9064 2.52 202 01:35 01.01.2021
4208 Clouds -23 1045 93 7627 2.66 209 00:28 01.01.2021
4209 Clouds -23 1045 93 7627 2.66 209 23:36 31.12.2020
4210 Clouds -23 1045 93 7263 2.67 211 23:18 31.12.2020
4211 Clouds -23 1045 93 7263 2.67 211 22:38 31.12.2020
4212 Clouds -24 1044 93 6577 2.6 209 22:19 31.12.2020
4213 Clouds -24 1044 93 6577 2.6 209 21:47 31.12.2020
4214 Clouds -24 1044 93 5852 2.38 201 21:24 31.12.2020
4215 Clouds -24 1044 93 5852 2.38 201 20:49 31.12.2020
4216 Clouds -24 1044 93 5251 2.61 197 20:18 31.12.2020
4217 Clouds -24 1044 93 5251 2.61 197 19:46 31.12.2020
4218 Clouds -24 1044 93 5108 2.46 194 19:28 31.12.2020
4219 Clouds -24 1044 93 5359 2.59 201 18:49 31.12.2020
4220 Clouds -24 1044 93 5129 2.6 189 18:24 31.12.2020
4221 Clouds -24 1044 93 5129 2.6 189 17:44 31.12.2020
4222 Clouds -24 1044 93 5046 2.53 182 17:23 31.12.2020
4223 Clouds -24 1044 93 5046 2.53 182 16:43 31.12.2020
4224 Clouds -25 1043 92 4877 2.52 183 16:25 31.12.2020
4225 Clouds -25 1043 92 4877 2.52 183 15:49 31.12.2020
4226 Clouds -25 1044 92 4617 2.49 181 15:22 31.12.2020
4227 Clouds -25 1044 92 4617 2.49 181 14:57 31.12.2020
4228 Clouds -25 1044 92 4617 2.49 181 14:39 31.12.2020
4229 Clouds -25 1044 92 4787 2.74 179 14:21 31.12.2020
4230 Clouds -25 1044 92 4787 2.74 179 13:39 31.12.2020
4231 Clouds -25 1044 92 4787 2.74 179 13:39 31.12.2020
4232 Clouds -25 1044 92 3464 2.79 177 13:21 31.12.2020
4233 Clouds -25 1044 92 3464 2.79 177 12:54 31.12.2020
4234 Clouds -26 1044 92 4545 2.68 183 12:35 31.12.2020
4235 Clouds -26 1044 92 3405 2.96 173 11:52 31.12.2020
4236 Clouds -26 1044 92 3405 2.96 173 11:32 31.12.2020
4237 Clouds -26 1044 92 3405 2.96 173 11:32 31.12.2020
4238 Clouds -26 1044 92 3405 2.96 173 11:32 31.12.2020
4239 Clouds -25 1044 93 3121 3.77 156 10:50 31.12.2020
4240 Clouds -25 1044 93 3121 3.77 156 10:30 31.12.2020
4241 Clouds -25 1043 93 3030 4.38 145 09:58 31.12.2020
4242 Clouds -25 1043 93 3030 4.38 145 09:36 31.12.2020
4243 Clouds -25 1043 94 1388 4.69 137 09:18 31.12.2020
4244 Clouds -25 1043 94 1388 4.69 137 08:45 31.12.2020
4245 Clouds -25 1043 94 999 4.74 134 08:27 31.12.2020
4246 Clouds -25 1043 94 999 4.74 134 07:33 31.12.2020
4247 Clouds -25 1042 93 3719 4.15 138 06:29 31.12.2020
4248 Clouds -25 1042 93 3732 4.21 137 05:29 31.12.2020
4249 Clouds -25 1042 92 4576 4.6 136 02:58 31.12.2020
4250 Clouds -25 1042 92 4835 4.65 133 02:26 31.12.2020
4251 Clouds -25 1042 92 4835 4.65 133 01:48 31.12.2020
4252 Clouds -25 1042 92 4492 4.53 132 01:28 31.12.2020
4253 Clouds -25 1042 93 8616 4.44 133 00:48 31.12.2020
4254 Clouds -25 1042 92 8806 4.21 132 23:55 30.12.2020
4255 Clouds -25 1042 92 9586 3.92 135 23:20 30.12.2020
4256 Clouds -25 1042 92 9586 3.92 135 22:52 30.12.2020
4257 Clouds -25 1041 92 9473 3.86 136 22:32 30.12.2020
4258 Clouds -25 1041 92 9473 3.86 136 21:48 30.12.2020
4259 Clouds -25 1041 92 5840 3.8 139 21:25 30.12.2020
4260 Clouds -25 1041 92 5840 3.8 139 20:52 30.12.2020
4261 Clouds -25 1041 92 5188 3.73 144 20:24 30.12.2020
4262 Clouds -25 1041 92 5188 3.73 144 19:42 30.12.2020
4263 Clouds -25 1041 92 4228 3.91 142 19:23 30.12.2020
4264 Clouds -25 1041 92 4228 3.91 142 18:56 30.12.2020
4265 Clouds -25 1041 92 4228 3.91 142 18:37 30.12.2020
4266 Clouds -25 1041 93 3184 4.35 142 18:18 30.12.2020
4267 Clouds -25 1041 93 3184 4.35 142 17:41 30.12.2020
4268 Clouds -25 1041 93 2845 4.63 141 17:20 30.12.2020
4269 Clouds -25 1041 93 2845 4.63 141 16:37 30.12.2020
4270 Clouds -25 1041 93 2740 4.65 140 15:49 30.12.2020
4271 Clouds -25 1041 93 2780 4.77 138 15:26 30.12.2020
4272 Clouds -25 1041 93 2780 4.77 138 14:44 30.12.2020
4273 Clouds -25 1041 93 2925 4.71 139 14:26 30.12.2020
4274 Clouds -25 1041 93 2925 4.71 139 13:52 30.12.2020
4275 Clouds -25 1041 92 2945 4.78 140 12:47 30.12.2020
4276 Clouds -26 1041 92 3599 4.61 138 12:22 30.12.2020
4277 Clouds -26 1041 92 3599 4.61 138 11:39 30.12.2020
4278 Clouds -26 1041 92 3402 4.71 139 11:20 30.12.2020
4279 Clouds -26 1041 92 3402 4.71 139 10:54 30.12.2020
4280 Clouds -26 1041 92 3402 4.71 139 10:35 30.12.2020
4281 Clouds -27 1040 92 3101 4.75 138 09:53 30.12.2020
4282 Clouds -27 1040 92 3101 4.75 138 09:35 30.12.2020
4283 Clouds -27 1040 92 3111 4.97 138 08:35 30.12.2020
4284 Clouds -27 1040 92 3091 5.18 138 07:32 30.12.2020
4285 Clouds -27 1039 92 2982 5.25 137 06:53 30.12.2020
4286 Clouds -26 1040 92 3113 4.89 135 06:32 30.12.2020
4287 Clouds -26 1040 92 3304 5.18 135 05:45 30.12.2020
4288 Clouds -26 1040 92 2790 5.33 135 05:27 30.12.2020
4289 Clouds -26 1039 93 1229 5.8 136 03:28 30.12.2020
4290 Clouds -26 1039 93 1229 5.8 136 02:43 30.12.2020
4291 Clouds -26 1039 93 516 6.07 134 02:25 30.12.2020
4292 Clouds -26 1039 93 516 6.07 134 02:25 30.12.2020
4293 Clouds -26 1039 93 516 6.07 134 01:33 30.12.2020
4294 Clouds -26 1039 94 486 6.23 132 00:50 30.12.2020
4295 Clouds -26 1040 93 1084 6.38 132 00:31 30.12.2020
4296 Clouds -26 1039 93 827 6.37 129 23:57 29.12.2020
4297 Clouds -26 1039 93 827 6.37 129 23:39 29.12.2020
4298 Clouds -26 1039 94 807 6.29 129 23:18 29.12.2020
4299 Clouds -26 1039 94 807 6.29 129 22:40 29.12.2020
4300 Clouds -26 1038 93 867 6.17 130 22:22 29.12.2020
4301 Clouds -26 1038 93 867 6.17 130 21:46 29.12.2020
4302 Clouds -26 1039 94 461 6.09 133 21:26 29.12.2020
4303 Clouds -26 1039 94 461 6.09 133 20:48 29.12.2020
4304 Clouds -25 1039 95 433 6.1 133 20:26 29.12.2020
4305 Clouds -25 1039 95 433 6.1 133 19:56 29.12.2020
4306 Clouds -25 1039 95 433 6.1 133 19:37 29.12.2020
4307 Clouds -25 1039 95 441 5.98 131 19:18 29.12.2020
4308 Clouds -25 1040 93 853 6.12 133 18:39 29.12.2020
4309 Clouds -25 1039 93 802 6 134 18:18 29.12.2020
4310 Clouds -25 1039 93 802 6 134 17:38 29.12.2020
4311 Clouds -25 1039 93 802 6 134 17:38 29.12.2020
4312 Clouds -25 1039 92 883 5.92 134 17:19 29.12.2020
4313 Clouds -25 1039 92 883 5.92 134 16:36 29.12.2020
4314 Clouds -25 1039 92 753 5.93 136 15:56 29.12.2020
4315 Clouds -25 1039 92 753 5.93 136 15:36 29.12.2020
4316 Clouds -25 1039 92 641 6.11 136 14:58 29.12.2020
4317 Clouds -25 1039 92 641 6.11 136 14:36 29.12.2020
4318 Clouds -25 1039 93 552 5.88 138 14:18 29.12.2020
4319 Clouds -25 1039 93 552 5.88 138 14:18 29.12.2020
4320 Clouds -25 1039 93 552 5.88 138 13:39 29.12.2020
4321 Snow -25 1039 94 550 5.93 137 13:18 29.12.2020
4322 Clouds -25 1039 92 580 6.09 140 12:37 29.12.2020
4323 Clouds -24 1038 93 561 6.23 136 12:19 29.12.2020
4324 Clouds -24 1038 93 561 6.23 136 11:52 29.12.2020
4325 Clouds -24 1038 93 561 6.23 136 11:31 29.12.2020
4326 Clouds -24 1038 94 999 6.27 129 10:23 29.12.2020
4327 Clouds -24 1038 94 999 6.27 129 09:48 29.12.2020
4328 Clouds -23 1038 93 1048 6.74 128 09:20 29.12.2020
4329 Clouds -23 1038 93 1048 6.74 128 08:52 29.12.2020
4330 Clouds -23 1038 94 839 6.61 127 08:19 29.12.2020
4331 Snow -23 1038 94 471 6.73 127 07:26 29.12.2020
4332 Clouds -24 1039 90 1677 5.6 121 06:26 29.12.2020
4333 Clouds -24 1038 90 1992 5.99 117 03:32 29.12.2020
4334 Clouds -23 1039 90 1466 6.7 108 00:44 29.12.2020
4335 Clouds -23 1039 90 1466 6.75 109 23:55 28.12.2020
4336 Clouds -23 1039 90 1466 6.75 109 23:33 28.12.2020
4337 Clouds -24 1038 90 1754 7.47 105 22:28 28.12.2020
4338 Clouds -24 1038 90 1754 7.47 105 21:45 28.12.2020
4339 Clouds -24 1038 90 1585 7.94 105 21:24 28.12.2020
4340 Clouds -24 1038 90 1585 7.94 105 20:42 28.12.2020
4341 Clouds -24 1038 91 1287 8.92 104 20:22 28.12.2020
4342 Clouds -24 1038 91 1287 8.92 104 19:48 28.12.2020
4343 Clouds -23 1038 91 1049 9.54 97 19:24 28.12.2020
4344 Clouds -23 1038 91 1049 9.54 97 18:52 28.12.2020
4345 Clouds -25 1038 91 1606 9.59 95 18:28 28.12.2020
4346 Clouds -25 1038 91 1606 9.59 95 18:28 28.12.2020
4347 Clouds -25 1038 91 1606 9.59 95 17:46 28.12.2020
4348 Clouds -25 1038 91 2822 9.72 97 17:26 28.12.2020
4349 Clouds -25 1038 91 2822 9.72 97 16:46 28.12.2020
4350 Clear -26 1038 90 5544 9.82 100 16:26 28.12.2020
4351 Clear -26 1038 90 5544 9.82 100 15:53 28.12.2020
4352 Clear -26 1038 89 6937 9.92 102 15:26 28.12.2020
4353 Clear -26 1038 89 9719 10.08 101 14:23 28.12.2020
4354 Clear -26 1038 89 9719 10.08 101 13:38 28.12.2020
4355 Clouds -25 1038 88 10000 10.48 101 13:19 28.12.2020
4356 Clouds -25 1038 88 10000 9.89 102 12:25 28.12.2020
4357 Clouds -25 1038 88 10000 9.89 102 11:47 28.12.2020
4358 Clouds -25 1038 86 10000 9.19 104 11:29 28.12.2020
4359 Clouds -25 1038 86 10000 9.19 104 10:54 28.12.2020
4360 Clouds -25 1037 86 10000 9.49 106 10:28 28.12.2020
4361 Clouds -25 1037 86 10000 9.49 106 09:52 28.12.2020
4362 Clouds -25 1037 86 10000 9.67 107 09:22 28.12.2020
4363 Clouds -25 1037 86 10000 9.67 107 08:58 28.12.2020
4364 Clouds -25 1037 85 10000 8.74 107 06:52 28.12.2020
4365 Clouds -25 1036 86 10000 8.51 107 04:56 28.12.2020
4366 Clouds -24 1036 87 10000 8.22 104 03:21 28.12.2020
4367 Clouds -23 1036 88 10000 7.84 104 01:52 28.12.2020
4368 Clouds -23 1037 88 10000 7.66 104 23:50 27.12.2020
4369 Clouds -23 1036 89 10000 7.63 103 23:20 27.12.2020
4370 Clouds -23 1036 89 10000 7.63 103 23:20 27.12.2020
4371 Clouds -23 1035 91 10000 6.3 102 22:24 27.12.2020
4372 Clouds -23 1035 90 10000 6.07 102 21:27 27.12.2020
4373 Clouds -23 1035 90 10000 6.07 102 20:56 27.12.2020
4374 Clouds -24 1035 89 10000 6.11 102 19:49 27.12.2020
4375 Clouds -24 1036 90 10000 6.16 105 19:23 27.12.2020
4376 Clouds -24 1036 90 10000 6.16 105 18:49 27.12.2020
4377 Clouds -24 1036 87 10000 7.01 101 18:20 27.12.2020
4378 Clouds -24 1036 87 10000 7.01 101 17:52 27.12.2020
4379 Clouds -24 1036 87 10000 7.01 101 17:34 27.12.2020
4380 Clouds -25 1035 88 10000 7.24 102 16:54 27.12.2020
4381 Clouds -25 1035 87 10000 7.26 102 16:21 27.12.2020
4382 Clouds -25 1036 87 10000 7.34 101 15:22 27.12.2020
4383 Clouds -25 1036 87 10000 7.34 101 14:45 27.12.2020
4384 Clouds -25 1036 86 10000 7.38 102 14:27 27.12.2020
4385 Clouds -25 1036 86 10000 7.28 105 13:23 27.12.2020
4386 Clouds -25 1036 86 10000 7.19 104 12:51 27.12.2020
4387 Clouds -25 1036 86 10000 7.28 105 12:22 27.12.2020
4388 Clouds -25 1036 86 10000 7.28 105 11:40 27.12.2020
4389 Clouds -25 1036 85 10000 7.02 105 10:53 27.12.2020
4390 Clouds -25 1035 85 10000 6.98 104 10:26 27.12.2020
4391 Clouds -25 1035 85 10000 6.98 104 09:58 27.12.2020
4392 Clouds -25 1035 84 10000 6.93 106 08:50 27.12.2020
4393 Clouds -26 1035 84 10000 6.8 106 08:26 27.12.2020
4394 Clouds -26 1035 84 10000 6.74 105 07:28 27.12.2020
4395 Clouds -26 1035 84 10000 6.55 105 05:46 27.12.2020
4396 Clouds -27 1034 84 10000 6.32 105 04:58 27.12.2020
4397 Clouds -28 1034 84 10000 6.48 106 03:22 27.12.2020
4398 Clear -29 1035 85 10000 6.51 107 01:35 27.12.2020
4399 Clouds -30 1036 86 10000 6.5 106 00:25 27.12.2020
4400 Clouds -30 1036 86 10000 6.5 106 23:41 26.12.2020
4401 Clouds -30 1036 86 10000 6.81 106 23:21 26.12.2020
4402 Clouds -30 1036 86 10000 6.81 106 22:38 26.12.2020
4403 Clouds -30 1036 86 10000 6.78 107 22:18 26.12.2020
4404 Clouds -30 1036 86 10000 6.78 107 22:18 26.12.2020
4405 Clouds -30 1036 86 10000 6.78 107 21:52 26.12.2020
4406 Clouds -30 1036 86 10000 6.65 106 21:24 26.12.2020
4407 Clouds -30 1036 86 10000 6.65 106 20:43 26.12.2020
4408 Clear -30 1037 86 10000 6.55 109 20:20 26.12.2020
4409 Clear -30 1037 86 10000 6.55 109 19:30 26.12.2020
4410 Clouds -31 1037 85 10000 6.6 108 18:54 26.12.2020
4411 Clouds -31 1037 85 10000 6.6 108 18:32 26.12.2020
4412 Clouds -31 1037 85 10000 6.73 108 17:46 26.12.2020
4413 Clouds -31 1037 85 10000 6.67 109 17:27 26.12.2020
4414 Clouds -31 1037 85 10000 6.67 109 16:38 26.12.2020
4415 Clouds -31 1037 85 10000 6.95 109 15:57 26.12.2020
4416 Clouds -31 1038 85 10000 7.5 109 15:20 26.12.2020
4417 Clouds -31 1038 85 10000 7.5 109 14:30 26.12.2020
4418 Clear -31 1038 85 10000 7.65 108 13:56 26.12.2020
4419 Clear -31 1038 85 10000 7.65 108 13:36 26.12.2020
4420 Clouds -31 1039 85 10000 7.6 108 12:53 26.12.2020
4421 Clouds -31 1039 85 10000 7.69 109 12:35 26.12.2020
4422 Clouds -31 1039 85 10000 7.85 109 11:59 26.12.2020
4423 Clouds -31 1039 85 10000 7.85 109 11:41 26.12.2020
4424 Clouds -31 1039 85 10000 7.93 109 11:19 26.12.2020
4425 Clouds -31 1039 85 10000 7.93 109 10:43 26.12.2020
4426 Clouds -31 1039 85 10000 8.13 108 10:23 26.12.2020
4427 Clouds -31 1039 85 10000 8.13 108 09:41 26.12.2020
4428 Clouds -31 1039 85 10000 8.04 108 08:54 26.12.2020
4429 Clouds -31 1039 85 10000 7.92 109 08:18 26.12.2020
4430 Clouds -31 1039 85 10000 7.84 109 07:20 26.12.2020
4431 Clouds -30 1037 85 10000 7.86 107 03:54 26.12.2020
4432 Clouds -30 1038 86 10000 7.76 103 02:34 26.12.2020
4433 Clouds -28 1039 87 9795 6.49 103 00:28 26.12.2020
4434 Clouds -28 1039 87 9795 6.49 103 23:46 25.12.2020
4435 Clouds -28 1039 88 8927 6.41 100 23:27 25.12.2020
4436 Clouds -28 1039 88 8927 6.41 100 22:51 25.12.2020
4437 Clouds -27 1038 88 7974 6.31 100 22:26 25.12.2020
4438 Clouds -27 1038 88 7974 6.31 100 21:41 25.12.2020
4439 Clouds -27 1038 89 7689 5.93 102 21:23 25.12.2020
4440 Clouds -27 1038 89 7689 5.93 102 20:39 25.12.2020
4441 Clouds -26 1038 89 7162 5.66 101 19:54 25.12.2020
4442 Clouds -26 1038 89 7162 5.66 101 19:36 25.12.2020
4443 Clouds -26 1039 90 6453 5.46 102 18:39 25.12.2020
4444 Clouds -26 1038 89 9073 5.36 104 17:58 25.12.2020
4445 Clouds -26 1038 89 9073 5.36 104 17:35 25.12.2020
4446 Clouds -26 1038 89 9282 5.12 103 16:49 25.12.2020
4447 Clouds -26 1038 89 9675 4.92 103 16:21 25.12.2020
4448 Clouds -26 1038 89 9675 4.92 103 15:46 25.12.2020
4449 Clouds -26 1038 89 9748 4.68 104 15:22 25.12.2020
4450 Clouds -26 1038 89 9748 4.68 104 14:32 25.12.2020
4451 Clouds -25 1038 90 10000 4.59 103 13:48 25.12.2020
4452 Clouds -25 1039 90 8154 4.61 103 13:26 25.12.2020
4453 Clouds -25 1039 90 8154 4.61 103 12:56 25.12.2020
4454 Clouds -25 1039 89 10000 4 108 12:27 25.12.2020
4455 Clouds -25 1039 89 10000 4 108 11:46 25.12.2020
4456 Clouds -25 1038 90 10000 4.07 105 11:23 25.12.2020
4457 Clouds -25 1038 90 10000 4.07 105 10:40 25.12.2020
4458 Clouds -25 1038 90 9927 4.04 102 09:49 25.12.2020
4459 Clouds -25 1038 90 8445 4.13 102 08:53 25.12.2020
4460 Clouds -25 1038 90 8445 4.13 102 08:35 25.12.2020
4461 Clouds -25 1038 90 6840 4.22 96 06:51 25.12.2020
4462 Clouds -23 1038 92 3602 4.8 95 06:21 25.12.2020
4463 Clouds -23 1038 92 2343 4.91 94 02:23 25.12.2020
4464 Clouds -23 1038 93 2403 4.31 101 00:32 25.12.2020
4465 Clouds -23 1039 93 2364 4.36 99 23:32 24.12.2020
4466 Clouds -22 1038 93 2375 4.45 96 22:55 24.12.2020
4467 Clouds -22 1037 93 2760 4.42 94 22:25 24.12.2020
4468 Clouds -22 1037 93 2760 4.42 94 21:52 24.12.2020
4469 Clouds -22 1037 93 2777 4.27 95 20:59 24.12.2020
4470 Clouds -22 1038 93 2732 4.11 96 19:54 24.12.2020
4471 Clouds -22 1037 93 1604 3.21 113 18:22 24.12.2020
4472 Clouds -22 1037 93 1604 3.21 113 17:39 24.12.2020
4473 Clouds -22 1037 93 1645 3.37 110 17:21 24.12.2020
4474 Clouds -21 1036 93 1390 3.56 106 16:25 24.12.2020
4475 Clouds -21 1036 93 1390 3.56 106 15:49 24.12.2020
4476 Clouds -21 1036 93 1187 3.7 100 15:26 24.12.2020
4477 Clouds -21 1036 93 1187 3.7 100 14:57 24.12.2020
4478 Clouds -21 1036 93 1187 3.7 100 14:38 24.12.2020
4479 Clouds -21 1037 93 1138 3.81 98 14:19 24.12.2020
4480 Clouds -21 1037 93 1138 3.81 98 13:39 24.12.2020
4481 Clouds -21 1037 93 1097 3.85 95 13:18 24.12.2020
4482 Clouds -21 1037 93 1097 3.85 95 12:40 24.12.2020
4483 Clouds -23 1037 92 1093 4.72 92 12:18 24.12.2020
4484 Clouds -23 1037 92 1093 4.72 92 11:38 24.12.2020
4485 Clouds -23 1037 92 1207 5.1 89 11:19 24.12.2020
4486 Clouds -23 1037 92 1207 5.1 89 10:43 24.12.2020
4487 Clouds -23 1036 92 1034 5.54 87 10:20 24.12.2020
4488 Clouds -23 1036 92 1034 5.54 87 09:50 24.12.2020
4489 Clouds -23 1035 92 844 5.98 84 08:50 24.12.2020
4490 Clouds -23 1035 92 829 6.24 81 07:55 24.12.2020
4491 Clouds -23 1035 92 829 6.24 81 07:37 24.12.2020
4492 Clouds -22 1036 92 792 5.63 88 06:27 24.12.2020
4493 Clouds -22 1034 93 609 5.43 87 03:51 24.12.2020
4494 Clouds -21 1034 93 572 5.55 86 01:52 24.12.2020
4495 Clouds -22 1035 93 611 5.52 85 01:23 24.12.2020
4496 Clouds -22 1035 93 611 5.52 85 00:43 24.12.2020
4497 Clouds -21 1034 93 659 4.75 85 00:19 24.12.2020
4498 Clouds -21 1034 93 659 4.75 85 23:40 23.12.2020
4499 Clouds -22 1033 93 711 4.76 89 23:21 23.12.2020
4500 Clouds -22 1033 93 711 4.76 89 22:48 23.12.2020
4501 Clouds -22 1032 93 650 5.04 90 22:26 23.12.2020
4502 Clouds -22 1032 93 650 5.04 90 21:46 23.12.2020
4503 Clouds -22 1032 93 615 5.28 91 21:22 23.12.2020
4504 Clouds -22 1032 93 615 5.28 91 20:46 23.12.2020
4505 Clouds -22 1032 92 635 5.62 90 20:28 23.12.2020
4506 Clouds -22 1032 92 635 5.62 90 19:45 23.12.2020
4507 Clouds -22 1032 92 887 6.21 89 19:24 23.12.2020
4508 Clouds -22 1031 93 464 5.81 103 18:56 23.12.2020
4509 Clouds -22 1031 93 464 5.81 103 18:36 23.12.2020
4510 Snow -22 1031 93 456 6.09 100 17:57 23.12.2020
4511 Snow -22 1031 93 456 6.09 100 17:36 23.12.2020
4512 Clouds -22 1030 93 488 6.14 98 17:18 23.12.2020
4513 Clouds -22 1030 93 488 6.14 98 16:39 23.12.2020
4514 Clouds -22 1029 93 516 6.24 96 16:21 23.12.2020
4515 Clouds -22 1029 93 516 6.24 96 15:40 23.12.2020
4516 Clouds -22 1029 93 516 6.24 96 15:40 23.12.2020
4517 Clouds -22 1028 93 509 6.29 96 15:22 23.12.2020
4518 Clouds -22 1028 93 509 6.29 96 14:52 23.12.2020
4519 Clouds -22 1028 93 494 6.53 97 14:25 23.12.2020
4520 Clouds -22 1028 93 494 6.53 97 13:58 23.12.2020
4521 Clouds -22 1028 93 494 6.53 97 13:39 23.12.2020
4522 Clouds -22 1028 93 497 6.47 97 13:18 23.12.2020
4523 Clouds -24 1027 94 480 5.14 107 12:46 23.12.2020
4524 Snow -24 1027 94 370 4.63 115 12:21 23.12.2020
4525 Snow -24 1027 94 370 4.63 115 11:45 23.12.2020
4526 Snow -22 1026 94 274 4.94 122 10:58 23.12.2020
4527 Snow -22 1026 94 274 4.94 122 10:40 23.12.2020
4528 Snow -21 1025 94 165 4.24 115 10:21 23.12.2020
4529 Snow -22 1023 94 165 2.54 132 09:27 23.12.2020
4530 Snow -22 1023 94 165 2.54 132 08:42 23.12.2020
4531 Snow -22 1023 92 268 2.6 158 08:18 23.12.2020
4532 Snow -23 1022 93 406 3.07 171 07:21 23.12.2020
4533 Snow -23 1023 93 464 3.23 155 06:39 23.12.2020
4534 Clouds -21 1022 94 371 3.87 141 05:26 23.12.2020
4535 Clouds -21 1022 94 371 3.87 141 04:51 23.12.2020
4536 Clouds -21 1022 94 568 5.22 105 00:34 23.12.2020
4537 Clouds -21 1022 94 599 5.6 103 23:48 22.12.2020
4538 Clouds -22 1021 94 616 6.21 103 23:28 22.12.2020
4539 Clouds -22 1021 94 616 6.21 103 22:44 22.12.2020
4540 Clouds -22 1021 94 582 6.42 103 22:25 22.12.2020
4541 Clouds -22 1021 94 582 6.42 103 21:57 22.12.2020
4542 Clouds -22 1021 94 582 6.42 103 21:38 22.12.2020
4543 Clouds -22 1020 94 638 6.53 103 21:18 22.12.2020
4544 Clouds -22 1020 94 638 6.53 103 20:47 22.12.2020
4545 Clouds -22 1021 94 684 6.82 104 20:21 22.12.2020
4546 Clouds -22 1021 94 684 6.82 104 19:44 22.12.2020
4547 Clouds -22 1021 93 770 7.27 103 19:21 22.12.2020
4548 Clouds -22 1021 93 770 7.27 103 18:50 22.12.2020
4549 Clouds -24 1021 94 809 6.47 112 18:29 22.12.2020
4550 Clouds -24 1021 94 809 6.47 112 17:57 22.12.2020
4551 Clouds -24 1021 93 863 6.51 113 17:26 22.12.2020
4552 Clouds -24 1021 93 863 6.51 113 16:56 22.12.2020
4553 Clouds -24 1021 93 863 6.51 113 16:37 22.12.2020
4554 Clouds -25 1020 93 959 6.61 114 16:19 22.12.2020
4555 Clouds -25 1020 93 959 6.61 114 15:42 22.12.2020
4556 Clouds -25 1020 93 1082 6.86 114 15:21 22.12.2020
4557 Clouds -25 1020 93 1082 6.86 114 14:45 22.12.2020
4558 Clouds -25 1021 93 1089 7.12 113 14:26 22.12.2020
4559 Clouds -25 1021 93 1089 7.12 113 13:48 22.12.2020
4560 Clouds -25 1022 92 1049 7.21 113 13:19 22.12.2020
4561 Clouds -25 1021 93 1109 7 113 12:57 22.12.2020
4562 Clouds -25 1021 93 1109 7 113 12:38 22.12.2020
4563 Clouds -25 1021 93 1177 6.85 114 12:19 22.12.2020
4564 Clouds -25 1021 93 1177 6.85 114 11:42 22.12.2020
4565 Clouds -25 1021 93 1124 6.9 116 11:22 22.12.2020
4566 Clouds -25 1021 93 1124 6.9 116 10:55 22.12.2020
4567 Clouds -25 1021 93 1071 7.04 116 10:27 22.12.2020
4568 Clouds -25 1021 93 1071 7.04 116 09:58 22.12.2020
4569 Clouds -25 1021 93 1071 7.04 116 09:30 22.12.2020
4570 Clouds -25 1020 93 1053 7.25 114 08:57 22.12.2020
4571 Clouds -25 1020 93 1053 7.25 114 08:38 22.12.2020
4572 Clouds -24 1021 93 1190 7.32 114 07:57 22.12.2020
4573 Clouds -23 1021 94 1720 6.48 123 07:27 22.12.2020
4574 Clouds -23 1021 94 1720 6.48 123 06:32 22.12.2020
4575 Clouds -23 1021 94 1972 6.86 121 05:30 22.12.2020
4576 Clouds -22 1020 94 1752 7.25 119 02:24 22.12.2020
4577 Clouds -21 1020 94 4153 7.21 118 00:25 22.12.2020
4578 Clouds -21 1020 94 4153 7.21 118 23:46 21.12.2020
4579 Clouds -20 1020 94 3753 7.2 117 23:21 21.12.2020
4580 Clouds -20 1020 94 3753 7.2 117 22:37 21.12.2020
4581 Clouds -20 1019 95 3188 7.01 117 22:18 21.12.2020
4582 Clouds -20 1019 95 3188 7.01 117 21:47 21.12.2020
4583 Clouds -18 1019 95 2114 6.89 116 21:28 21.12.2020
4584 Clouds -18 1019 95 2114 6.89 116 20:45 21.12.2020
4585 Clouds -17 1019 95 1237 6.11 117 20:21 21.12.2020
4586 Clouds -17 1019 95 1237 6.11 117 19:47 21.12.2020
4587 Clouds -16 1019 94 1092 5.05 120 19:22 21.12.2020
4588 Clouds -16 1019 94 1092 5.05 120 18:59 21.12.2020
4589 Clouds -15 1019 94 820 5.54 113 18:41 21.12.2020
4590 Snow -14 1019 94 710 5.27 110 18:23 21.12.2020
4591 Snow -14 1019 94 710 5.27 110 17:42 21.12.2020
4592 Clouds -14 1019 94 980 4.79 109 17:23 21.12.2020
4593 Clouds -14 1019 94 980 4.79 109 16:45 21.12.2020
4594 Clouds -15 1018 94 1607 3.43 119 16:21 21.12.2020
4595 Clouds -15 1018 94 1607 3.43 119 15:43 21.12.2020
4596 Clouds -16 1018 95 3595 2.76 151 14:58 21.12.2020
4597 Clouds -16 1018 95 3595 2.76 151 14:36 21.12.2020
4598 Clouds -16 1018 94 5899 2.89 175 14:18 21.12.2020
4599 Clouds -16 1018 94 5899 2.89 175 13:40 21.12.2020
4600 Clouds -17 1019 95 1227 2.85 185 13:21 21.12.2020
4601 Clouds -16 1019 94 9608 3.15 166 12:42 21.12.2020
4602 Clouds -17 1019 95 981 3.33 182 12:22 21.12.2020
4603 Clouds -17 1019 95 981 3.33 182 11:43 21.12.2020
4604 Snow -17 1019 95 637 3.61 188 11:22 21.12.2020
4605 Snow -17 1019 95 637 3.61 188 10:58 21.12.2020
4606 Snow -17 1019 95 637 3.61 188 10:39 21.12.2020
4607 Clouds -18 1018 95 1939 4.43 201 09:56 21.12.2020
4608 Clouds -18 1018 95 1939 4.43 201 09:38 21.12.2020
4609 Clouds -18 1018 96 6702 5.62 216 09:20 21.12.2020
4610 Clouds -17 1018 96 8203 6.72 219 08:26 21.12.2020
4611 Clouds -17 1018 96 9713 7.74 218 07:19 21.12.2020
4612 Clouds -17 1019 96 10000 7.36 222 05:39 21.12.2020
4613 Clouds -17 1019 96 10000 8.08 225 04:30 21.12.2020
4614 Clouds -16 1019 95 5180 6.32 215 00:37 21.12.2020
4615 Clouds -17 1020 95 10000 6.42 221 23:50 20.12.2020
4616 Clouds -16 1019 94 10000 5.2 223 23:21 20.12.2020
4617 Clouds -16 1019 94 10000 5.2 223 22:45 20.12.2020
4618 Clouds -15 1019 95 3065 4.52 224 22:23 20.12.2020
4619 Clouds -15 1019 95 3065 4.52 224 21:55 20.12.2020
4620 Clouds -15 1019 95 3065 4.52 224 21:37 20.12.2020
4621 Clouds -15 1018 92 1295 2.99 211 21:18 20.12.2020
4622 Clouds -15 1018 92 1295 2.99 211 20:42 20.12.2020
4623 Clouds -14 1018 90 1321 1.46 131 20:21 20.12.2020
4624 Clouds -14 1018 90 1321 1.46 131 19:42 20.12.2020
4625 Clouds -13 1018 90 3331 3.08 75 19:20 20.12.2020
4626 Clouds -13 1018 89 9971 3.53 72 18:54 20.12.2020
4627 Clouds -13 1018 89 9971 3.53 72 18:35 20.12.2020
4628 Clouds -13 1017 89 6735 4.53 58 17:47 20.12.2020
4629 Clouds -13 1017 90 4634 5.16 51 17:28 20.12.2020
4630 Clouds -13 1017 90 4634 5.16 51 16:49 20.12.2020
4631 Clouds -13 1017 90 4634 5.16 51 16:30 20.12.2020
4632 Clouds -13 1016 91 2932 5.51 43 15:52 20.12.2020
4633 Clouds -13 1016 91 2932 5.51 43 15:30 20.12.2020
4634 Clouds -13 1016 91 1641 5.88 43 14:58 20.12.2020
4635 Clouds -13 1016 91 1641 5.88 43 14:36 20.12.2020
4636 Clouds -13 1015 91 1436 6.58 45 13:57 20.12.2020
4637 Clouds -13 1015 91 1436 6.58 45 13:37 20.12.2020
4638 Clouds -13 1015 92 1155 7.34 45 13:18 20.12.2020
4639 Clouds -13 1015 92 1155 7.34 45 12:44 20.12.2020
4640 Clouds -13 1013 92 928 8.13 45 12:22 20.12.2020
4641 Clouds -13 1013 92 928 8.13 45 11:49 20.12.2020
4642 Snow -13 1012 92 965 8.58 48 11:26 20.12.2020
4643 Snow -13 1012 92 965 8.58 48 10:49 20.12.2020
4644 Clouds -12 1010 92 1047 9.3 51 10:21 20.12.2020
4645 Clouds -12 1010 92 1047 9.3 51 09:47 20.12.2020
4646 Snow -12 1009 93 883 9.93 54 09:29 20.12.2020
4647 Snow -12 1009 93 883 9.93 54 08:59 20.12.2020
4648 Snow -12 1009 93 883 9.93 54 08:40 20.12.2020
4649 Clouds -12 1007 95 675 10.61 57 07:59 20.12.2020
4650 Clouds -12 1006 95 746 11.09 61 07:19 20.12.2020
4651 Clouds -10 1003 96 589 12.1 79 02:41 20.12.2020
4652 Clouds -10 1002 96 1004 11.2 92 00:53 20.12.2020
4653 Snow -9 1002 97 172 11.35 93 23:36 19.12.2020
4654 Snow -8 1002 97 177 11.59 94 23:18 19.12.2020
4655 Snow -8 1002 97 177 11.59 94 22:42 19.12.2020
4656 Snow -7 1001 97 290 10.94 91 22:24 19.12.2020
4657 Snow -7 1001 97 290 10.94 91 21:45 19.12.2020
4658 Snow -6 1001 97 321 9.68 91 21:26 19.12.2020
4659 Snow -6 1001 97 321 9.68 91 20:58 19.12.2020
4660 Snow -7 1001 97 381 9.26 95 20:24 19.12.2020
4661 Snow -7 1001 97 381 9.26 95 19:59 19.12.2020
4662 Snow -7 1001 97 381 9.26 95 19:41 19.12.2020
4663 Snow -7 1001 97 381 8.66 96 19:21 19.12.2020
4664 Snow -6 1001 97 2237 7.67 97 18:33 19.12.2020
4665 Snow -6 1001 97 368 4.86 108 17:56 19.12.2020
4666 Snow -6 1001 97 368 4.86 108 17:32 19.12.2020
4667 Snow -6 1001 97 402 3.64 124 16:59 19.12.2020
4668 Snow -6 1001 97 402 3.64 124 16:39 19.12.2020
4669 Clouds -6 1001 95 5078 1.77 153 16:21 19.12.2020
4670 Clouds -6 1001 95 5078 1.77 153 15:49 19.12.2020
4671 Clouds -6 1001 95 9418 1.56 226 15:21 19.12.2020
4672 Clouds -6 1001 95 9418 1.56 226 14:38 19.12.2020
4673 Clouds -6 1002 95 10000 2.31 248 13:58 19.12.2020
4674 Clouds -6 1002 95 10000 2.31 248 13:37 19.12.2020
4675 Clouds -5 1002 96 10000 2.05 262 13:18 19.12.2020
4676 Clouds -5 1002 96 10000 1.96 227 12:42 19.12.2020
4677 Clouds -5 1003 96 10000 2.46 228 12:24 19.12.2020
4678 Clouds -5 1003 96 10000 2.46 228 11:53 19.12.2020
4679 Clouds -5 1003 96 10000 2.46 228 11:32 19.12.2020
4680 Clouds -5 1003 97 10000 3.23 238 10:42 19.12.2020
4681 Clouds -5 1003 97 10000 4.06 256 10:18 19.12.2020
4682 Clouds -5 1003 97 10000 4.06 256 09:42 19.12.2020
4683 Clouds -4 1004 97 10000 4.55 257 08:59 19.12.2020
4684 Clouds -4 1004 97 10000 4.23 258 08:20 19.12.2020
4685 Clouds -4 1005 97 2317 3.92 266 07:20 19.12.2020
4686 Snow -4 1006 97 6687 4.65 262 06:50 19.12.2020
4687 Snow -4 1008 97 231 5.25 282 05:24 19.12.2020
4688 Clouds -8 1009 97 853 6.27 224 03:50 19.12.2020
4689 Snow -10 1013 96 194 6.5 201 00:49 19.12.2020
4690 Snow -10 1014 96 183 6.1 217 00:22 19.12.2020
4691 Snow -10 1014 96 183 6.1 217 23:57 18.12.2020
4692 Snow -10 1014 96 183 6.1 217 23:39 18.12.2020
4693 Snow -10 1014 96 225 5.72 233 23:18 18.12.2020
4694 Snow -10 1014 96 225 5.72 233 22:42 18.12.2020
4695 Snow -11 1015 96 449 4.92 245 22:20 18.12.2020
4696 Snow -11 1015 96 449 4.92 245 21:46 18.12.2020
4697 Clouds -10 1016 91 3122 4.41 268 21:28 18.12.2020
4698 Clouds -10 1016 88 10000 4.26 307 20:27 18.12.2020
4699 Clouds -10 1016 88 10000 4.26 307 19:52 18.12.2020
4700 Clouds -9 1017 89 10000 4.77 328 19:27 18.12.2020
4701 Clouds -9 1017 89 10000 4.77 328 18:54 18.12.2020
4702 Clouds -9 1018 89 9887 5.57 335 18:36 18.12.2020
4703 Clouds -9 1018 89 6346 6.28 346 18:18 18.12.2020
4704 Clouds -9 1017 90 2521 7.03 352 17:22 18.12.2020
4705 Clouds -9 1017 90 2521 7.03 352 16:49 18.12.2020
4706 Clouds -9 1016 90 2919 7.21 357 16:27 18.12.2020
4707 Clouds -9 1016 90 2919 7.21 357 15:56 18.12.2020
4708 Clouds -9 1016 90 2919 7.21 357 15:38 18.12.2020
4709 Snow -9 1016 90 6166 7.83 1 15:20 18.12.2020
4710 Snow -9 1016 90 6166 7.83 1 14:54 18.12.2020
4711 Clouds -9 1016 89 4423 8.52 5 14:21 18.12.2020
4712 Clouds -9 1016 89 4423 8.52 5 13:46 18.12.2020
4713 Snow -9 1016 90 3986 8.7 10 13:24 18.12.2020
4714 Snow -9 1015 91 2629 9.42 3 12:46 18.12.2020
4715 Snow -9 1015 92 1459 9.84 360 11:45 18.12.2020
4716 Snow -9 1014 92 1918 10.3 357 11:22 18.12.2020
4717 Snow -9 1014 92 1918 10.3 357 10:39 18.12.2020
4718 Clouds -9 1013 91 3590 10.82 357 10:20 18.12.2020
4719 Clouds -9 1013 91 3590 10.82 357 10:20 18.12.2020
4720 Clouds -9 1013 91 3590 10.82 357 09:38 18.12.2020
4721 Snow -9 1013 90 4317 11.26 358 09:20 18.12.2020
4722 Snow -9 1013 90 4317 11.26 358 08:53 18.12.2020
4723 Snow -9 1013 91 3879 11.5 358 08:29 18.12.2020
4724 Snow -9 1013 91 3879 11.5 358 07:36 18.12.2020
4725 Snow -9 1012 91 3413 11.26 357 07:18 18.12.2020
4726 Snow -9 1012 91 3413 11.26 357 06:42 18.12.2020
4727 Snow -9 1012 92 2410 11.09 357 05:38 18.12.2020
4728 Snow -9 1012 93 1268 10.83 358 04:51 18.12.2020
4729 Snow -9 1011 93 1291 10.36 2 01:57 18.12.2020
4730 Snow -9 1011 93 1291 10.36 2 01:37 18.12.2020
4731 Snow -10 1011 93 1248 11.27 3 23:58 17.12.2020
4732 Snow -10 1011 93 1103 11.49 3 23:25 17.12.2020
4733 Snow -10 1011 93 1103 11.49 3 22:52 17.12.2020
4734 Snow -10 1010 93 991 11.57 3 22:28 17.12.2020
4735 Snow -10 1010 93 991 11.57 3 22:28 17.12.2020
4736 Snow -10 1010 93 991 11.57 3 21:55 17.12.2020
4737 Snow -10 1010 93 991 11.57 3 21:37 17.12.2020
4738 Snow -10 1009 93 1135 11.63 4 21:18 17.12.2020
4739 Snow -10 1009 93 1135 11.63 4 20:41 17.12.2020
4740 Snow -10 1009 93 1380 11.6 5 20:19 17.12.2020
4741 Snow -10 1009 93 1380 11.6 5 19:47 17.12.2020
4742 Snow -10 1009 93 1288 11.6 6 19:24 17.12.2020
4743 Snow -9 1008 92 1976 12.26 5 18:42 17.12.2020
4744 Clouds -9 1008 93 1892 12.33 6 18:23 17.12.2020
4745 Clouds -9 1008 93 1892 12.33 6 17:53 17.12.2020
4746 Clouds -9 1008 93 1892 12.33 6 17:32 17.12.2020
4747 Snow -9 1007 93 2038 12.52 8 16:46 17.12.2020
4748 Snow -9 1007 93 1295 13.02 8 16:27 17.12.2020
4749 Snow -9 1007 93 1295 13.02 8 15:52 17.12.2020
4750 Snow -9 1007 93 1295 13.02 8 15:52 17.12.2020
4751 Snow -9 1007 93 1295 13.02 8 15:34 17.12.2020
4752 Snow -9 1006 94 768 13.45 12 14:55 17.12.2020
4753 Snow -9 1006 94 768 13.45 12 14:35 17.12.2020
4754 Snow -9 1005 94 704 14.07 14 13:58 17.12.2020
4755 Snow -9 1005 94 704 14.07 14 13:39 17.12.2020
4756 Snow -9 1004 94 601 14.43 15 12:49 17.12.2020
4757 Snow -10 1003 95 468 13.34 15 12:27 17.12.2020
4758 Snow -10 1003 95 468 13.34 15 11:46 17.12.2020
4759 Snow -10 1001 95 359 12.72 12 11:26 17.12.2020
4760 Snow -10 1001 95 359 12.72 12 10:56 17.12.2020
4761 Snow -10 1001 95 359 12.72 12 10:30 17.12.2020
4762 Snow -10 999 95 285 12.36 10 09:35 17.12.2020
4763 Snow -9 998 96 267 12.7 10 08:37 17.12.2020
4764 Snow -9 996 96 212 13.67 9 07:40 17.12.2020
4765 Snow -8 994 96 185 14.44 8 07:18 17.12.2020
4766 Snow -8 996 96 192 14.4 9 06:44 17.12.2020
4767 Snow -7 994 96 228 14.92 8 06:26 17.12.2020
4768 Clouds -7 991 97 1177 4.23 227 01:41 17.12.2020
4769 Snow -5 992 97 207 7.74 233 23:58 16.12.2020
4770 Clouds -5 991 96 1755 8.64 232 23:23 16.12.2020
4771 Clouds -5 991 96 1755 8.64 232 22:58 16.12.2020
4772 Clouds -5 991 96 1755 8.64 232 22:38 16.12.2020
4773 Clouds -5 991 94 10000 7.18 235 21:59 16.12.2020
4774 Clouds -5 991 94 10000 7.18 235 21:38 16.12.2020
4775 Clouds -6 991 93 10000 6.71 247 21:20 16.12.2020
4776 Clouds -6 991 93 10000 6.71 247 20:44 16.12.2020
4777 Clouds -4 992 92 10000 6.75 260 20:19 16.12.2020
4778 Clouds -4 992 92 10000 6.75 260 19:37 16.12.2020
4779 Snow -3 992 97 1378 7.55 282 19:18 16.12.2020
4780 Snow -3 993 96 5038 9.94 294 18:42 16.12.2020
4781 Snow -5 993 97 257 11 210 18:22 16.12.2020
4782 Snow -5 993 97 257 11 210 17:35 16.12.2020
4783 Snow -6 993 97 286 11.03 202 16:42 16.12.2020
4784 Snow -6 994 97 267 11.63 212 16:22 16.12.2020
4785 Snow -6 994 97 267 11.63 212 15:54 16.12.2020
4786 Snow -6 994 97 267 11.63 212 15:36 16.12.2020
4787 Snow -6 995 96 789 11.29 210 14:56 16.12.2020
4788 Snow -6 995 96 789 11.29 210 14:37 16.12.2020
4789 Snow -6 996 97 299 11.85 214 14:19 16.12.2020
4790 Snow -6 996 97 299 11.85 214 13:39 16.12.2020
4791 Snow -5 996 97 446 11.17 214 13:19 16.12.2020
4792 Snow -5 996 97 1301 11.88 218 12:42 16.12.2020
4793 Snow -5 996 97 695 12.36 217 11:49 16.12.2020
4794 Clouds -5 997 96 1085 12.55 219 11:23 16.12.2020
4795 Clouds -5 997 96 1085 12.55 219 10:53 16.12.2020
4796 Snow -5 997 96 2009 12.79 219 10:27 16.12.2020
4797 Snow -5 997 96 2009 12.79 219 10:27 16.12.2020
4798 Snow -5 997 96 2009 12.79 219 09:54 16.12.2020
4799 Snow -6 998 96 1189 13.25 218 09:24 16.12.2020
4800 Snow -6 998 96 618 13.57 215 08:22 16.12.2020
4801 Snow -6 998 96 618 13.57 215 07:42 16.12.2020
4802 Snow -6 999 96 871 14.23 213 07:19 16.12.2020
4803 Clouds -10 1003 96 1946 11.03 208 03:35 16.12.2020
4804 Clouds -11 1006 96 2677 10.61 209 01:34 16.12.2020
4805 Clouds -12 1008 96 7715 10.14 216 23:46 15.12.2020
4806 Clouds -12 1009 96 7193 10.5 218 22:59 15.12.2020
4807 Clouds -12 1009 96 7193 10.5 218 22:38 15.12.2020
4808 Clouds -12 1010 96 6213 10.68 219 22:19 15.12.2020
4809 Clouds -12 1010 96 6213 10.68 219 21:43 15.12.2020
4810 Clouds -12 1010 96 6152 10.87 219 21:21 15.12.2020
4811 Clouds -12 1010 96 6152 10.87 219 20:45 15.12.2020
4812 Clouds -11 1011 96 7722 11.09 219 20:26 15.12.2020
4813 Clouds -11 1011 96 7722 11.09 219 19:55 15.12.2020
4814 Clouds -11 1011 96 7722 11.09 219 19:30 15.12.2020
4815 Clouds -11 1012 96 10000 11.7 222 18:40 15.12.2020
4816 Clouds -11 1013 96 10000 12.25 221 18:22 15.12.2020
4817 Clouds -11 1013 96 10000 12.25 221 17:56 15.12.2020
4818 Clouds -11 1013 96 10000 12.25 221 17:37 15.12.2020
4819 Clouds -11 1013 96 10000 12.31 221 17:18 15.12.2020
4820 Clouds -11 1013 96 10000 12.31 221 16:32 15.12.2020
4821 Clouds -11 1014 96 10000 12.15 221 15:50 15.12.2020
4822 Clouds -11 1014 96 7696 12.14 220 15:28 15.12.2020
4823 Clouds -11 1014 96 7696 12.14 220 14:43 15.12.2020
4824 Clouds -11 1015 96 7415 12.14 222 14:21 15.12.2020
4825 Clouds -11 1015 96 7415 12.14 222 13:51 15.12.2020
4826 Clouds -11 1015 96 7415 12.14 222 13:32 15.12.2020
4827 Clouds -12 1016 96 5773 12.2 221 12:47 15.12.2020
4828 Clouds -11 1016 96 6887 12.32 222 12:47 15.12.2020
4829 Clouds -12 1017 97 9490 12.42 220 12:20 15.12.2020
4830 Clouds -12 1017 97 9490 12.42 220 11:55 15.12.2020
4831 Clouds -13 1017 97 5958 12.57 217 11:26 15.12.2020
4832 Clouds -13 1017 97 5958 12.57 217 10:53 15.12.2020
4833 Clouds -14 1017 97 6714 12.72 215 10:24 15.12.2020
4834 Clouds -14 1017 97 6714 12.72 215 09:50 15.12.2020
4835 Clouds -14 1017 97 6714 12.72 215 09:32 15.12.2020
4836 Clouds -14 1018 96 8092 12.54 215 08:49 15.12.2020
4837 Clouds -14 1018 96 10000 12.06 214 08:26 15.12.2020
4838 Clouds -14 1018 96 10000 12.06 214 07:49 15.12.2020
4839 Clouds -14 1019 94 10000 12.18 213 07:24 15.12.2020
4840 Clouds -14 1020 92 10000 11.49 214 06:28 15.12.2020
4841 Clouds -14 1021 90 10000 10.44 216 02:55 15.12.2020
4842 Clouds -14 1023 88 10000 10.17 221 00:34 15.12.2020
4843 Clouds -15 1023 89 10000 9.43 222 23:26 14.12.2020
4844 Clouds -15 1023 89 10000 9.43 222 22:55 14.12.2020
4845 Clouds -15 1023 89 10000 9.43 222 22:32 14.12.2020
4846 Clouds -15 1023 90 10000 9.15 222 21:45 14.12.2020
4847 Clouds -15 1023 90 10000 8.51 220 21:22 14.12.2020
4848 Clouds -15 1023 90 10000 8.51 220 20:51 14.12.2020
4849 Clouds -15 1023 90 10000 8.51 220 20:51 14.12.2020
4850 Clouds -14 1023 90 10000 7.16 217 20:29 14.12.2020
4851 Clouds -14 1023 90 10000 7.16 217 19:53 14.12.2020
4852 Clouds -14 1023 90 10000 5.99 218 19:29 14.12.2020
4853 Clouds -14 1024 90 10000 5.72 213 18:44 14.12.2020
4854 Clouds -14 1023 90 10000 4.76 212 18:25 14.12.2020
4855 Clouds -14 1023 90 10000 4.76 212 17:46 14.12.2020
4856 Clouds -15 1023 90 10000 3.92 216 17:23 14.12.2020
4857 Clouds -15 1023 90 10000 3.92 216 16:50 14.12.2020
4858 Clear -14 1022 90 10000 3.83 205 16:28 14.12.2020
4859 Clear -14 1022 90 10000 3.83 205 15:35 14.12.2020
4860 Clear -14 1022 91 10000 3.73 194 14:58 14.12.2020
4861 Clear -14 1022 91 10000 3.73 194 14:40 14.12.2020
4862 Clear -14 1022 93 10000 3.45 186 14:21 14.12.2020
4863 Clear -14 1022 93 10000 3.45 186 13:41 14.12.2020
4864 Clear -14 1022 93 10000 3.28 174 13:18 14.12.2020
4865 Clear -14 1022 91 10000 2.92 177 12:50 14.12.2020
4866 Clear -13 1021 89 10000 3.11 147 12:24 14.12.2020
4867 Clear -13 1021 89 10000 3.11 147 11:31 14.12.2020
4868 Clear -12 1020 88 10000 3.7 130 10:37 14.12.2020
4869 Clear -12 1020 88 10000 3.7 130 10:37 14.12.2020
4870 Clear -11 1019 88 10000 4.51 113 10:19 14.12.2020
4871 Clouds -11 1018 89 10000 5.49 101 09:29 14.12.2020
4872 Clouds -11 1018 89 10000 5.49 101 08:46 14.12.2020
4873 Clouds -10 1018 90 10000 6.46 93 08:27 14.12.2020
4874 Clouds -9 1017 90 10000 6.24 98 07:27 14.12.2020
4875 Clouds -9 1017 90 10000 6.24 98 06:45 14.12.2020
4876 Clouds -7 1014 93 10000 6.67 96 04:28 14.12.2020
4877 Snow -6 1013 97 756 7.5 97 02:26 14.12.2020
4878 Snow -6 1013 97 634 5.62 96 00:55 14.12.2020
4879 Snow -6 1013 97 289 3.89 97 00:31 14.12.2020
4880 Snow -6 1012 98 113 0.48 315 23:46 13.12.2020
4881 Snow -6 1012 97 403 3.19 250 23:25 13.12.2020
4882 Snow -6 1012 97 403 3.19 250 22:46 13.12.2020
4883 Clouds -6 1011 97 827 3.78 244 22:19 13.12.2020
4884 Clouds -6 1011 97 827 3.78 244 21:42 13.12.2020
4885 Clouds -6 1011 96 3687 3.82 242 21:23 13.12.2020
4886 Clouds -6 1011 96 3687 3.82 242 20:35 13.12.2020
4887 Clouds -6 1011 95 10000 3.6 243 19:53 13.12.2020
4888 Clouds -6 1011 95 10000 3.6 243 19:30 13.12.2020
4889 Clouds -6 1011 94 10000 3.2 247 18:58 13.12.2020
4890 Clouds -6 1011 94 10000 3.08 248 18:39 13.12.2020
4891 Clouds -6 1011 94 10000 3.08 248 18:39 13.12.2020
4892 Clouds -6 1011 93 10000 3 254 18:19 13.12.2020
4893 Clouds -6 1011 93 10000 3 254 17:46 13.12.2020
4894 Clouds -7 1012 94 10000 3.44 254 17:20 13.12.2020
4895 Clouds -7 1012 94 10000 3.44 254 16:54 13.12.2020
4896 Clouds -7 1012 94 10000 3.44 254 16:54 13.12.2020
4897 Clouds -7 1012 94 10000 3.44 254 16:36 13.12.2020
4898 Clouds -6 1012 93 10000 4.18 251 15:56 13.12.2020
4899 Clouds -6 1012 93 10000 4.18 251 15:38 13.12.2020
4900 Clouds -6 1011 93 10000 4.37 246 15:18 13.12.2020
4901 Clouds -6 1011 93 10000 4.37 246 14:42 13.12.2020
4902 Clouds -6 1012 93 10000 3.99 246 14:18 13.12.2020
4903 Clouds -6 1012 93 10000 3.99 246 13:41 13.12.2020
4904 Clouds -6 1013 93 10000 3.75 254 13:22 13.12.2020
4905 Clouds -6 1012 93 10000 3.73 253 12:37 13.12.2020
4906 Clouds -6 1012 93 10000 3.88 259 12:18 13.12.2020
4907 Clouds -6 1012 93 10000 3.88 259 11:35 13.12.2020
4908 Clouds -5 1012 92 10000 4 265 10:47 13.12.2020
4909 Clouds -5 1013 93 10000 4.63 268 10:29 13.12.2020
4910 Clouds -5 1013 93 10000 4.63 268 09:52 13.12.2020
4911 Clouds -5 1013 92 10000 5.06 270 08:53 13.12.2020
4912 Clouds -5 1013 92 10000 5.06 270 08:32 13.12.2020
4913 Clouds -5 1014 93 10000 5.62 273 07:27 13.12.2020
4914 Clouds -5 1015 93 10000 6.36 267 03:26 13.12.2020
4915 Clouds -5 1015 93 10000 6.36 267 02:32 13.12.2020
4916 Clouds -5 1015 93 10000 6.54 269 01:37 13.12.2020
4917 Clouds -5 1016 93 10000 6.93 270 00:46 13.12.2020
4918 Clouds -5 1016 93 10000 7.45 274 23:45 12.12.2020
4919 Clouds -5 1016 93 10000 7.54 274 23:27 12.12.2020
4920 Clouds -5 1016 93 10000 7.54 274 22:39 12.12.2020
4921 Clouds -6 1016 93 10000 7.58 274 21:49 12.12.2020
4922 Clouds -6 1016 93 10000 7.58 274 21:31 12.12.2020
4923 Clouds -6 1016 94 10000 7.79 276 20:48 12.12.2020
4924 Clouds -6 1016 94 10000 7.83 275 20:21 12.12.2020
4925 Clouds -6 1016 94 10000 7.83 275 19:54 12.12.2020
4926 Clouds -6 1016 94 10000 7.83 275 19:34 12.12.2020
4927 Clouds -6 1016 94 10000 8.11 280 18:58 12.12.2020
4928 Clouds -6 1016 94 10000 8.11 280 18:40 12.12.2020
4929 Clouds -6 1016 94 10000 8.03 281 18:22 12.12.2020
4930 Clouds -6 1016 94 10000 8.03 281 17:41 12.12.2020
4931 Clouds -5 1016 94 10000 7.95 283 16:52 12.12.2020
4932 Clouds -5 1016 94 5996 7.7 284 15:59 12.12.2020
4933 Clouds -5 1016 94 5996 7.7 284 15:40 12.12.2020
4934 Clouds -5 1015 93 7327 7.47 288 14:54 12.12.2020
4935 Clouds -5 1015 93 7327 7.47 288 14:35 12.12.2020
4936 Clouds -4 1015 92 10000 7.17 297 13:47 12.12.2020
4937 Clouds -4 1015 92 10000 7.01 308 13:26 12.12.2020
4938 Clouds -4 1015 92 10000 7.01 308 12:43 12.12.2020
4939 Clouds -4 1014 92 10000 7.95 304 11:39 12.12.2020
4940 Clouds -3 1014 92 10000 8.72 309 10:51 12.12.2020
4941 Clouds -3 1012 95 6723 6.18 312 09:25 12.12.2020
4942 Clouds -3 1012 95 6723 6.18 312 08:42 12.12.2020
4943 Clouds 1 1011 91 10000 11.1 257 02:28 12.12.2020
4944 Clouds 1 1013 94 1419 10.14 246 23:40 11.12.2020
4945 Clouds 0 1014 98 828 9.51 236 22:21 11.12.2020
4946 Clouds -1 1015 98 2575 8.6 237 19:57 11.12.2020
4947 Clouds -3 1016 95 10000 6.33 237 17:30 11.12.2020
4948 Clouds -3 1016 95 10000 5.75 267 14:39 11.12.2020
4949 Clouds -3 1016 95 10000 5.86 274 13:57 11.12.2020
4950 Clouds -2 1017 95 10000 6.36 278 12:36 11.12.2020
4951 Clouds -2 1016 96 10000 6.52 277 11:56 11.12.2020
4952 Clouds -2 1016 96 10000 6.52 277 11:37 11.12.2020
4953 Clouds -2 1015 96 10000 6.67 276 10:41 11.12.2020
4954 Clouds 0 1013 96 10000 7.27 297 07:51 11.12.2020
4955 Snow 1 1011 97 882 9.02 292 05:36 11.12.2020
4956 Rain 2 1011 98 124 8.51 261 04:47 11.12.2020
4957 Snow -1 1013 98 127 10.45 236 00:59 11.12.2020
4958 Snow -1 1013 98 163 9.97 234 23:31 10.12.2020
4959 Snow -2 1014 98 252 9.63 220 21:55 10.12.2020
4960 Clouds -4 1015 97 511 10.9 212 21:28 10.12.2020
4961 Clouds -4 1015 97 511 10.9 212 20:36 10.12.2020
4962 Clouds -6 1015 96 3126 11.43 207 19:33 10.12.2020
4963 Clouds -7 1016 96 8557 11.94 206 18:50 10.12.2020
4964 Clouds -8 1016 96 10000 11.69 205 17:36 10.12.2020
4965 Clouds -7 1017 96 3863 10.53 207 16:18 10.12.2020
4966 Clouds -7 1018 96 4640 10.34 206 15:24 10.12.2020
4967 Clouds -7 1018 96 4640 10.34 206 14:46 10.12.2020
4968 Clouds -6 1018 96 8707 9.78 202 14:21 10.12.2020
4969 Clouds -5 1020 96 6279 8.84 199 12:24 10.12.2020
4970 Clouds -5 1020 96 4521 9.61 194 10:57 10.12.2020
4971 Clouds -5 1022 95 10000 9.98 183 08:42 10.12.2020
4972 Clouds -5 1023 94 10000 9.44 182 07:34 10.12.2020
4973 Clouds -5 1022 94 9826 9.34 183 06:33 10.12.2020
4974 Clouds -5 1025 92 10000 5.5 193 02:50 10.12.2020
4975 Clouds -5 1025 92 10000 4.68 199 01:50 10.12.2020
4976 Clouds -5 1026 92 10000 3.95 221 23:45 09.12.2020
4977 Clouds -3 1025 89 10000 2.21 324 20:40 09.12.2020
4978 Clouds -3 1025 90 10000 3.76 337 19:46 09.12.2020
4979 Clouds -2 1025 90 10000 6.37 348 18:42 09.12.2020
4980 Clouds -2 1024 89 10000 7.26 347 17:35 09.12.2020
4981 Clouds -2 1023 89 10000 7.85 347 16:40 09.12.2020
4982 Clouds -2 1021 88 10000 8.97 347 16:20 09.12.2020
4983 Clouds -2 1020 87 10000 9.65 344 14:51 09.12.2020
4984 Clouds -2 1020 86 10000 10.14 344 14:27 09.12.2020
4985 Clouds -2 1020 86 10000 10.14 344 13:37 09.12.2020
4986 Clouds -1 1019 87 10000 11.96 338 13:18 09.12.2020
4987 Clouds -2 1019 87 10000 11.29 338 12:31 09.12.2020
4988 Clouds -2 1018 89 8906 12.77 332 11:37 09.12.2020
4989 Clouds -2 1016 92 6300 11.59 310 09:51 09.12.2020
4990 Clouds -2 1016 92 10000 10.78 301 08:36 09.12.2020
4991 Clouds -3 1017 93 10000 9.71 300 06:50 09.12.2020
4992 Clouds -2 1017 93 10000 9.16 297 05:28 09.12.2020
4993 Clouds -3 1016 94 10000 8.62 292 02:41 09.12.2020
4994 Clouds -3 1016 94 10000 8.4 284 00:37 09.12.2020
4995 Clouds -3 1016 94 10000 7.99 286 23:34 08.12.2020
4996 Clouds -2 1015 94 10000 7.35 296 22:22 08.12.2020
4997 Clouds -2 1015 94 10000 6.9 302 20:39 08.12.2020
4998 Clouds -3 1016 97 10000 6.47 269 19:30 08.12.2020
4999 Snow -5 1016 98 327 8.71 232 18:35 08.12.2020
5000 Clouds -8 1017 98 4095 8.45 222 16:39 08.12.2020
5001 Clouds -10 1017 97 10000 7.72 226 15:22 08.12.2020
5002 Clouds -10 1018 97 10000 7.2 222 13:49 08.12.2020
5003 Clouds -11 1018 97 10000 7.33 226 12:41 08.12.2020
5004 Clouds -11 1019 96 10000 6.74 223 11:53 08.12.2020
5005 Clouds -11 1019 95 10000 6.74 221 10:54 08.12.2020
5006 Clouds -11 1019 95 10000 6.74 221 10:34 08.12.2020
5007 Clouds -11 1019 93 10000 6.51 220 09:38 08.12.2020
5008 Clouds -11 1020 90 10000 5.91 217 07:38 08.12.2020
5009 Clouds -10 1019 91 10000 4.56 205 05:26 08.12.2020
5010 Clear -10 1020 92 10000 4.54 216 02:24 08.12.2020
5011 Clear -10 1020 93 10000 4.59 219 00:44 08.12.2020
5012 Clear -9 1020 93 10000 4.18 223 23:18 07.12.2020
5013 Clear -9 1020 93 10000 4.15 223 22:20 07.12.2020
5014 Clear -9 1019 93 10000 4.49 224 21:26 07.12.2020
5015 Clouds -8 1020 94 10000 4.98 214 19:23 07.12.2020
5016 Clouds -8 1020 93 10000 4.22 210 17:55 07.12.2020
5017 Clouds -8 1019 93 10000 3.73 200 17:19 07.12.2020
5018 Clouds -7 1019 93 10000 3.61 195 16:28 07.12.2020
5019 Clouds -7 1019 95 10000 3.7 196 15:24 07.12.2020
5020 Clouds -6 1019 95 10000 3.33 185 14:28 07.12.2020
5021 Clouds -6 1019 95 10000 3.33 185 13:36 07.12.2020
5022 Clouds -5 1019 89 10000 2.91 68 12:28 07.12.2020
5023 Clouds -5 1019 89 10000 2.91 68 11:42 07.12.2020
5024 Clouds -4 1018 90 10000 3.65 52 10:32 07.12.2020
5025 Clouds -4 1017 92 10000 5.2 34 08:57 07.12.2020
5026 Clouds -4 1016 93 8720 5.65 23 07:30 07.12.2020
5027 Clouds -3 1012 93 6209 7.57 7 05:26 07.12.2020
5028 Clouds -2 1010 94 6289 8.41 6 03:45 07.12.2020
5029 Clouds 0 1006 95 10000 10.61 327 00:39 07.12.2020
5030 Clouds 1 1003 92 10000 9.27 300 22:48 06.12.2020
5031 Snow 1 1003 90 10000 9.72 272 21:44 06.12.2020
5032 Snow 0 1002 97 754 12.67 273 20:41 06.12.2020
5033 Snow 0 1003 94 5692 10.81 268 20:19 06.12.2020
5034 Clouds 0 1003 93 10000 10.53 272 19:20 06.12.2020
5035 Snow 1 1003 91 10000 12.26 285 17:28 06.12.2020
5036 Snow 1 1003 91 10000 12.26 285 16:33 06.12.2020
5037 Snow 1 1003 96 31 11.2 275 14:46 06.12.2020
5038 Snow 1 1004 94 748 10.65 272 12:53 06.12.2020
5039 Snow 0 1004 96 376 11 274 12:27 06.12.2020
5040 Snow 0 1004 96 376 11 274 11:41 06.12.2020
5041 Snow 0 1004 98 59 9.28 256 11:22 06.12.2020
5042 Snow 0 1004 98 59 9.28 256 10:32 06.12.2020
5043 Snow -3 1006 97 505 10.55 225 08:57 06.12.2020
5044 Snow -4 1008 96 2086 10.38 223 07:20 06.12.2020
5045 Snow -6 1010 96 536 10.09 225 03:50 06.12.2020
5046 Clouds -6 1014 96 4383 10.36 221 00:43 06.12.2020
5047 Clouds -6 1015 96 7594 10.58 221 00:25 06.12.2020
5048 Clouds -6 1015 96 7594 10.58 221 23:44 05.12.2020
5049 Clouds -5 1015 96 3787 11.01 225 22:23 05.12.2020
5050 Clouds -5 1015 96 3787 11.01 225 21:51 05.12.2020
5051 Clouds -4 1016 96 2276 10.97 228 21:27 05.12.2020
5052 Clouds -4 1016 97 1865 10.97 233 19:50 05.12.2020
5053 Clouds -3 1017 97 3404 11.38 233 18:45 05.12.2020
5054 Snow -3 1017 97 1293 11.95 235 17:35 05.12.2020
5055 Snow -3 1017 97 437 11.81 237 16:43 05.12.2020
5056 Snow -2 1017 98 217 11.48 240 16:20 05.12.2020
5057 Snow -2 1017 98 234 11.31 242 14:30 05.12.2020
5058 Snow -2 1018 98 283 11.46 245 12:32 05.12.2020
5059 Snow -1 1019 98 315 11.4 248 11:49 05.12.2020
5060 Snow -1 1019 98 177 11.11 251 10:33 05.12.2020
5061 Snow 0 1018 98 357 9.99 254 07:49 05.12.2020
5062 Snow 0 1018 98 335 10.53 254 07:25 05.12.2020
5063 Snow -1 1017 98 160 12.06 248 04:46 05.12.2020
5064 Snow 1 1017 95 1119 12.41 262 23:56 04.12.2020
5065 Snow 0 1017 96 1772 13 258 22:41 04.12.2020
5066 Snow 0 1016 98 164 13.19 255 20:30 04.12.2020
5067 Snow -1 1017 98 287 13.4 247 18:53 04.12.2020
5068 Snow -2 1017 97 447 13.71 244 18:21 04.12.2020
5069 Snow -2 1017 97 447 13.71 244 17:41 04.12.2020
5070 Snow -2 1018 97 486 13.67 242 15:54 04.12.2020
5071 Snow -2 1018 97 456 13.65 242 15:18 04.12.2020
5072 Snow -2 1018 97 485 13.48 243 13:35 04.12.2020
5073 Snow -1 1019 98 264 13.25 247 12:55 04.12.2020
5074 Snow -1 1019 98 346 12.69 249 11:33 04.12.2020
5075 Snow 0 1019 98 593 11.59 254 10:28 04.12.2020
5076 Snow 0 1019 95 1609 11.12 257 07:53 04.12.2020
5077 Snow 0 1019 98 1129 10.87 252 06:39 04.12.2020
5078 Snow 0 1019 95 1358 10.92 259 04:50 04.12.2020
5079 Clouds 1 1019 95 476 10.27 253 23:51 03.12.2020
5080 Snow 1 1019 95 479 10.49 255 22:47 03.12.2020
5081 Snow 1 1018 96 51 10.4 251 21:20 03.12.2020
5082 Snow 1 1018 96 51 10.4 251 20:39 03.12.2020
5083 Snow -1 1019 98 175 10.84 235 19:21 03.12.2020
5084 Snow 1 1019 96 43 10.04 244 18:40 03.12.2020
5085 Snow 0 1019 98 125 10.16 232 17:21 03.12.2020
5086 Snow -1 1019 98 484 9.89 234 15:59 03.12.2020
5087 Snow -1 1019 98 484 9.89 234 15:32 03.12.2020
5088 Snow -1 1019 98 587 9.73 234 14:48 03.12.2020
5089 Snow -1 1019 98 368 9.92 237 13:50 03.12.2020
5090 Snow 0 1019 98 479 8.94 236 12:33 03.12.2020
5091 Snow -1 1019 98 240 8.92 229 11:59 03.12.2020
5092 Snow -2 1019 98 389 8.36 221 10:38 03.12.2020
5093 Snow -2 1019 98 210 6.33 204 08:38 03.12.2020
5094 Clouds -2 1018 93 10000 5.73 292 03:45 03.12.2020
5095 Clouds -1 1017 92 10000 9.9 285 01:41 03.12.2020
5096 Clouds 0 1016 93 10000 8.28 269 23:56 02.12.2020
5097 Clouds 0 1016 93 10000 7.64 258 22:45 02.12.2020
5098 Snow 0 1015 93 10000 7.18 267 21:43 02.12.2020
5099 Snow 0 1014 97 961 10.13 276 20:49 02.12.2020
5100 Snow 0 1014 97 961 10.13 276 20:31 02.12.2020
5101 Snow -1 1015 98 228 12.94 242 19:40 02.12.2020
5102 Clouds -2 1015 94 10000 11.79 240 17:49 02.12.2020
5103 Clouds -2 1015 94 10000 11.79 240 17:30 02.12.2020
5104 Clouds -3 1015 91 10000 7.39 236 15:43 02.12.2020
5105 Clouds -3 1014 88 10000 10.08 286 13:26 02.12.2020
5106 Clouds -3 1013 88 10000 11.31 286 11:30 02.12.2020
5107 Clouds -2 1011 89 10000 11.15 283 10:24 02.12.2020
5108 Snow -1 1009 93 10000 11.32 282 07:42 02.12.2020
5109 Snow -2 1010 97 741 14.8 233 23:30 01.12.2020
5110 Snow -3 1012 97 322 13.9 231 22:20 01.12.2020
5111 Snow -3 1013 97 575 13.67 232 19:36 01.12.2020
5112 Clouds -3 1014 97 870 13.75 231 18:55 01.12.2020
5113 Snow -3 1015 97 640 13.51 231 16:47 01.12.2020
5114 Clouds -3 1016 97 744 13.39 230 14:53 01.12.2020
5115 Clouds -3 1018 97 1243 13.45 230 12:45 01.12.2020
5116 Snow -1 1019 97 1011 13.64 233 11:29 01.12.2020
5117 Snow -1 1019 97 1011 13.64 233 10:52 01.12.2020
5118 Clouds -1 1019 97 2139 13.9 234 10:26 01.12.2020
5119 Snow 0 1020 98 175 13.27 231 07:46 01.12.2020
5120 Clouds 0 1021 97 1903 12.96 238 05:58 01.12.2020
5121 Clouds -1 1022 97 3641 13.18 240 00:57 01.12.2020
5122 Snow -1 1023 97 1153 12.89 240 00:29 01.12.2020
5123 Snow -1 1023 97 626 12.87 238 23:20 30.11.2020
5124 Snow -1 1023 97 626 12.87 238 22:40 30.11.2020
5125 Clouds -2 1022 97 1153 12.54 240 22:22 30.11.2020
5126 Clouds -2 1023 96 4807 13.28 240 19:46 30.11.2020
5127 Clouds -3 1024 97 967 13.84 238 18:54 30.11.2020
5128 Clouds -3 1024 97 730 13.76 237 18:21 30.11.2020
5129 Clouds -3 1024 97 730 13.76 237 17:45 30.11.2020
5130 Snow -3 1024 97 885 13.85 238 16:52 30.11.2020
5131 Clouds -3 1024 96 1096 14.08 239 14:48 30.11.2020
5132 Clouds -3 1024 96 1489 14.14 238 13:55 30.11.2020
5133 Clouds -3 1025 96 2776 13.9 239 12:59 30.11.2020
5134 Clouds -3 1025 96 2930 13.95 238 12:25 30.11.2020
5135 Clouds -3 1025 96 2588 13.96 238 10:59 30.11.2020
5136 Clouds -3 1025 96 1661 14.04 237 10:21 30.11.2020
5137 Snow -3 1024 97 1182 13.9 237 08:52 30.11.2020
5138 Snow -2 1025 97 1040 13.85 242 01:25 30.11.2020
5139 Snow -2 1026 97 355 13.97 241 23:26 29.11.2020
5140 Snow -2 1025 97 334 14.19 242 21:44 29.11.2020
5141 Snow -2 1025 97 289 14.21 243 21:25 29.11.2020
5142 Snow -2 1024 97 272 14.31 243 19:19 29.11.2020
5143 Snow -3 1025 97 477 15 241 17:34 29.11.2020
5144 Clouds -4 1026 96 1404 14.63 232 14:22 29.11.2020
5145 Clouds -4 1027 96 2143 14.31 232 12:45 29.11.2020
5146 Clouds -4 1028 96 1532 14.11 232 11:36 29.11.2020
5147 Clouds -4 1028 96 1595 12.98 229 08:53 29.11.2020
5148 Clouds -4 1028 96 1595 12.98 229 08:34 29.11.2020
5149 Clouds -4 1030 97 2543 12 228 02:31 29.11.2020
5150 Clouds -3 1031 97 1627 12.04 233 22:59 28.11.2020
5151 Clouds -4 1031 97 1720 11.99 233 22:18 28.11.2020
5152 Snow -4 1030 97 1012 12.56 230 19:58 28.11.2020
5153 Snow -4 1030 97 718 12.61 230 19:27 28.11.2020
5154 Snow -4 1030 97 718 12.61 230 18:57 28.11.2020
5155 Clouds -4 1030 97 776 12.67 231 18:20 28.11.2020
5156 Clouds -4 1030 96 2336 12.49 231 16:57 28.11.2020
5157 Clouds -5 1030 97 972 12.48 228 14:58 28.11.2020
5158 Clouds -5 1031 96 2386 12.49 228 13:47 28.11.2020
5159 Clouds -6 1031 96 5605 11.94 226 11:27 28.11.2020
5160 Clouds -6 1031 96 9229 11.28 227 09:26 28.11.2020
5161 Clouds -7 1031 97 10000 10.58 221 03:39 28.11.2020
5162 Clouds -7 1031 97 7859 9.95 221 01:52 28.11.2020
5163 Clouds -7 1031 97 10000 9.5 221 23:21 27.11.2020
5164 Clouds -7 1031 97 8293 9.34 219 22:24 27.11.2020
5165 Clouds -7 1030 97 8548 9.27 218 20:39 27.11.2020
5166 Clouds -7 1030 97 10000 9.55 216 19:34 27.11.2020
5167 Clouds -8 1030 97 10000 9.61 218 18:57 27.11.2020
5168 Clouds -8 1029 97 10000 9.3 221 16:51 27.11.2020
5169 Clouds -7 1028 97 10000 9.14 214 14:45 27.11.2020
5170 Clouds -8 1028 97 10000 8.83 214 13:18 27.11.2020
5171 Clouds -8 1028 97 10000 8.45 216 12:46 27.11.2020
5172 Clouds -8 1028 97 7806 8.4 218 11:34 27.11.2020
5173 Clouds -8 1028 96 10000 8.55 216 10:43 27.11.2020
5174 Clouds -8 1027 97 9652 8.78 213 09:51 27.11.2020
5175 Clouds -8 1024 97 5572 9.11 212 23:39 26.11.2020
5176 Clouds -9 1023 97 10000 8.9 212 22:25 26.11.2020
5177 Clouds -9 1023 97 10000 8.9 212 21:45 26.11.2020
5178 Clouds -8 1023 97 10000 9.05 212 20:43 26.11.2020
5179 Clouds -8 1023 97 6255 8.84 217 18:37 26.11.2020
5180 Clouds -8 1023 97 7605 8.86 216 17:31 26.11.2020
5181 Clouds -7 1021 97 10000 9.28 213 13:58 26.11.2020
5182 Clouds -7 1021 96 10000 9.23 212 12:58 26.11.2020
5183 Clouds -7 1021 97 10000 8.77 212 12:39 26.11.2020
5184 Clouds -8 1020 96 10000 8.75 213 10:50 26.11.2020
5185 Clouds -8 1020 96 10000 8.45 214 10:23 26.11.2020
5186 Clouds -8 1020 96 10000 8.45 214 09:37 26.11.2020
5187 Clouds -9 1019 96 9117 8.43 214 08:58 26.11.2020
5188 Clouds -9 1019 96 9117 8.43 214 08:34 26.11.2020
5189 Clouds -9 1018 97 7759 8.82 213 02:19 26.11.2020
5190 Clouds -9 1017 96 9565 8.23 215 22:20 25.11.2020
5191 Clouds -9 1017 96 8614 8.2 215 20:37 25.11.2020
5192 Clouds -9 1017 96 5768 7.93 216 19:18 25.11.2020
5193 Clouds -9 1016 96 6558 7.74 216 17:29 25.11.2020
5194 Clouds -8 1016 96 6285 7.71 215 15:44 25.11.2020
5195 Clouds -9 1015 97 5816 7.58 216 14:58 25.11.2020
5196 Clouds -9 1015 96 6672 7.62 218 13:46 25.11.2020
5197 Clouds -9 1015 96 7543 7.61 217 12:57 25.11.2020
5198 Clouds -9 1015 96 7543 7.61 217 12:57 25.11.2020
5199 Clouds -10 1015 96 2676 6.73 211 11:24 25.11.2020
5200 Clouds -10 1014 96 7170 6.75 212 09:21 25.11.2020
5201 Clouds -10 1014 96 7170 6.75 212 08:50 25.11.2020
5202 Clouds -10 1014 96 10000 6.96 212 07:41 25.11.2020
5203 Clouds -9 1013 96 9155 7.49 213 03:49 25.11.2020
5204 Clouds -9 1013 96 8414 7.76 210 01:49 25.11.2020
5205 Clouds -8 1013 96 10000 7.62 211 00:20 25.11.2020
5206 Clouds -8 1013 96 10000 7.62 211 23:35 24.11.2020
5207 Clouds -8 1013 96 10000 7.74 210 22:39 24.11.2020
5208 Clouds -8 1012 96 8621 7.96 210 21:44 24.11.2020
5209 Clouds -8 1012 97 7658 8.12 212 21:26 24.11.2020
5210 Clouds -8 1012 96 10000 8.31 212 19:48 24.11.2020
5211 Clouds -6 1012 96 10000 8.7 216 17:41 24.11.2020
5212 Clouds -6 1011 96 10000 8.97 213 17:22 24.11.2020
5213 Clouds -6 1011 96 10000 8.97 213 16:38 24.11.2020
5214 Clouds -6 1011 96 7354 9.1 210 15:56 24.11.2020
5215 Clouds -6 1011 96 1753 9.01 208 15:20 24.11.2020
5216 Clouds -6 1011 96 1753 9.01 208 14:45 24.11.2020
5217 Clouds -7 1011 96 877 9.02 208 13:38 24.11.2020
5218 Clouds -8 1011 96 4923 8.73 208 12:39 24.11.2020
5219 Clouds -8 1011 96 10000 8.86 207 12:18 24.11.2020
5220 Clouds -8 1010 96 10000 8.83 206 11:25 24.11.2020
5221 Clouds -7 1010 96 10000 8.83 206 10:25 24.11.2020
5222 Clouds -7 1010 96 10000 8.83 206 09:40 24.11.2020
5223 Clouds -7 1009 96 8851 8.87 208 08:59 24.11.2020
5224 Clouds -7 1009 96 10000 9.37 214 06:42 24.11.2020
5225 Clouds -5 1008 96 10000 10.85 217 01:00 24.11.2020
5226 Clouds -5 1006 96 10000 11.42 216 22:24 23.11.2020
5227 Clouds -5 1006 96 10000 11.42 216 21:32 23.11.2020
5228 Clouds -5 1005 96 10000 11.36 216 20:32 23.11.2020
5229 Clouds -5 1005 96 10000 11.17 217 19:59 23.11.2020
5230 Clouds -5 1005 96 10000 11.52 218 17:57 23.11.2020
5231 Clouds -5 1004 96 10000 11.27 216 16:56 23.11.2020
5232 Clouds -5 1004 96 10000 11.01 216 15:33 23.11.2020
5233 Clouds -5 1004 96 10000 10.8 216 14:37 23.11.2020
5234 Clouds -5 1005 96 6989 10.74 211 12:41 23.11.2020
5235 Clouds -5 1005 95 8875 10.94 209 12:20 23.11.2020
5236 Clouds -5 1005 95 8875 10.94 209 11:42 23.11.2020
5237 Clouds -6 1004 95 10000 11.44 207 10:22 23.11.2020
5238 Clouds -6 1004 95 10000 11.44 207 09:31 23.11.2020
5239 Clouds -6 1004 95 10000 11.87 207 08:36 23.11.2020
5240 Clouds -6 1004 95 10000 12.01 206 06:36 23.11.2020
5241 Clouds -4 1006 96 10000 10.87 206 00:21 23.11.2020
5242 Clouds -3 1006 96 10000 10.91 205 22:44 22.11.2020
5243 Clouds -3 1007 96 6672 10.41 204 21:26 22.11.2020
5244 Clouds -3 1007 96 6672 10.41 204 20:43 22.11.2020
5245 Clouds -4 1007 96 7790 10.02 205 19:51 22.11.2020
5246 Clouds -4 1008 96 10000 9.36 205 18:40 22.11.2020
5247 Clouds -4 1009 96 3343 8.81 208 16:39 22.11.2020
5248 Clouds -3 1009 96 3898 8.97 210 15:29 22.11.2020
5249 Clouds -4 1009 96 5911 8.78 208 14:27 22.11.2020
5250 Clouds -5 1010 96 10000 8.95 204 12:44 22.11.2020
5251 Clouds -5 1010 96 5874 9.26 207 11:55 22.11.2020
5252 Clouds -5 1010 97 10000 9.63 211 11:20 22.11.2020
5253 Clouds -5 1010 97 10000 9.63 211 10:38 22.11.2020
5254 Clouds -4 1010 97 10000 10.94 218 08:26 22.11.2020
5255 Clear -6 1010 90 10000 4.56 241 01:47 22.11.2020
5256 Clear -5 1008 91 10000 5.54 261 22:52 21.11.2020
5257 Clear -5 1007 91 10000 5.61 264 21:32 21.11.2020
5258 Clear -5 1007 91 10000 5.76 270 20:54 21.11.2020
5259 Clear -5 1007 91 10000 5.76 270 20:31 21.11.2020
5260 Clear -5 1006 92 10000 6.07 274 19:52 21.11.2020
5261 Clouds -5 1006 92 10000 6.39 277 19:25 21.11.2020
5262 Clouds -4 1005 91 10000 8.2 282 17:57 21.11.2020
5263 Clouds -4 1004 91 10000 7.98 275 16:48 21.11.2020
5264 Clouds -3 1003 92 10000 9.67 286 15:45 21.11.2020
5265 Clouds -2 1003 97 3096 9.17 282 15:21 21.11.2020
5266 Clouds -2 1003 97 3096 9.17 282 14:42 21.11.2020
5267 Clouds -2 1001 98 295 1.35 302 13:27 21.11.2020
5268 Clouds -1 999 97 373 2.42 331 12:24 21.11.2020
5269 Clouds -1 999 97 373 2.42 331 11:50 21.11.2020
5270 Clouds -1 997 97 1182 3.77 330 10:28 21.11.2020
5271 Clouds -1 995 98 1333 3.78 318 09:22 21.11.2020
5272 Clouds -1 995 98 1333 3.78 318 08:50 21.11.2020
5273 Clouds 0 990 97 40 4.96 282 05:43 21.11.2020
5274 Clouds 0 987 99 49 5.25 290 04:23 21.11.2020
5275 Clouds 0 982 98 44 7.5 1 00:23 21.11.2020
5276 Rain 2 980 97 365 6.42 279 23:21 20.11.2020
5277 Rain 2 979 96 362 8.14 250 21:46 20.11.2020
5278 Clouds 2 977 96 957 9.3 236 21:26 20.11.2020
5279 Clouds 2 977 96 957 9.3 236 20:42 20.11.2020
5280 Rain 2 976 96 883 11.54 245 19:33 20.11.2020
5281 Clouds 2 975 97 7639 9.14 252 18:27 20.11.2020
5282 Clouds 2 975 97 7639 9.14 252 17:32 20.11.2020
5283 Clouds 1 974 96 453 9.78 237 16:48 20.11.2020
5284 Clouds 1 973 96 98 13.08 236 16:27 20.11.2020
5285 Clouds 1 973 96 98 13.08 236 15:42 20.11.2020
5286 Clouds 1 974 96 128 14.33 239 13:57 20.11.2020
5287 Clouds 2 975 86 10000 14.18 232 13:20 20.11.2020
5288 Clouds 2 975 86 10000 13.55 227 12:50 20.11.2020
5289 Rain 2 976 95 10000 13.03 241 11:52 20.11.2020
5290 Clouds 3 975 92 10000 13.04 223 11:26 20.11.2020
5291 Rain 3 975 96 4920 11.86 230 09:52 20.11.2020
5292 Rain 3 975 96 1576 12.37 233 08:30 20.11.2020
5293 Rain 2 975 97 639 11.67 226 07:49 20.11.2020
5294 Rain 3 976 98 534 10.62 208 05:18 20.11.2020
5295 Clouds -3 985 96 10000 10.52 192 23:38 19.11.2020
5296 Clouds -3 986 96 10000 10.7 197 22:30 19.11.2020
5297 Clouds -3 987 96 10000 10.5 200 21:52 19.11.2020
5298 Clouds -4 988 96 10000 10.66 204 20:53 19.11.2020
5299 Clouds -3 988 96 5021 10.98 206 20:19 19.11.2020
5300 Clouds -3 989 96 2535 11.24 209 19:26 19.11.2020
5301 Snow -2 989 97 1669 11.57 206 18:47 19.11.2020
5302 Clouds -2 990 97 1243 11.44 211 17:21 19.11.2020
5303 Clouds -2 990 97 1243 11.44 211 16:32 19.11.2020
5304 Clouds -2 990 97 473 12.56 216 15:29 19.11.2020
5305 Snow -3 991 97 449 12.57 215 13:51 19.11.2020
5306 Snow -3 991 97 449 12.57 215 13:33 19.11.2020
5307 Snow -3 992 97 1266 12.29 216 12:52 19.11.2020
5308 Clouds -3 992 97 1855 12.16 216 12:33 19.11.2020
5309 Clouds -4 992 96 1931 12.65 217 11:40 19.11.2020
5310 Clouds -4 993 96 3154 12.63 219 11:21 19.11.2020
5311 Clouds -4 993 96 3154 12.63 219 10:31 19.11.2020
5312 Clouds -4 993 96 2196 12.51 221 09:47 19.11.2020
5313 Clouds -4 994 96 2285 12.57 220 09:27 19.11.2020
5314 Clouds -5 995 96 2935 11.89 217 08:24 19.11.2020
5315 Clouds -5 995 96 2935 11.89 217 07:35 19.11.2020
5316 Clouds -5 999 96 6684 11.32 221 01:47 19.11.2020
5317 Clouds -5 1000 96 7563 11.54 221 00:32 19.11.2020
5318 Clouds -4 1001 96 3847 11.55 223 23:31 18.11.2020
5319 Clouds -4 1001 96 2382 11.56 224 22:58 18.11.2020
5320 Clouds -5 1001 96 3677 11.54 223 22:28 18.11.2020
5321 Clouds -5 1001 96 3677 11.54 223 21:43 18.11.2020
5322 Clouds -5 1002 96 4171 11.61 224 21:25 18.11.2020
5323 Clouds -5 1002 96 4171 11.61 224 20:32 18.11.2020
5324 Clouds -4 1003 96 4699 11.85 224 19:39 18.11.2020
5325 Clouds -4 1005 96 1766 11.96 226 18:58 18.11.2020
5326 Clouds -4 1005 96 1766 11.96 226 18:39 18.11.2020
5327 Clouds -5 1005 96 1646 12.33 227 17:41 18.11.2020
5328 Clouds -5 1006 96 2097 12.41 224 16:26 18.11.2020
5329 Clouds -5 1006 96 2097 12.41 224 15:57 18.11.2020
5330 Clouds -5 1006 96 1941 12.46 224 14:41 18.11.2020
5331 Clouds -4 1007 96 1353 12.76 226 13:46 18.11.2020
5332 Clouds -4 1008 96 1147 12.87 227 13:21 18.11.2020
5333 Clouds -4 1009 96 1616 12.88 227 12:42 18.11.2020
5334 Clouds -4 1009 96 1141 12.8 228 11:41 18.11.2020
5335 Snow -4 1009 97 898 12.85 229 10:54 18.11.2020
5336 Snow -3 1010 97 865 12.86 229 10:27 18.11.2020
5337 Snow -3 1011 97 981 12.9 232 08:23 18.11.2020
5338 Snow -3 1011 97 630 12.63 234 06:36 18.11.2020
5339 Clouds -2 1016 97 1127 12.6 236 00:58 18.11.2020
5340 Clouds -2 1017 97 1556 12.14 236 23:53 17.11.2020
5341 Clouds -1 1017 97 1820 12.28 239 22:53 17.11.2020
5342 Clouds -1 1017 97 2997 12.25 242 22:29 17.11.2020
5343 Clouds -1 1017 97 2997 12.25 242 21:52 17.11.2020
5344 Clouds -1 1017 97 2997 12.25 242 21:31 17.11.2020
5345 Clouds 0 1018 98 935 12.17 242 20:50 17.11.2020
5346 Clouds 0 1018 98 208 11.86 241 20:27 17.11.2020
5347 Clouds 0 1018 98 208 11.86 241 19:56 17.11.2020
5348 Clouds 1 1019 96 76 12.48 245 18:34 17.11.2020
5349 Rain 1 1018 96 432 12.27 242 17:44 17.11.2020
5350 Clouds 2 1018 95 1484 11.25 247 16:54 17.11.2020
5351 Clouds 2 1018 94 10000 11.69 246 16:20 17.11.2020
5352 Clouds 2 1018 94 10000 11.69 246 15:41 17.11.2020
5353 Rain 2 1018 94 10000 11.86 249 15:22 17.11.2020
5354 Rain 2 1018 94 10000 11.86 249 14:54 17.11.2020
5355 Rain 2 1018 95 10000 12.06 251 14:28 17.11.2020
5356 Rain 2 1018 95 10000 12.06 251 13:36 17.11.2020
5357 Rain 2 1018 97 1223 12.06 254 12:48 17.11.2020
5358 Rain 2 1018 96 1801 11.53 256 12:24 17.11.2020
5359 Rain 2 1018 96 1801 11.53 256 11:42 17.11.2020
5360 Rain 2 1017 96 2977 11.49 256 10:49 17.11.2020
5361 Rain 2 1016 96 3422 11.54 257 10:23 17.11.2020
5362 Rain 2 1016 96 3422 11.54 257 09:50 17.11.2020
5363 Rain 3 1016 96 2899 11.43 256 09:24 17.11.2020
5364 Rain 2 1016 96 10000 11.68 257 08:22 17.11.2020
5365 Rain 2 1016 96 10000 11.68 257 07:44 17.11.2020
5366 Rain 2 1015 96 2380 11.68 252 05:21 17.11.2020
5367 Rain 2 1015 96 1972 12.3 253 03:31 17.11.2020
5368 Rain 2 1014 96 1467 13.26 249 02:31 17.11.2020
5369 Rain 2 1015 96 1413 13.55 245 01:23 17.11.2020
5370 Rain 2 1015 97 1213 13.16 248 00:42 17.11.2020
5371 Rain 2 1015 97 1080 12.82 247 23:41 16.11.2020
5372 Rain 2 1015 96 98 12.57 245 23:22 16.11.2020
5373 Rain 2 1015 96 98 12.57 245 22:37 16.11.2020
5374 Rain 2 1015 96 56 12.82 245 22:18 16.11.2020
5375 Rain 2 1015 96 56 12.82 245 21:43 16.11.2020
5376 Rain 1 1016 96 58 12.41 242 21:23 16.11.2020
5377 Clouds 1 1016 96 53 12.75 240 20:27 16.11.2020
5378 Clouds 1 1016 96 53 12.75 240 19:56 16.11.2020
5379 Clouds 1 1016 96 53 12.75 240 19:31 16.11.2020
5380 Rain 1 1016 96 57 12.88 237 18:53 16.11.2020
5381 Rain 0 1017 97 85 12.45 236 18:26 16.11.2020
5382 Rain 0 1017 97 85 12.45 236 17:37 16.11.2020
5383 Clouds 0 1017 98 103 12.46 239 17:19 16.11.2020
5384 Clouds 0 1017 98 103 12.46 239 16:51 16.11.2020
5385 Clouds 0 1018 98 201 12.19 239 16:26 16.11.2020
5386 Clouds 0 1018 98 201 12.19 239 15:45 16.11.2020
5387 Clouds 0 1018 98 201 12.19 239 15:45 16.11.2020
5388 Clouds 0 1018 98 264 12.16 239 15:27 16.11.2020
5389 Clouds 0 1018 98 264 12.16 239 14:53 16.11.2020
5390 Clouds 0 1019 98 339 12.14 239 13:50 16.11.2020
5391 Clouds 0 1019 98 1026 12.19 241 13:21 16.11.2020
5392 Clouds 0 1019 97 1268 12.09 242 12:30 16.11.2020
5393 Clouds 1 1020 94 10000 12.01 243 11:42 16.11.2020
5394 Clouds 0 1019 96 61 12.26 240 11:22 16.11.2020
5395 Clouds 0 1019 96 61 12.26 240 10:44 16.11.2020
5396 Clouds 0 1020 96 108 11.8 239 10:26 16.11.2020
5397 Clouds 0 1020 96 108 11.8 239 09:52 16.11.2020
5398 Clouds 0 1020 96 108 11.8 239 09:34 16.11.2020
5399 Clouds 1 1020 95 445 10.84 244 08:48 16.11.2020
5400 Clouds 0 1020 96 57 10.75 237 08:19 16.11.2020
5401 Clouds 0 1020 96 119 10.73 236 06:56 16.11.2020
5402 Clouds 0 1020 96 119 10.73 236 06:38 16.11.2020
5403 Clouds 0 1020 97 82 10.41 240 05:22 16.11.2020
5404 Clouds 1 1020 95 420 10.55 241 03:54 16.11.2020
5405 Clouds 0 1020 96 319 10.36 238 01:44 16.11.2020
5406 Clouds 0 1021 96 386 10 237 00:26 16.11.2020
5407 Clouds 0 1021 97 516 9.76 236 23:29 15.11.2020
5408 Clouds 0 1021 97 516 9.76 236 22:57 15.11.2020
5409 Clouds 0 1021 98 539 9.83 236 22:22 15.11.2020
5410 Clouds 0 1021 98 539 9.83 236 21:51 15.11.2020
5411 Clouds 0 1021 98 565 9.85 235 21:27 15.11.2020
5412 Clouds 0 1021 98 565 9.85 235 20:48 15.11.2020
5413 Clouds 0 1021 98 1241 9.41 233 20:28 15.11.2020
5414 Clouds 0 1021 98 1241 9.41 233 19:54 15.11.2020
5415 Clouds 0 1021 98 1241 9.41 233 19:36 15.11.2020
5416 Clouds 0 1021 96 2604 8.43 232 19:18 15.11.2020
5417 Clouds 0 1022 96 4923 8.45 232 18:41 15.11.2020
5418 Clouds 0 1022 96 1894 8.44 235 18:23 15.11.2020
5419 Clouds 0 1022 96 1894 8.44 235 17:47 15.11.2020
5420 Clouds 0 1022 96 499 8.41 236 17:25 15.11.2020
5421 Clouds 0 1022 96 499 8.41 236 16:52 15.11.2020
5422 Clouds -2 1022 98 157 9.85 217 16:22 15.11.2020
5423 Clouds -2 1022 98 157 9.85 217 15:56 15.11.2020
5424 Clouds -2 1022 98 157 9.85 217 15:37 15.11.2020
5425 Snow -3 1022 97 588 10.98 211 15:19 15.11.2020
5426 Snow -3 1022 97 588 10.98 211 14:36 15.11.2020
5427 Clouds -3 1022 97 2085 10.9 213 14:18 15.11.2020
5428 Clouds -3 1022 97 2085 10.9 213 13:39 15.11.2020
5429 Snow -3 1023 97 454 10.63 210 12:52 15.11.2020
5430 Clouds -5 1023 97 519 10.28 210 12:26 15.11.2020
5431 Clouds -5 1023 97 519 10.28 210 11:55 15.11.2020
5432 Clouds -5 1023 97 519 10.28 210 11:37 15.11.2020
5433 Clouds -6 1022 97 10000 10.17 210 11:18 15.11.2020
5434 Clouds -6 1022 97 10000 10.17 210 10:43 15.11.2020
5435 Clouds -6 1022 97 10000 9.98 212 10:25 15.11.2020
5436 Clouds -6 1022 97 10000 9.98 212 09:41 15.11.2020
5437 Clouds -6 1022 97 10000 9.74 214 09:20 15.11.2020
5438 Clouds -6 1022 97 10000 9.74 214 08:53 15.11.2020
5439 Clouds -7 1023 97 10000 9.27 213 08:28 15.11.2020
5440 Clouds -7 1023 97 10000 9.27 213 07:43 15.11.2020
5441 Clouds -6 1023 96 10000 10.08 213 04:59 15.11.2020
5442 Clouds -7 1023 97 3475 9.46 212 03:40 15.11.2020
5443 Clouds -10 1023 96 3331 9.64 211 00:49 15.11.2020
5444 Clouds -10 1023 96 10000 9.84 211 00:28 15.11.2020
5445 Clouds -10 1023 96 10000 9.84 211 23:37 14.11.2020
5446 Clouds -10 1023 97 7684 10.03 212 22:50 14.11.2020
5447 Clouds -10 1023 97 7684 10.03 212 22:30 14.11.2020
5448 Clouds -10 1023 97 10000 10.2 213 21:43 14.11.2020
5449 Clouds -10 1023 97 10000 10.42 215 21:22 14.11.2020
5450 Clouds -10 1023 97 10000 10.42 215 20:56 14.11.2020
5451 Clouds -10 1023 96 10000 10.54 216 20:28 14.11.2020
5452 Clouds -10 1023 96 10000 10.54 216 19:52 14.11.2020
5453 Clouds -10 1023 96 10000 10.54 216 19:32 14.11.2020
5454 Clouds -9 1023 96 10000 10.36 217 18:44 14.11.2020
5455 Clouds -8 1024 95 10000 10.47 219 18:25 14.11.2020
5456 Clouds -8 1024 95 10000 10.47 219 17:57 14.11.2020
5457 Clouds -8 1024 95 10000 10.47 219 17:39 14.11.2020
5458 Clouds -7 1023 95 10000 10.66 222 17:19 14.11.2020
5459 Clouds -7 1023 95 10000 10.66 222 16:41 14.11.2020
5460 Clouds -7 1023 94 10000 10.9 224 16:20 14.11.2020
5461 Clouds -7 1023 94 10000 10.9 224 15:51 14.11.2020
5462 Clouds -7 1023 94 10000 11.26 226 15:26 14.11.2020
5463 Clouds -7 1023 94 10000 11.26 226 14:42 14.11.2020
5464 Clouds -7 1024 94 10000 11.8 225 14:23 14.11.2020
5465 Clouds -7 1024 94 10000 11.8 225 13:42 14.11.2020
5466 Clouds -6 1024 95 10000 11.54 224 13:23 14.11.2020
5467 Clouds -6 1024 95 10000 11.54 224 12:46 14.11.2020
5468 Clouds -7 1024 95 10000 11.37 222 12:28 14.11.2020
5469 Clouds -7 1024 95 10000 11.37 222 11:46 14.11.2020
5470 Clouds -7 1024 96 10000 11.1 221 11:25 14.11.2020
5471 Clouds -7 1024 96 10000 11.1 221 10:45 14.11.2020
5472 Clouds -7 1023 96 10000 11.21 221 10:25 14.11.2020
5473 Clouds -7 1023 96 10000 11.21 221 09:49 14.11.2020
5474 Clouds -8 1023 96 10000 11.03 219 09:28 14.11.2020
5475 Clouds -8 1023 96 10000 11.03 219 08:50 14.11.2020
5476 Clouds -8 1023 96 9167 10.93 217 08:29 14.11.2020
5477 Clouds -8 1023 96 9167 10.93 217 07:50 14.11.2020
5478 Clouds -7 1023 96 4936 10.57 216 07:26 14.11.2020
5479 Clouds -7 1023 96 7410 10.76 219 06:32 14.11.2020
5480 Clouds -6 1023 96 3981 10.33 218 05:31 14.11.2020
5481 Clouds -7 1023 96 2629 9.93 220 04:18 14.11.2020
5482 Clouds -8 1024 97 1966 11 220 00:59 14.11.2020
5483 Clouds -8 1024 96 3995 11.29 221 23:47 13.11.2020
5484 Clouds -8 1024 96 10000 11.09 222 23:25 13.11.2020
5485 Clouds -8 1024 96 10000 11.09 222 22:46 13.11.2020
5486 Clouds -9 1024 96 10000 11.04 219 22:26 13.11.2020
5487 Clouds -9 1024 96 10000 11.04 219 21:55 13.11.2020
5488 Clouds -9 1024 96 10000 11.04 219 21:37 13.11.2020
5489 Clouds -10 1024 97 10000 11.19 217 21:19 13.11.2020
5490 Clouds -10 1024 97 10000 11.19 217 20:41 13.11.2020
5491 Clouds -10 1024 96 10000 11.17 215 20:21 13.11.2020
5492 Clouds -10 1024 96 10000 11.17 215 19:46 13.11.2020
5493 Clouds -10 1024 96 10000 10.22 212 19:23 13.11.2020
5494 Clouds -10 1024 96 10000 10.22 212 18:54 13.11.2020
5495 Clouds -10 1024 97 10000 10.2 210 18:21 13.11.2020
5496 Clouds -10 1024 97 10000 10.2 210 17:41 13.11.2020
5497 Clouds -9 1024 96 10000 9.58 209 17:18 13.11.2020
5498 Clouds -9 1024 96 10000 9.58 209 16:48 13.11.2020
5499 Clouds -8 1024 96 10000 8.59 209 16:23 13.11.2020
5500 Clouds -8 1024 96 10000 8.59 209 15:47 13.11.2020
5501 Clouds -8 1024 97 2024 6.87 212 15:27 13.11.2020
5502 Clouds -8 1024 97 2024 6.87 212 14:45 13.11.2020
5503 Clouds -9 1024 97 8148 6.89 217 14:22 13.11.2020
5504 Clouds -9 1024 97 8148 6.89 217 13:47 13.11.2020
5505 Clouds -9 1024 97 10000 7.01 221 13:21 13.11.2020
5506 Clouds -9 1024 97 4778 6.67 221 12:46 13.11.2020
5507 Clouds -8 1023 97 6204 7.07 222 12:24 13.11.2020
5508 Clouds -8 1023 97 6204 7.07 222 11:48 13.11.2020
5509 Clouds -9 1023 97 10000 6.85 223 11:25 13.11.2020
5510 Clouds -9 1023 97 10000 6.85 223 10:55 13.11.2020
5511 Clouds -9 1023 97 10000 6.85 223 10:34 13.11.2020
5512 Clouds -9 1023 96 6046 6.48 222 09:56 13.11.2020
5513 Clouds -9 1023 96 6046 6.48 222 09:56 13.11.2020
5514 Clouds -9 1023 96 6046 6.48 222 09:34 13.11.2020
5515 Clouds -9 1023 96 6464 6.12 222 09:00 13.11.2020
5516 Clouds -9 1023 96 6464 6.12 222 08:34 13.11.2020
5517 Clouds -9 1022 96 10000 5.42 222 07:57 13.11.2020
5518 Clouds -9 1022 96 10000 5.42 222 07:38 13.11.2020
5519 Clouds -9 1022 96 10000 4.81 225 07:20 13.11.2020
5520 Clouds -9 1023 95 10000 4.49 228 06:45 13.11.2020
5521 Clouds -9 1023 96 10000 4.07 231 05:42 13.11.2020
5522 Clouds -9 1022 96 10000 3.46 231 04:57 13.11.2020
5523 Clouds -8 1022 93 4464 1.46 260 01:45 13.11.2020
5524 Clouds -7 1021 93 2636 1.6 268 00:37 13.11.2020
5525 Clouds -7 1021 93 3794 0.99 284 00:18 13.11.2020
5526 Clouds -7 1021 93 3794 0.99 284 23:37 12.11.2020
5527 Clouds -6 1020 92 10000 0.36 353 23:18 12.11.2020
5528 Clouds -6 1020 92 10000 0.36 353 22:48 12.11.2020
5529 Clouds -6 1020 92 10000 0.36 353 22:30 12.11.2020
5530 Clouds -6 1020 92 10000 0.96 52 21:42 12.11.2020
5531 Clouds -6 1020 92 8885 1.39 52 21:24 12.11.2020
5532 Clouds -6 1020 92 8885 1.39 52 20:58 12.11.2020
5533 Clouds -6 1020 92 8885 1.39 52 20:39 12.11.2020
5534 Clouds -6 1019 93 10000 1.77 57 20:19 12.11.2020
5535 Clouds -6 1019 93 10000 1.77 57 19:44 12.11.2020
5536 Clouds -5 1019 93 7906 2.47 62 19:26 12.11.2020
5537 Clouds -5 1019 93 7906 2.47 62 18:48 12.11.2020
5538 Clouds -5 1019 92 10000 2.83 61 18:23 12.11.2020
5539 Clouds -5 1019 92 10000 2.83 61 17:45 12.11.2020
5540 Clouds -5 1018 92 10000 3.44 61 17:26 12.11.2020
5541 Clouds -5 1018 92 10000 3.44 61 16:47 12.11.2020
5542 Clouds -5 1018 93 10000 4.03 58 16:26 12.11.2020
5543 Clouds -5 1018 93 10000 4.03 58 15:57 12.11.2020
5544 Clouds -5 1018 93 10000 4.03 58 15:39 12.11.2020
5545 Clouds -5 1017 93 10000 4.43 56 15:20 12.11.2020
5546 Clouds -5 1017 93 10000 4.43 56 14:43 12.11.2020
5547 Clouds -5 1017 93 10000 4.71 57 14:25 12.11.2020
5548 Clouds -5 1017 93 10000 4.71 57 13:49 12.11.2020
5549 Clouds -5 1016 93 10000 5.11 56 13:21 12.11.2020
5550 Clouds -5 1016 93 10000 5.11 56 12:59 12.11.2020
5551 Clouds -5 1016 93 10000 5.11 56 12:38 12.11.2020
5552 Clouds -5 1016 93 10000 5.47 56 12:18 12.11.2020
5553 Clouds -5 1016 93 10000 5.47 56 11:42 12.11.2020
5554 Clouds -5 1015 93 10000 5.5 54 11:22 12.11.2020
5555 Clouds -5 1015 93 10000 5.5 54 10:41 12.11.2020
5556 Clouds -5 1014 93 10000 5.47 55 10:23 12.11.2020
5557 Clouds -5 1014 93 10000 5.47 55 09:42 12.11.2020
5558 Clouds -5 1013 93 10000 5.3 57 09:22 12.11.2020
5559 Clouds -5 1013 93 10000 5.3 57 08:41 12.11.2020
5560 Clouds -5 1012 93 8718 5.3 63 08:22 12.11.2020
5561 Clouds -5 1012 93 8718 5.3 63 08:22 12.11.2020
5562 Clouds -5 1012 93 8718 5.3 63 07:59 12.11.2020
5563 Clouds -5 1012 93 8718 5.3 63 07:40 12.11.2020
5564 Clouds -5 1011 94 6911 5.58 68 07:18 12.11.2020
5565 Clouds -5 1012 92 10000 6.07 61 06:47 12.11.2020
5566 Clouds -5 1011 92 10000 6.8 60 05:19 12.11.2020
5567 Clouds -5 1009 92 10000 6.4 61 03:21 12.11.2020
5568 Clouds -5 1007 91 10000 6.98 62 01:23 12.11.2020
5569 Clouds -5 1005 92 10000 7.18 71 23:58 11.11.2020
5570 Clouds -5 1004 95 2481 8.24 74 23:25 11.11.2020
5571 Clouds -5 1004 95 2481 8.24 74 22:58 11.11.2020
5572 Clouds -5 1004 95 2481 8.24 74 22:39 11.11.2020
5573 Clouds -4 1003 96 703 8.76 63 22:19 11.11.2020
5574 Clouds -4 1003 96 703 8.76 63 21:41 11.11.2020
5575 Clouds -4 1002 96 1107 8.75 57 21:23 11.11.2020
5576 Clouds -4 1002 96 1107 8.75 57 20:57 11.11.2020
5577 Clouds -4 1002 96 1107 8.75 57 20:39 11.11.2020
5578 Clouds -3 1001 96 1729 8.92 57 20:20 11.11.2020
5579 Clouds -3 1001 96 1729 8.92 57 19:48 11.11.2020
5580 Clouds -3 1001 96 1729 8.92 57 19:30 11.11.2020
5581 Clouds -3 1000 95 4324 9.04 53 18:50 11.11.2020
5582 Clouds -3 1000 95 4324 9.04 53 18:31 11.11.2020
5583 Snow -3 999 94 2307 9 34 17:42 11.11.2020
5584 Snow -3 998 93 5942 8.84 28 17:22 11.11.2020
5585 Snow -3 998 93 5942 8.84 28 16:50 11.11.2020
5586 Snow -3 998 93 5942 8.84 28 16:32 11.11.2020
5587 Snow -3 998 93 5942 8.84 28 16:32 11.11.2020
5588 Snow -3 997 92 8075 9.04 23 15:50 11.11.2020
5589 Snow -3 996 96 694 7.52 35 15:27 11.11.2020
5590 Snow -3 996 96 694 7.52 35 14:56 11.11.2020
5591 Snow -3 996 96 694 7.52 35 14:35 11.11.2020
5592 Snow -3 996 95 955 5.36 8 13:57 11.11.2020
5593 Snow -3 996 95 955 5.36 8 13:35 11.11.2020
5594 Clouds -3 995 91 7582 7.67 6 12:48 11.11.2020
5595 Clouds -2 994 89 10000 7 10 12:21 11.11.2020
5596 Clouds -2 994 89 10000 7 10 11:49 11.11.2020
5597 Clouds -2 994 89 10000 7 10 11:30 11.11.2020
5598 Clouds -2 994 89 10000 7 10 11:30 11.11.2020
5599 Clouds -2 994 89 10000 8.81 11 10:43 11.11.2020
5600 Clouds -2 993 89 10000 8.89 19 10:24 11.11.2020
5601 Clouds -2 993 89 10000 8.89 19 09:49 11.11.2020
5602 Clouds -2 992 92 5407 7.19 354 09:28 11.11.2020
5603 Clouds -2 992 92 5407 7.19 354 08:49 11.11.2020
5604 Clouds -2 992 94 3109 9.91 2 08:29 11.11.2020
5605 Clouds -2 992 94 3109 9.91 2 07:54 11.11.2020
5606 Clouds -2 992 94 3109 9.91 2 07:36 11.11.2020
5607 Clouds -1 992 95 1221 9.37 340 06:29 11.11.2020
5608 Clouds -2 992 97 267 9.77 330 04:47 11.11.2020
5609 Clouds -2 992 95 2646 7.97 333 01:33 11.11.2020
5610 Clouds -2 993 98 227 9.2 323 00:42 11.11.2020
5611 Clouds -2 993 98 166 10.94 316 23:57 10.11.2020
5612 Snow -2 994 98 124 7.61 311 23:25 10.11.2020
5613 Snow -2 994 98 124 7.61 311 22:58 10.11.2020
5614 Snow -2 994 98 124 7.61 311 22:36 10.11.2020
5615 Snow -2 994 98 236 6.82 313 22:18 10.11.2020
5616 Snow -2 994 98 236 6.82 313 21:39 10.11.2020
5617 Clouds -2 994 94 1459 6.48 321 21:19 10.11.2020
5618 Clouds -2 994 94 1459 6.48 321 20:43 10.11.2020
5619 Clouds -2 995 94 1274 7 325 20:23 10.11.2020
5620 Clouds -2 995 94 1274 7 325 19:56 10.11.2020
5621 Clouds -2 995 94 1274 7 325 19:38 10.11.2020
5622 Clouds -2 995 94 1623 6.61 321 19:20 10.11.2020
5623 Clouds -2 995 94 1623 6.61 321 18:41 10.11.2020
5624 Snow -3 995 96 467 5.66 317 18:20 10.11.2020
5625 Snow -3 995 96 467 5.66 317 17:45 10.11.2020
5626 Snow -3 995 96 467 5.66 317 17:45 10.11.2020
5627 Clouds -3 995 91 10000 5.73 332 17:27 10.11.2020
5628 Clouds -3 995 91 10000 5.73 332 16:58 10.11.2020
5629 Clouds -3 995 91 10000 5.73 332 16:39 10.11.2020
5630 Clouds -3 994 88 10000 5.67 354 16:20 10.11.2020
5631 Clouds -3 994 88 10000 5.67 354 15:47 10.11.2020
5632 Clouds -2 994 89 10000 7.53 14 15:27 10.11.2020
5633 Clouds -2 994 89 10000 7.53 14 14:43 10.11.2020
5634 Snow -4 994 91 10000 5.25 343 14:23 10.11.2020
5635 Snow -4 994 91 10000 5.25 343 13:58 10.11.2020
5636 Snow -4 994 91 10000 5.25 343 13:37 10.11.2020
5637 Clouds -6 994 94 10000 5.41 247 13:18 10.11.2020
5638 Clouds -7 994 96 10000 6.73 221 12:44 10.11.2020
5639 Clouds -7 993 94 5096 5.98 228 12:24 10.11.2020
5640 Clouds -7 993 94 5096 5.98 228 11:41 10.11.2020
5641 Clouds -6 993 91 10000 5.78 241 11:21 10.11.2020
5642 Clouds -6 993 91 10000 5.78 241 10:48 10.11.2020
5643 Clouds -7 993 90 10000 4.95 242 10:28 10.11.2020
5644 Clouds -7 993 90 10000 4.95 242 09:57 10.11.2020
5645 Clouds -7 993 90 10000 4.95 242 09:39 10.11.2020
5646 Clouds -7 993 90 10000 4.95 242 09:39 10.11.2020
5647 Clouds -6 993 88 10000 4.43 269 09:19 10.11.2020
5648 Clouds -6 993 88 10000 4.43 269 08:49 10.11.2020
5649 Clouds -5 993 89 10000 4.95 290 08:25 10.11.2020
5650 Clouds -5 993 89 10000 4.95 290 07:43 10.11.2020
5651 Snow -4 993 91 9366 4.86 303 07:20 10.11.2020
5652 Snow -5 994 94 875 4.08 309 06:39 10.11.2020
5653 Snow -5 994 95 690 3.38 287 05:41 10.11.2020
5654 Snow -5 994 96 472 3.58 280 04:39 10.11.2020
5655 Clouds -5 994 94 2726 3.94 283 01:42 10.11.2020
5656 Snow -5 993 93 2343 3.59 289 00:59 10.11.2020
5657 Clouds -5 993 93 2203 3.67 293 23:53 09.11.2020
5658 Clouds -5 993 93 2166 3.63 296 23:24 09.11.2020
5659 Clouds -5 993 93 2166 3.63 296 22:44 09.11.2020
5660 Clouds -5 993 93 2166 3.63 296 22:44 09.11.2020
5661 Snow -5 992 93 1015 3.72 304 22:23 09.11.2020
5662 Snow -5 992 93 1015 3.72 304 21:46 09.11.2020
5663 Snow -4 992 93 1083 3.9 310 21:27 09.11.2020
5664 Snow -4 992 93 1083 3.9 310 20:46 09.11.2020
5665 Clouds -4 992 93 2052 4.04 312 20:24 09.11.2020
5666 Clouds -4 992 93 2052 4.04 312 19:59 09.11.2020
5667 Clouds -4 992 93 2052 4.04 312 19:40 09.11.2020
5668 Clouds -4 993 93 1256 4.04 315 19:21 09.11.2020
5669 Clouds -4 993 93 1256 4.04 315 18:41 09.11.2020
5670 Snow -5 993 93 1665 4.12 314 18:41 09.11.2020
5671 Clouds -4 993 92 3812 4.09 322 18:20 09.11.2020
5672 Clouds -4 993 92 3812 4.09 322 17:48 09.11.2020
5673 Clouds -4 992 92 3890 4.44 329 17:29 09.11.2020
5674 Clouds -4 992 92 3890 4.44 329 16:46 09.11.2020
5675 Clouds -4 992 93 4392 4.58 333 16:27 09.11.2020
5676 Clouds -4 992 93 4392 4.58 333 15:50 09.11.2020
5677 Clouds -4 992 93 4392 4.58 333 15:30 09.11.2020
5678 Clouds -4 992 93 4392 4.58 333 15:30 09.11.2020
5679 Clouds -4 992 93 6017 4.77 335 14:57 09.11.2020
5680 Clouds -4 992 93 6017 4.77 335 14:37 09.11.2020
5681 Clouds -4 992 93 5469 4.99 335 14:19 09.11.2020
5682 Clouds -4 992 93 5469 4.99 335 13:43 09.11.2020
5683 Clouds -4 992 92 6856 5.11 337 13:19 09.11.2020
5684 Clouds -4 991 92 6525 4.91 334 12:46 09.11.2020
5685 Clouds -4 991 92 5476 4.96 338 12:21 09.11.2020
5686 Clouds -4 991 92 5476 4.96 338 11:43 09.11.2020
5687 Clouds -4 990 92 5570 5.06 340 11:25 09.11.2020
5688 Clouds -4 990 92 5570 5.06 340 10:59 09.11.2020
5689 Clouds -4 990 92 5570 5.06 340 10:41 09.11.2020
5690 Clouds -4 990 92 7319 5.23 343 10:22 09.11.2020
5691 Clouds -4 990 92 7319 5.23 343 09:31 09.11.2020
5692 Clouds -4 989 92 7683 5.37 346 08:57 09.11.2020
5693 Clouds -4 989 93 4162 5.4 351 08:28 09.11.2020
5694 Clouds -4 989 93 4162 5.4 351 07:57 09.11.2020
5695 Snow -4 989 94 5746 5.29 2 07:24 09.11.2020
5696 Clouds -4 989 93 5498 5.59 3 06:58 09.11.2020
5697 Snow -4 989 95 2021 5.94 12 05:38 09.11.2020
5698 Clouds -3 987 96 1545 6.52 32 02:22 09.11.2020
5699 Clouds -3 987 96 1545 6.52 32 01:41 09.11.2020
5700 Snow -3 987 96 755 6.79 35 00:56 09.11.2020
5701 Snow -3 987 97 638 6.9 40 23:50 08.11.2020
5702 Snow -3 987 97 348 6.84 42 23:28 08.11.2020
5703 Snow -3 987 97 348 6.84 42 22:43 08.11.2020
5704 Snow -3 986 97 346 6.82 46 22:22 08.11.2020
5705 Snow -3 986 97 346 6.82 46 21:49 08.11.2020
5706 Snow -3 986 97 360 6.67 50 21:24 08.11.2020
5707 Snow -3 986 97 360 6.67 50 20:57 08.11.2020
5708 Snow -3 986 97 360 6.67 50 20:38 08.11.2020
5709 Snow -2 986 97 370 6.56 54 20:20 08.11.2020
5710 Snow -2 986 97 370 6.56 54 19:46 08.11.2020
5711 Clouds -2 986 98 285 6.7 57 19:24 08.11.2020
5712 Clouds -2 986 98 285 6.7 57 18:59 08.11.2020
5713 Clouds -2 986 97 668 6.39 58 18:41 08.11.2020
5714 Clouds -2 986 98 406 6.63 61 18:21 08.11.2020
5715 Clouds -2 986 98 406 6.63 61 17:56 08.11.2020
5716 Clouds -2 986 98 406 6.63 61 17:36 08.11.2020
5717 Clouds -2 986 98 381 6.15 62 17:18 08.11.2020
5718 Clouds -2 986 98 381 6.15 62 16:38 08.11.2020
5719 Clouds -1 985 98 532 6.25 61 16:20 08.11.2020
5720 Clouds -1 985 98 532 6.25 61 15:46 08.11.2020
5721 Clouds -1 985 98 332 6.48 69 15:27 08.11.2020
5722 Clouds -1 985 98 332 6.48 69 14:44 08.11.2020
5723 Clouds -1 985 98 350 5.34 79 14:24 08.11.2020
5724 Clouds -1 985 98 350 5.34 79 13:57 08.11.2020
5725 Clouds -1 985 98 350 5.34 79 13:38 08.11.2020
5726 Clouds -2 986 98 420 3.57 79 13:18 08.11.2020
5727 Clouds -2 986 98 420 3.57 79 12:40 08.11.2020
5728 Clouds -3 986 97 5429 3.42 96 12:22 08.11.2020
5729 Clouds -3 986 97 5429 3.42 96 11:56 08.11.2020
5730 Clouds -3 986 97 5429 3.42 96 11:38 08.11.2020
5731 Clouds -4 985 97 7559 3.72 97 11:19 08.11.2020
5732 Clouds -4 985 97 7559 3.72 97 10:42 08.11.2020
5733 Clouds -4 985 97 7154 3.94 97 10:18 08.11.2020
5734 Clouds -4 985 97 7154 3.94 97 09:42 08.11.2020
5735 Clouds -4 985 96 10000 3.67 100 09:23 08.11.2020
5736 Clouds -4 985 96 10000 3.67 100 08:47 08.11.2020
5737 Clouds -4 985 96 10000 3.53 104 08:27 08.11.2020
5738 Clouds -4 985 96 10000 3.53 104 07:53 08.11.2020
5739 Clouds -4 985 96 10000 3.53 104 07:33 08.11.2020
5740 Clouds -5 985 97 10000 3.32 107 06:45 08.11.2020
5741 Clouds -4 985 96 10000 2.92 102 05:55 08.11.2020
5742 Clouds -4 986 97 10000 2.52 103 04:54 08.11.2020
5743 Clouds -4 986 97 2984 1.88 121 03:27 08.11.2020
5744 Clouds -4 987 98 10000 1.61 129 01:20 08.11.2020
5745 Clouds -4 987 98 10000 1.61 129 00:49 08.11.2020
5746 Clouds -4 988 98 1332 1.78 130 00:20 08.11.2020
5747 Clouds -4 988 98 1332 1.78 130 23:40 07.11.2020
5748 Clouds -3 988 98 1188 1.9 138 23:22 07.11.2020
5749 Clouds -3 988 98 1188 1.9 138 22:40 07.11.2020
5750 Clouds -3 988 97 2555 2.01 142 22:21 07.11.2020
5751 Clouds -3 988 97 2555 2.01 142 21:44 07.11.2020
5752 Clouds -3 988 98 4586 2.14 152 21:21 07.11.2020
5753 Clouds -3 988 98 4586 2.14 152 20:48 07.11.2020
5754 Clouds -3 988 98 4586 2.14 152 20:30 07.11.2020
5755 Clouds -3 989 98 1962 2.36 162 19:50 07.11.2020
5756 Snow -3 990 98 538 2.49 166 19:28 07.11.2020
5757 Snow -3 990 98 538 2.49 166 18:58 07.11.2020
5758 Snow -3 990 98 538 2.49 166 18:37 07.11.2020
5759 Snow -3 990 98 465 2.62 167 18:18 07.11.2020
5760 Snow -3 990 98 465 2.62 167 17:38 07.11.2020
5761 Snow -3 990 98 399 2.68 174 16:58 07.11.2020
5762 Snow -3 990 98 399 2.68 174 16:40 07.11.2020
5763 Snow -2 990 98 358 2.77 176 16:21 07.11.2020
5764 Snow -2 990 98 358 2.77 176 15:43 07.11.2020
5765 Snow -2 991 98 257 2.85 177 15:23 07.11.2020
5766 Snow -2 991 98 257 2.85 177 14:48 07.11.2020
5767 Clouds -2 992 98 200 3.04 180 14:29 07.11.2020
5768 Clouds -2 992 98 200 3.04 180 13:56 07.11.2020
5769 Clouds -2 992 98 200 3.04 180 13:31 07.11.2020
5770 Clouds -2 993 98 257 3.14 179 12:55 07.11.2020
5771 Clouds -2 993 98 257 3.14 179 12:30 07.11.2020
5772 Clouds -2 993 98 438 3.16 179 11:45 07.11.2020
5773 Clouds -2 993 98 890 3.22 179 11:24 07.11.2020
5774 Clouds -2 993 98 890 3.22 179 10:46 07.11.2020
5775 Clouds -1 993 98 1046 3.26 177 10:27 07.11.2020
5776 Clouds -1 993 98 1046 3.26 177 09:57 07.11.2020
5777 Clouds -1 993 98 1046 3.26 177 09:37 07.11.2020
5778 Clouds -1 993 98 672 3.14 175 08:56 07.11.2020
5779 Clouds -1 993 98 672 3.14 175 08:37 07.11.2020
5780 Clouds -1 994 99 387 2.99 170 07:56 07.11.2020
5781 Clouds -1 994 99 387 2.99 170 07:32 07.11.2020
5782 Clouds -1 994 99 196 2.99 172 06:48 07.11.2020
5783 Clouds -1 994 99 147 3.03 167 05:37 07.11.2020
5784 Clouds 0 994 99 461 2.9 158 03:24 07.11.2020
5785 Clouds -1 994 99 500 3.1 154 01:43 07.11.2020
5786 Clouds -2 994 98 638 3.29 140 01:24 07.11.2020
5787 Clouds -4 995 98 1932 4.01 128 00:22 07.11.2020
5788 Snow -4 995 98 357 4.35 123 23:24 06.11.2020
5789 Snow -4 995 98 357 4.35 123 22:44 06.11.2020
5790 Snow -4 995 98 245 4.6 119 22:20 06.11.2020
5791 Snow -4 995 98 245 4.6 119 21:47 06.11.2020
5792 Snow -5 995 98 307 4.88 118 21:22 06.11.2020
5793 Snow -5 995 98 307 4.88 118 20:59 06.11.2020
5794 Snow -5 995 98 307 4.88 118 20:41 06.11.2020
5795 Clouds -5 996 97 609 5.09 121 20:19 06.11.2020
5796 Clouds -5 996 97 609 5.09 121 19:45 06.11.2020
5797 Clouds -5 996 97 4484 5.43 117 19:26 06.11.2020
5798 Clouds -5 996 97 1498 5.05 124 18:46 06.11.2020
5799 Clouds -5 996 97 6711 5.32 117 18:24 06.11.2020
5800 Clouds -5 996 97 6711 5.32 117 17:51 06.11.2020
5801 Clouds -5 996 97 3019 5.08 115 17:27 06.11.2020
5802 Clouds -5 996 97 3019 5.08 115 17:27 06.11.2020
5803 Clouds -5 996 97 3019 5.08 115 16:50 06.11.2020
5804 Clouds -5 996 97 3019 5.08 115 16:32 06.11.2020
5805 Clouds -5 996 97 3019 5.08 115 16:32 06.11.2020
5806 Clouds -4 997 97 3689 4.93 117 15:54 06.11.2020
5807 Clouds -4 997 97 3689 4.93 117 15:33 06.11.2020
5808 Clouds -4 996 97 2617 4.91 117 14:54 06.11.2020
5809 Clouds -4 996 97 3725 4.86 119 14:28 06.11.2020
5810 Clouds -4 996 97 3725 4.86 119 13:49 06.11.2020
5811 Clouds -4 996 97 3725 4.86 119 13:49 06.11.2020
5812 Clouds -4 997 97 10000 4.97 116 13:25 06.11.2020
5813 Clouds -4 997 97 10000 4.97 116 12:47 06.11.2020
5814 Clouds -4 997 97 10000 4.52 113 12:25 06.11.2020
5815 Clouds -4 997 97 10000 4.52 113 11:59 06.11.2020
5816 Clouds -4 997 97 10000 4.52 113 11:36 06.11.2020
5817 Clouds -4 997 97 5205 4.09 113 10:51 06.11.2020
5818 Clouds -4 997 97 5205 4.09 113 10:30 06.11.2020
5819 Clouds -4 997 97 1088 4.46 113 09:50 06.11.2020
5820 Clouds -4 996 97 8453 5.18 113 09:27 06.11.2020
5821 Clouds -4 996 97 8453 5.18 113 08:53 06.11.2020
5822 Clouds -4 996 97 8453 5.18 113 08:31 06.11.2020
5823 Clouds -4 996 97 9606 5.8 115 07:56 06.11.2020
5824 Clouds -4 996 97 9606 5.8 115 07:37 06.11.2020
5825 Clouds -3 996 97 10000 5.95 110 07:18 06.11.2020
5826 Clouds -3 997 97 10000 5.08 111 06:39 06.11.2020
5827 Clouds -3 997 97 10000 6.03 101 05:36 06.11.2020
5828 Clouds -1 997 97 10000 6.91 113 01:45 06.11.2020
5829 Clouds -1 998 97 10000 6.76 124 00:23 06.11.2020
5830 Clouds -1 998 97 10000 6.76 124 23:47 05.11.2020
5831 Clouds 0 998 97 10000 6.63 126 23:19 05.11.2020
5832 Clouds 0 998 97 10000 6.63 126 22:42 05.11.2020
5833 Clouds 0 998 97 10000 6.73 132 22:24 05.11.2020
5834 Clouds 0 998 97 10000 6.73 132 21:44 05.11.2020
5835 Clouds 0 998 97 10000 6.52 138 21:24 05.11.2020
5836 Clouds 0 998 97 10000 6.52 138 20:59 05.11.2020
5837 Clouds 0 998 97 10000 6.52 138 20:41 05.11.2020
5838 Clouds 0 998 97 10000 6.52 138 20:41 05.11.2020
5839 Clouds 0 999 96 10000 6.37 144 20:21 05.11.2020
5840 Clouds 0 999 96 10000 6.37 144 19:43 05.11.2020
5841 Clouds 1 1000 93 10000 6.57 140 19:25 05.11.2020
5842 Clouds 0 1000 96 10000 5.73 144 18:55 05.11.2020
5843 Clouds 0 1000 96 10000 5.73 144 18:37 05.11.2020
5844 Clouds 1 1001 94 10000 5.15 142 18:18 05.11.2020
5845 Clouds 1 1001 94 10000 5.15 142 17:41 05.11.2020
5846 Clouds 1 1001 92 10000 5.12 151 17:23 05.11.2020
5847 Clouds 1 1001 92 10000 5.12 151 16:43 05.11.2020
5848 Clouds 1 1002 90 10000 5.57 168 16:24 05.11.2020
5849 Clouds 1 1002 90 10000 5.57 168 15:50 05.11.2020
5850 Clouds 1 1002 91 10000 5.78 174 15:26 05.11.2020
5851 Clouds 1 1002 91 10000 5.78 174 14:50 05.11.2020
5852 Clouds 1 1002 91 10000 5.78 174 14:31 05.11.2020
5853 Clouds 1 1003 93 10000 5.16 176 13:51 05.11.2020
5854 Clouds 1 1003 93 10000 5.16 176 13:33 05.11.2020
5855 Clouds 1 1004 91 10000 6.07 193 12:54 05.11.2020
5856 Clouds 1 1004 91 10000 6.07 193 12:30 05.11.2020
5857 Clouds 1 1004 92 10000 5.89 205 11:58 05.11.2020
5858 Clouds 1 1004 92 10000 5.89 205 11:38 05.11.2020
5859 Clouds 1 1005 94 10000 5.33 217 11:19 05.11.2020
5860 Clouds 1 1005 94 10000 5.33 217 10:45 05.11.2020
5861 Clouds 1 1005 95 2297 4.21 208 10:26 05.11.2020
5862 Clouds 1 1005 95 2297 4.21 208 09:48 05.11.2020
5863 Clouds 0 1005 96 10000 3.91 182 09:23 05.11.2020
5864 Clouds 0 1005 96 10000 3.91 182 08:45 05.11.2020
5865 Clouds -1 1005 98 3461 3.87 169 08:26 05.11.2020
5866 Clouds -1 1005 98 3461 3.87 169 07:42 05.11.2020
5867 Clouds -2 1005 98 977 3.76 167 07:23 05.11.2020
5868 Clouds -2 1004 97 7664 3.84 170 06:42 05.11.2020
5869 Clouds -3 1004 96 10000 4.1 150 05:54 05.11.2020
5870 Clouds -4 1004 96 10000 3.62 140 01:39 05.11.2020
5871 Clouds -3 1003 96 10000 3.31 120 00:34 05.11.2020
5872 Clouds -2 1002 96 10000 3.49 108 23:46 04.11.2020
5873 Clouds -2 1001 96 10000 3.92 104 23:26 04.11.2020
5874 Clouds -2 1001 96 10000 3.92 104 22:54 04.11.2020
5875 Clouds -2 1001 96 10000 3.92 104 22:36 04.11.2020
5876 Clouds -1 1000 97 10000 4.95 97 22:18 04.11.2020
5877 Clouds -1 1000 97 10000 4.95 97 21:42 04.11.2020
5878 Clouds -1 1000 98 5022 5.12 89 21:24 04.11.2020
5879 Clouds -1 1000 98 5022 5.12 89 20:45 04.11.2020
5880 Clouds -1 999 98 786 4.94 76 20:27 04.11.2020
5881 Clouds -1 999 98 786 4.94 76 19:50 04.11.2020
5882 Clouds -1 999 98 786 4.94 76 19:30 04.11.2020
5883 Clouds 1 997 97 588 3.97 39 18:56 04.11.2020
5884 Clouds 1 997 97 588 3.97 39 18:38 04.11.2020
5885 Clouds 2 997 97 491 2.95 317 18:20 04.11.2020
5886 Clouds 2 997 97 491 2.95 317 17:41 04.11.2020
5887 Clouds 2 996 97 457 4.44 297 17:23 04.11.2020
5888 Clouds 2 996 97 457 4.44 297 16:42 04.11.2020
5889 Rain 3 996 98 265 5.86 289 16:24 04.11.2020
5890 Rain 3 996 98 265 5.86 289 15:49 04.11.2020
5891 Clouds 3 995 98 118 4.8 281 15:26 04.11.2020
5892 Clouds 3 995 98 118 4.8 281 14:59 04.11.2020
5893 Clouds 3 995 98 118 4.8 281 14:41 04.11.2020
5894 Clouds 3 994 98 105 4.81 277 14:21 04.11.2020
5895 Clouds 3 994 98 105 4.81 277 13:47 04.11.2020
5896 Rain 3 994 98 178 3.68 259 13:20 04.11.2020
5897 Rain 3 994 98 137 4.44 260 12:54 04.11.2020
5898 Rain 3 994 98 137 4.44 260 12:36 04.11.2020
5899 Rain 3 994 98 111 2.48 246 12:18 04.11.2020
5900 Rain 3 994 98 111 2.48 246 11:42 04.11.2020
5901 Rain 3 993 98 114 1.62 223 11:20 04.11.2020
5902 Rain 3 993 98 114 1.62 223 10:47 04.11.2020
5903 Rain 3 993 98 134 1.78 186 10:22 04.11.2020
5904 Rain 3 993 98 134 1.78 186 09:53 04.11.2020
5905 Rain 3 993 98 333 2.2 188 09:25 04.11.2020
5906 Rain 3 993 98 333 2.2 188 08:47 04.11.2020
5907 Rain 3 992 98 884 2.84 184 08:21 04.11.2020
5908 Rain 3 992 98 884 2.84 184 07:55 04.11.2020
5909 Rain 3 992 98 884 2.84 184 07:30 04.11.2020
5910 Rain 3 992 98 423 3.1 184 06:55 04.11.2020
5911 Rain 2 992 98 737 3.12 186 06:36 04.11.2020
5912 Rain 2 993 98 739 4.28 170 03:55 04.11.2020
5913 Rain 2 994 97 574 4.67 151 02:24 04.11.2020
5914 Rain 1 995 94 10000 4.81 149 00:43 04.11.2020
5915 Rain 0 996 95 3688 5.39 150 23:44 03.11.2020
5916 Clouds 0 997 98 844 5.96 157 23:23 03.11.2020
5917 Clouds 0 997 98 844 5.96 157 22:41 03.11.2020
5918 Clouds 0 997 98 190 6.95 161 22:21 03.11.2020
5919 Clouds 0 997 98 190 6.95 161 21:56 03.11.2020
5920 Clouds 0 997 98 190 6.95 161 21:38 03.11.2020
5921 Clouds -1 998 98 302 7.09 168 21:20 03.11.2020
5922 Clouds -1 998 98 302 7.09 168 20:44 03.11.2020
5923 Clouds -1 998 98 302 7.09 168 20:44 03.11.2020
5924 Clouds -1 999 98 287 7.29 174 20:23 03.11.2020
5925 Clouds -1 999 98 287 7.29 174 19:44 03.11.2020
5926 Clouds -1 999 98 287 7.29 174 19:44 03.11.2020
5927 Clouds -1 1001 98 229 7.32 176 19:23 03.11.2020
5928 Clouds -1 1002 98 262 7.3 174 18:46 03.11.2020
5929 Clouds -1 1003 98 436 7 176 18:21 03.11.2020
5930 Clouds -1 1003 98 436 7 176 17:59 03.11.2020
5931 Clouds -1 1003 98 436 7 176 17:41 03.11.2020
5932 Clouds -1 1003 98 446 6.98 184 17:22 03.11.2020
5933 Clouds -1 1003 98 446 6.98 184 16:45 03.11.2020
5934 Clouds -1 1003 98 446 6.98 184 16:45 03.11.2020
5935 Clouds -2 1004 98 365 7 186 16:23 03.11.2020
5936 Clouds -2 1004 98 365 7 186 15:46 03.11.2020
5937 Clouds -2 1006 98 196 6.77 186 15:25 03.11.2020
5938 Clouds -2 1006 98 196 6.77 186 14:52 03.11.2020
5939 Clouds -2 1006 98 196 6.77 186 14:33 03.11.2020
5940 Clouds -2 1007 98 297 6.6 191 13:46 03.11.2020
5941 Clouds -2 1007 97 7513 6.41 187 13:23 03.11.2020
5942 Clouds -2 1008 97 4819 6.09 184 12:59 03.11.2020
5943 Clouds -2 1008 97 4819 6.09 184 12:37 03.11.2020
5944 Clouds -2 1009 96 10000 6.61 195 12:19 03.11.2020
5945 Clouds -2 1009 96 10000 6.61 195 11:41 03.11.2020
5946 Clouds -1 1009 96 10000 7.71 201 11:20 03.11.2020
5947 Clouds -1 1009 96 10000 7.71 201 10:39 03.11.2020
5948 Clouds -1 1009 97 10000 7.43 204 10:21 03.11.2020
5949 Clouds -1 1009 97 10000 7.43 204 09:51 03.11.2020
5950 Clouds -1 1009 97 10000 7.43 204 09:33 03.11.2020
5951 Clouds 0 1009 97 10000 7.12 207 08:56 03.11.2020
5952 Clouds 0 1009 97 10000 7.12 207 08:35 03.11.2020
5953 Clouds 0 1010 96 10000 6.74 211 07:54 03.11.2020
5954 Clouds 1 1010 96 251 6.5 218 07:27 03.11.2020
5955 Rain 1 1011 96 43 5.55 224 06:49 03.11.2020
5956 Rain 1 1011 97 35 5.27 240 05:49 03.11.2020
5957 Clouds 1 1011 98 24 2.22 187 03:20 03.11.2020
5958 Clouds 1 1012 97 39 2.5 134 00:42 03.11.2020
5959 Clouds 1 1012 97 33 3.43 121 23:54 02.11.2020
5960 Clouds 1 1012 97 33 3.43 121 23:36 02.11.2020
5961 Clouds 1 1012 97 72 3.65 110 22:56 02.11.2020
5962 Clouds 1 1012 97 72 3.65 110 22:36 02.11.2020
5963 Clouds 1 1012 97 161 3.24 98 21:59 02.11.2020
5964 Clouds 1 1012 97 161 3.24 98 21:38 02.11.2020
5965 Clouds 1 1012 97 89 1.59 89 21:19 02.11.2020
5966 Clouds 1 1012 97 89 1.59 89 20:41 02.11.2020
5967 Clouds 1 1013 97 96 0.85 149 20:20 02.11.2020
5968 Clouds 1 1013 97 96 0.85 149 19:49 02.11.2020
5969 Clouds 0 1013 96 3504 0.97 161 19:27 02.11.2020
5970 Clouds 0 1013 96 3504 0.97 161 18:57 02.11.2020
5971 Clouds 0 1013 96 3504 0.97 161 18:39 02.11.2020
5972 Clouds 1 1013 94 10000 2.14 308 18:20 02.11.2020
5973 Clouds 1 1013 94 10000 2.14 308 17:42 02.11.2020
5974 Clouds 1 1014 92 9555 3.7 282 17:24 02.11.2020
5975 Clouds 1 1014 92 9555 3.7 282 16:54 02.11.2020
5976 Clouds 1 1014 92 9555 3.7 282 16:36 02.11.2020
5977 Clouds 1 1014 95 3825 4.09 264 16:18 02.11.2020
5978 Clouds 1 1014 95 3825 4.09 264 15:39 02.11.2020
5979 Clouds 0 1014 96 1591 3.89 242 15:20 02.11.2020
5980 Clouds 0 1014 96 1591 3.89 242 14:49 02.11.2020
5981 Clouds -1 1014 98 10000 4.99 196 14:19 02.11.2020
5982 Clouds -1 1014 98 10000 4.99 196 13:51 02.11.2020
5983 Clouds -2 1014 98 161 5.76 188 13:22 02.11.2020
5984 Clouds -2 1015 98 336 5.74 196 12:52 02.11.2020
5985 Clouds -1 1014 97 525 5.7 206 12:28 02.11.2020
5986 Clouds -1 1014 97 525 5.7 206 11:46 02.11.2020
5987 Clouds -1 1014 98 1617 5.87 222 11:22 02.11.2020
5988 Clouds -1 1014 98 1617 5.87 222 10:59 02.11.2020
5989 Clouds -1 1014 98 1617 5.87 222 10:39 02.11.2020
5990 Clouds -1 1014 98 323 4.62 232 10:18 02.11.2020
5991 Clouds -1 1014 98 323 4.62 232 09:42 02.11.2020
5992 Clouds -1 1014 97 3599 4.1 222 09:21 02.11.2020
5993 Clouds -1 1014 97 3599 4.1 222 08:39 02.11.2020
5994 Clouds -2 1014 96 10000 3.63 234 08:19 02.11.2020
5995 Clouds -2 1014 96 10000 3.63 234 07:43 02.11.2020
5996 Clouds -2 1014 96 10000 3.73 247 06:48 02.11.2020
5997 Clouds -2 1014 95 10000 3.98 255 06:22 02.11.2020
5998 Clouds -2 1014 95 10000 5.39 271 01:35 02.11.2020
5999 Clouds -2 1014 94 10000 5.3 272 00:42 02.11.2020
6000 Clouds -2 1014 94 10000 5.33 278 00:23 02.11.2020
6001 Clouds -2 1014 94 10000 5.33 278 23:40 01.11.2020
6002 Clouds -2 1014 94 10000 5.55 282 23:21 01.11.2020
6003 Clouds -2 1014 94 10000 5.55 282 22:45 01.11.2020
6004 Clouds -2 1014 94 10000 5.77 285 22:23 01.11.2020
6005 Clouds -2 1014 94 10000 5.77 285 21:46 01.11.2020
6006 Clouds -2 1014 95 10000 6 284 21:27 01.11.2020
6007 Clouds -2 1014 95 10000 6 284 21:27 01.11.2020
6008 Clouds -2 1014 95 10000 6 284 20:52 01.11.2020
6009 Clouds -2 1014 95 10000 6 284 20:30 01.11.2020
6010 Clouds -2 1014 95 10000 6.19 280 19:59 01.11.2020
6011 Clouds -2 1014 95 10000 6.19 280 19:41 01.11.2020
6012 Clouds -2 1014 96 10000 6.3 277 19:21 01.11.2020
6013 Clouds -2 1014 96 10000 5.99 276 18:41 01.11.2020
6014 Clouds -2 1014 96 10000 5.92 278 18:19 01.11.2020
6015 Clouds -2 1014 96 10000 5.92 278 18:19 01.11.2020
6016 Clouds -2 1014 96 10000 5.92 278 17:56 01.11.2020
6017 Clouds -2 1014 96 10000 5.92 278 17:37 01.11.2020
6018 Clouds -1 1014 96 10000 6.02 278 17:18 01.11.2020
6019 Clouds -1 1014 96 10000 6.02 278 16:39 01.11.2020
6020 Clouds -1 1013 97 8415 6.4 279 16:19 01.11.2020
6021 Clouds -1 1013 97 8415 6.4 279 15:40 01.11.2020
6022 Clouds -1 1013 97 3103 6.77 279 15:21 01.11.2020
6023 Clouds -1 1013 97 3103 6.77 279 14:54 01.11.2020
6024 Clouds -1 1013 97 3103 6.77 279 14:36 01.11.2020
6025 Clouds 0 1013 97 4722 6.73 283 14:18 01.11.2020
6026 Clouds 0 1013 97 4722 6.73 283 14:18 01.11.2020
6027 Clouds 0 1013 97 4722 6.73 283 13:44 01.11.2020
6028 Clouds 0 1013 95 4268 6.53 288 13:26 01.11.2020
6029 Clouds 0 1013 95 4268 6.53 288 12:43 01.11.2020
6030 Clouds 1 1013 92 10000 6.03 298 12:22 01.11.2020
6031 Clouds 1 1013 92 10000 6.03 298 11:50 01.11.2020
6032 Clouds 1 1012 88 10000 6.37 309 11:19 01.11.2020
6033 Clouds 1 1012 88 10000 6.37 309 10:43 01.11.2020
6034 Clouds 2 1012 85 10000 7.03 317 10:24 01.11.2020
6035 Clouds 2 1012 85 10000 7.03 317 09:53 01.11.2020
6036 Clouds 2 1012 85 10000 7.03 317 09:34 01.11.2020
6037 Clouds 2 1011 84 10000 7.28 323 08:46 01.11.2020
6038 Clouds 2 1011 83 10000 7.99 326 08:19 01.11.2020
6039 Clouds 2 1011 83 10000 7.99 326 07:35 01.11.2020
6040 Clouds 3 1008 84 10000 8.87 326 03:26 01.11.2020
6041 Clouds 3 1007 85 10000 8.98 330 01:47 01.11.2020
6042 Clouds 3 1006 86 10000 9.83 334 00:23 01.11.2020
6043 Clouds 3 1005 88 10000 10.13 334 23:25 31.10.2020
6044 Clouds 3 1005 88 10000 10.13 334 22:56 31.10.2020
6045 Clouds 3 1005 88 10000 10.13 334 22:36 31.10.2020
6046 Rain 3 1004 95 2207 10.9 339 22:18 31.10.2020
6047 Rain 3 1004 95 2207 10.9 339 21:43 31.10.2020
6048 Clouds 2 1002 95 1512 7.69 336 21:18 31.10.2020
6049 Clouds 2 1002 95 1512 7.69 336 20:38 31.10.2020
6050 Clouds 3 1002 86 10000 6.84 339 20:18 31.10.2020
6051 Clouds 3 1002 86 10000 6.84 339 19:40 31.10.2020
6052 Clouds 2 1001 86 10000 6.33 342 19:20 31.10.2020
6053 Clouds 2 1001 86 10000 6.33 342 18:47 31.10.2020
6054 Clouds 2 1000 87 10000 6.02 345 18:23 31.10.2020
6055 Clouds 2 1000 87 10000 6.02 345 17:40 31.10.2020
6056 Rain 2 999 90 10000 5.67 343 17:22 31.10.2020
6057 Rain 2 999 90 10000 5.67 343 16:43 31.10.2020
6058 Rain 1 998 95 1018 5.16 321 16:25 31.10.2020
6059 Rain 1 998 95 1018 5.16 321 15:45 31.10.2020
6060 Clouds 1 997 93 1383 7.41 305 15:24 31.10.2020
6061 Clouds 1 997 93 1383 7.41 305 14:50 31.10.2020
6062 Clouds 1 997 93 1383 7.41 305 14:31 31.10.2020
6063 Clouds 2 997 85 10000 10 312 13:50 31.10.2020
6064 Clouds 2 997 91 1340 11.69 321 13:26 31.10.2020
6065 Clouds 2 997 89 5276 12.03 323 12:43 31.10.2020
6066 Clouds 1 996 96 244 11.98 319 11:51 31.10.2020
6067 Clouds 1 996 96 244 11.98 319 11:30 31.10.2020
6068 Clouds 2 996 93 1153 9.17 300 10:59 31.10.2020
6069 Clouds 2 996 93 1153 9.17 300 10:36 31.10.2020
6070 Clouds 1 995 96 1003 6.63 262 09:47 31.10.2020
6071 Clouds 1 995 96 144 8.5 246 09:28 31.10.2020
6072 Clouds 1 995 96 144 8.5 246 08:47 31.10.2020
6073 Clouds 1 995 96 145 9.68 232 07:59 31.10.2020
6074 Clouds 1 995 95 378 8.22 231 07:27 31.10.2020
6075 Clouds 1 995 96 89 8.42 228 06:42 31.10.2020
6076 Clouds 1 995 96 71 11.06 219 06:20 31.10.2020
6077 Clouds 1 995 93 7488 10.48 216 03:46 31.10.2020
6078 Clouds 1 996 91 10000 7.51 231 01:30 31.10.2020
6079 Clouds 1 996 89 10000 6.74 238 00:47 31.10.2020
6080 Clouds 1 997 94 10000 7.27 266 23:53 30.10.2020
6081 Clouds 2 996 97 52 7.16 283 23:27 30.10.2020
6082 Clouds 2 996 97 52 7.16 283 22:56 30.10.2020
6083 Rain 3 996 97 166 8.35 232 22:28 30.10.2020
6084 Rain 3 996 97 166 8.35 232 21:59 30.10.2020
6085 Rain 3 996 97 166 8.35 232 21:40 30.10.2020
6086 Rain 3 997 96 1128 9.99 216 21:21 30.10.2020
6087 Rain 3 997 96 1128 9.99 216 20:43 30.10.2020
6088 Rain 3 997 95 1685 10.64 212 20:24 30.10.2020
6089 Rain 3 997 95 1685 10.64 212 19:53 30.10.2020
6090 Rain 3 998 95 4622 10.81 209 19:21 30.10.2020
6091 Rain 3 998 95 1937 10.87 207 18:52 30.10.2020
6092 Rain 3 998 95 4622 10.81 209 18:34 30.10.2020
6093 Rain 3 998 96 10000 10.2 212 17:57 30.10.2020
6094 Rain 3 998 96 10000 10.2 212 17:39 30.10.2020
6095 Clouds 3 999 95 2749 9.94 212 17:20 30.10.2020
6096 Clouds 3 999 95 2749 9.94 212 16:49 30.10.2020
6097 Clouds 3 999 95 10000 9.74 211 16:19 30.10.2020
6098 Clouds 3 999 95 10000 9.74 211 15:41 30.10.2020
6099 Clouds 3 1000 95 4602 9.23 216 15:20 30.10.2020
6100 Clouds 3 1000 95 4602 9.23 216 14:45 30.10.2020
6101 Clouds 3 1000 96 1652 9.46 220 14:26 30.10.2020
6102 Clouds 3 1000 96 1652 9.46 220 13:55 30.10.2020
6103 Clouds 3 1000 96 1652 9.46 220 13:37 30.10.2020
6104 Clouds 3 1001 96 2139 8.71 225 13:18 30.10.2020
6105 Rain 3 1001 96 2020 9.22 226 12:24 30.10.2020
6106 Rain 3 1001 96 2020 9.22 226 11:59 30.10.2020
6107 Rain 3 1001 96 2020 9.22 226 11:40 30.10.2020
6108 Clouds 3 1001 95 2593 9.62 229 11:19 30.10.2020
6109 Clouds 3 1001 95 2593 9.62 229 10:47 30.10.2020
6110 Rain 3 1001 95 3478 9.8 229 10:23 30.10.2020
6111 Rain 3 1001 95 3478 9.8 229 09:45 30.10.2020
6112 Rain 3 1001 96 1724 9.46 230 09:22 30.10.2020
6113 Clouds 3 1001 95 2153 9.43 229 08:42 30.10.2020
6114 Clouds 3 1000 96 2297 9.33 232 08:23 30.10.2020
6115 Clouds 3 1000 96 2297 9.33 232 07:49 30.10.2020
6116 Clouds 3 1000 96 2297 9.33 232 07:31 30.10.2020
6117 Clouds 3 1001 96 1891 9.3 234 06:38 30.10.2020
6118 Rain 3 1000 96 1365 8.98 236 04:47 30.10.2020
6119 Rain 3 1000 97 995 9.08 215 02:26 30.10.2020
6120 Rain 3 1001 97 911 8.44 213 00:40 30.10.2020
6121 Rain 3 1001 97 1088 8.29 210 23:49 29.10.2020
6122 Rain 3 1001 97 1088 8.29 210 23:31 29.10.2020
6123 Rain 3 1002 97 1137 7.69 211 22:58 29.10.2020
6124 Rain 3 1002 97 1137 7.69 211 22:40 29.10.2020
6125 Rain 2 1002 97 1178 7.66 221 22:21 29.10.2020
6126 Rain 2 1002 97 1178 7.66 221 21:37 29.10.2020
6127 Clouds 2 1002 96 1295 7.81 235 21:18 29.10.2020
6128 Clouds 2 1002 96 1295 7.81 235 20:41 29.10.2020
6129 Clouds 2 1003 95 1579 7.14 230 20:19 29.10.2020
6130 Clouds 2 1003 95 1579 7.14 230 19:43 29.10.2020
6131 Clouds 3 1003 90 10000 6.51 233 19:22 29.10.2020
6132 Clouds 3 1003 89 10000 6.75 230 18:49 29.10.2020
6133 Clouds 3 1003 89 10000 5.8 247 18:29 29.10.2020
6134 Clouds 3 1003 89 10000 5.8 247 17:57 29.10.2020
6135 Clouds 3 1003 89 10000 5.8 247 17:38 29.10.2020
6136 Clouds 2 1002 89 10000 6.32 258 17:19 29.10.2020
6137 Clouds 2 1002 89 10000 6.32 258 16:45 29.10.2020
6138 Clouds 2 1002 92 10000 6.68 264 16:20 29.10.2020
6139 Clouds 2 1002 92 10000 6.68 264 15:56 29.10.2020
6140 Clouds 2 1002 92 10000 6.68 264 15:37 29.10.2020
6141 Clouds 2 1001 94 3974 6.76 270 15:19 29.10.2020
6142 Clouds 2 1001 94 3974 6.76 270 14:44 29.10.2020
6143 Clouds 3 1001 97 1352 6.82 270 14:22 29.10.2020
6144 Clouds 3 1001 97 1352 6.82 270 13:47 29.10.2020
6145 Clouds 3 1000 97 1269 5.96 261 13:27 29.10.2020
6146 Clouds 3 1001 96 1227 6.23 258 12:44 29.10.2020
6147 Clouds 1 1000 95 10000 5.71 238 12:20 29.10.2020
6148 Clouds 1 1000 95 10000 5.71 238 11:56 29.10.2020
6149 Clouds 1 1000 95 10000 5.71 238 11:38 29.10.2020
6150 Rain 0 999 97 10000 5.4 226 11:20 29.10.2020
6151 Rain 0 999 97 10000 5.4 226 10:37 29.10.2020
6152 Rain 0 999 97 10000 5.4 226 10:37 29.10.2020
6153 Rain 0 997 98 8376 4.84 219 10:19 29.10.2020
6154 Rain 0 997 98 8376 4.84 219 09:48 29.10.2020
6155 Clouds -1 996 98 6147 5.22 212 09:24 29.10.2020
6156 Clouds -1 996 98 6147 5.22 212 08:46 29.10.2020
6157 Clouds -1 996 98 4186 5.8 206 08:24 29.10.2020
6158 Clouds -1 996 98 4186 5.8 206 07:51 29.10.2020
6159 Clouds -2 996 97 3471 6.66 201 07:21 29.10.2020
6160 Clouds -2 996 97 3471 6.66 201 06:47 29.10.2020
6161 Clouds -1 994 98 3124 8.83 197 04:50 29.10.2020
6162 Clouds -2 994 97 4963 9.96 190 02:29 29.10.2020
6163 Clouds -2 995 97 6797 10.72 191 00:45 29.10.2020
6164 Clouds -2 996 97 7862 11.7 189 00:22 29.10.2020
6165 Clouds -2 996 97 7862 11.7 189 23:42 28.10.2020
6166 Clouds -2 997 97 9809 12.36 189 23:20 28.10.2020
6167 Clouds -2 997 97 9809 12.36 189 22:43 28.10.2020
6168 Clouds -2 997 97 4902 12.45 189 22:25 28.10.2020
6169 Clouds -2 997 97 4902 12.45 189 21:45 28.10.2020
6170 Clouds -2 998 97 7479 12.57 188 21:26 28.10.2020
6171 Clouds -2 998 97 7479 12.57 188 20:58 28.10.2020
6172 Clouds -2 998 97 7479 12.57 188 20:40 28.10.2020
6173 Clouds -2 999 97 4033 12.66 186 20:18 28.10.2020
6174 Clouds -2 999 97 4033 12.66 186 19:42 28.10.2020
6175 Clouds -2 1000 97 7979 12.51 186 19:24 28.10.2020
6176 Clouds -2 1000 97 7979 12.51 186 18:43 28.10.2020
6177 Clouds -2 1002 97 4213 12.86 186 18:20 28.10.2020
6178 Clouds -2 1002 97 4213 12.86 186 17:43 28.10.2020
6179 Clouds -2 1003 97 10000 12.53 185 17:21 28.10.2020
6180 Clouds -2 1003 97 10000 12.53 185 16:47 28.10.2020
6181 Clouds -2 1003 97 10000 12.32 184 16:29 28.10.2020
6182 Clouds -2 1003 97 10000 12.32 184 15:45 28.10.2020
6183 Clouds -2 1004 97 10000 12.15 185 15:20 28.10.2020
6184 Clouds -2 1004 97 10000 12.15 185 14:53 28.10.2020
6185 Clouds -2 1004 97 10000 12.15 185 14:32 28.10.2020
6186 Clouds -2 1005 97 10000 12.1 185 13:59 28.10.2020
6187 Clouds -3 1007 97 10000 11.64 183 12:38 28.10.2020
6188 Clouds -3 1008 96 10000 11.21 182 12:20 28.10.2020
6189 Clouds -3 1008 96 10000 11.21 182 11:43 28.10.2020
6190 Clouds -4 1009 97 10000 10.14 177 11:22 28.10.2020
6191 Clouds -4 1009 97 10000 10.14 177 10:57 28.10.2020
6192 Clouds -4 1009 97 10000 10.14 177 10:57 28.10.2020
6193 Clouds -4 1009 97 10000 10.14 177 10:39 28.10.2020
6194 Clouds -4 1009 97 10000 9.81 186 10:21 28.10.2020
6195 Clouds -4 1009 97 10000 9.81 186 09:38 28.10.2020
6196 Clouds -4 1009 97 10000 9.81 186 09:38 28.10.2020
6197 Clouds -4 1010 97 10000 8.76 186 09:20 28.10.2020
6198 Clouds -4 1010 97 10000 8.76 186 08:47 28.10.2020
6199 Clouds -5 1010 96 10000 8.72 189 08:25 28.10.2020
6200 Clouds -5 1010 96 10000 8.72 189 07:48 28.10.2020
6201 Clouds -5 1010 96 10000 8.72 189 07:30 28.10.2020
6202 Clouds -5 1011 96 10000 8.51 191 06:40 28.10.2020
6203 Clouds -4 1011 97 10000 9.07 192 05:49 28.10.2020
6204 Clouds -5 1011 97 10000 9.54 194 04:52 28.10.2020
6205 Clouds -5 1011 97 10000 9.72 193 04:25 28.10.2020
6206 Clouds -5 1012 96 3387 9.71 193 02:25 28.10.2020
6207 Clouds -5 1012 96 6987 9.59 189 01:29 28.10.2020
6208 Snow -6 1012 96 4569 9.37 184 23:54 27.10.2020
6209 Snow -6 1012 96 1042 9.82 184 23:26 27.10.2020
6210 Snow -6 1012 96 1042 9.82 184 22:57 27.10.2020
6211 Snow -6 1012 96 1042 9.82 184 22:38 27.10.2020
6212 Snow -6 1012 96 457 10.29 180 22:19 27.10.2020
6213 Snow -6 1012 96 457 10.29 180 21:55 27.10.2020
6214 Snow -6 1012 96 457 10.29 180 21:37 27.10.2020
6215 Snow -6 1012 96 457 10.29 180 21:37 27.10.2020
6216 Snow -6 1012 96 457 10.29 180 21:37 27.10.2020
6217 Snow -6 1012 97 352 10.35 179 21:18 27.10.2020
6218 Snow -6 1012 97 352 10.35 179 20:41 27.10.2020
6219 Snow -6 1013 97 320 10.36 177 20:22 27.10.2020
6220 Snow -6 1013 97 320 10.36 177 19:39 27.10.2020
6221 Snow -6 1014 97 278 10.4 175 19:21 27.10.2020
6222 Snow -6 1014 97 278 10.4 175 18:58 27.10.2020
6223 Snow -6 1014 97 278 10.4 175 18:40 27.10.2020
6224 Snow -6 1014 97 422 10.92 177 18:19 27.10.2020
6225 Snow -6 1014 97 422 10.92 177 17:43 27.10.2020
6226 Snow -6 1015 96 577 10.98 178 17:21 27.10.2020
6227 Snow -6 1015 96 577 10.98 178 16:48 27.10.2020
6228 Clouds -6 1015 96 720 10.8 178 16:28 27.10.2020
6229 Clouds -6 1015 96 720 10.8 178 15:55 27.10.2020
6230 Clouds -6 1015 96 720 10.8 178 15:37 27.10.2020
6231 Snow -6 1016 96 1115 10.82 173 15:18 27.10.2020
6232 Snow -6 1016 96 1115 10.82 173 14:41 27.10.2020
6233 Clouds -7 1017 95 10000 10.2 174 14:22 27.10.2020
6234 Clouds -7 1017 95 10000 10.2 174 13:41 27.10.2020
6235 Clouds -7 1018 94 10000 9.84 176 13:21 27.10.2020
6236 Clouds -7 1018 94 10000 9.83 178 12:40 27.10.2020
6237 Clouds -7 1019 94 10000 9.62 176 12:21 27.10.2020
6238 Clouds -7 1019 94 10000 9.62 176 11:42 27.10.2020
6239 Clouds -6 1020 93 10000 9.38 176 11:22 27.10.2020
6240 Clouds -6 1020 93 10000 9.38 176 10:47 27.10.2020
6241 Clouds -6 1020 93 10000 8.73 174 10:28 27.10.2020
6242 Clouds -6 1020 93 10000 8.73 174 09:46 27.10.2020
6243 Clouds -7 1021 94 10000 7.64 182 09:26 27.10.2020
6244 Clouds -7 1021 94 10000 7.64 182 08:39 27.10.2020
6245 Clouds -8 1022 94 10000 7.45 184 08:20 27.10.2020
6246 Clouds -8 1022 94 10000 7.45 184 07:45 27.10.2020
6247 Clouds -8 1022 94 10000 7.45 184 07:45 27.10.2020
6248 Clouds -8 1022 94 10000 7.45 184 07:45 27.10.2020
6249 Clouds -9 1023 94 10000 7.26 181 07:26 27.10.2020
6250 Clouds -9 1023 94 10000 6.71 181 06:22 27.10.2020
6251 Clouds -9 1023 94 10000 6.71 181 06:22 27.10.2020
6252 Clouds -9 1023 94 10000 6.71 181 06:22 27.10.2020
6253 Clouds -9 1023 94 10000 6.71 181 05:52 27.10.2020
6254 Clouds -9 1023 94 10000 6.71 181 05:52 27.10.2020
6255 Clouds -9 1023 94 10000 6.71 181 05:34 27.10.2020
6256 Clouds -10 1024 93 10000 5.67 187 04:44 27.10.2020
6257 Clear -10 1025 92 10000 4.36 183 02:34 27.10.2020
6258 Clear -10 1026 93 10000 3.73 183 00:58 27.10.2020
6259 Clouds -10 1026 93 10000 3.91 175 23:46 26.10.2020
6260 Clouds -10 1026 93 10000 4.21 163 23:26 26.10.2020
6261 Clouds -10 1026 93 10000 4.21 163 22:49 26.10.2020
6262 Clouds -10 1026 94 10000 4.95 150 22:27 26.10.2020
6263 Clouds -10 1026 94 10000 4.95 150 21:50 26.10.2020
6264 Clouds -10 1026 94 10000 4.95 150 21:50 26.10.2020
6265 Clouds -9 1026 94 10000 4.85 150 21:21 26.10.2020
6266 Clouds -9 1026 94 10000 4.85 150 20:58 26.10.2020
6267 Clouds -9 1026 94 10000 4.85 150 20:39 26.10.2020
6268 Clouds -9 1027 94 10000 5.19 147 20:19 26.10.2020
6269 Clouds -9 1027 94 10000 5.19 147 19:47 26.10.2020
6270 Clouds -8 1027 95 10000 5.47 144 19:24 26.10.2020
6271 Clouds -8 1027 95 10000 5.47 144 18:45 26.10.2020
6272 Clouds -9 1027 94 10000 5.65 142 18:25 26.10.2020
6273 Clouds -9 1027 94 10000 5.65 142 17:59 26.10.2020
6274 Clouds -9 1027 94 10000 5.65 142 17:39 26.10.2020
6275 Clouds -8 1027 94 10000 5.78 134 17:21 26.10.2020
6276 Clouds -8 1027 94 10000 5.78 134 16:40 26.10.2020
6277 Clouds -8 1026 94 10000 5.63 130 16:21 26.10.2020
6278 Clouds -8 1026 94 10000 5.63 130 15:43 26.10.2020
6279 Clouds -8 1026 94 10000 5.59 132 15:24 26.10.2020
6280 Clouds -8 1026 94 10000 5.59 132 14:53 26.10.2020
6281 Clouds -8 1026 94 10000 5.59 132 14:32 26.10.2020
6282 Clear -8 1026 94 10000 5.1 133 13:44 26.10.2020
6283 Clouds -7 1026 94 10000 5.26 130 13:24 26.10.2020
6284 Clouds -8 1026 94 10000 4.61 131 12:52 26.10.2020
6285 Clouds -8 1026 94 10000 4.61 131 12:31 26.10.2020
6286 Clouds -7 1026 95 10000 4.54 129 11:57 26.10.2020
6287 Clouds -7 1026 95 10000 4.54 129 11:39 26.10.2020
6288 Clouds -7 1026 95 10000 4.54 129 11:39 26.10.2020
6289 Clouds -7 1025 95 10000 4.62 129 11:21 26.10.2020
6290 Clouds -7 1025 95 10000 4.62 129 10:48 26.10.2020
6291 Clouds -7 1024 95 10000 4.78 129 10:26 26.10.2020
6292 Clouds -7 1024 95 10000 4.78 129 09:51 26.10.2020
6293 Clouds -7 1024 95 10000 4.77 129 09:28 26.10.2020
6294 Clouds -7 1024 95 10000 4.77 129 08:54 26.10.2020
6295 Clouds -7 1024 96 10000 4.56 129 08:24 26.10.2020
6296 Clouds -7 1024 96 10000 4.56 129 07:38 26.10.2020
6297 Clouds -7 1023 96 10000 4.85 128 07:20 26.10.2020
6298 Clouds -7 1023 96 10000 5.24 127 05:31 26.10.2020
6299 Clouds -7 1022 95 10000 5.5 122 04:19 26.10.2020
6300 Clouds -6 1021 95 10000 5.69 119 03:20 26.10.2020
6301 Clouds -6 1021 95 10000 5.69 119 03:20 26.10.2020
6302 Clouds -6 1021 95 10000 5.69 119 03:20 26.10.2020
6303 Clouds -6 1021 95 10000 5.69 119 03:20 26.10.2020
6304 Clouds -6 1021 96 6968 5.92 118 01:34 26.10.2020
6305 Clouds -6 1020 96 7400 6.02 117 00:35 26.10.2020
6306 Clouds -6 1020 96 10000 5.66 119 23:46 25.10.2020
6307 Clouds -6 1019 95 10000 5.92 119 23:25 25.10.2020
6308 Clouds -6 1019 95 10000 5.92 119 22:45 25.10.2020
6309 Clouds -6 1019 95 10000 6.26 120 22:26 25.10.2020
6310 Clouds -6 1019 95 10000 6.26 120 21:50 25.10.2020
6311 Clouds -6 1019 95 10000 6.26 120 21:31 25.10.2020
6312 Clouds -6 1018 96 10000 6.95 119 20:58 25.10.2020
6313 Clouds -6 1018 96 10000 6.95 119 20:39 25.10.2020
6314 Clouds -5 1018 95 10000 7.53 117 20:19 25.10.2020
6315 Clouds -5 1018 95 10000 7.53 117 19:49 25.10.2020
6316 Clouds -5 1017 95 10000 7.72 113 19:26 25.10.2020
6317 Clouds -5 1017 95 10000 7.37 111 18:58 25.10.2020
6318 Clouds -5 1017 95 10000 7.37 111 18:39 25.10.2020
6319 Clouds -5 1017 95 10000 7.42 109 18:20 25.10.2020
6320 Clouds -5 1017 95 10000 7.42 109 17:40 25.10.2020
6321 Clouds -4 1017 95 10000 7.45 107 17:22 25.10.2020
6322 Clouds -4 1017 95 10000 7.45 107 16:59 25.10.2020
6323 Clouds -4 1017 95 10000 7.45 107 16:39 25.10.2020
6324 Clouds -4 1016 95 10000 7.55 107 16:20 25.10.2020
6325 Clouds -4 1016 95 10000 7.55 107 15:47 25.10.2020
6326 Clouds -4 1016 95 10000 7.95 107 15:26 25.10.2020
6327 Clouds -4 1016 95 10000 7.95 107 14:49 25.10.2020
6328 Clouds -4 1015 95 10000 8.25 106 14:28 25.10.2020
6329 Clouds -4 1015 95 10000 8.25 106 13:44 25.10.2020
6330 Clouds -3 1015 95 10000 8.54 105 13:22 25.10.2020
6331 Clouds -3 1015 95 9143 7.91 102 12:49 25.10.2020
6332 Clouds -3 1015 96 5264 8.15 101 12:27 25.10.2020
6333 Clouds -3 1015 96 5264 8.15 101 11:58 25.10.2020
6334 Clouds -3 1015 96 5264 8.15 101 11:39 25.10.2020
6335 Clouds -3 1015 95 8417 8.22 101 11:19 25.10.2020
6336 Clouds -3 1015 95 8417 8.22 101 10:44 25.10.2020
6337 Clouds -3 1014 95 10000 8.39 100 10:25 25.10.2020
6338 Clouds -3 1014 95 10000 8.39 100 09:48 25.10.2020
6339 Clouds -3 1014 95 10000 8.45 101 09:20 25.10.2020
6340 Clouds -3 1014 95 10000 8.45 101 08:56 25.10.2020
6341 Clouds -3 1014 95 10000 8.45 101 08:37 25.10.2020
6342 Clouds -4 1014 95 10000 8.5 102 08:19 25.10.2020
6343 Clouds -4 1014 95 10000 8.5 102 07:42 25.10.2020
6344 Clouds -4 1013 95 10000 8.38 106 06:52 25.10.2020
6345 Clouds -4 1013 95 10000 8.55 106 06:19 25.10.2020
6346 Clouds -4 1013 95 10000 8.72 105 05:18 25.10.2020
6347 Clouds -4 1013 95 10000 8.76 104 04:20 25.10.2020
6348 Clouds -5 1012 94 10000 7.48 109 02:19 25.10.2020
6349 Clouds -5 1013 94 10000 7.5 109 00:49 25.10.2020
6350 Clouds -5 1012 94 10000 7.37 111 00:26 25.10.2020
6351 Clouds -5 1012 94 10000 7.37 111 23:54 24.10.2020
6352 Clouds -5 1012 94 10000 7.3 111 23:29 24.10.2020
6353 Clouds -5 1012 94 10000 7.3 111 22:57 24.10.2020
6354 Clouds -5 1012 94 10000 7.3 111 22:38 24.10.2020
6355 Clouds -5 1012 94 10000 7.11 111 22:20 24.10.2020
6356 Clouds -5 1012 94 10000 7.11 111 21:43 24.10.2020
6357 Clouds -5 1012 95 10000 6.83 111 21:21 24.10.2020
6358 Clouds -5 1012 95 10000 6.83 111 21:21 24.10.2020
6359 Clouds -5 1012 95 10000 6.83 111 20:49 24.10.2020
6360 Clouds -5 1012 95 10000 6.55 111 20:25 24.10.2020
6361 Clouds -5 1012 95 10000 6.55 111 19:57 24.10.2020
6362 Clouds -5 1012 94 10000 6.54 111 19:37 24.10.2020
6363 Clouds -5 1012 94 10000 6.31 113 19:19 24.10.2020
6364 Clouds -5 1012 94 10000 6.31 113 18:46 24.10.2020
6365 Clouds -4 1012 94 10000 6.17 112 18:26 24.10.2020
6366 Clouds -4 1012 94 10000 6.17 112 17:41 24.10.2020
6367 Clouds -4 1012 94 10000 6.12 111 17:22 24.10.2020
6368 Clouds -4 1012 94 10000 6.12 111 16:45 24.10.2020
6369 Clouds -3 1012 95 10000 6.19 108 16:26 24.10.2020
6370 Clouds -3 1012 95 10000 6.19 108 15:41 24.10.2020
6371 Clouds -3 1012 95 6340 6.01 105 15:20 24.10.2020
6372 Clouds -2 1012 94 10000 6.21 102 14:56 24.10.2020
6373 Clouds -2 1012 93 10000 5.82 98 14:29 24.10.2020
6374 Clouds -2 1012 94 9197 6.14 101 13:49 24.10.2020
6375 Clouds -2 1012 94 9197 6.14 101 13:31 24.10.2020
6376 Clouds -2 1012 94 10000 5.98 95 12:58 24.10.2020
6377 Clouds -2 1012 94 10000 5.98 95 12:58 24.10.2020
6378 Clouds -2 1012 94 10000 5.98 95 12:37 24.10.2020
6379 Clouds -2 1012 94 10000 5.65 95 12:19 24.10.2020
6380 Clouds -2 1012 94 10000 5.65 95 11:43 24.10.2020
6381 Clouds -2 1011 95 7349 4.97 105 10:59 24.10.2020
6382 Clouds -2 1011 95 7349 4.97 105 10:39 24.10.2020
6383 Clouds -3 1011 95 4267 4.5 110 10:18 24.10.2020
6384 Clouds -3 1011 95 4267 4.5 110 09:42 24.10.2020
6385 Clouds -3 1011 95 7304 3.77 106 09:21 24.10.2020
6386 Clouds -3 1011 95 7304 3.77 106 08:51 24.10.2020
6387 Snow -3 1010 95 10000 2.83 110 08:18 24.10.2020
6388 Snow -3 1010 95 10000 2.83 110 07:48 24.10.2020
6389 Clouds -4 1010 94 10000 1.24 152 07:19 24.10.2020
6390 Clouds -4 1010 94 10000 1.24 152 06:44 24.10.2020
6391 Clouds -4 1009 93 10000 1.13 189 04:45 24.10.2020
6392 Clouds -3 1009 93 10000 1.12 248 02:20 24.10.2020
6393 Clouds -3 1009 91 10000 0.85 278 00:44 24.10.2020
6394 Clouds -2 1008 92 10000 1.27 292 00:23 24.10.2020
6395 Clouds -2 1008 92 10000 1.27 292 23:59 23.10.2020
6396 Clouds -2 1008 92 10000 1.27 292 23:37 23.10.2020
6397 Clouds -2 1008 92 10000 1.68 300 23:18 23.10.2020
6398 Clouds -2 1008 92 10000 1.68 300 22:42 23.10.2020
6399 Clouds -2 1008 93 3639 2.15 302 22:21 23.10.2020
6400 Clouds -2 1008 93 3639 2.15 302 21:53 23.10.2020
6401 Clouds -2 1008 94 1679 2.55 298 21:29 23.10.2020
6402 Clouds -2 1008 94 1679 2.55 298 20:57 23.10.2020
6403 Clouds -2 1008 94 1679 2.55 298 20:37 23.10.2020
6404 Clouds -2 1008 94 1423 2.47 303 20:18 23.10.2020
6405 Clouds -2 1008 92 3854 2.02 312 19:42 23.10.2020
6406 Clouds -2 1008 93 4976 2.41 319 19:23 23.10.2020
6407 Clouds -2 1008 93 4976 2.41 319 18:42 23.10.2020
6408 Clouds -2 1007 93 4252 2.85 318 18:22 23.10.2020
6409 Clouds -2 1007 93 4252 2.85 318 17:44 23.10.2020
6410 Clouds -2 1008 95 1314 3.19 315 17:21 23.10.2020
6411 Clouds -2 1008 95 1314 3.19 315 16:47 23.10.2020
6412 Clouds -2 1007 95 844 3.52 313 16:26 23.10.2020
6413 Clouds -2 1007 95 844 3.52 313 15:55 23.10.2020
6414 Clouds -2 1007 95 844 3.52 313 15:36 23.10.2020
6415 Clouds -1 1008 95 903 3.82 312 15:18 23.10.2020
6416 Clouds -1 1008 95 903 3.82 312 14:41 23.10.2020
6417 Clouds -1 1008 96 915 3.92 314 14:22 23.10.2020
6418 Clouds -1 1008 96 915 3.92 314 14:22 23.10.2020
6419 Clouds -1 1008 96 915 3.92 314 13:40 23.10.2020
6420 Clouds -1 1008 96 689 4.26 324 13:21 23.10.2020
6421 Clouds -1 1008 96 689 4.26 324 12:48 23.10.2020
6422 Clouds -1 1007 95 699 4.46 321 12:28 23.10.2020
6423 Clouds -1 1007 95 699 4.46 321 11:48 23.10.2020
6424 Clouds -1 1007 95 839 4.26 318 11:23 23.10.2020
6425 Clouds -1 1007 95 839 4.26 318 10:48 23.10.2020
6426 Clouds -1 1007 95 817 3.75 314 10:26 23.10.2020
6427 Clouds -1 1007 95 817 3.75 314 09:50 23.10.2020
6428 Clouds -2 1007 95 976 3.28 306 09:27 23.10.2020
6429 Clouds -2 1007 95 976 3.28 306 08:56 23.10.2020
6430 Clouds -2 1007 95 976 3.28 306 08:37 23.10.2020
6431 Clouds -2 1007 97 811 2.27 262 07:47 23.10.2020
6432 Clouds -2 1007 98 393 1.99 260 07:26 23.10.2020
6433 Clouds -2 1007 98 393 1.99 260 06:43 23.10.2020
6434 Clouds -2 1007 96 418 1.68 274 05:59 23.10.2020
6435 Clouds -1 1007 92 3935 2.9 352 02:54 23.10.2020
6436 Clouds -1 1007 92 5380 3.64 3 02:26 23.10.2020
6437 Clouds -1 1007 92 3693 4.31 5 00:48 23.10.2020
6438 Clouds 0 1007 91 3750 4.54 8 23:54 22.10.2020
6439 Clouds 0 1007 91 3750 4.54 8 23:31 22.10.2020
6440 Clouds 0 1007 92 3647 4.65 11 22:56 22.10.2020
6441 Clouds 0 1007 92 3647 4.65 11 22:38 22.10.2020
6442 Clouds 0 1007 92 3248 4.99 14 22:19 22.10.2020
6443 Clouds 0 1007 92 3248 4.99 14 21:43 22.10.2020
6444 Clouds 0 1007 92 3329 5.34 17 21:23 22.10.2020
6445 Clouds 0 1007 92 3329 5.34 17 20:57 22.10.2020
6446 Clouds 0 1007 92 3329 5.34 17 20:39 22.10.2020
6447 Clouds 0 1007 92 3611 5.74 16 20:18 22.10.2020
6448 Clouds 0 1007 92 3611 5.74 16 19:41 22.10.2020
6449 Clouds 0 1007 92 4565 6.27 10 19:19 22.10.2020
6450 Clouds 0 1007 92 4565 6.27 10 18:43 22.10.2020
6451 Clouds 0 1006 91 6491 6.55 8 18:21 22.10.2020
6452 Clouds 0 1006 91 6491 6.55 8 17:47 22.10.2020
6453 Clouds 0 1006 91 6344 7.07 9 17:26 22.10.2020
6454 Clouds 0 1006 91 6344 7.07 9 16:57 22.10.2020
6455 Clouds 0 1006 91 6344 7.07 9 16:39 22.10.2020
6456 Clouds 0 1006 91 6290 7.45 10 16:20 22.10.2020
6457 Clouds 0 1006 91 6290 7.45 10 15:44 22.10.2020
6458 Clouds 0 1006 91 6417 7.65 9 15:25 22.10.2020
6459 Clouds 0 1006 91 6417 7.65 9 14:47 22.10.2020
6460 Clouds 0 1006 91 6699 7.9 7 14:25 22.10.2020
6461 Clouds 0 1006 91 6699 7.9 7 13:49 22.10.2020
6462 Clouds 0 1006 91 6477 8.37 7 13:24 22.10.2020
6463 Clouds 0 1006 91 6477 8.37 7 12:53 22.10.2020
6464 Clouds 0 1006 90 5321 8.51 6 12:24 22.10.2020
6465 Clouds 0 1006 90 5321 8.51 6 11:50 22.10.2020
6466 Clouds 0 1005 91 5659 8.33 7 11:20 22.10.2020
6467 Clouds 0 1005 91 5659 8.33 7 10:51 22.10.2020
6468 Clouds 0 1005 91 4679 8.47 7 10:29 22.10.2020
6469 Clouds 0 1005 91 4679 8.47 7 09:52 22.10.2020
6470 Clouds 0 1005 91 4679 8.47 7 09:33 22.10.2020
6471 Clouds 0 1005 92 3623 8.63 10 08:51 22.10.2020
6472 Clouds 0 1005 92 3623 8.63 10 08:31 22.10.2020
6473 Clouds 0 1005 93 2214 8.78 12 07:58 22.10.2020
6474 Clouds 0 1006 94 1991 8.55 13 07:36 22.10.2020
6475 Clouds 0 1006 95 1451 8.54 15 06:58 22.10.2020
6476 Clouds 0 1006 94 1787 8.45 16 06:27 22.10.2020
6477 Clouds 0 1006 94 1787 8.45 16 05:41 22.10.2020
6478 Clouds 0 1006 95 1663 8.4 18 05:19 22.10.2020
6479 Clouds -1 1006 94 2639 4.97 13 01:50 22.10.2020
6480 Clouds 0 1006 92 6484 5.9 27 00:26 22.10.2020
6481 Clouds 0 1006 92 6484 5.9 27 23:51 21.10.2020
6482 Clouds 0 1006 92 6484 5.9 27 23:32 21.10.2020
6483 Clouds -1 1006 93 3156 5.4 22 22:43 21.10.2020
6484 Clouds -1 1006 93 4282 5.12 27 22:20 21.10.2020
6485 Clouds -1 1006 93 4282 5.12 27 21:56 21.10.2020
6486 Clouds -1 1006 93 4282 5.12 27 21:56 21.10.2020
6487 Clouds -1 1006 93 4282 5.12 27 21:38 21.10.2020
6488 Clouds -1 1006 93 7964 5.52 36 21:18 21.10.2020
6489 Clouds -1 1006 93 7964 5.52 36 20:48 21.10.2020
6490 Clouds -1 1007 93 8375 5.71 42 20:19 21.10.2020
6491 Clouds -2 1007 93 4346 6.09 46 19:47 21.10.2020
6492 Clouds -2 1007 93 7218 6.42 51 19:26 21.10.2020
6493 Clouds -2 1007 93 7218 6.42 51 18:54 21.10.2020
6494 Clouds -2 1007 93 7218 6.42 51 18:36 21.10.2020
6495 Clouds -2 1006 93 3463 7.14 53 18:18 21.10.2020
6496 Clouds -2 1006 93 3463 7.14 53 17:41 21.10.2020
6497 Clouds -2 1006 93 3251 7.4 54 17:19 21.10.2020
6498 Clouds -2 1006 93 3251 7.4 54 16:41 21.10.2020
6499 Clouds -2 1006 94 3274 7.56 54 16:21 21.10.2020
6500 Clouds -2 1006 94 3274 7.56 54 15:55 21.10.2020
6501 Clouds -2 1006 94 3274 7.56 54 15:37 21.10.2020
6502 Clouds -2 1006 94 3497 7.63 58 15:18 21.10.2020
6503 Clouds -2 1006 94 3497 7.63 58 14:43 21.10.2020
6504 Clouds -2 1006 95 2715 7.9 60 14:23 21.10.2020
6505 Clouds -2 1006 95 2112 8.05 62 13:42 21.10.2020
6506 Clouds -2 1006 95 2374 8.15 63 13:23 21.10.2020
6507 Clouds -2 1006 95 2374 8.15 63 12:46 21.10.2020
6508 Clouds -2 1005 95 2997 8.58 63 12:24 21.10.2020
6509 Clouds -2 1005 95 2997 8.58 63 11:59 21.10.2020
6510 Clouds -2 1005 95 2997 8.58 63 11:39 21.10.2020
6511 Clouds -2 1005 94 3282 8.81 66 11:19 21.10.2020
6512 Clouds -2 1005 94 3282 8.81 66 10:41 21.10.2020
6513 Clouds -2 1005 95 1584 8.83 73 10:21 21.10.2020
6514 Clouds -2 1005 95 1584 8.83 73 09:51 21.10.2020
6515 Clouds -1 1004 94 3059 8.98 78 09:28 21.10.2020
6516 Clouds -1 1004 94 3059 8.98 78 08:42 21.10.2020
6517 Clouds -1 1004 94 2695 8.62 81 08:24 21.10.2020
6518 Clouds -1 1004 94 2695 8.62 81 07:58 21.10.2020
6519 Clouds -1 1004 95 1341 8.45 84 07:29 21.10.2020
6520 Clouds -1 1004 95 1341 8.45 84 06:50 21.10.2020
6521 Clouds -2 1004 95 2617 8.77 86 06:26 21.10.2020
6522 Clouds -2 1004 95 1972 9.24 84 04:46 21.10.2020
6523 Clouds -3 1003 96 2531 5.66 100 00:50 21.10.2020
6524 Clouds -4 1003 96 10000 5 120 23:42 20.10.2020
6525 Clouds -3 1002 96 9804 6.2 115 22:52 20.10.2020
6526 Clouds -4 1002 96 10000 3.65 122 22:27 20.10.2020
6527 Clouds -4 1002 96 10000 3.65 122 22:27 20.10.2020
6528 Clouds -4 1002 96 10000 3.65 122 21:48 20.10.2020
6529 Clouds -3 1003 95 10000 4.02 132 21:20 20.10.2020
6530 Clouds -3 1003 95 10000 4.02 132 20:44 20.10.2020
6531 Clouds -1 1003 96 4878 5.08 108 20:25 20.10.2020
6532 Clouds -1 1003 96 4878 5.08 108 20:25 20.10.2020
6533 Clouds -1 1003 96 4878 5.08 108 20:25 20.10.2020
6534 Clouds -1 1003 98 360 7.69 72 19:57 20.10.2020
6535 Clouds -1 1003 98 360 7.69 72 19:39 20.10.2020
6536 Clouds -1 1003 97 887 8.53 53 19:21 20.10.2020
6537 Clouds -1 1003 97 887 8.53 53 18:46 20.10.2020
6538 Clouds -1 1004 95 3951 7.11 62 18:26 20.10.2020
6539 Clouds -1 1004 95 3951 7.11 62 17:43 20.10.2020
6540 Clouds -2 1003 95 2167 6.6 66 17:24 20.10.2020
6541 Clouds -2 1003 95 2167 6.6 66 16:48 20.10.2020
6542 Clouds -2 1003 95 1690 6.52 64 16:26 20.10.2020
6543 Clouds -2 1003 95 1690 6.52 64 15:50 20.10.2020
6544 Clouds -2 1003 95 1690 6.52 64 15:32 20.10.2020
6545 Clouds -2 1004 95 2198 6.77 63 14:56 20.10.2020
6546 Clouds -2 1004 95 2198 6.77 63 14:37 20.10.2020
6547 Clouds -2 1004 95 1844 6.99 62 14:19 20.10.2020
6548 Snow -2 1004 95 1273 6.43 63 13:42 20.10.2020
6549 Clouds -2 1004 95 2027 6.16 61 13:22 20.10.2020
6550 Clouds -2 1004 95 2027 6.16 61 12:54 20.10.2020
6551 Clouds -2 1004 95 2027 6.16 61 12:36 20.10.2020
6552 Clouds -3 1004 95 5184 5.74 64 12:18 20.10.2020
6553 Clouds -3 1004 95 5184 5.74 64 11:36 20.10.2020
6554 Clouds -2 1004 94 8036 6.25 66 11:18 20.10.2020
6555 Clouds -2 1003 95 2189 6.69 60 10:29 20.10.2020
6556 Clouds -2 1003 95 2189 6.69 60 09:50 20.10.2020
6557 Clouds -2 1003 96 1437 5.81 59 09:21 20.10.2020
6558 Clouds -2 1003 96 1437 5.81 59 08:58 20.10.2020
6559 Clouds -2 1003 96 1437 5.81 59 08:31 20.10.2020
6560 Clouds -2 1004 95 3729 5.74 59 07:51 20.10.2020
6561 Clouds -2 1004 94 10000 5.97 49 07:25 20.10.2020
6562 Clouds -1 1004 94 10000 6.82 50 06:29 20.10.2020
6563 Clouds -1 1004 96 1420 6.6 59 05:22 20.10.2020
6564 Clouds 0 1004 97 437 5.69 17 02:44 20.10.2020
6565 Clouds 0 1004 95 3493 5.49 13 02:18 20.10.2020
6566 Clouds 0 1004 95 2663 5.86 17 00:57 20.10.2020
6567 Clouds 0 1004 95 2663 5.86 17 00:39 20.10.2020
6568 Clouds 0 1004 93 5357 5.55 18 00:19 20.10.2020
6569 Clouds 0 1004 93 5357 5.55 18 23:40 19.10.2020
6570 Clouds 0 1004 92 5271 5.18 18 23:19 19.10.2020
6571 Clouds 0 1004 92 5271 5.18 18 22:42 19.10.2020
6572 Clouds 0 1004 91 5880 4.78 18 22:20 19.10.2020
6573 Clouds 0 1004 91 5880 4.78 18 21:42 19.10.2020
6574 Clouds 0 1004 93 10000 3.79 17 21:20 19.10.2020
6575 Clouds 0 1004 93 10000 3.79 17 20:45 19.10.2020
6576 Clouds 0 1005 96 2078 3.86 19 20:27 19.10.2020
6577 Clouds 0 1005 95 1671 4 28 19:47 19.10.2020
6578 Clouds 0 1005 97 608 4.27 31 19:22 19.10.2020
6579 Clouds 0 1005 97 608 4.27 31 18:53 19.10.2020
6580 Clouds 0 1005 97 608 4.27 31 18:33 19.10.2020
6581 Clouds -1 1005 97 385 4.52 34 17:57 19.10.2020
6582 Clouds -1 1005 97 385 4.52 34 17:39 19.10.2020
6583 Clouds -1 1005 97 573 4.3 33 17:20 19.10.2020
6584 Clouds -1 1005 97 573 4.3 33 16:42 19.10.2020
6585 Clouds -1 1005 95 1123 3.55 28 16:21 19.10.2020
6586 Clouds -1 1005 95 1123 3.55 28 15:40 19.10.2020
6587 Clouds -1 1005 94 2021 2.58 19 15:22 19.10.2020
6588 Clouds -1 1005 94 2021 2.58 19 14:50 19.10.2020
6589 Clouds -2 1006 93 10000 1.94 10 14:24 19.10.2020
6590 Clouds 0 1006 93 3823 4.31 12 13:49 19.10.2020
6591 Clouds 0 1006 93 3823 4.31 12 13:31 19.10.2020
6592 Clouds 0 1006 94 3470 3.77 13 12:49 19.10.2020
6593 Clouds 0 1006 94 3470 3.77 13 12:31 19.10.2020
6594 Clouds -1 1006 93 6498 3.63 360 11:51 19.10.2020
6595 Clouds -1 1006 91 10000 3.1 2 11:25 19.10.2020
6596 Clouds -1 1006 91 10000 3.1 2 10:56 19.10.2020
6597 Clouds -1 1006 91 10000 3.1 2 10:36 19.10.2020
6598 Clouds -1 1005 90 10000 2.46 24 10:18 19.10.2020
6599 Clouds -1 1005 90 10000 2.46 24 09:42 19.10.2020
6600 Clouds -1 1005 90 10000 2.82 44 09:18 19.10.2020
6601 Clouds -1 1005 90 10000 2.82 44 08:47 19.10.2020
6602 Clouds -1 1006 91 10000 3.37 48 08:21 19.10.2020
6603 Clouds -1 1006 90 10000 3.35 43 07:22 19.10.2020
6604 Clouds -1 1006 90 10000 3.35 43 06:51 19.10.2020
6605 Clouds -1 1006 91 10000 4.01 51 06:18 19.10.2020
6606 Clouds -1 1006 93 10000 2.81 53 03:47 19.10.2020
6607 Clouds -2 1007 96 2067 3.81 269 01:59 19.10.2020
6608 Clouds -2 1007 96 1187 4.14 272 00:44 19.10.2020
6609 Clouds -2 1006 96 5233 4.32 273 23:59 18.10.2020
6610 Clouds -2 1006 96 5233 4.32 273 23:41 18.10.2020
6611 Clouds -2 1006 94 10000 4.13 275 23:21 18.10.2020
6612 Clouds -2 1006 94 10000 4.13 275 22:45 18.10.2020
6613 Clouds -2 1006 92 10000 3.3 285 22:20 18.10.2020
6614 Clouds -2 1006 92 10000 3.3 285 21:50 18.10.2020
6615 Clouds -1 1006 91 10000 2.92 312 21:29 18.10.2020
6616 Clouds -1 1006 91 10000 2.92 312 20:47 18.10.2020
6617 Clouds -1 1006 91 10000 3.58 328 20:25 18.10.2020
6618 Clouds -1 1006 91 10000 3.58 328 19:57 18.10.2020
6619 Clouds -1 1006 90 10000 3.7 336 19:39 18.10.2020
6620 Clouds -1 1006 90 10000 4.34 342 19:19 18.10.2020
6621 Clouds -1 1006 90 10000 4.34 342 18:46 18.10.2020
6622 Clouds -1 1006 90 10000 4.85 344 18:24 18.10.2020
6623 Clouds -1 1006 90 10000 4.85 344 17:41 18.10.2020
6624 Clouds -1 1006 92 5369 4.94 347 17:22 18.10.2020
6625 Clouds -1 1006 92 5369 4.94 347 16:44 18.10.2020
6626 Clouds -1 1006 92 4270 4.5 347 16:26 18.10.2020
6627 Clouds -1 1006 92 4270 4.5 347 15:55 18.10.2020
6628 Clouds -1 1006 92 4270 4.5 347 15:36 18.10.2020
6629 Clouds -1 1006 92 5471 4.36 350 15:18 18.10.2020
6630 Clouds -1 1006 92 5471 4.36 350 14:43 18.10.2020
6631 Clouds -1 1006 92 6168 4.37 357 14:25 18.10.2020
6632 Clouds -1 1005 93 4033 4.18 347 13:45 18.10.2020
6633 Clouds -1 1004 93 5593 4.22 353 13:26 18.10.2020
6634 Clouds -1 1004 93 5593 4.22 353 12:57 18.10.2020
6635 Clouds -1 1004 93 5593 4.22 353 12:39 18.10.2020
6636 Clouds -1 1004 93 7014 4.58 354